<<back to data home page
READY FOR RAIN THIS WINTER? Stay in touch AND help the station - DONATE ANY AMOUNT BY CLICKING THIS LINK!!!


    Month/Day/Year       Maximum   Minimum    Rel    Dew       Rainfall  Seasonal  Soil     Soil      Baro       Wind    Wind        Peak    Peak Gust  Evap     Leaf     Net
    and                  Air Temp  Air Temp   Hum    Point     Inches    Rainfall  Temp     Moisture  Pressure   Speed   Direction   Gust    Direction  Pan      Wetness  Radiation
    Local Time           Deg F     Deg F      %      Deg F               Inches    Deg F    dS/m      mbar       knots   comp deg    knots   comp deg   Inches   mV       W_m2
----------------------------------------------------------------------------------------------------------------------------------------------------------------------------------
   02/27/2017 01:00      48.5      48.2       78     41.8      0.00     17.93      56.6     0.48      1014.0     1        51         1        61        9.16     441      -13.6
   02/27/2017 00:50      48.5      48.2       78     41.9      0.00     17.93      56.5     0.48      1014.0     1        96         2       107        9.16     441      -13.3
   02/27/2017 00:40      48.4      48.2       78     41.9      0.00     17.93      56.4     0.48      1014.0     2        89         2       132        9.16     440      -13.0
   02/27/2017 00:30      48.2      47.9       79     42.0      0.00     17.93      56.0     0.48      1014.0     3       118         5       138        9.16     440      -13.6
   02/27/2017 00:20      48.1      47.9       79     42.0      0.00     17.93      56.5     0.48      1014.0     2       112         2       111        9.16     439      -11.6
   02/27/2017 00:10      48.2      47.9       79     41.9      0.00     17.93      56.6     0.48      1014.0     1        85         1        84        9.16     438      -14.4
   02/27/2017 00:00      48.0      47.9       79     42.0      0.00     17.93      56.4     0.48      1014.0     2        94         3       122        9.16     438      -21.7
   02/26/2017 23:50      48.1      47.8       80     42.0      0.00     17.93      56.4     0.48      1014.0     2       136         3       143        9.16     437      -14.6
   02/26/2017 23:40      47.9      47.6       81     42.1      0.00     17.93      56.5     0.48      1014.0     3       143         4       140        9.16     437      -15.0
   02/26/2017 23:30      47.6      47.3       82     42.2      0.00     17.93      56.5     0.48      1014.0     3       143         4       167        9.16     438      -21.7
   02/26/2017 23:20      47.4      46.7       83     42.3      0.00     17.93      56.8     0.48      1014.0     2       145         3       161        9.16     436      -15.9
   02/26/2017 23:10      46.6      45.9       87     42.5      0.00     17.93      56.7     0.48      1014.0     2       112         4       124        9.16     436      -12.6
   02/26/2017 23:00      45.9      45.5       88     42.3      0.00     17.93      56.5     0.48      1014.0     1        96         2        59        9.16     435      -11.6
   02/26/2017 22:50      45.7      45.1       88     42.1      0.00     17.93      56.8     0.48      1014.0     1       121         2        96        9.16     435      -22.1
   02/26/2017 22:40      45.1      44.9       88     41.6      0.00     17.93      56.4     0.48      1014.0     1       118         2       139        9.16     435      -11.6
   02/26/2017 22:30      45.1      44.6       87     41.2      0.00     17.93      56.5     0.48      1014.0     1       115         1       102        9.16     434      -27.1
   02/26/2017 22:20      45.9      45.2       85     41.2      0.00     17.93      56.6     0.48      1014.0     1       110         1        86        9.16     432      -65.3
   02/26/2017 22:10      46.3      45.9       83     41.4      0.00     17.93      57.0     0.48      1014.0     1        48         1        99        9.16     430      -58.2
   02/26/2017 22:00      47.1      46.5       82     41.5      0.00     17.93      56.4     0.48      1014.0     2        80         3        72        9.16     427      -65.4
   02/26/2017 21:50      47.5      47.3       80     41.6      0.00     17.93      56.8     0.48      1014.0     2       155         3       178        9.16     425      -71.9
   02/26/2017 21:40      47.9      47.5       80     41.8      0.00     17.93      56.6     0.48      1014.0     3       173         4       164        9.16     422      -67.2
   02/26/2017 21:30      47.4      45.9       86     42.4      0.00     17.93      56.6     0.48      1014.0     3       163         5       158        9.16     420      -29.9
   02/26/2017 21:20      46.0      45.2       88     42.2      0.00     17.93      56.6     0.48      1014.0     2       164         2       177        9.16     422      -14.5
   02/26/2017 21:10      45.2      45.1       87     41.6      0.00     17.93      56.8     0.48      1014.0     1       160         2       152        9.16     424      -33.1
   02/26/2017 21:00      46.0      45.1       85     41.5      0.00     17.93      57.0     0.48      1014.0     1       202         2       193        9.16     422      -43.6
   02/26/2017 20:50      46.0      45.5       86     41.8      0.00     17.93      56.7     0.48      1014.0     1       132         2        86        9.16     419      -64.5
   02/26/2017 20:40      45.9      45.6       86     41.8      0.00     17.93      56.8     0.48      1014.0     1        92         2        79        9.16     416      -67.5
   02/26/2017 20:30      46.5      46.0       84     41.6      0.00     17.93      56.5     0.48      1014.0     2       163         3       200        9.16     411      -69.0
   02/26/2017 20:20      47.0      46.5       83     41.9      0.00     17.93      56.8     0.48      1014.0     1       321         1       189        9.16     408      -70.9
   02/26/2017 20:10      47.1      46.9       83     42.0      0.00     17.93      56.4     0.48      1014.0     1       290         2       228        9.16     403      -45.3
   02/26/2017 20:00      47.4      46.9       81     41.7      0.00     17.93      56.6     0.48      1014.0     1       276         2       262        9.16     401      -38.0
   02/26/2017 19:50      47.9      47.4       80     41.6      0.00     17.93      56.8     0.48      1014.0     1        54         1       173        9.16     397      -66.5
   02/26/2017 19:40      48.0      47.7       79     41.7      0.00     17.93      56.2     0.48      1014.0     1       101         2       137        9.16     393      -65.8
   02/26/2017 19:30      48.3      48.2       79     41.9      0.00     17.93      56.7     0.48      1014.0     1       104         2       124        9.16     389      -52.4
   02/26/2017 19:20      48.3      47.9       79     41.8      0.00     17.93      56.6     0.48      1014.0     2       130         5       128        9.16     385      -37.2
   02/26/2017 19:10      48.0      47.8       79     41.6      0.00     17.93      56.4     0.48      1014.0     2       150         2       170        9.16     382      -26.8
   02/26/2017 19:00      47.8      47.5       81     42.0      0.00     17.93      56.7     0.48      1014.0     2        69         4        78        9.16     379      -61.0
   02/26/2017 18:50      47.7      47.4       82     42.3      0.00     17.93      56.7     0.48      1014.0     1        76         1        91        9.16     374      -52.5
   02/26/2017 18:40      47.8      47.5       82     42.3      0.00     17.93      56.5     0.48      1014.0     1        89         2       119        9.16     370      -43.4
   02/26/2017 18:30      48.3      47.8       80     42.1      0.00     17.93      56.3     0.48      1014.0     1       218         1       214        9.16     366      -44.0
   02/26/2017 18:20      48.4      48.3       79     42.2      0.00     17.93      56.5     0.48      1014.0     1       164         2       165        9.16     361      -63.3
   02/26/2017 18:10      48.7      48.3       80     42.5      0.00     17.93      56.6     0.48      1014.0     1       176         2       157        9.16     355      -52.8
   02/26/2017 18:00      49.0      48.7       79     42.7      0.00     17.93      56.3     0.48      1014.0     2       190         2       198        9.16     349      -64.7
   02/26/2017 17:50      49.5      49.1       78     42.8      0.00     17.93      56.1     0.48      1013.0     1       168         2       153        9.16     342      -73.6
   02/26/2017 17:40      49.6      49.5       78     42.9      0.00     17.93      56.6     0.48      1013.0     2       149         3       187        9.16     334      -62.7
   02/26/2017 17:30      49.9      49.6       77     42.9      0.00     17.93      56.6     0.48      1013.0     4       173         6       158        9.16     328      -46.7
   02/26/2017 17:20      50.5      49.9       77     43.2      0.00     17.93      56.1     0.48      1014.0     4       182         6       171        9.16     322      -41.1
   02/26/2017 17:10      51.2      50.7       76     43.4      0.00     17.93      56.3     0.48      1014.0     4       196         5       214        9.16     317       14.3
   02/26/2017 17:00      51.0      50.2       76     43.5      0.00     17.93      56.4     0.48      1013.0     4       179         5       159        9.16     315       28.4
   02/26/2017 16:50      50.7      50.4       76     43.5      0.00     17.93      56.4     0.48      1013.0     4       177         6       154        9.16     313      -35.4
   02/26/2017 16:40      50.9      50.7       75     43.3      0.00     17.93      56.4     0.48      1013.0     5       163         7       169        9.16     308      -21.6
   02/26/2017 16:30      51.2      51.0       76     43.6      0.00     17.93      56.4     0.48      1013.0     3       164         6       164        9.16     304       11.1
   02/26/2017 16:20      51.6      51.4       75     43.7      0.00     17.93      56.3     0.48      1013.0     4       158         5       144        9.16     301       34.8
   02/26/2017 16:10      52.4      51.6       74     43.9      0.00     17.93      56.2     0.48      1013.0     5       161         7       152        9.16     299       35.9
   02/26/2017 16:00      52.9      52.2       72     43.7      0.00     17.93      56.2     0.48      1013.0     4       183         7       152        9.16     298       87.8
   02/26/2017 15:50      52.7      52.3       69     42.8      0.00     17.93      56.2     0.48      1013.0     4       153         6       152        9.16     299       85.8
   02/26/2017 15:40      52.9      52.5       68     42.5      0.00     17.93      56.1     0.48      1013.0     3       149         4       170        9.16     299       92.3
   02/26/2017 15:30      52.7      52.5       68     42.4      0.00     17.93      55.9     0.48      1013.0     5       140         8       117        9.17     300      112.7
   02/26/2017 15:20      52.8      52.4       67     41.9      0.00     17.93      56.0     0.48      1013.0     5       160         7       132        9.17     301       71.7
   02/26/2017 15:10      53.6      52.8       65     42.1      0.00     17.93      56.1     0.48      1013.0     5       126         8       127        9.17     301       85.9
   02/26/2017 15:00      53.6      53.3       64     41.5      0.00     17.93      56.3     0.48      1013.0     4       109         6        60        9.17     301      106.3
   02/26/2017 14:50      54.9      53.8       62     41.8      0.00     17.93      56.2     0.48      1013.0     5       112         7        67        9.17     302      155.8
   02/26/2017 14:40      55.2      54.1       62     41.9      0.00     17.93      56.1     0.48      1013.0     5       109         8       141        9.17     305      403.0
   02/26/2017 14:30      54.3      53.1       65     42.2      0.00     17.93      56.2     0.48      1013.0     5       119         7       132        9.17     312      221.8
   02/26/2017 14:20      53.2      53.1       66     42.0      0.00     17.93      56.0     0.48      1013.0     4       149         7       142        9.16     316      106.8
   02/26/2017 14:10      53.7      53.5       65     42.1      0.00     17.93      56.0     0.48      1014.0     5       154         7       153        9.17     318      135.4
   02/26/2017 14:00      53.6      52.9       66     42.1      0.00     17.93      55.8     0.48      1014.0     5       137         7       158        9.17     322      181.6
   02/26/2017 13:50      53.6      53.0       65     41.9      0.00     17.93      55.9     0.48      1014.0     5       144         7       164        9.17     326       67.1
   02/26/2017 13:40      54.8      53.6       62     41.5      0.00     17.93      55.6     0.48      1014.0     5       127         7       113        9.17     329      147.9
   02/26/2017 13:30      54.6      53.8       63     41.6      0.00     17.93      55.7     0.48      1014.0     5       129         9       140        9.17     334      359.4
   02/26/2017 13:20      54.2      53.7       63     41.9      0.00     17.93      55.6     0.48      1014.0     4       111         6       129        9.17     344      150.1
   02/26/2017 13:10      54.5      54.1       61     41.3      0.00     17.93      55.9     0.48      1014.0     6        96         8        98        9.17     348      329.8
   02/26/2017 13:00      55.5      53.9       61     41.5      0.00     17.93      56.0     0.48      1014.0     5       109         8        88        9.17     355      327.0
   02/26/2017 12:50      55.7      54.3       62     42.3      0.00     17.93      56.0     0.48      1014.0     4       118         7       135        9.17     361      650.7
   02/26/2017 12:40      54.7      53.5       64     42.1      0.00     17.93      55.5     0.48      1014.0     4        93         6        71        9.17     373      434.0
   02/26/2017 12:30      54.1      53.2       65     42.2      0.00     17.93      56.0     0.48      1015.0     5       122         7       135        9.16     382      491.6
   02/26/2017 12:20      53.6      53.0       66     42.1      0.00     17.93      55.5     0.48      1015.0     5        88         8        74        9.17     390      374.1
   02/26/2017 12:10      53.5      51.9       68     42.4      0.00     17.93      55.5     0.48      1015.0     3        69         4        87        9.16     395      369.1
   02/26/2017 12:00      51.9      51.2       69     41.8      0.00     17.93      56.0     0.48      1015.0     4        77         5        88        9.17     401      205.6
   02/26/2017 11:50      51.4      50.8       70     41.5      0.00     17.93      55.8     0.48      1015.0     3       100         7       157        9.17     403      180.0
   02/26/2017 11:40      51.8      51.0       70     42.0      0.00     17.93      55.9     0.48      1015.0     3        67         7        67        9.17     405      100.0
   02/26/2017 11:30      51.5      51.2       72     42.7      0.00     17.93      56.0     0.48      1016.0     3        15         4        12        9.16     405      152.5
   02/26/2017 11:20      51.2      50.3       74     42.7      0.00     17.93      55.9     0.48      1016.0     4        19         6         1        9.16     407      214.8
   02/26/2017 11:10      50.5      49.8       75     42.5      0.00     17.93      56.0     0.48      1016.0     3         5         4         2        9.16     410      206.0
   02/26/2017 11:00      50.2      49.7       74     42.0      0.00     17.93      55.8     0.48      1016.0     4        26         7         0        9.16     413      130.0
   02/26/2017 10:50      50.4      49.6       73     41.9      0.00     17.93      55.7     0.48      1016.0     2        23         4       359        9.16     413      122.0
   02/26/2017 10:40      49.9      49.6       74     41.9      0.00     17.93      55.7     0.48      1016.0     2       348         4       337        9.16     413      146.1
   02/26/2017 10:30      49.5      49.1       76     42.1      0.00     17.93      55.5     0.48      1016.0     4       344         6       330        9.16     414      162.3
   02/26/2017 10:20      49.4      49.1       76     42.2      0.00     17.93      55.7     0.48      1016.0     4       343         6       318        9.16     415      199.6
   02/26/2017 10:10      49.9      49.5       75     42.1      0.00     17.93      55.8     0.48      1016.0     3         3         6       358        9.16     417      279.9
   02/26/2017 10:00      49.5      48.8       77     42.2      0.00     17.93      55.7     0.48      1016.0     3         6         4       326        9.16     420      412.9
   02/26/2017 09:50      48.6      47.9       80     42.3      0.00     17.93      55.7     0.48      1016.0     3       355         5       335        9.16     425      369.6
   02/26/2017 09:40      48.1      47.7       79     41.9      0.01     17.93      56.1     0.48      1016.0     2        21         4         1        9.16     432      216.1
   02/26/2017 09:30      48.1      47.4       80     41.8      0.00     17.92      56.0     0.48      1016.0     2        31         3       357        9.16     434      147.0
   02/26/2017 09:20      47.5      46.9       82     42.0      0.00     17.92      55.7     0.48      1016.0     2        23         3        18        9.16     434      186.2
   02/26/2017 09:10      47.2      46.7       84     42.2      0.00     17.92      55.8     0.48      1016.0     2        34         3        78        9.16     436      178.4
   02/26/2017 09:00      46.7      46.3       84     42.0      0.00     17.92      55.6     0.48      1016.0     2        25         4       356        9.16     438      146.9
   02/26/2017 08:50      46.6      46.3       85     42.2      0.00     17.92      56.0     0.48      1016.0     2        10         3         4        9.16     438      124.9
   02/26/2017 08:40      46.6      46.1       85     42.2      0.00     17.92      55.7     0.48      1016.0     2         6         3       359        9.15     438      122.2
   02/26/2017 08:30      46.4      45.9       87     42.3      0.00     17.92      55.7     0.48      1016.0     2       352         4       351        9.15     438      145.0
   02/26/2017 08:20      46.1      45.4       88     42.2      0.00     17.92      55.7     0.48      1016.0     2       308         3       308        9.15     441      153.1
   02/26/2017 08:10      45.5      45.4       88     42.2      0.00     17.92      56.0     0.48      1016.0     2       325         3       329        9.16     444      156.8
   02/26/2017 08:00      45.6      45.1       89     42.3      0.00     17.92      56.1     0.48      1016.0     1       118         2       115        9.15     447       85.7
   02/26/2017 07:50      45.5      44.8       92     43.1      0.00     17.92      56.0     0.48      1015.0     1         4         2        68        9.15     448      116.5
   02/26/2017 07:40      44.9      44.3       93     42.7      0.00     17.92      55.4     0.48      1015.0     1        11         2         4        9.15     450       93.2
   02/26/2017 07:30      44.5      44.0       93     42.3      0.00     17.92      55.9     0.48      1015.0     1        48         1        31        9.15     449       37.0
   02/26/2017 07:20      44.1      43.7       93     42.1      0.00     17.92      56.2     0.48      1015.0     1        59         1        80        9.15     447       20.4
   02/26/2017 07:10      43.8      43.4       93     41.7      0.00     17.92      55.9     0.48      1015.0     0        69         1       161        9.15     447       18.3
   02/26/2017 07:00      43.7      43.5       93     41.6      0.00     17.92      55.9     0.48      1015.0     0       127         1       160        9.15     447        6.2
   02/26/2017 06:50      43.7      43.5       93     41.7      0.00     17.92      55.9     0.48      1015.0     0        59         1        61        9.15     445        3.7
   02/26/2017 06:40      43.8      43.7       93     41.7      0.00     17.92      56.0     0.48      1015.0     1        97         1        86        9.15     444       -2.1
   02/26/2017 06:30      43.8      43.7       92     41.7      0.01     17.92      55.8     0.48      1015.0     1       122         2       115        9.14     443       -4.8
   02/26/2017 06:20      43.9      43.5       92     41.6      0.00     17.91      56.1     0.48      1015.0     1       122         1       257        9.14     442       -6.5
   02/26/2017 06:10      43.8      43.5       93     41.6      0.01     17.91      56.0     0.48      1015.0     1       285         1       323        9.14     440       -6.9
   02/26/2017 06:00      43.8      43.5       93     41.7      0.00     17.90      56.1     0.48      1015.0     1       334         2       331        9.14     437       -6.8
   02/26/2017 05:50      43.8      43.5       93     41.7      0.00     17.90      56.5     0.48      1015.0     1        32         2       338        9.14     436       -6.2
   02/26/2017 05:40      44.0      43.5       93     41.6      0.00     17.90      56.1     0.48      1015.0     1        43         1        61        9.14     430       -6.8
   02/26/2017 05:30      43.8      43.4       93     41.5      0.01     17.90      56.5     0.48      1015.0     1         6         1        57        9.14     425       -6.9
   02/26/2017 05:20      43.5      43.4       92     41.4      0.00     17.89      56.1     0.48      1015.0     1        27         2        20        9.13     424       -6.9
   02/26/2017 05:10      43.5      43.2       92     41.3      0.01     17.89      56.0     0.48      1015.0     1       293         1       194        9.13     424       -7.0
   02/26/2017 05:00      43.7      43.4       92     41.3      0.00     17.88      55.9     0.48      1015.0     1        67         1        23        9.13     424       -7.0
   02/26/2017 04:50      43.6      43.4       92     41.3      0.00     17.88      56.1     0.48      1015.0     1       114         1       122        9.13     424       -6.8
   02/26/2017 04:40      43.5      43.4       91     41.1      0.00     17.88      56.0     0.48      1015.0     1       143         1       176        9.13     419       -6.9
   02/26/2017 04:30      43.8      43.3       90     40.9      0.00     17.88      56.0     0.48      1015.0     0       126         1       106        9.13     414       -7.2
   02/26/2017 04:20      43.7      43.5       90     40.7      0.01     17.88      56.3     0.48      1015.0     0        83         1        69        9.13     411       -7.5
   02/26/2017 04:10      44.0      43.8       88     40.5      0.01     17.87      56.1     0.48      1015.0     1        38         1        48        9.13     413       -7.1
   02/26/2017 04:00      44.2      44.0       87     40.4      0.01     17.86      56.1     0.48      1015.0     1       324         1       250        9.13     409       -7.4
   02/26/2017 03:50      44.5      44.0       88     41.0      0.01     17.85      56.4     0.48      1015.0     2       281         4       266        9.13     404       -7.1
   02/26/2017 03:40      44.9      44.6       89     41.8      0.00     17.84      57.0     0.48      1015.0     1       309         3       308        9.13     404       -5.9
   02/26/2017 03:30      44.9      44.7       89     41.7      0.01     17.84      56.0     0.48      1015.0     1       313         1       314        9.13     402       -5.9
   02/26/2017 03:20      45.0      44.9       87     41.5      0.01     17.83      56.3     0.48      1015.0     1       185         1       262        9.13     394       -6.0
   02/26/2017 03:10      45.4      45.0       86     41.0      0.02     17.82      56.5     0.48      1015.0     1       208         2       212        9.13     390       -6.1
   02/26/2017 03:00      45.5      45.3       83     40.6      0.01     17.80      56.9     0.48      1015.0     2       237         4       206        9.13     388       -7.5
   02/26/2017 02:50      45.5      45.2       82     40.3      0.00     17.79      56.8     0.48      1015.0     4       217         5       211        9.13     386       -9.3
   02/26/2017 02:40      45.6      45.2       80     39.6      0.00     17.79      56.7     0.48      1015.0     4       199         6       210        9.13     379      -12.3
   02/26/2017 02:30      45.1      43.9       82     39.1      0.00     17.79      56.4     0.48      1015.0     2       212         4       210        9.13     376      -14.3
   02/26/2017 02:20      44.0      43.7       82     38.6      0.00     17.79      56.5     0.48      1015.0     0       118         1       141        9.13     374      -15.7
   02/26/2017 02:10      44.0      43.7       81     38.4      0.00     17.79      56.4     0.48      1015.0     1       135         1        83        9.13     373      -16.6
   02/26/2017 02:00      44.0      43.7       80     38.1      0.00     17.79      56.3     0.48      1015.0     1       142         1        97        9.13     373      -17.4
   02/26/2017 01:50      43.7      43.0       82     38.1      0.00     17.79      56.8     0.48      1015.0     1       221         1       239        9.13     372      -18.6
   02/26/2017 01:40      43.2      43.1       82     38.0      0.00     17.79      56.4     0.48      1015.0     0       113         1        85        9.14     372      -19.9
   02/26/2017 01:30      43.4      43.1       81     37.8      0.00     17.79      56.6     0.48      1016.0     0        72         1        44        9.14     372      -21.3
   02/26/2017 01:20      43.4      43.1       81     37.7      0.00     17.79      56.8     0.48      1016.0     1       203         2       240        9.14     370      -22.0
   02/26/2017 01:10      43.2      43.0       81     37.7      0.00     17.79      56.6     0.48      1016.0     1       221         2       232        9.14     369      -43.2
   02/26/2017 01:00      43.4      43.0       80     37.6      0.00     17.79      56.6     0.48      1015.0     1       155         2       297        9.14     368      -30.8
   02/26/2017 00:50      43.0      42.2       83     37.7      0.00     17.79      56.1     0.48      1016.0     2       274         4       258        9.14     367      -34.0
   02/26/2017 00:40      42.5      42.2       83     37.7      0.00     17.79      56.9     0.48      1015.0     2        83         2        72        9.14     366      -42.3
   02/26/2017 00:30      42.3      42.2       83     37.4      0.00     17.79      56.8     0.48      1016.0     1       147         2       124        9.14     365      -30.2
   02/26/2017 00:20      42.3      41.9       83     37.3      0.00     17.79      57.1     0.48      1016.0     1       239         1       259        9.14     365      -29.0
   02/26/2017 00:10      41.9      41.7       83     37.1      0.00     17.79      56.8     0.48      1016.0     1       176         1       141        9.14     364      -24.7
   02/26/2017 00:00      41.9      40.9       84     37.0      0.00     17.79      56.8     0.48      1016.0     1       212         2       215        9.15     364      -30.0
   02/25/2017 23:50      41.2      41.0       85     36.9      0.00     17.79      56.9     0.48      1016.0     2       183         2       249        9.15     363      -42.4
   02/25/2017 23:40      40.9      40.5       85     36.5      0.00     17.79      56.5     0.48      1016.0     2       166         3       138        9.15     361      -51.8
   02/25/2017 23:30      41.3      40.9       84     36.7      0.00     17.79      56.8     0.48      1016.0     1       216         3       138        9.15     358      -58.9
   02/25/2017 23:20      41.0      40.8       85     36.6      0.00     17.79      57.0     0.48      1016.0     1       333         1       322        9.15     355      -61.2
   02/25/2017 23:10      41.6      41.0       83     36.4      0.00     17.79      56.7     0.48      1016.0     1       154         1       126        9.15     351      -65.4
   02/25/2017 23:00      41.7      41.5       83     36.8      0.00     17.79      56.8     0.48      1016.0     1       268         1       277        9.15     348      -66.3
   02/25/2017 22:50      41.8      41.4       83     36.7      0.00     17.79      56.7     0.48      1016.0     1       154         2       131        9.15     344      -67.6
   02/25/2017 22:40      42.3      42.1       81     36.9      0.00     17.79      56.9     0.48      1016.0     1       224         2       244        9.15     341      -68.5
   02/25/2017 22:30      42.3      42.2       82     37.0      0.00     17.79      57.1     0.48      1016.0     1       157         1       153        9.15     338      -69.1
   02/25/2017 22:20      42.6      42.2       81     37.0      0.00     17.79      56.3     0.48      1016.0     1        54         1       113        9.15     336      -71.3
   02/25/2017 22:10      43.4      42.7       80     37.3      0.00     17.79      56.7     0.48      1016.0     2       159         3       162        9.15     334      -71.4
   02/25/2017 22:00      44.6      43.2       78     37.2      0.00     17.79      56.9     0.48      1016.0     3       160         4       144        9.15     330      -70.9
   02/25/2017 21:50      45.6      44.9       73     37.0      0.00     17.79      56.6     0.48      1016.0     3       171         4       175        9.15     326      -70.8
   02/25/2017 21:40      45.1      44.3       75     37.1      0.00     17.79      56.8     0.48      1016.0     3       161         3       169        9.15     322      -71.8
   02/25/2017 21:30      44.9      44.5       75     37.3      0.00     17.79      56.8     0.48      1016.0     3       158         4       157        9.15     318      -73.0
   02/25/2017 21:20      45.4      45.0       74     37.4      0.00     17.79      56.8     0.48      1016.0     3       159         4       161        9.15     315      -73.5
   02/25/2017 21:10      45.5      44.9       73     37.0      0.00     17.79      56.8     0.48      1016.0     2       167         3       156        9.15     312      -73.0
   02/25/2017 21:00      47.4      46.0       67     36.4      0.00     17.79      56.5     0.48      1016.0     2       170         2       183        9.15     308      -73.3
   02/25/2017 20:50      48.1      47.5       64     36.1      0.00     17.79      56.7     0.48      1016.0     2       201         2       181        9.15     304      -72.8
   02/25/2017 20:40      48.0      47.8       64     36.4      0.00     17.79      56.8     0.48      1016.0     2       193         3       193        9.15     301      -73.0
   02/25/2017 20:30      48.9      48.3       64     36.7      0.00     17.79      56.8     0.48      1016.0     2       207         2       192        9.15     298      -75.0
   02/25/2017 20:20      48.9      48.7       63     36.8      0.00     17.79      56.7     0.48      1016.0     2       232         4       242        9.15     295      -58.9
   02/25/2017 20:10      48.9      48.8       63     36.7      0.00     17.79      56.8     0.48      1016.0     1       228         2       233        9.15     293      -46.0
   02/25/2017 20:00      49.4      49.0       62     36.7      0.00     17.79      56.7     0.48      1016.0     2       210         4       211        9.15     291      -41.6
   02/25/2017 19:50      49.7      49.2       62     37.0      0.00     17.79      56.5     0.48      1016.0     3       229         5       218        9.15     290      -40.0
   02/25/2017 19:40      49.8      49.5       63     37.5      0.00     17.79      56.5     0.48      1016.0     5       232         8       227        9.15     288      -37.4
   02/25/2017 19:30      50.4      49.8       66     39.0      0.00     17.79      56.6     0.48      1016.0     5       240         8       237        9.16     287      -37.2
   02/25/2017 19:20      50.7      50.4       70     41.1      0.00     17.79      56.6     0.48      1016.0     5       267         6       271        9.16     286      -40.6
   02/25/2017 19:10      50.8      50.4       72     42.0      0.00     17.79      56.4     0.48      1016.0     3       228         6       258        9.16     285      -38.1
   02/25/2017 19:00      51.2      50.7       72     42.0      0.00     17.79      56.3     0.48      1016.0     4       209         7       191        9.16     284      -36.9
   02/25/2017 18:50      51.3      50.9       71     41.9      0.00     17.79      56.3     0.48      1016.0     5       236         7       240        9.16     283      -36.7
   02/25/2017 18:40      50.9      50.8       70     41.4      0.00     17.79      56.5     0.48      1016.0     2       221         4       229        9.16     282      -36.1
   02/25/2017 18:30      51.4      50.9       68     40.8      0.00     17.79      56.5     0.48      1015.0     4       206         6       215        9.16     282      -35.4
   02/25/2017 18:20      52.1      51.5       62     39.1      0.00     17.79      56.5     0.48      1015.0     4       220         6       215        9.16     280      -36.4
   02/25/2017 18:10      52.1      52.0       59     38.1      0.00     17.79      56.2     0.48      1015.0     4       203         4       200        9.16     280      -36.6
   02/25/2017 18:00      52.6      52.4       60     39.0      0.00     17.79      56.4     0.48      1015.0     3       180         4       165        9.17     279      -33.2
   02/25/2017 17:50      52.7      52.6       62     39.9      0.00     17.79      56.3     0.48      1015.0     3       168         4       163        9.17     279      -30.1
   02/25/2017 17:40      53.4      52.9       61     40.0      0.00     17.79      56.1     0.48      1015.0     4       155         6       160        9.17     278      -27.9
   02/25/2017 17:30      53.6      53.4       61     40.4      0.00     17.79      56.3     0.48      1015.0     2       158         4       133        9.17     278      -26.4
   02/25/2017 17:20      53.8      53.5       61     40.5      0.00     17.79      56.1     0.48      1015.0     4       151         6       125        9.17     278      -22.4
   02/25/2017 17:10      53.8      53.5       60     40.3      0.00     17.79      56.1     0.48      1015.0     4       155         6       152        9.17     277      -18.9
   02/25/2017 17:00      54.1      53.6       60     40.1      0.00     17.79      56.1     0.48      1015.0     4       157         5       151        9.17     277      -13.4
   02/25/2017 16:50      54.4      54.1       58     40.0      0.00     17.79      56.0     0.48      1015.0     3       150         4       134        9.17     277       -3.0
   02/25/2017 16:40      54.7      54.4       57     39.8      0.00     17.79      55.9     0.48      1016.0     3       160         4       155        9.17     277        7.6
   02/25/2017 16:30      55.0      54.7       55     38.9      0.00     17.79      56.1     0.48      1016.0     3       139         4       131        9.17     277        7.1
   02/25/2017 16:20      55.2      54.8       55     39.2      0.00     17.79      56.0     0.48      1016.0     2       151         3       139        9.17     277       29.0
   02/25/2017 16:10      55.0      54.7       55     39.1      0.00     17.79      56.1     0.48      1016.0     3       160         4       165        9.17     277       14.3
   02/25/2017 16:00      55.2      54.9       55     39.1      0.00     17.79      55.9     0.48      1016.0     2       171         5       148        9.17     276       19.7
   02/25/2017 15:50      55.5      55.0       52     38.2      0.00     17.79      56.0     0.48      1016.0     3       166         5       164        9.17     276       24.7
   02/25/2017 15:40      55.6      55.4       52     38.2      0.00     17.79      55.3     0.48      1016.0     4       155         6       162        9.18     276       52.2
   02/25/2017 15:30      55.6      55.2       50     37.0      0.00     17.79      55.9     0.48      1016.0     4       150         5       179        9.18     276       43.7
   02/25/2017 15:20      55.9      55.4       48     36.2      0.00     17.79      55.5     0.48      1016.0     5       177         6       181        9.18     276       50.7
   02/25/2017 15:10      56.1      55.8       48     36.6      0.00     17.79      55.6     0.48      1016.0     4       189         4       171        9.18     276       61.5
   02/25/2017 15:00      56.2      55.9       45     35.2      0.00     17.79      55.5     0.48      1016.0     4       185         5       194        9.18     276       43.8
   02/25/2017 14:50      56.2      56.0       43     33.8      0.00     17.79      55.4     0.48      1016.0     5       179         7       188        9.18     276       49.2
   02/25/2017 14:40      56.5      56.1       41     32.8      0.00     17.79      55.2     0.48      1016.0     5       156         8       167        9.18     275       68.0
   02/25/2017 14:30      56.5      56.2       41     32.9      0.00     17.79      55.2     0.48      1016.0     6       168         8       181        9.18     275       63.4
   02/25/2017 14:20      57.5      56.6       40     33.2      0.00     17.79      55.2     0.48      1016.0     5       151         8       161        9.18     275       73.6
   02/25/2017 14:10      57.7      57.5       41     33.8      0.00     17.79      55.2     0.48      1016.0     7       159         9       160        9.18     275      203.2
   02/25/2017 14:00      57.6      57.0       42     34.2      0.00     17.79      55.2     0.48      1016.0     7       156         9       150        9.18     276      185.8
   02/25/2017 13:50      58.9      57.7       41     34.5      0.00     17.79      55.3     0.48      1017.0     7       161        11       143        9.18     276      186.5
   02/25/2017 13:40      59.6      58.5       39     33.9      0.00     17.79      55.1     0.48      1017.0     7       158         9       122        9.18     277      324.3
   02/25/2017 13:30      59.8      59.1       38     33.9      0.00     17.79      55.3     0.48      1017.0     7       143         8       173        9.18     277      404.8
   02/25/2017 13:20      60.5      59.5       35     32.3      0.00     17.79      55.0     0.48      1017.0     4       128         7       131        9.18     277      354.6
   02/25/2017 13:10      59.6      59.0       36     32.5      0.00     17.79      55.1     0.48      1017.0     4       169         6       155        9.18     278      381.4
   02/25/2017 13:00      59.6      58.9       34     30.9      0.00     17.79      55.1     0.47      1017.0     3       264         5       275        9.18     279      154.4
   02/25/2017 12:50      60.5      59.4       34     31.7      0.00     17.79      55.0     0.47      1018.0     4       255         6       260        9.18     279      313.7
   02/25/2017 12:40      59.9      59.0       36     32.3      0.00     17.79      55.2     0.47      1018.0     4       216         7       216        9.18     281      414.5
   02/25/2017 12:30      59.5      58.6       38     34.0      0.00     17.79      54.7     0.47      1018.0     4       165         8       150        9.18     282      537.6
   02/25/2017 12:20      59.3      58.4       39     34.3      0.00     17.79      54.9     0.47      1018.0     5       180         7       174        9.18     284      456.3
   02/25/2017 12:10      58.8      58.0       41     34.8      0.00     17.79      54.9     0.47      1018.0     5       198         7       201        9.18     286      385.8
   02/25/2017 12:00      59.5      58.9       39     34.5      0.00     17.79      54.9     0.47      1018.0     5       163        10       147        9.18     289      442.5
   02/25/2017 11:50      59.4      58.5       35     31.7      0.00     17.79      55.1     0.47      1018.0     3       118         5        93        9.18     293      404.3
   02/25/2017 11:40      59.4      58.4       36     32.3      0.00     17.79      55.1     0.47      1018.0     4       122         8       132        9.18     296      391.1
   02/25/2017 11:30      59.5      58.8       35     31.3      0.00     17.79      54.6     0.47      1018.0     4        82         6        73        9.18     302      366.9
   02/25/2017 11:20      58.9      58.4       35     31.3      0.00     17.79      55.2     0.47      1018.0     4        60         6        72        9.18     308      398.9
   02/25/2017 11:10      58.7      58.0       38     32.7      0.00     17.79      54.8     0.47      1018.0     4        73         8        69        9.18     316      268.9
   02/25/2017 11:00      58.5      57.9       41     34.7      0.00     17.79      55.1     0.47      1019.0     3        28         5        32        9.19     326      446.7
   02/25/2017 10:50      58.2      57.6       42     34.8      0.00     17.79      55.3     0.47      1019.0     3        42         5        78        9.20     338      423.6
   02/25/2017 10:40      57.5      56.1       43     34.7      0.00     17.79      55.3     0.47      1019.0     3         6         4        28        9.20     351      419.8
   02/25/2017 10:30      56.5      55.9       43     34.2      0.00     17.79      55.2     0.47      1019.0     4         2         7        14        9.20     361      402.5
   02/25/2017 10:20      55.9      55.3       45     34.4      0.00     17.79      55.2     0.47      1019.0     2        61         4        28        9.20     371      406.0
   02/25/2017 10:10      55.4      54.5       45     34.1      0.00     17.79      55.0     0.47      1019.0     2       357         3        28        9.20     379      369.7
   02/25/2017 10:00      55.5      54.5       45     34.1      0.00     17.79      55.4     0.48      1020.0     3        29         4        21        9.20     386      376.6
   02/25/2017 09:50      55.3      53.3       48     34.8      0.00     17.79      55.0     0.48      1020.0     1       357         3         3        9.20     394      362.8
   02/25/2017 09:40      53.8      53.0       48     34.3      0.00     17.79      55.2     0.48      1020.0     1       339         2        16        9.20     404      303.8
   02/25/2017 09:30      53.7      52.5       48     34.0      0.00     17.79      55.4     0.48      1020.0     1        40         2        24        9.20     412      321.2
   02/25/2017 09:20      52.7      51.4       49     33.5      0.00     17.79      55.3     0.48      1020.0     2       333         3       349        9.20     418      333.2
   02/25/2017 09:10      51.1      50.2       50     32.6      0.00     17.79      55.7     0.48      1020.0     2       318         2       337        9.21     425      301.6
   02/25/2017 09:00      50.5      49.8       51     32.5      0.00     17.79      55.1     0.48      1020.0     2       323         3       328        9.21     434      292.6
   02/25/2017 08:50      50.2      49.3       52     32.8      0.00     17.79      55.3     0.48      1020.0     2         3         3       345        9.21     440      297.5
   02/25/2017 08:40      49.4      48.8       55     33.4      0.00     17.79      55.7     0.48      1020.0     1       348         2         1        9.21     447      246.4
   02/25/2017 08:30      48.8      48.3       56     33.8      0.00     17.79      55.4     0.48      1020.0     1       297         2       277        9.21     452      252.1
   02/25/2017 08:20      48.4      46.9       60     34.0      0.00     17.79      55.3     0.48      1020.0     1       294         1       305        9.22     455      251.4
   02/25/2017 08:10      47.0      45.4       62     33.8      0.00     17.79      55.6     0.48      1020.0     1       353         1       342        9.22     457      220.4
   02/25/2017 08:00      45.2      43.4       66     33.6      0.00     17.79      55.8     0.48      1020.0     1       335         1       318        9.22     458      192.1
   02/25/2017 07:50      43.4      41.3       72     33.8      0.00     17.79      55.7     0.48      1020.0     0        52         1        93        9.22     459      130.1
   02/25/2017 07:40      41.3      39.1       78     34.1      0.00     17.79      55.9     0.48      1020.0     0        53         1        28        9.22     461       11.2
   02/25/2017 07:30      38.8      36.5       86     33.6      0.00     17.79      55.8     0.48      1020.0     1       331         1       351        9.22     461       49.0
   02/25/2017 07:20      36.5      35.6       87     32.5      0.00     17.79      55.4     0.48      1020.0     1         6         1       134        9.23     462       31.7
   02/25/2017 07:10      35.6      34.7       89     32.2      0.00     17.79      55.9     0.48      1020.0     2       143         2       140        9.23     462        6.1
   02/25/2017 07:00      34.9      34.2       92     32.3      0.00     17.79      55.7     0.48      1020.0     1       175         2       133        9.23     464        1.6
   02/25/2017 06:50      34.2      33.3       92     31.6      0.00     17.79      55.8     0.48      1020.0     1       173         1       145        9.22     463       -4.1
   02/25/2017 06:40      33.6      33.3       92     31.3      0.00     17.79      55.5     0.48      1020.0     1       133         2       143        9.22     463      -10.4
   02/25/2017 06:30      33.7      33.4       92     31.5      0.00     17.79      55.9     0.48      1020.0     2       176         3       190        9.22     462      -14.4
   02/25/2017 06:20      33.7      33.6       92     31.5      0.00     17.79      56.2     0.48      1019.0     0       129         1       176        9.22     461      -18.8
   02/25/2017 06:10      33.9      33.7       92     31.7      0.00     17.79      56.1     0.48      1020.0     1       167         1       181        9.22     459      -19.5
   02/25/2017 06:00      33.8      33.5       92     31.6      0.00     17.79      56.1     0.48      1020.0     1       182         1       154        9.22     457      -19.6
   02/25/2017 05:50      33.9      33.6       92     31.6      0.00     17.79      56.4     0.48      1020.0     1       141         2       143        9.23     454      -20.2
   02/25/2017 05:40      34.0      33.7       92     31.8      0.00     17.79      56.0     0.48      1020.0     0       184         1       272        9.22     452      -20.6
   02/25/2017 05:30      34.1      33.4       92     31.6      0.00     17.79      55.9     0.48      1020.0     1       184         2       142        9.22     455      -20.8
   02/25/2017 05:20      34.1      33.6       91     31.5      0.00     17.79      56.0     0.48      1020.0     2       137         2       145        9.22     455      -21.8
   02/25/2017 05:10      34.4      34.2       91     32.0      0.00     17.79      56.1     0.48      1020.0     1       163         1       144        9.22     454      -21.3
   02/25/2017 05:00      34.4      33.9       91     31.8      0.00     17.79      56.4     0.48      1020.0     1       197         1       175        9.22     454      -21.8
   02/25/2017 04:50      34.2      33.8       90     31.5      0.00     17.79      56.2     0.48      1019.0     1       132         2       128        9.22     454      -23.0
   02/25/2017 04:40      34.6      34.3       90     31.9      0.00     17.79      56.4     0.48      1019.0     1       165         2       136        9.23     453      -22.7
   02/25/2017 04:30      34.5      34.2       91     31.9      0.00     17.79      56.2     0.48      1019.0     1       170         1       141        9.22     451      -23.1
   02/25/2017 04:20      34.7      34.5       90     31.9      0.00     17.79      56.0     0.48      1019.0     0       119         1       114        9.23     449      -23.9
   02/25/2017 04:10      34.8      34.5       90     32.1      0.00     17.79      56.4     0.48      1019.0     1       169         1       162        9.23     447      -24.4
   02/25/2017 04:00      35.1      34.6       90     32.2      0.00     17.79      56.6     0.48      1019.0     1       118         1       120        9.23     446      -24.8
   02/25/2017 03:50      35.2      34.8       90     32.4      0.00     17.79      56.3     0.48      1019.0     1       359         1       357        9.23     444      -25.6
   02/25/2017 03:40      35.0      35.0       90     32.3      0.00     17.79      56.4     0.48      1019.0     1       133         2       135        9.23     441      -26.3
   02/25/2017 03:30      35.6      35.2       89     32.4      0.00     17.79      56.4     0.48      1019.0     1       148         1       143        9.22     439      -27.2
   02/25/2017 03:20      35.7      35.4       89     32.5      0.00     17.79      56.0     0.48      1019.0     1       174         1       211        9.23     437      -28.7
   02/25/2017 03:10      35.7      35.4       88     32.4      0.00     17.79      56.8     0.48      1019.0     1       185         1       179        9.22     434      -30.5
   02/25/2017 03:00      35.9      35.5       88     32.5      0.00     17.79      56.5     0.48      1020.0     0       221         0       171        9.22     433      -31.9
   02/25/2017 02:50      36.0      35.8       89     32.8      0.00     17.79      56.7     0.48      1020.0     0       186         1       186        9.22     431      -33.0
   02/25/2017 02:40      36.3      35.9       89     33.0      0.00     17.79      56.7     0.48      1020.0     1       138         1       135        9.22     429      -34.3
   02/25/2017 02:30      36.4      36.0       89     33.1      0.00     17.79      56.5     0.48      1020.0     1       157         1       165        9.22     426      -35.8
   02/25/2017 02:20      36.4      36.1       88     33.1      0.00     17.79      56.7     0.48      1020.0     1       141         2       141        9.22     424      -37.6
   02/25/2017 02:10      36.6      36.5       87     33.2      0.00     17.79      56.6     0.48      1020.0     1       153         1       132        9.23     422      -40.5
   02/25/2017 02:00      36.7      36.5       88     33.2      0.00     17.79      56.5     0.48      1020.0     1       157         1       157        9.22     420      -43.6
   02/25/2017 01:50      37.0      36.6       87     33.2      0.00     17.79      56.8     0.48      1021.0     1       126         2       131        9.23     418      -46.9
   02/25/2017 01:40      37.5      37.0       85     33.2      0.00     17.79      56.7     0.48      1021.0     2       148         2       135        9.23     415      -50.1
   02/25/2017 01:30      37.8      37.4       83     33.0      0.00     17.79      56.6     0.48      1021.0     1       188         2       194        9.23     413      -52.3
   02/25/2017 01:20      37.9      37.6       84     33.3      0.00     17.79      56.8     0.48      1021.0     1       178         1       197        9.23     411      -54.7
   02/25/2017 01:10      38.2      37.8       83     33.4      0.00     17.79      56.8     0.48      1021.0     0       153         1       146        9.23     410      -57.9
   02/25/2017 01:00      38.5      38.2       84     33.7      0.00     17.79      56.8     0.48      1021.0     0       237         1       233        9.23     407      -59.8
   02/25/2017 00:50      38.4      38.1       83     33.6      0.00     17.79      57.1     0.48      1021.0     1       181         1       153        9.23     404      -62.5
   02/25/2017 00:40      38.5      38.2       82     33.4      0.00     17.79      57.0     0.48      1021.0     1       167         1       164        9.23     401      -64.9
   02/25/2017 00:30      38.8      38.5       82     33.5      0.00     17.79      56.7     0.48      1021.0     1       159         2       149        9.23     399      -65.5
   02/25/2017 00:20      38.7      38.6       83     34.0      0.00     17.79      57.1     0.48      1021.0     1       138         1       130        9.23     396      -67.2
   02/25/2017 00:10      39.2      38.8       82     34.1      0.00     17.79      56.9     0.48      1021.0     2       139         2       138        9.23     393      -68.1
   02/25/2017 00:00      39.3      39.1       82     34.2      0.00     17.79      57.0     0.48      1021.0     1       161         2       138        9.23     390      -69.0
   02/24/2017 23:50      39.8      39.3       81     34.1      0.00     17.79      57.0     0.48      1021.0     1       150         3       158        9.23     388      -69.8
   02/24/2017 23:40      39.9      39.8       79     33.9      0.00     17.79      57.2     0.48      1021.0     1       165         1       127        9.23     385      -70.3
   02/24/2017 23:30      40.3      40.0       78     34.0      0.00     17.79      57.2     0.48      1021.0     1       146         1       141        9.23     382      -70.3
   02/24/2017 23:20      40.6      40.3       77     33.9      0.00     17.79      57.1     0.48      1021.0     1       178         1       153        9.23     381      -70.5
   02/24/2017 23:10      41.0      40.7       76     33.8      0.00     17.79      57.0     0.48      1021.0     1       173         1       168        9.23     378      -70.7
   02/24/2017 23:00      41.0      40.7       77     34.1      0.00     17.79      57.0     0.48      1021.0     1       139         2       145        9.23     375      -70.9
   02/24/2017 22:50      41.1      40.6       77     34.1      0.00     17.79      57.1     0.48      1021.0     1       186         1       136        9.23     373      -71.4
   02/24/2017 22:40      41.3      40.6       76     33.9      0.00     17.79      56.7     0.48      1021.0     1       162         2       180        9.23     370      -71.3
   02/24/2017 22:30      41.8      41.4       73     33.4      0.00     17.79      57.1     0.48      1021.0     1       159         2       150        9.23     367      -71.5
   02/24/2017 22:20      42.1      41.6       71     33.2      0.00     17.79      57.0     0.48      1021.0     1       161         1       148        9.23     365      -71.5
   02/24/2017 22:10      42.2      42.0       71     33.4      0.00     17.79      57.2     0.48      1021.0     0       175         1       154        9.23     364      -71.5
   02/24/2017 22:00      42.8      42.2       70     33.4      0.00     17.79      57.1     0.48      1021.0     1       148         1       138        9.23     361      -71.8
   02/24/2017 21:50      42.7      42.5       70     33.5      0.00     17.79      57.1     0.48      1021.0     1       188         1       208        9.23     360      -72.0
   02/24/2017 21:40      42.8      42.5       71     33.8      0.00     17.79      57.0     0.48      1021.0     0       124         1        97        9.23     361      -72.3
   02/24/2017 21:30      43.1      42.8       70     33.9      0.00     17.79      57.2     0.48      1021.0     1       118         1       104        9.23     358      -72.8
   02/24/2017 21:20      43.3      43.1       70     34.1      0.00     17.79      57.0     0.48      1021.0     1       131         1       161        9.23     354      -73.2
   02/24/2017 21:10      43.5      43.2       70     34.2      0.00     17.79      57.1     0.48      1021.0     1       148         1       141        9.23     350      -73.4
   02/24/2017 21:00      44.1      43.7       68     34.1      0.00     17.79      57.3     0.48      1021.0     2       143         2       155        9.23     346      -73.8
   02/24/2017 20:50      44.4      44.1       67     34.2      0.00     17.79      56.9     0.48      1021.0     1       154         2       163        9.23     342      -74.3
   02/24/2017 20:40      45.1      44.5       68     34.6      0.00     17.79      57.1     0.48      1021.0     1       134         1       127        9.23     338      -74.9
   02/24/2017 20:30      45.9      45.2       65     34.5      0.00     17.79      56.7     0.48      1021.0     1       140         1       142        9.23     335      -75.3
   02/24/2017 20:20      46.6      46.0       63     34.5      0.00     17.79      57.0     0.48      1021.0     1       157         1       157        9.23     331      -75.8
   02/24/2017 20:10      47.3      46.8       61     34.3      0.00     17.79      57.0     0.48      1021.0     1       190         2       227        9.23     326      -76.3
   02/24/2017 20:00      48.3      47.3       59     34.3      0.00     17.79      56.8     0.48      1021.0     1       158         1       133        9.23     322      -77.1
   02/24/2017 19:50      48.8      48.4       57     34.2      0.00     17.79      56.9     0.48      1021.0     2       207         3       206        9.23     317      -78.0
   02/24/2017 19:40      48.9      48.6       56     33.9      0.00     17.79      56.8     0.48      1021.0     2       219         3       217        9.23     314      -77.5
   02/24/2017 19:30      49.6      48.9       56     33.9      0.00     17.79      56.9     0.48      1020.0     2       223         3       223        9.23     310      -78.1
   02/24/2017 19:20      50.2      49.7       54     33.7      0.00     17.79      56.9     0.48      1020.0     2       209         3       211        9.23     306      -78.9
   02/24/2017 19:10      50.6      50.2       52     33.6      0.00     17.79      56.8     0.48      1020.0     3       209         4       213        9.23     302      -79.8
   02/24/2017 19:00      50.8      50.5       52     33.9      0.00     17.79      56.8     0.48      1020.0     3       233         4       246        9.23     299      -79.9
   02/24/2017 18:50      51.4      51.0       52     34.1      0.00     17.79      56.9     0.48      1020.0     2       232         3       221        9.23     296      -80.6
   02/24/2017 18:40      51.8      51.4       51     33.9      0.00     17.79      56.8     0.48      1020.0     2       232         3       256        9.23     293      -80.8
   02/24/2017 18:30      51.8      51.6       50     33.6      0.00     17.79      56.7     0.48      1020.0     2       225         3       221        9.23     290      -81.8
   02/24/2017 18:20      52.7      51.9       49     34.0      0.00     17.79      56.6     0.48      1020.0     2       255         2       278        9.23     287      -84.1
   02/24/2017 18:10      54.1      52.8       48     34.1      0.00     17.79      56.7     0.48      1020.0     2       258         3       278        9.23     285      -85.5
   02/24/2017 18:00      54.8      54.2       44     33.3      0.00     17.79      56.6     0.48      1020.0     3       277         5       271        9.25     282      -87.2
   02/24/2017 17:50      55.6      55.2       43     33.3      0.00     17.79      56.4     0.48      1020.0     2       298         4       284        9.25     281      -85.7
   02/24/2017 17:40      56.4      55.8       42     33.1      0.00     17.79      56.5     0.48      1020.0     3       274         5       268        9.25     279      -82.8
   02/24/2017 17:30      56.7      56.4       41     33.2      0.00     17.79      56.5     0.48      1019.0     3       251         6       258        9.25     278      -79.6
   02/24/2017 17:20      57.3      56.8       39     32.6      0.00     17.79      56.4     0.48      1019.0     4       231         6       244        9.25     277      -75.5
   02/24/2017 17:10      58.3      57.5       38     32.2      0.00     17.79      56.5     0.48      1019.0     4       234         6       225        9.25     275      -56.9
   02/24/2017 17:00      58.7      58.0       36     31.3      0.00     17.79      56.4     0.48      1019.0     4       230         6       197        9.26     275      -17.9
   02/24/2017 16:50      59.3      58.9       34     30.5      0.00     17.79      56.1     0.48      1019.0     5       250         7       241        9.26     275        3.9
   02/24/2017 16:40      59.6      59.0       33     30.3      0.00     17.79      56.0     0.48      1019.0     4       228         6       233        9.26     275       29.2
   02/24/2017 16:30      59.6      59.3       32     29.4      0.00     17.79      56.0     0.48      1019.0     6       207         7       211        9.26     275       54.9
   02/24/2017 16:20      60.1      59.6       30     28.5      0.00     17.79      56.1     0.48      1019.0     6       217         7       234        9.26     275       80.8
   02/24/2017 16:10      60.8      60.5       29     28.3      0.00     17.79      56.4     0.48      1019.0     6       222         9       251        9.26     275      106.5
   02/24/2017 16:00      60.8      60.4       29     27.8      0.00     17.79      56.2     0.48      1019.0     5       161         7       189        9.26     275      132.2
   02/24/2017 15:50      61.9      60.8       28     27.7      0.00     17.79      55.9     0.48      1019.0     6       177         7       215        9.26     275      156.5
   02/24/2017 15:40      63.3      62.3       22     23.6      0.00     17.79      56.0     0.48      1019.0     3       200         5       193        9.26     275      175.1
   02/24/2017 15:30      64.3      63.3       19     21.1      0.00     17.79      55.6     0.48      1019.0     3       191         5       214        9.26     276      195.2
   02/24/2017 15:20      63.7      63.0       19     19.8      0.00     17.79      55.9     0.48      1019.0     3       112         5       130        9.26     276      212.1
   02/24/2017 15:10      64.8      63.4       17     18.0      0.00     17.79      55.7     0.48      1019.0     2       136         4       136        9.26     276      214.7
   02/24/2017 15:00      63.5      62.4       17     17.7      0.00     17.79      55.7     0.48      1019.0     2       230         4       246        9.26     276      236.7
   02/24/2017 14:50      64.1      62.2       19     20.5      0.00     17.79      55.6     0.48      1019.0     3       209         7       209        9.26     276      256.5
   02/24/2017 14:40      64.3      63.3       17     18.0      0.00     17.79      55.5     0.48      1019.0     3       241         4       260        9.28     276      275.1
   02/24/2017 14:30      64.0      62.9       17     18.0      0.00     17.79      55.7     0.48      1019.0     2       313         4       273        9.28     277      302.8
   02/24/2017 14:20      63.2      62.3       18     18.1      0.00     17.79      55.3     0.48      1019.0     2       229         3       238        9.28     277      328.8
   02/24/2017 14:10      62.5      61.3       19     19.5      0.00     17.79      55.5     0.48      1019.0     3       222         4       267        9.28     277      347.6
   02/24/2017 14:00      62.8      61.7       20     20.5      0.00     17.79      55.4     0.48      1019.0     4       185         5       213        9.28     278      362.6
   02/24/2017 13:50      62.8      61.7       19     18.9      0.00     17.79      55.2     0.48      1019.0     3       293         5       338        9.28     278      374.8
   02/24/2017 13:40      62.3      61.3       20     20.2      0.00     17.79      55.2     0.48      1019.0     4       267         6       239        9.28     279      390.3
   02/24/2017 13:30      61.7      60.9       21     20.6      0.00     17.79      55.3     0.48      1019.0     4       261         6       254        9.28     280      403.4
   02/24/2017 13:20      61.8      60.4       22     21.6      0.00     17.79      55.1     0.48      1019.0     3       222         5       230        9.28     282      412.7
   02/24/2017 13:10      61.0      60.1       21     19.9      0.00     17.79      55.2     0.48      1020.0     3       143         4       139        9.28     283      422.3
   02/24/2017 13:00      61.9      61.1       20     20.2      0.00     17.79      55.2     0.48      1020.0     3       139         5       124        9.28     285      431.0
   02/24/2017 12:50      61.7      59.9       23     22.5      0.00     17.79      55.3     0.48      1020.0     2        97         4       136        9.28     289      440.8
   02/24/2017 12:40      61.0      59.5       23     22.6      0.00     17.79      55.2     0.48      1020.0     4       149         6       132        9.28     294      449.5
   02/24/2017 12:30      61.5      59.9       22     21.5      0.00     17.79      55.4     0.48      1020.0     2        57         3        26        9.28     299      446.3
   02/24/2017 12:20      61.0      59.9       22     21.7      0.00     17.79      55.1     0.48      1020.0     2        54         3       190        9.28     304      454.9
   02/24/2017 12:10      59.9      58.5       23     20.6      0.00     17.79      55.1     0.48      1021.0     2        55         3       356        9.28     307      458.1
   02/24/2017 12:00      59.5      58.5       24     22.3      0.00     17.79      55.0     0.48      1021.0     3        63         4        52        9.28     312      457.0
   02/24/2017 11:50      59.0      58.5       24     22.1      0.00     17.79      55.0     0.48      1021.0     2       338         3        25        9.28     317      455.4
   02/24/2017 11:40      58.8      57.1       26     23.1      0.00     17.79      55.2     0.48      1021.0     2        61         4       354        9.28     324      458.8
   02/24/2017 11:30      56.8      56.2       27     23.3      0.00     17.79      55.4     0.48      1021.0     3       149         4       153        9.28     332      407.5
   02/24/2017 11:20      57.5      56.0       27     23.5      0.00     17.79      55.4     0.48      1021.0     4       101         7       128        9.28     342      433.5
   02/24/2017 11:10      57.2      56.6       26     22.4      0.00     17.79      55.4     0.48      1021.0     3       352         4       349        9.29     356      445.5
   02/24/2017 11:00      57.0      56.1       26     22.4      0.00     17.79      55.5     0.48      1021.0     2        22         5        76        9.29     370      343.2
   02/24/2017 10:50      56.6      55.8       26     21.8      0.00     17.79      55.2     0.48      1021.0     3        13         5       348        9.29     383      364.2
   02/24/2017 10:40      56.4      55.7       27     22.5      0.00     17.79      55.5     0.48      1022.0     3        37         4        49        9.29     395      377.2
   02/24/2017 10:30      56.0      55.3       27     22.3      0.00     17.79      55.5     0.48      1022.0     2       283         3       241        9.29     403      362.6
   02/24/2017 10:20      55.3      54.4       27     21.3      0.00     17.79      55.6     0.48      1022.0     2       341         3       358        9.29     411      403.1
   02/24/2017 10:10      54.1      53.2       29     22.2      0.00     17.79      55.1     0.48      1022.0     2        32         4       338        9.29     425      330.4
   02/24/2017 10:00      53.8      52.9       30     23.0      0.00     17.79      55.5     0.48      1022.0     2       186         4       192        9.29     431      318.0
   02/24/2017 09:50      53.0      51.6       32     23.7      0.00     17.79      55.2     0.48      1022.0     3       258         3       251        9.29     439      345.6
   02/24/2017 09:40      52.0      51.1       33     23.5      0.00     17.79      55.4     0.48      1022.0     3       262         5       272        9.29     448      345.9
   02/24/2017 09:30      51.4      50.8       35     24.1      0.00     17.79      55.8     0.48      1022.0     4       249         6       257        9.29     454      313.9
   02/24/2017 09:20      50.9      50.1       35     23.8      0.00     17.79      55.5     0.48      1022.0     3       264         5       238        9.29     460      301.8
   02/24/2017 09:10      50.3      50.0       36     24.5      0.00     17.79      55.8     0.48      1022.0     3       295         6       254        9.29     466      289.3
   02/24/2017 09:00      50.0      49.0       36     23.9      0.00     17.79      55.5     0.48      1022.0     3       302         3       316        9.29     471      289.2
   02/24/2017 08:50      49.5      48.9       37     24.0      0.00     17.79      55.8     0.48      1022.0     3       332         5       327        9.29     477      259.6
   02/24/2017 08:40      49.5      49.3       37     24.1      0.00     17.79      55.7     0.48      1022.0     3       345         4         5        9.29     482      237.6
   02/24/2017 08:30      49.5      48.5       38     24.3      0.00     17.79      56.2     0.48      1022.0     2        18         4        75        9.29     487      218.3
   02/24/2017 08:20      49.5      48.7       38     24.6      0.00     17.79      56.0     0.48      1022.0     3        51         5         4        9.29     489      193.3
   02/24/2017 08:10      48.8      47.6       39     24.1      0.00     17.79      56.0     0.48      1022.0     3        40         5        72        9.30     490      167.7
   02/24/2017 08:00      47.9      46.3       41     24.7      0.00     17.79      55.8     0.48      1021.0     2        36         4        73        9.30     492      139.7
   02/24/2017 07:50      46.2      44.0       48     26.4      0.00     17.79      55.4     0.48      1021.0     2        69         4       122        9.30     492       58.4
   02/24/2017 07:40      43.9      41.4       56     27.8      0.00     17.79      55.9     0.48      1021.0     2       114         3       300        9.30     494      -46.3
   02/24/2017 07:30      41.4      37.9       64     28.2      0.00     17.79      56.1     0.48      1021.0     1       100         3       155        9.30     494      -20.1
   02/24/2017 07:20      38.0      36.7       69     28.3      0.00     17.79      55.8     0.48      1021.0     3       176         4       195        9.30     495      -35.0
   02/24/2017 07:10      36.7      35.9       72     27.9      0.00     17.79      56.3     0.48      1021.0     1       129         2       210        9.30     496      -50.4
   02/24/2017 07:00      35.8      34.8       74     27.8      0.00     17.79      56.1     0.48      1021.0     2       150         2       144        9.30     496      -50.9
   02/24/2017 06:50      34.7      34.0       75     27.1      0.00     17.79      56.3     0.48      1020.0     1       155         2       155        9.30     496      -53.8
   02/24/2017 06:40      34.6      34.2       74     26.8      0.00     17.79      56.1     0.48      1020.0     1       132         2       137        9.30     496      -59.4
   02/24/2017 06:30      34.7      34.2       74     26.9      0.00     17.79      56.2     0.48      1020.0     0       117         1       143        9.30     495      -64.3
   02/24/2017 06:20      34.3      34.1       76     27.5      0.00     17.79      56.4     0.48      1020.0     1       216         2       142        9.30     494      -66.2
   02/24/2017 06:10      34.4      34.1       75     27.1      0.00     17.79      56.0     0.48      1020.0     1       133         2       144        9.30     492      -66.4
   02/24/2017 06:00      35.0      34.2       73     26.7      0.00     17.79      56.3     0.48      1020.0     1        98         1       108        9.30     492      -66.5
   02/24/2017 05:50      35.0      34.8       72     26.8      0.00     17.79      56.4     0.48      1020.0     1       140         1       114        9.30     492      -66.1
   02/24/2017 05:40      34.8      34.1       76     27.5      0.00     17.79      56.1     0.48      1020.0     1       200         3       172        9.30     492      -66.3
   02/24/2017 05:30      34.2      33.5       79     27.8      0.00     17.79      56.4     0.48      1020.0     3       158         3       168        9.30     492      -67.0
   02/24/2017 05:20      33.9      33.4       77     27.2      0.00     17.79      56.3     0.48      1020.0     2       154         3       152        9.30     491      -69.0
   02/24/2017 05:10      34.0      33.5       78     27.5      0.00     17.79      56.5     0.48      1020.0     2       206         3       173        9.30     493      -69.1
   02/24/2017 05:00      34.3      34.2       76     27.5      0.00     17.79      56.5     0.48      1019.0     1        94         1       119        9.30     493      -69.4
   02/24/2017 04:50      34.3      33.7       77     27.6      0.00     17.79      56.6     0.48      1020.0     1       145         2       131        9.30     492      -68.8
   02/24/2017 04:40      34.0      33.7       77     27.3      0.00     17.79      56.7     0.48      1019.0     1       138         2       147        9.30     490      -69.5
   02/24/2017 04:30      34.8      34.3       73     26.8      0.00     17.79      56.7     0.48      1020.0     1       123         2       131        9.30     490      -69.7
   02/24/2017 04:20      35.1      34.7       71     26.6      0.00     17.79      56.4     0.48      1020.0     2       124         3       145        9.30     488      -70.1
   02/24/2017 04:10      35.7      35.3       67     25.8      0.00     17.79      56.6     0.48      1020.0     1       199         2       194        9.30     486      -70.1
   02/24/2017 04:00      35.8      35.4       67     25.7      0.00     17.79      56.5     0.48      1020.0     1       155         2       178        9.30     485      -69.6
   02/24/2017 03:50      35.8      35.1       67     25.7      0.00     17.79      56.5     0.48      1020.0     1       176         1       112        9.30     484      -70.6
   02/24/2017 03:40      35.3      34.9       70     26.2      0.00     17.79      56.5     0.48      1020.0     1       213         2       140        9.30     482      -71.0
   02/24/2017 03:30      35.3      34.9       70     26.2      0.00     17.79      57.0     0.48      1019.0     1       143         2       141        9.30     479      -71.4
   02/24/2017 03:20      35.4      35.0       69     26.2      0.00     17.79      57.1     0.48      1019.0     1       147         2       132        9.30     477      -71.3
   02/24/2017 03:10      35.9      35.3       68     26.2      0.00     17.79      56.8     0.49      1019.0     2       142         3       127        9.30     475      -71.8
   02/24/2017 03:00      35.9      35.5       67     25.9      0.00     17.79      57.0     0.48      1019.0     2       141         2       133        9.30     473      -71.9
   02/24/2017 02:50      36.0      35.5       66     25.6      0.00     17.79      56.9     0.48      1019.0     2       140         3       126        9.30     472      -71.6
   02/24/2017 02:40      35.8      35.5       68     26.2      0.00     17.79      57.2     0.49      1020.0     1       197         1       214        9.30     471      -71.2
   02/24/2017 02:30      35.8      35.4       69     26.5      0.00     17.79      57.1     0.49      1020.0     1       169         2       143        9.30     470      -71.9
   02/24/2017 02:20      36.1      35.7       67     26.1      0.00     17.79      56.7     0.49      1020.0     1       132         2       128        9.30     468      -72.4
   02/24/2017 02:10      36.8      36.1       65     25.8      0.00     17.79      57.0     0.49      1020.0     2       133         3       131        9.30     466      -72.1
   02/24/2017 02:00      36.6      36.3       64     25.7      0.00     17.79      57.1     0.49      1020.0     1       204         2       133        9.30     464      -71.8
   02/24/2017 01:50      36.7      36.4       65     25.8      0.00     17.79      57.2     0.49      1020.0     1       160         3       141        9.30     463      -72.6
   02/24/2017 01:40      37.1      36.6       63     25.5      0.00     17.79      57.5     0.49      1020.0     2       135         3       139        9.30     461      -72.7
   02/24/2017 01:30      37.1      36.4       63     25.3      0.00     17.79      57.2     0.49      1020.0     2       158         3       139        9.30     460      -72.7
   02/24/2017 01:20      37.1      36.8       62     25.1      0.00     17.79      57.3     0.49      1020.0     2       152         3       140        9.30     457      -73.2
   02/24/2017 01:10      37.4      37.1       60     24.7      0.00     17.79      57.2     0.49      1020.0     2       144         3       142        9.30     456      -73.5
   02/24/2017 01:00      37.9      37.3       59     24.6      0.00     17.79      57.2     0.49      1020.0     2       158         3       134        9.30     455      -73.4
   02/24/2017 00:50      38.5      37.8       56     23.8      0.00     17.79      57.2     0.49      1020.0     2       160         3       140        9.30     454      -74.1
   02/24/2017 00:40      38.4      37.7       57     24.0      0.00     17.79      57.6     0.49      1020.0     2       148         3       198        9.30     454      -74.1
   02/24/2017 00:30      40.3      38.2       55     24.3      0.00     17.79      57.4     0.49      1020.0     2       138         3       142        9.30     452      -74.5
   02/24/2017 00:20      40.9      37.8       49     21.9      0.00     17.79      57.4     0.49      1020.0     3       177         4       168        9.30     450      -73.2
   02/24/2017 00:10      37.9      37.7       57     24.1      0.00     17.79      57.4     0.49      1020.0     3       165         4       172        9.30     448      -74.6
   02/24/2017 00:00      38.0      37.6       58     24.4      0.00     17.79      57.6     0.49      1020.0     2       157         4       136        9.30     445      -75.4
   02/23/2017 23:50      38.3      37.5       60     25.3      0.00     17.79      57.5     0.49      1020.0     2       157         3       188        9.30     443      -75.3
   02/23/2017 23:40      39.8      38.6       55     24.2      0.00     17.79      57.5     0.49      1019.0     2       149         3       154        9.30     441      -75.6
   02/23/2017 23:30      39.9      38.4       53     23.0      0.00     17.79      57.5     0.49      1019.0     3       179         4       177        9.30     438      -75.6
   02/23/2017 23:20      39.3      38.3       56     24.2      0.00     17.79      57.4     0.49      1019.0     2       151         3       154        9.30     435      -76.6
   02/23/2017 23:10      39.4      38.2       56     24.4      0.00     17.79      57.5     0.49      1019.0     2       182         3       139        9.30     432      -76.3
   02/23/2017 23:00      39.8      39.2       53     23.8      0.00     17.79      57.6     0.49      1019.0     3       145         4       141        9.30     430      -76.4
   02/23/2017 22:50      40.9      39.4       47     21.8      0.00     17.79      57.7     0.49      1019.0     2       153         2       159        9.30     427      -75.8
   02/23/2017 22:40      41.0      39.7       51     23.5      0.00     17.79      57.3     0.49      1019.0     2       149         3       139        9.30     424      -76.9
   02/23/2017 22:30      41.3      41.0       46     21.9      0.00     17.79      57.6     0.49      1019.0     2       155         3       177        9.30     422      -76.8
   02/23/2017 22:20      40.8      39.5       52     23.6      0.00     17.79      57.5     0.49      1019.0     3       160         5       166        9.30     419      -76.7
   02/23/2017 22:10      40.4      39.9       50     23.1      0.00     17.79      57.6     0.49      1019.0     2       159         3       161        9.30     416      -76.5
   02/23/2017 22:00      41.1      39.9       52     24.4      0.00     17.79      57.7     0.49      1019.0     3       149         3       133        9.30     413      -77.5
   02/23/2017 21:50      41.6      39.9       48     22.8      0.00     17.79      57.8     0.49      1019.0     3       151         5       150        9.31     409      -77.5
   02/23/2017 21:40      41.3      39.9       52     24.5      0.00     17.79      58.0     0.49      1019.0     2       162         3       164        9.31     406      -77.4
   02/23/2017 21:30      42.1      41.0       47     22.9      0.00     17.79      57.5     0.49      1019.0     2       152         3       193        9.31     403      -77.9
   02/23/2017 21:20      41.1      40.6       50     23.7      0.00     17.79      57.8     0.49      1019.0     2       159         3       142        9.31     400      -78.1
   02/23/2017 21:10      41.0      40.0       53     24.4      0.00     17.79      57.6     0.49      1019.0     2       168         2       135        9.31     400      -78.2
   02/23/2017 21:00      40.6      40.2       56     25.8      0.00     17.79      57.7     0.49      1019.0     2       143         3       149        9.31     396      -78.6
   02/23/2017 20:50      41.6      40.6       55     26.1      0.00     17.79      57.6     0.49      1019.0     2       147         3       138        9.31     394      -78.5
   02/23/2017 20:40      42.0      41.7       51     25.2      0.00     17.79      57.8     0.49      1019.0     3       139         3       140        9.31     390      -79.1
   02/23/2017 20:30      42.6      42.0       50     25.2      0.00     17.79      57.8     0.49      1019.0     2       145         3       153        9.31     387      -79.3
   02/23/2017 20:20      42.9      42.7       50     25.5      0.00     17.79      57.6     0.49      1019.0     2       143         5       122        9.31     383      -79.7
   02/23/2017 20:10      43.2      42.6       46     23.4      0.00     17.79      57.9     0.49      1018.0     1       178         2       163        9.31     380      -79.2
   02/23/2017 20:00      43.5      42.6       50     25.8      0.00     17.79      57.5     0.49      1018.0     2       141         3       126        9.31     376      -80.0
   02/23/2017 19:50      44.0      43.6       48     25.4      0.00     17.79      57.7     0.49      1018.0     3       128         3       128        9.31     373      -80.3
   02/23/2017 19:40      45.1      44.0       45     24.9      0.00     17.79      57.9     0.49      1018.0     1       192         2       147        9.31     368      -81.2
   02/23/2017 19:30      44.9      44.3       45     24.9      0.00     17.79      57.5     0.49      1018.0     2       200         3       157        9.31     364      -81.7
   02/23/2017 19:20      45.4      44.3       46     25.2      0.00     17.79      57.6     0.49      1018.0     2       150         3       153        9.32     358      -81.9
   02/23/2017 19:10      46.2      45.6       42     24.0      0.00     17.79      57.7     0.49      1018.0     1       158         2       140        9.32     353      -82.6
   02/23/2017 19:00      47.2      46.4       40     23.7      0.00     17.79      57.5     0.49      1018.0     2       139         3       163        9.32     347      -83.8
   02/23/2017 18:50      47.9      46.6       39     23.4      0.00     17.79      57.6     0.49      1018.0     2       152         3       157        9.32     340      -84.1
   02/23/2017 18:40      49.8      48.1       34     21.4      0.00     17.79      57.9     0.49      1018.0     1       117         1       120        9.32     333      -86.3
   02/23/2017 18:30      50.4      49.7       31     20.7      0.00     17.79      57.6     0.49      1017.0     2        26         4        19        9.32     326      -88.4
   02/23/2017 18:20      50.4      50.2       30     20.4      0.00     17.79      57.4     0.49      1017.0     5       355         8       356        9.32     320      -88.9
   02/23/2017 18:10      50.9      50.4       30     20.5      0.00     17.79      57.9     0.49      1017.0     4         7         8        33        9.32     314      -89.8
   02/23/2017 18:00      51.4      51.0       30     20.9      0.00     17.79      57.5     0.49      1017.0     5         0         7       356        9.33     308      -90.2
   02/23/2017 17:50      52.0      51.6       30     21.0      0.00     17.79      57.5     0.49      1017.0     5       359         6         6        9.33     303      -88.8
   02/23/2017 17:40      52.6      52.0       29     21.1      0.00     17.79      57.5     0.49      1017.0     6         0        10       339        9.33     298      -85.9
   02/23/2017 17:30      53.2      52.7       29     21.6      0.00     17.79      57.5     0.49      1017.0     6       353         8       338        9.33     293      -81.8
   02/23/2017 17:20      53.6      53.3       28     21.4      0.00     17.79      57.3     0.49      1017.0     7         3        10       332        9.33     288      -78.1
   02/23/2017 17:10      54.8      53.7       28     22.0      0.00     17.79      57.2     0.49      1017.0     9       358        12         3        9.33     284      -60.9
   02/23/2017 17:00      56.0      55.3       31     25.6      0.00     17.79      57.1     0.49      1017.0     5       356         9       359        9.33     281       -5.8
   02/23/2017 16:50      56.0      55.8       34     27.9      0.00     17.79      57.5     0.49      1017.0     4       335         5       320        9.33     280       10.4
   02/23/2017 16:40      56.0      55.5       34     27.8      0.00     17.79      57.4     0.49      1017.0     4       304         6       301        9.33     280       28.9
   02/23/2017 16:30      56.2      55.5       34     27.7      0.00     17.79      57.3     0.49      1017.0     4       324         7       297        9.33     280       57.6
   02/23/2017 16:20      55.7      55.0       34     27.8      0.00     17.79      57.2     0.49      1016.0     3       336         5       289        9.33     280       53.8
   02/23/2017 16:10      55.6      55.0       34     27.3      0.00     17.79      57.2     0.49      1016.0     2       198         4       162        9.34     279       20.6
   02/23/2017 16:00      57.2      55.7       31     26.1      0.00     17.79      57.3     0.49      1016.0     2       123         5       230        9.34     279      132.5
   02/23/2017 15:50      56.1      55.6       30     25.1      0.00     17.79      57.2     0.49      1016.0     3        48         4       351        9.34     280      154.6
   02/23/2017 15:40      56.1      55.9       31     25.4      0.00     17.79      57.1     0.49      1016.0     3       336         5       316        9.34     280      174.8
   02/23/2017 15:30      56.5      56.0       31     26.3      0.00     17.79      57.2     0.49      1016.0     5       348         7       343        9.34     280      199.7
   02/23/2017 15:20      56.5      55.7       31     25.7      0.00     17.79      57.2     0.49      1017.0     4       338         6       334        9.34     280      220.1
   02/23/2017 15:10      56.0      55.5       31     25.8      0.00     17.79      56.8     0.49      1017.0     4       270         9       320        9.34     280      226.8
   02/23/2017 15:00      56.3      55.5       29     24.2      0.00     17.79      57.1     0.49      1017.0     3        73         6        67        9.34     280      242.9
   02/23/2017 14:50      55.9      55.3       30     24.5      0.00     17.79      57.0     0.49      1017.0     7       350        10         7        9.34     280      265.0
   02/23/2017 14:40      56.0      55.1       29     24.0      0.00     17.79      57.2     0.49      1017.0     5       343         7       333        9.34     281      283.3
   02/23/2017 14:30      56.0      54.6       31     25.1      0.00     17.79      57.0     0.49      1017.0     4       331         8       300        9.34     282      315.5
   02/23/2017 14:20      55.5      55.1       30     24.5      0.00     17.79      56.9     0.49      1017.0     7       350        11        22        9.34     282      339.6
   02/23/2017 14:10      56.2      55.1       30     24.9      0.00     17.79      57.1     0.49      1017.0     6         7         9         1        9.34     285      354.9
   02/23/2017 14:00      55.4      54.6       31     24.6      0.00     17.79      56.9     0.49      1017.0     5        22         8       339        9.34     287      371.1
   02/23/2017 13:50      55.9      55.0       30     24.6      0.00     17.79      57.2     0.49      1017.0     6       328         9       341        9.34     289      384.6
   02/23/2017 13:40      55.7      55.0       31     25.0      0.00     17.79      56.9     0.49      1017.0     7       357        10       342        9.34     292      396.7
   02/23/2017 13:30      55.2      54.2       32     24.9      0.00     17.79      56.8     0.49      1017.0     7        14        12       347        9.34     296      409.8
   02/23/2017 13:20      55.2      54.3       31     24.8      0.00     17.79      57.3     0.49      1017.0     9         8        17         0        9.34     300      420.5
   02/23/2017 13:10      55.1      54.3       31     24.7      0.00     17.79      56.8     0.49      1017.0     8       356        12       351        9.34     302      430.1
   02/23/2017 13:00      54.7      54.2       32     24.8      0.00     17.79      56.6     0.49      1018.0     7         8        15         7        9.34     305      441.4
   02/23/2017 12:50      54.4      53.5       32     24.7      0.00     17.79      56.9     0.49      1018.0     6        14         8         7        9.34     309      449.2
   02/23/2017 12:40      54.6      54.0       32     24.9      0.00     17.79      56.9     0.49      1018.0     8       352        13       353        9.34     318      457.9
   02/23/2017 12:30      53.6      52.9       33     24.6      0.00     17.79      57.0     0.49      1018.0     8        13        13       346        9.34     328      465.3
   02/23/2017 12:20      53.6      52.1       32     24.2      0.00     17.79      56.7     0.49      1018.0     9        11        15         7        9.34     333      468.7
   02/23/2017 12:10      52.9      52.4       32     23.6      0.00     17.79      56.8     0.49      1018.0    12         0        18       357        9.34     338      471.3
   02/23/2017 12:00      52.9      52.4       33     24.2      0.00     17.79      57.0     0.49      1018.0     8        19        12       356        9.34     342      470.2
   02/23/2017 11:50      53.1      51.9       33     24.1      0.00     17.79      56.8     0.49      1019.0     9         3        18       343        9.34     346      469.1
   02/23/2017 11:40      52.4      51.9       33     24.0      0.00     17.79      57.1     0.49      1019.0    12       350        18         5        9.34     351      468.2
   02/23/2017 11:30      52.7      52.1       33     24.4      0.00     17.79      57.3     0.49      1019.0    10       348        14         1        9.34     356      461.8
   02/23/2017 11:20      52.5      51.8       34     24.6      0.00     17.79      56.9     0.49      1019.0     9       358        15       349        9.34     364      458.5
   02/23/2017 11:10      52.1      51.6       33     23.8      0.00     17.79      56.7     0.49      1019.0    10       342        14       358        9.35     372      453.9
   02/23/2017 11:00      52.0      51.5       34     24.4      0.00     17.79      57.0     0.49      1019.0    11       354        14        12        9.34     383      445.0
   02/23/2017 10:50      51.8      50.9       35     24.6      0.00     17.79      56.7     0.49      1019.0    11       352        17         4        9.34     398      437.0
   02/23/2017 10:40      51.3      50.7       36     24.7      0.00     17.79      57.5     0.49      1019.0    10         3        20         0        9.35     413      429.0
   02/23/2017 10:30      50.8      50.5       37     25.1      0.00     17.79      57.0     0.49      1019.0    11       353        20       354        9.34     423      417.7
   02/23/2017 10:20      50.5      49.8       37     24.9      0.00     17.79      57.0     0.49      1019.0    12         2        17       357        9.34     432      406.3
   02/23/2017 10:10      50.8      50.2       38     26.1      0.00     17.79      57.2     0.49      1019.0    10       353        15         1        9.34     438      390.3
   02/23/2017 10:00      50.7      50.2       38     25.9      0.00     17.79      57.3     0.49      1019.0    10       357        18       339        9.34     445      376.4
   02/23/2017 09:50      50.4      49.8       39     25.9      0.00     17.79      57.2     0.49      1019.0     8       340        14         6        9.35     452      359.7
   02/23/2017 09:40      50.2      49.5       39     25.7      0.00     17.79      57.1     0.49      1019.0    10       356        15       339        9.35     460      344.6
   02/23/2017 09:30      49.7      49.5       39     25.8      0.00     17.79      57.5     0.49      1019.0     8       344        11       347        9.34     464      325.9
   02/23/2017 09:20      49.5      49.2       40     25.7      0.00     17.79      57.4     0.49      1019.0     9       351        11         2        9.35     469      307.7
   02/23/2017 09:10      49.0      48.4       40     25.3      0.00     17.79      57.5     0.49      1019.0     9       356        14         2        9.35     474      289.1
   02/23/2017 09:00      48.8      48.1       40     25.2      0.00     17.79      57.4     0.49      1019.0    11       344        16       330        9.35     480      268.8
   02/23/2017 08:50      48.9      48.3       39     25.0      0.00     17.79      57.4     0.49      1019.0     8       348        13         8        9.35     484      249.0
   02/23/2017 08:40      48.5      47.8       39     24.7      0.00     17.79      57.2     0.49      1019.0     7       356        11         4        9.35     490      229.9
   02/23/2017 08:30      48.0      47.6       40     24.7      0.00     17.79      57.5     0.49      1019.0    11       351        15         5        9.35     494      208.8
   02/23/2017 08:20      47.5      47.1       41     24.9      0.00     17.79      57.4     0.49      1019.0    10         3        15        11        9.35     497      185.5
   02/23/2017 08:10      47.3      47.0       42     25.2      0.00     17.79      58.0     0.49      1019.0     9       353        10       341        9.35     499      158.8
   02/23/2017 08:00      47.4      46.8       43     25.8      0.00     17.79      57.6     0.49      1019.0     8         4        12        20        9.35     501      131.1
   02/23/2017 07:50      47.3      46.1       44     25.9      0.00     17.79      57.6     0.50      1019.0     5         3        11         5        9.35     503       31.7
   02/23/2017 07:40      46.2      45.9       45     26.0      0.00     17.79      57.4     0.50      1019.0     6       355         9         1        9.35     507      -53.6
   02/23/2017 07:30      46.1      45.5       46     26.3      0.00     17.79      57.7     0.50      1019.0     4       352         7         8        9.35     510      -39.7
   02/23/2017 07:20      45.5      44.7       47     26.1      0.00     17.79      57.8     0.50      1019.0     3       343         5         3        9.35     512      -47.0
   02/23/2017 07:10      44.6      44.0       49     26.3      0.00     17.79      57.9     0.50      1019.0     2       300         3       291        9.35     513      -57.1
   02/23/2017 07:00      44.5      43.7       49     26.3      0.00     17.79      57.7     0.50      1018.0     2       273         5       341        9.35     513      -60.3
   02/23/2017 06:50      44.0      43.5       50     26.2      0.00     17.79      57.8     0.50      1018.0     2       344         5       326        9.35     512      -65.1
   02/23/2017 06:40      43.9      43.4       50     26.2      0.00     17.79      58.0     0.50      1018.0     2       307         5       337        9.35     511      -69.6
   02/23/2017 06:30      44.5      43.9       49     26.1      0.00     17.79      57.8     0.50      1018.0     1       288         2       219        9.35     510      -73.9
   02/23/2017 06:20      44.4      44.3       48     25.7      0.00     17.79      57.6     0.50      1018.0     2       308         4       328        9.35     508      -76.2
   02/23/2017 06:10      44.7      44.4       48     26.0      0.00     17.79      57.8     0.50      1018.0     3       343         5       347        9.35     507      -76.9
   02/23/2017 06:00      44.9      44.5       47     25.9      0.00     17.79      57.9     0.50      1018.0     5       327         8       329        9.35     505      -76.7
   02/23/2017 05:50      44.9      44.6       48     26.2      0.00     17.79      58.1     0.50      1018.0     6       341         8       353        9.35     505      -76.7
   02/23/2017 05:40      44.8      44.5       49     26.7      0.00     17.79      58.1     0.50      1018.0     5       348         9       326        9.35     505      -76.9
   02/23/2017 05:30      45.0      44.8       49     26.7      0.00     17.79      57.9     0.50      1018.0     6       346        11       348        9.35     505      -77.0
   02/23/2017 05:20      45.0      44.9       49     26.7      0.00     17.79      58.1     0.50      1017.0     6       351        13       300        9.35     505      -76.9
   02/23/2017 05:10      45.1      44.9       49     26.9      0.00     17.79      58.3     0.50      1017.0     8       339        17       316        9.35     508      -77.0
   02/23/2017 05:00      45.2      44.9       49     27.0      0.00     17.79      58.3     0.50      1017.0     6       345        12       348        9.35     507      -77.2
   02/23/2017 04:50      45.4      44.9       49     26.9      0.00     17.79      58.2     0.50      1017.0     7       351        11       354        9.35     506      -77.0
   02/23/2017 04:40      45.2      44.9       49     27.2      0.00     17.79      58.4     0.50      1017.0     7       341        10       338        9.35     505      -76.9
   02/23/2017 04:30      45.4      45.2       49     27.3      0.00     17.79      58.0     0.50      1017.0     8       347        12       337        9.35     505      -76.7
   02/23/2017 04:20      45.7      45.3       49     27.4      0.00     17.79      58.3     0.50      1017.0     8       347        11       346        9.35     504      -76.5
   02/23/2017 04:10      45.8      45.5       49     27.4      0.00     17.79      58.5     0.50      1017.0     8       347        11       352        9.35     507      -76.2
   02/23/2017 04:00      45.8      45.5       50     27.9      0.00     17.79      58.5     0.50      1017.0     6       357        11         9        9.35     506      -76.3
   02/23/2017 03:50      46.0      45.6       50     28.2      0.00     17.79      58.3     0.50      1017.0     6         2        11         8        9.35     505      -76.3
   02/23/2017 03:40      46.0      45.9       50     28.2      0.00     17.79      58.2     0.50      1017.0     7       352        10       322        9.35     505      -75.8
   02/23/2017 03:30      46.1      45.9       50     28.3      0.00     17.79      58.9     0.50      1017.0     8       354        12       346        9.35     504      -75.7
   02/23/2017 03:20      46.5      46.0       49     28.3      0.00     17.79      58.8     0.50      1017.0     7         2        10         0        9.35     503      -75.7
   02/23/2017 03:10      46.5      46.4       49     28.5      0.00     17.79      58.5     0.50      1017.0     7       349        11       332        9.35     503      -75.3
   02/23/2017 03:00      46.7      46.4       50     28.9      0.00     17.79      58.4     0.50      1017.0     7       356        11        16        9.35     502      -75.1
   02/23/2017 02:50      46.8      46.4       50     29.2      0.00     17.79      58.7     0.50      1017.0     7       342        10       336        9.35     501      -74.4
   02/23/2017 02:40      46.5      45.4       54     30.1      0.00     17.79      58.8     0.50      1017.0     5       355         7       333        9.35     500      -73.7
   02/23/2017 02:30      45.5      41.1       64     31.8      0.00     17.79      58.6     0.50      1018.0     3       353         6       348        9.35     499      -72.7
   02/23/2017 02:20      41.5      41.1       73     33.3      0.00     17.79      58.6     0.50      1018.0     1       146         2       149        9.35     498      -72.3
   02/23/2017 02:10      41.6      40.8       76     34.0      0.00     17.79      58.7     0.50      1018.0     1       141         2       136        9.36     496      -72.7
   02/23/2017 02:00      41.7      41.5       74     34.1      0.00     17.79      59.0     0.50      1018.0     2       139         3       128        9.35     494      -73.0
   02/23/2017 01:50      43.2      41.6       71     33.7      0.00     17.79      59.1     0.50      1018.0     2       182         3       199        9.35     492      -72.9
   02/23/2017 01:40      44.8      43.3       65     32.9      0.00     17.79      59.0     0.50      1018.0     2       179         3       192        9.35     490      -73.8
   02/23/2017 01:30      46.8      44.9       59     32.1      0.00     17.79      59.1     0.50      1018.0     1       186         2       142        9.35     489      -74.5
   02/23/2017 01:20      47.3      46.5       54     31.3      0.00     17.79      58.6     0.50      1018.0     2       240         4       240        9.35     489      -75.2
   02/23/2017 01:10      47.3      47.1       53     31.1      0.00     17.79      59.0     0.50      1018.0     2       263         3       267        9.35     487      -74.8
   02/23/2017 01:00      47.8      47.3       52     31.0      0.00     17.79      58.9     0.50      1018.0     3       229         4       242        9.35     488      -74.8
   02/23/2017 00:50      48.7      48.0       50     30.4      0.00     17.79      58.8     0.50      1018.0     3       240         5       242        9.35     486      -75.2
   02/23/2017 00:40      48.1      46.8       53     30.9      0.00     17.79      59.0     0.50      1018.0     3       224         5       231        9.35     484      -73.8
   02/23/2017 00:30      47.0      44.1       61     32.4      0.00     17.79      59.1     0.50      1018.0     3       203         5       214        9.36     483      -72.7
   02/23/2017 00:20      46.0      43.8       62     32.7      0.00     17.79      59.4     0.50      1018.0     3       193         4       177        9.36     480      -72.9
   02/23/2017 00:10      44.5      43.7       66     33.4      0.00     17.79      58.9     0.50      1018.0     2       176         3       168        9.36     478      -73.6
   02/23/2017 00:00      45.5      44.9       62     32.8      0.00     17.79      59.1     0.50      1018.0     2       186         3       182        9.36     474      -74.3
   02/22/2017 23:50      47.4      45.6       58     32.3      0.00     17.79      59.0     0.50      1018.0     2       181         3       189        9.36     472      -75.1
   02/22/2017 23:40      48.9      47.6       52     31.4      0.00     17.79      59.2     0.50      1018.0     2       229         3       210        9.36     471      -76.2
   02/22/2017 23:30      49.0      48.8       49     30.7      0.00     17.79      59.0     0.50      1018.0     2       303         5       355        9.36     468      -77.4
   02/22/2017 23:20      49.4      49.3       48     30.7      0.00     17.79      59.1     0.50      1018.0     2       299         3       325        9.36     466      -77.8
   02/22/2017 23:10      49.6      49.3       48     30.6      0.00     17.79      59.2     0.50      1018.0     2       318         3       319        9.36     462      -77.9
   02/22/2017 23:00      49.8      49.5       47     30.5      0.00     17.79      58.9     0.50      1018.0     3       311         7       306        9.36     459      -78.1
   02/22/2017 22:50      49.8      49.5       48     30.6      0.00     17.79      58.8     0.50      1018.0     4       324         7       339        9.36     457      -78.2
   02/22/2017 22:40      50.0      49.7       48     31.0      0.00     17.79      59.1     0.50      1018.0     2       322         3       324        9.36     455      -78.1
   02/22/2017 22:30      50.2      49.9       49     31.3      0.00     17.79      59.5     0.50      1018.0     3       323         5       322        9.36     452      -78.3
   02/22/2017 22:20      50.4      49.9       50     32.1      0.00     17.79      59.2     0.50      1018.0     2       308         4       297        9.36     449      -77.9
   02/22/2017 22:10      50.2      49.9       51     32.7      0.00     17.79      59.2     0.50      1018.0     2       282         4       265        9.36     446      -77.5
   02/22/2017 22:00      50.4      49.5       51     32.7      0.00     17.79      59.2     0.50      1018.0     2       289         3       279        9.36     444      -77.6
   02/22/2017 21:50      49.4      47.2       57     33.5      0.00     17.79      59.3     0.50      1018.0     3       270         4       282        9.36     444      -76.5
   02/22/2017 21:40      48.4      46.8       62     34.9      0.00     17.79      59.8     0.50      1018.0     1       236         2       311        9.36     442      -76.4
   02/22/2017 21:30      49.0      48.5       56     33.6      0.00     17.79      59.3     0.50      1018.0     1       209         1       215        9.36     438      -77.2
   02/22/2017 21:20      49.1      48.3       57     34.0      0.00     17.79      59.2     0.50      1018.0     1         0         2       320        9.36     435      -78.7
   02/22/2017 21:10      50.8      49.4       53     33.7      0.00     17.79      59.4     0.50      1018.0     1        55         1        71        9.36     430      -79.3
   02/22/2017 21:00      50.9      50.3       51     33.2      0.00     17.79      59.4     0.50      1018.0     3        15         6        10        9.36     428      -80.3
   02/22/2017 20:50      51.7      50.5       52     34.0      0.00     17.79      59.6     0.50      1018.0     1        35         3        13        9.37     424      -81.0
   02/22/2017 20:40      52.0      51.7       49     33.3      0.00     17.79      59.2     0.50      1018.0     4       358         6       350        9.37     420      -81.7
   02/22/2017 20:30      52.2      51.9       49     33.6      0.00     17.79      59.3     0.50      1018.0     5       348         7       321        9.37     415      -81.6
   02/22/2017 20:20      52.3      52.1       49     33.6      0.00     17.79      59.2     0.50      1018.0     5         8         9       355        9.37     409      -81.1
   02/22/2017 20:10      52.4      51.0       50     33.8      0.00     17.79      59.4     0.50      1017.0     4         2         6        22        9.37     404      -80.9
   02/22/2017 20:00      50.8      50.0       57     35.5      0.00     17.79      59.5     0.50      1017.0     1        13         3         5        9.37     399      -79.9
   02/22/2017 19:50      51.0      50.5       56     35.5      0.00     17.79      59.0     0.50      1017.0     1       132         2       136        9.37     392      -79.3
   02/22/2017 19:40      53.6      51.4       51     34.9      0.00     17.79      59.5     0.50      1017.0     2        96         3        92        9.37     386      -81.1
   02/22/2017 19:30      54.1      53.6       46     33.3      0.00     17.79      59.2     0.50      1017.0     2       336         5       314        9.37     379      -83.1
   02/22/2017 19:20      54.3      54.1       48     34.6      0.00     17.79      58.7     0.50      1017.0     4       340         6        10        9.37     372      -82.9
   02/22/2017 19:10      54.4      54.1       65     43.0      0.00     17.79      58.9     0.50      1017.0     2       358         4         5        9.37     364      -77.6
   02/22/2017 19:00      54.3      54.1       66     43.1      0.00     17.79      58.9     0.50      1017.0     2       337         4       282        9.37     357      -75.6
   02/22/2017 18:50      54.1      53.8       68     43.6      0.00     17.79      59.0     0.50      1017.0     3       221         7       230        9.38     350      -70.1
   02/22/2017 18:40      55.4      54.4       67     44.0      0.00     17.79      59.5     0.50      1017.0     3       205         4       201        9.38     343      -76.2
   02/22/2017 18:30      55.4      54.6       65     43.3      0.00     17.79      58.8     0.50      1017.0     2       205         4       218        9.38     335      -75.7
   02/22/2017 18:20      55.7      55.2       66     44.4      0.00     17.79      58.9     0.50      1017.0     1        84         2        73        9.38     328      -68.6
   02/22/2017 18:10      56.9      55.9       64     44.3      0.00     17.79      59.2     0.50      1017.0     2       226         3       238        9.38     322      -53.9
   02/22/2017 18:00      56.9      56.5       63     44.1      0.00     17.79      59.1     0.50      1017.0     2       268         3       293        9.38     318      -44.0
   02/22/2017 17:50      56.9      56.5       63     44.2      0.00     17.79      58.9     0.50      1017.0     3       236         5       269        9.38     313      -67.4
   02/22/2017 17:40      57.6      57.0       61     44.1      0.00     17.79      58.9     0.50      1016.0     2       228         3       216        9.38     307      -72.4
   02/22/2017 17:30      58.0      57.7       60     44.0      0.00     17.79      59.3     0.50      1016.0     2       251         4       243        9.38     301      -70.6
   02/22/2017 17:20      58.8      58.0       58     43.5      0.00     17.79      59.0     0.50      1016.0     4       227         6       242        9.38     296      -66.9
   02/22/2017 17:10      59.5      58.7       56     43.3      0.00     17.79      59.2     0.50      1016.0     4       254         6       264        9.39     291      -51.4
   02/22/2017 17:00      60.3      59.9       52     42.6      0.00     17.79      58.7     0.50      1016.0     3       239         6       230        9.39     286       -0.0
   02/22/2017 16:50      60.4      59.9       51     41.9      0.00     17.79      58.8     0.50      1016.0     4       266         6       240        9.39     286       16.9
   02/22/2017 16:40      60.0      59.8       51     41.6      0.00     17.79      59.0     0.50      1016.0     4       250         6       257        9.39     286       62.1
   02/22/2017 16:30      60.1      59.8       51     41.6      0.00     17.79      58.7     0.50      1016.0     6       272         8       312        9.39     286       74.4
   02/22/2017 16:20      59.9      59.4       55     43.2      0.00     17.79      58.6     0.50      1016.0     6       239        10       219        9.39     286       95.0
   02/22/2017 16:10      60.4      59.5       52     42.1      0.00     17.79      58.7     0.50      1016.0     9       247        11       231        9.39     286      120.0
   02/22/2017 16:00      60.4      59.9       50     41.3      0.00     17.79      58.4     0.50      1016.0     7       245        12       219        9.40     286      143.3
   02/22/2017 15:50      60.6      60.3       50     41.8      0.00     17.79      58.4     0.50      1016.0     8       247        12       246        9.40     286      170.9
   02/22/2017 15:40      61.3      60.3       49     41.9      0.00     17.79      58.8     0.50      1016.0     7       231        12       221        9.40     286      173.2
   02/22/2017 15:30      61.5      61.2       50     42.5      0.00     17.79      58.8     0.50      1016.0     7       239        10       233        9.40     287      232.3
   02/22/2017 15:20      62.3      61.8       48     42.4      0.00     17.79      58.3     0.50      1016.0     7       250         9       238        9.40     288      285.7
   02/22/2017 15:10      62.9      61.8       49     42.9      0.00     17.79      58.7     0.50      1016.0     7       240         9       262        9.41     289      327.6
   02/22/2017 15:00      63.0      62.4       48     42.8      0.00     17.79      58.4     0.50      1016.0     6       252         8       256        9.40     290      399.0
   02/22/2017 14:50      62.7      60.8       48     41.8      0.00     17.79      58.1     0.50      1016.0     4       231         5       222        9.40     292      279.4
   02/22/2017 14:40      60.5      60.3       51     42.2      0.00     17.79      58.2     0.50      1016.0     3       164         5       153        9.41     294      161.6
   02/22/2017 14:30      61.5      60.5       51     42.7      0.00     17.79      58.1     0.50      1016.0     4       163         6       127        9.41     294      234.9
   02/22/2017 14:20      61.5      61.1       49     42.3      0.00     17.79      58.2     0.50      1016.0     3       127         5       177        9.41     295      114.8
   02/22/2017 14:10      61.7      59.7       52     42.6      0.00     17.79      58.0     0.50      1016.0     4       129         6       155        9.41     296      303.3
   02/22/2017 14:00      60.5      59.7       51     41.8      0.00     17.79      58.4     0.50      1016.0     4       118         6       125        9.41     298      136.2
   02/22/2017 13:50      60.3      59.9       51     41.9      0.00     17.79      57.9     0.50      1016.0     4       133         5       143        9.41     299      138.3
   02/22/2017 13:40      61.5      60.3       50     42.1      0.00     17.79      58.3     0.50      1017.0     3       157         4       165        9.41     300       36.3
   02/22/2017 13:30      62.0      61.2       48     41.5      0.00     17.79      58.1     0.50      1017.0     2       193         3       231        9.41     300      106.0
   02/22/2017 13:20      63.1      61.3       45     40.5      0.00     17.79      58.1     0.50      1017.0     3       130         4       149        9.41     301      193.1
   02/22/2017 13:10      62.7      61.6       45     40.4      0.00     17.79      57.8     0.50      1017.0     3       113         5        81        9.41     303      446.8
   02/22/2017 13:00      62.3      61.4       46     40.5      0.00     17.79      58.2     0.50      1017.0     3       143         5       140        9.41     308      441.9
   02/22/2017 12:50      62.1      60.7       47     40.9      0.00     17.79      58.0     0.50      1017.0     3       132         6       137        9.41     313      473.3
   02/22/2017 12:40      63.1      62.4       45     41.4      0.00     17.79      58.1     0.50      1017.0     2       113         3        64        9.41     318      274.4
   02/22/2017 12:30      63.0      61.8       47     41.5      0.00     17.79      57.8     0.50      1018.0     2       144         3       166        9.41     326      530.2
   02/22/2017 12:20      62.2      61.5       48     41.9      0.00     17.79      57.9     0.50      1018.0     3       110         4       153        9.41     335      536.1
   02/22/2017 12:10      62.2      61.5       48     42.2      0.00     17.79      57.9     0.50      1018.0     3       104         4        77        9.41     342      474.9
   02/22/2017 12:00      62.1      61.3       49     42.3      0.00     17.79      57.3     0.50      1018.0     3        57         5        58        9.41     351      458.2
   02/22/2017 11:50      62.2      61.6       49     42.3      0.00     17.79      57.6     0.50      1018.0     3        82         6        80        9.41     359      455.9
   02/22/2017 11:40      62.1      60.6       50     42.6      0.00     17.79      57.6     0.50      1019.0     3        48         5        65        9.41     371      510.0
   02/22/2017 11:30      60.9      59.5       52     42.5      0.00     17.79      57.7     0.50      1019.0     2        13         4        35        9.41     384      506.3
   02/22/2017 11:20      59.6      59.0       54     42.7      0.00     17.79      57.8     0.50      1019.0     3       341         3       356        9.41     401      175.1
   02/22/2017 11:10      59.6      58.2       56     42.9      0.00     17.79      57.6     0.50      1019.0     1       265         3       272        9.41     407      375.7
   02/22/2017 11:00      58.6      58.2       55     42.3      0.00     17.79      57.7     0.50      1019.0     1       315         3       274        9.41     420       41.0
   02/22/2017 10:50      59.0      58.6       56     43.2      0.00     17.79      58.1     0.50      1019.0     2         8         3         1        9.41     421       85.3
   02/22/2017 10:40      59.6      58.3       57     43.6      0.00     17.79      57.9     0.50      1019.0     1         9         3       302        9.41     423      318.5
   02/22/2017 10:30      59.2      58.2       56     43.0      0.00     17.79      57.9     0.50      1019.0     2        61         3        64        9.41     432       48.5
   02/22/2017 10:20      60.4      58.7       55     43.2      0.00     17.79      58.3     0.50      1019.0     1        22         3        32        9.41     432      326.6
   02/22/2017 10:10      59.0      58.7       57     43.7      0.00     17.79      58.5     0.50      1020.0     3       144         4       142        9.41     439      412.0
   02/22/2017 10:00      59.2      58.4       57     43.8      0.00     17.79      58.0     0.50      1020.0     1       284         3       292        9.41     449      381.5
   02/22/2017 09:50      59.2      57.8       57     43.5      0.00     17.79      58.1     0.50      1020.0     2       262         4       233        9.41     456      369.0
   02/22/2017 09:40      58.4      56.4       58     42.5      0.00     17.79      58.6     0.50      1020.0     1       204         4       194        9.41     462      364.1
   02/22/2017 09:30      56.9      55.8       64     44.5      0.00     17.79      58.1     0.50      1020.0     3       197         4       230        9.41     467      363.2
   02/22/2017 09:20      55.9      55.3       67     44.8      0.00     17.79      58.0     0.50      1020.0     2       199         4       226        9.41     471      357.9
   02/22/2017 09:10      55.6      54.7       71     45.8      0.00     17.79      58.3     0.50      1020.0     3       184         4       225        9.41     477      348.7
   02/22/2017 09:00      55.6      55.1       71     46.0      0.00     17.79      58.0     0.50      1020.0     3       211         5       216        9.41     487      342.5
   02/22/2017 08:50      55.1      54.6       72     46.1      0.00     17.79      58.2     0.50      1020.0     2       214         3       231        9.41     494      321.4
   02/22/2017 08:40      56.7      55.3       71     46.6      0.00     17.79      58.9     0.50      1020.0     2       200         4       212        9.41     501      299.9
   02/22/2017 08:30      55.3      54.7       74     46.8      0.00     17.79      58.3     0.50      1020.0     2       250         2       255        9.41     505      269.3
   02/22/2017 08:20      54.6      53.4       77     46.9      0.00     17.79      58.4     0.50      1020.0     1       232         3       246        9.41     508      238.9
   02/22/2017 08:10      53.5      52.6       79     46.8      0.00     17.79      58.3     0.50      1020.0     2       236         4       234        9.41     510      201.4
   02/22/2017 08:00      53.2      52.7       80     47.0      0.00     17.79      58.5     0.50      1020.0     1       197         2       233        9.41     512      159.1
   02/22/2017 07:50      52.7      50.1       88     47.8      0.00     17.79      58.6     0.50      1020.0     1        82         1       100        9.41     514       66.3
   02/22/2017 07:40      50.1      48.0       93     47.0      0.00     17.79      58.9     0.50      1020.0     1       356         1       289        9.41     516       19.1
   02/22/2017 07:30      48.1      47.1       94     45.7      0.00     17.79      58.6     0.50      1020.0     1       141         2       159        9.41     518       22.1
   02/22/2017 07:20      47.1      46.3       94     45.0      0.00     17.79      58.6     0.50      1020.0     2       185         2       178        9.41     518       13.3
   02/22/2017 07:10      46.1      45.4       94     44.1      0.00     17.79      58.4     0.50      1020.0     2       147         3       166        9.41     518        6.1
   02/22/2017 07:00      46.2      45.6       94     44.1      0.00     17.79      58.8     0.50      1020.0     2        83         4       171        9.41     517        1.9
   02/22/2017 06:50      46.2      45.0       93     43.8      0.00     17.79      58.3     0.50      1020.0     3       182         5       180        9.41     516       -1.1
   02/22/2017 06:40      46.0      45.5       92     43.5      0.00     17.79      58.4     0.50      1020.0     1       125         3       157        9.41     516       -6.6
   02/22/2017 06:30      47.4      46.0       91     44.0      0.00     17.79      58.9     0.50      1020.0     1       131         2       192        9.41     515       -9.3
   02/22/2017 06:20      47.4      47.1       91     44.8      0.00     17.79      58.8     0.50      1020.0     3       205         4       216        9.41     513      -10.1
   02/22/2017 06:10      48.2      47.5       91     45.2      0.00     17.79      58.5     0.50      1020.0     2       212         4       230        9.41     512      -10.4
   02/22/2017 06:00      48.3      48.2       90     45.5      0.00     17.79      58.8     0.50      1020.0     2       210         4       214        9.42     511      -10.6
   02/22/2017 05:50      48.8      48.2       90     45.5      0.00     17.79      58.6     0.50      1020.0     3       204         3       215        9.42     509      -11.1
   02/22/2017 05:40      48.8      48.5       90     45.9      0.00     17.79      58.7     0.50      1020.0     4       201         5       217        9.42     509      -11.1
   02/22/2017 05:30      48.8      48.6       91     46.2      0.00     17.79      58.6     0.50      1020.0     4       202         5       197        9.42     513      -10.8
   02/22/2017 05:20      48.8      48.3       92     46.3      0.00     17.79      58.7     0.50      1020.0     4       209         5       216        9.42     516      -10.9
   02/22/2017 05:10      48.3      47.8       92     45.9      0.00     17.79      58.6     0.50      1020.0     4       199         4       218        9.41     517      -10.6
   02/22/2017 05:00      48.3      47.8       92     45.7      0.00     17.79      58.5     0.51      1020.0     3       197         3       210        9.41     515      -11.1
   02/22/2017 04:50      48.6      48.2       91     45.8      0.00     17.79      58.4     0.51      1020.0     3       190         4       199        9.41     513      -11.4
   02/22/2017 04:40      48.9      48.7       91     46.2      0.00     17.79      58.7     0.51      1020.0     3       194         4       194        9.41     511      -11.4
   02/22/2017 04:30      49.2      48.8       90     46.3      0.00     17.79      59.0     0.51      1021.0     3       199         4       216        9.41     509      -11.4
   02/22/2017 04:20      49.5      49.2       90     46.5      0.00     17.79      59.4     0.51      1021.0     4       201         6       192        9.41     507      -11.9
   02/22/2017 04:10      49.9      49.7       89     46.6      0.00     17.79      59.3     0.51      1021.0     3       212         4       222        9.42     506      -12.0
   02/22/2017 04:00      50.1      49.9       89     46.9      0.00     17.79      58.8     0.51      1021.0     3       233         5       239        9.41     504      -12.3
   02/22/2017 03:50      50.2      49.9       89     46.8      0.00     17.79      59.5     0.51      1020.0     2       226         4       252        9.42     503      -12.6
   02/22/2017 03:40      50.3      50.0       89     46.9      0.00     17.79      59.2     0.51      1020.0     2       218         3       243        9.42     504      -12.6
   02/22/2017 03:30      50.3      50.1       89     47.0      0.00     17.79      59.2     0.51      1020.0     3       224         4       239        9.42     502      -12.2
   02/22/2017 03:20      50.4      50.1       89     47.1      0.00     17.79      59.4     0.51      1021.0     2       227         5       242        9.42     501      -12.6
   02/22/2017 03:10      50.6      50.3       89     47.4      0.00     17.79      59.3     0.51      1021.0     3       198         3       204        9.42     500      -12.7
   02/22/2017 03:00      50.9      50.7       89     47.6      0.00     17.79      59.2     0.51      1021.0     4       201         6       200        9.42     507      -12.7
   02/22/2017 02:50      50.9      50.6       89     47.6      0.00     17.79      59.4     0.51      1021.0     4       201         5       208        9.42     505      -12.9
   02/22/2017 02:40      50.9      50.8       88     47.6      0.00     17.79      58.9     0.51      1021.0     3       208         5       197        9.42     503      -13.4
   02/22/2017 02:30      51.1      50.8       89     47.7      0.00     17.79      59.3     0.51      1021.0     3       212         4       210        9.42     501      -13.3
   02/22/2017 02:20      51.2      50.9       89     47.8      0.00     17.79      58.4     0.51      1021.0     2       205         4       199        9.42     498      -13.3
   02/22/2017 02:10      51.7      51.2       88     48.1      0.00     17.79      59.6     0.51      1021.0     3       194         3       182        9.42     496      -13.4
   02/22/2017 02:00      51.8      51.5       89     48.6      0.00     17.79      59.6     0.51      1022.0     3       201         5       226        9.42     493      -13.5
   02/22/2017 01:50      51.7      51.3       89     48.4      0.00     17.79      59.1     0.51      1022.0     2       193         5       203        9.42     491      -11.8
   02/22/2017 01:40      51.8      51.7       89     48.5      0.00     17.79      59.1     0.51      1022.0     2       201         3       200        9.42     489      -10.6
   02/22/2017 01:30      52.0      51.8       88     48.5      0.00     17.79      58.8     0.51      1022.0     2       200         3       208        9.42     487      -11.2
   02/22/2017 01:20      52.4      52.2       88     48.8      0.00     17.79      59.0     0.51      1022.0     3       197         4       193        9.42     485      -12.6
   02/22/2017 01:10      52.6      52.5       88     49.1      0.00     17.79      59.8     0.51      1022.0     4       207         6       198        9.42     482      -12.5
   02/22/2017 01:00      52.8      52.5       89     49.3      0.00     17.79      59.6     0.51      1022.0     4       207         6       213        9.42     481      -10.9
   02/22/2017 00:50      52.9      52.6       89     49.5      0.00     17.79      59.4     0.51      1022.0     3       207         5       206        9.42     480      -11.2
   02/22/2017 00:40      53.3      52.8       88     49.6      0.00     17.79      59.2     0.51      1022.0     3       207         4       203        9.42     479      -12.0
   02/22/2017 00:30      53.5      53.2       88     49.8      0.00     17.79      58.7     0.51      1022.0     3       217         5       238        9.42     477      -13.4
   02/22/2017 00:20      53.6      53.1       89     50.0      0.00     17.79      59.2     0.51      1023.0     3       204         4       208        9.42     475      -11.6
   02/22/2017 00:10      53.3      52.6       90     50.0      0.00     17.79      59.4     0.51      1023.0     3       225         6       226        9.42     474       -9.7
   02/22/2017 00:00      52.9      52.7       91     50.2      0.00     17.79      59.4     0.51      1023.0     3       244         4       242        9.42     472      -11.2
   02/21/2017 23:50      53.1      52.6       91     50.2      0.00     17.79      59.7     0.51      1023.0     2       201         3       215        9.42     471      -11.6
   02/21/2017 23:40      53.1      52.9       91     50.5      0.00     17.79      59.5     0.51      1023.0     1       216         3       238        9.42     469      -12.6
   02/21/2017 23:30      53.3      52.9       91     50.6      0.00     17.79      59.2     0.51      1023.0     2       221         3       245        9.42     467      -10.7
   02/21/2017 23:20      53.3      53.0       92     51.0      0.00     17.79      59.8     0.51      1023.0     3       234         5       212        9.42     464      -13.1
   02/21/2017 23:10      53.1      52.5       93     50.7      0.00     17.79      59.8     0.51      1023.0     2       240         5       249        9.42     462      -14.0
   02/21/2017 23:00      52.6      51.8       93     50.4      0.00     17.79      58.9     0.51      1023.0     2       276         3       304        9.42     459      -12.8
   02/21/2017 22:50      51.9      51.7       92     49.6      0.00     17.79      59.3     0.51      1023.0     1       331         2       307        9.42     456      -12.9
   02/21/2017 22:40      52.1      51.7       91     49.5      0.00     17.79      59.4     0.51      1023.0     1       148         2       185        9.42     453      -14.3
   02/21/2017 22:30      53.0      52.1       90     49.6      0.00     17.79      58.9     0.51      1023.0     0       148         1       144        9.42     449      -16.5
   02/21/2017 22:20      53.3      53.1       90     50.3      0.00     17.79      59.6     0.51      1023.0     1       214         2       219        9.42     446      -17.2
   02/21/2017 22:10      53.5      53.3       90     50.4      0.00     17.79      59.0     0.51      1023.0     2       223         2       223        9.42     442      -17.0
   02/21/2017 22:00      53.7      53.2       89     50.3      0.00     17.79      59.1     0.51      1023.0     2       222         3       228        9.42     439      -17.0
   02/21/2017 21:50      54.2      53.9       88     50.7      0.00     17.79      59.5     0.51      1023.0     2       216         3       247        9.42     435      -17.6
   02/21/2017 21:40      54.2      54.0       89     50.9      0.00     17.79      59.5     0.51      1024.0     2       240         3       240        9.42     431      -15.3
   02/21/2017 21:30      54.2      53.4       91     51.2      0.00     17.79      58.8     0.51      1024.0     3       241         4       225        9.42     429      -15.0
   02/21/2017 21:20      53.4      53.0       91     50.8      0.00     17.79      59.6     0.51      1024.0     2       223         3       238        9.42     426      -14.9
   02/21/2017 21:10      53.1      52.5       92     50.4      0.00     17.79      59.6     0.51      1023.0     2       218         3       223        9.42     422      -18.8
   02/21/2017 21:00      52.8      52.5       91     49.9      0.00     17.79      59.2     0.51      1023.0     2       195         3       165        9.42     418      -20.1
   02/21/2017 20:50      53.6      52.7       89     50.0      0.00     17.79      59.0     0.51      1023.0     2       176         3       158        9.42     414      -20.5
   02/21/2017 20:40      54.0      53.7       90     50.9      0.00     17.79      59.0     0.51      1024.0     1       231         2       242        9.42     410      -21.6
   02/21/2017 20:30      54.2      53.8       89     50.9      0.00     17.79      59.4     0.51      1023.0     2       225         2       176        9.42     406      -19.5
   02/21/2017 20:20      54.3      54.1       88     50.6      0.00     17.79      58.8     0.51      1023.0     2       158         2       146        9.42     401      -18.1
   02/21/2017 20:10      54.7      54.5       88     51.0      0.00     17.79      59.5     0.51      1023.0     1       189         2       206        9.42     396      -15.3
   02/21/2017 20:00      54.8      54.5       87     50.9      0.00     17.79      59.5     0.51      1023.0     1       182         1       210        9.42     393       -9.6
   02/21/2017 19:50      54.8      54.5       87     50.8      0.00     17.79      59.1     0.51      1023.0     0       180         1       178        9.42     390      -11.3
   02/21/2017 19:40      54.9      54.6       88     51.1      0.00     17.79      59.1     0.51      1023.0     1        47         1       302        9.42     387      -14.7
   02/21/2017 19:30      55.2      54.8       88     51.5      0.00     17.79      59.1     0.51      1023.0     2        77         3        89        9.42     383      -17.6
   02/21/2017 19:20      55.4      55.1       88     51.8      0.00     17.79      59.4     0.51      1023.0     1        52         2        84        9.42     377      -12.8
   02/21/2017 19:10      55.4      55.2       88     51.9      0.00     17.79      59.7     0.51      1023.0     1        70         2        67        9.42     373       -9.1
   02/21/2017 19:00      55.4      55.1       88     51.9      0.00     17.79      59.4     0.51      1023.0     2        70         3        75        9.42     370       -9.7
   02/21/2017 18:50      55.5      55.4       89     52.2      0.00     17.79      59.3     0.51      1024.0     2        78         3       103        9.42     366      -13.1
   02/21/2017 18:40      55.7      55.5       89     52.5      0.00     17.79      59.4     0.51      1024.0     2        80         4        77        9.42     361      -12.1
   02/21/2017 18:30      56.1      55.7       90     52.9      0.00     17.79      59.2     0.51      1023.0     2        79         4        63        9.42     356       -6.6
   02/21/2017 18:20      56.2      56.0       90     53.2      0.00     17.79      58.9     0.51      1023.0     3        68         4        63        9.42     353       -6.5
   02/21/2017 18:10      56.4      56.0       90     53.3      0.00     17.79      58.7     0.51      1023.0     2        70         4        77        9.42     349       -6.6
   02/21/2017 18:00      56.5      56.2       90     53.4      0.00     17.79      59.1     0.51      1023.0     2        81         3        79        9.42     346       -7.4
   02/21/2017 17:50      56.6      56.3       90     53.4      0.00     17.79      59.0     0.51      1023.0     2        52         2        37        9.42     343       -8.8
   02/21/2017 17:40      56.6      56.3       90     53.3      0.00     17.79      59.1     0.51      1024.0     1        87         1       126        9.42     338       -5.5
   02/21/2017 17:30      56.5      56.1       89     53.3      0.00     17.79      59.1     0.51      1024.0     1       133         1       101        9.42     336       -2.7
   02/21/2017 17:20      56.5      56.3       89     53.4      0.00     17.79      58.9     0.51      1023.0     1        79         2       104        9.42     332        8.6
   02/21/2017 17:10      56.6      56.4       88     53.0      0.01     17.79      58.7     0.51      1023.0     2       122         2       134        9.42     329       21.0
   02/21/2017 17:00      56.7      56.5       86     52.5      0.01     17.78      59.0     0.51      1024.0     1       145         2       125        9.42     326       26.1
   02/21/2017 16:50      57.1      56.6       83     51.9      0.00     17.77      59.3     0.51      1024.0     1       182         2       157        9.42     324       23.0
   02/21/2017 16:40      58.0      57.2       79     51.0      0.00     17.77      59.0     0.51      1024.0     2       201         3       211        9.42     319       33.2
   02/21/2017 16:30      58.9      58.0       74     50.1      0.00     17.77      59.2     0.51      1024.0     3       241         5       256        9.42     316       24.8
   02/21/2017 16:20      59.9      59.0       70     49.5      0.00     17.77      58.6     0.51      1024.0     4       258         5       267        9.42     313       29.3
   02/21/2017 16:10      60.9      60.1       64     48.2      0.00     17.77      59.0     0.51      1024.0     4       240         6       235        9.42     311       44.4
   02/21/2017 16:00      61.1      61.0       62     48.1      0.00     17.77      59.0     0.51      1024.0     4       244         7       249        9.42     311       43.5
   02/21/2017 15:50      61.3      61.0       60     47.3      0.00     17.77      58.8     0.51      1024.0     3       242         5       251        9.42     311       56.9
   02/21/2017 15:40      61.6      61.1       59     47.0      0.00     17.77      58.9     0.51      1024.0     3       239         5       233        9.42     311       72.8
   02/21/2017 15:30      61.8      61.5       58     47.0      0.00     17.77      58.9     0.51      1024.0     4       171         5       205        9.42     312      110.5
   02/21/2017 15:20      62.0      61.8       54     44.8      0.00     17.77      58.6     0.51      1024.0     3       159         5       142        9.42     313       94.9
   02/21/2017 15:10      62.3      61.8       52     44.3      0.00     17.77      58.5     0.51      1024.0     3       174         4       160        9.42     314       72.8
   02/21/2017 15:00      62.5      62.2       51     44.0      0.00     17.77      58.4     0.51      1024.0     3       205         4       151        9.42     315      116.7
   02/21/2017 14:50      62.4      62.3       50     43.3      0.00     17.77      59.3     0.51      1024.0     3       204         5       168        9.42     316      121.9
   02/21/2017 14:40      63.3      62.3       50     43.5      0.00     17.77      58.5     0.51      1024.0     3       194         5       199        9.42     318      112.2
   02/21/2017 14:30      63.4      62.5       52     45.2      0.00     17.77      58.5     0.51      1024.0     3       180         5       166        9.42     321      233.5
   02/21/2017 14:20      62.8      61.9       54     45.4      0.00     17.77      59.0     0.51      1024.0     2       163         5       164        9.42     326      213.0
   02/21/2017 14:10      61.9      61.5       56     45.6      0.00     17.77      58.7     0.51      1024.0     3       182         4       193        9.42     329      152.8
   02/21/2017 14:00      61.8      61.6       54     44.8      0.00     17.77      58.6     0.51      1024.0     3       215         4       202        9.42     331      141.9
   02/21/2017 13:50      61.8      61.8       53     44.6      0.00     17.77      58.9     0.51      1024.0     3       208         5       223        9.42     334      130.2
   02/21/2017 13:40      61.9      61.1       53     44.0      0.00     17.77      58.9     0.51      1024.0     3       147         4       165        9.42     337      140.7
   02/21/2017 13:30      61.4      61.1       58     46.4      0.00     17.77      58.3     0.51      1024.0     4       167         6       156        9.42     338       94.5
   02/21/2017 13:20      61.5      61.3       64     49.0      0.00     17.77      58.2     0.51      1025.0     3       174         5       145        9.42     340      168.7
   02/21/2017 13:10      61.6      61.1       68     50.8      0.00     17.77      58.6     0.51      1025.0     3       202         5       216        9.42     342      162.1
   02/21/2017 13:00      61.4      60.8       70     51.3      0.00     17.77      58.2     0.51      1025.0     4       156         6       130        9.42     345      173.3
   02/21/2017 12:50      61.6      60.9       69     51.1      0.00     17.77      58.1     0.51      1025.0     3       167         4       183        9.42     348      192.8
   02/21/2017 12:40      61.1      60.9       68     50.4      0.00     17.77      58.6     0.51      1025.0     3       139         4       112        9.42     352      177.8
   02/21/2017 12:30      61.3      60.4       67     50.1      0.00     17.77      57.9     0.51      1025.0     2       159         3       192        9.42     355      178.1
   02/21/2017 12:20      61.0      60.6       66     49.6      0.00     17.77      57.8     0.51      1026.0     3       149         4       222        9.42     358      141.3
   02/21/2017 12:10      61.1      60.8       66     49.3      0.00     17.77      58.3     0.51      1026.0     2       141         3       151        9.42     360      153.1
   02/21/2017 12:00      61.5      61.1       67     50.3      0.00     17.77      58.4     0.51      1026.0     1       175         2       147        9.42     362      149.7
   02/21/2017 11:50      61.2      60.7       67     49.9      0.00     17.77      58.6     0.51      1026.0     1       341         2         2        9.42     364      171.1
   02/21/2017 11:40      60.6      60.4       67     49.6      0.00     17.77      58.7     0.51      1026.0     1       221         3       120        9.42     366      182.4
   02/21/2017 11:30      60.9      60.3       70     50.7      0.00     17.77      58.3     0.51      1026.0     1       139         2       103        9.42     369      221.2
   02/21/2017 11:20      60.4      59.7       73     51.3      0.00     17.77      58.2     0.51      1027.0     2       278         3       310        9.42     372      208.9
   02/21/2017 11:10      59.9      59.5       74     51.3      0.00     17.77      58.0     0.51      1027.0     2       267         2       229        9.42     376      134.1
   02/21/2017 11:00      60.0      59.5       73     51.0      0.00     17.77      57.7     0.51      1027.0     1       178         2       153        9.42     378      146.3
   02/21/2017 10:50      59.8      59.4       75     51.7      0.00     17.77      58.1     0.51      1027.0     2       278         3       319        9.42     380      133.1
   02/21/2017 10:40      59.8      59.3       77     52.2      0.00     17.77      58.3     0.51      1027.0     1       218         2       197        9.42     383      190.8
   02/21/2017 10:30      59.7      59.4       77     52.2      0.00     17.77      58.2     0.51      1027.0     1       303         2       351        9.42     387      217.8
   02/21/2017 10:20      59.5      58.3       79     52.5      0.00     17.77      58.5     0.51      1027.0     1       330         3       350        9.42     391      232.7
   02/21/2017 10:10      58.5      58.1       82     52.8      0.00     17.77      58.5     0.51      1027.0     1       351         2         5        9.42     397      171.6
   02/21/2017 10:00      58.3      57.8       84     53.5      0.00     17.77      58.6     0.51      1027.0     1        40         2        65        9.42     401      153.3
   02/21/2017 09:50      58.1      57.9       85     53.4      0.00     17.77      58.5     0.51      1027.0     2       132         2       155        9.42     405      117.0
   02/21/2017 09:40      58.5      58.0       86     54.2      0.00     17.77      58.6     0.51      1027.0     2       139         4       136        9.42     408      217.8
   02/21/2017 09:30      58.0      56.9       90     54.5      0.00     17.77      58.9     0.51      1027.0     1        89         1        23        9.42     413      266.6
   02/21/2017 09:20      57.1      56.4       91     54.2      0.00     17.77      58.4     0.51      1026.0     1        32         1       358        9.42     421      128.2
   02/21/2017 09:10      56.5      56.0       92     53.9      0.00     17.77      58.4     0.51      1027.0     2        13         4       357        9.42     427       91.8
   02/21/2017 09:00      56.3      56.0       92     53.7      0.00     17.77      57.9     0.51      1026.0     3         5         6       359        9.42     431       62.9
   02/21/2017 08:50      56.5      56.0       92     53.8      0.00     17.77      58.7     0.51      1026.0     2        11         4       352        9.42     432       78.7
   02/21/2017 08:40      56.1      55.5       92     53.2      0.00     17.77      58.0     0.51      1026.0     1       315         2         6        9.42     435      111.8
   02/21/2017 08:30      55.7      55.4       92     53.1      0.01     17.77      57.8     0.51      1026.0     1       181         2        68        9.42     439       22.0
   02/21/2017 08:20      55.7      55.5       91     53.1      0.01     17.76      58.3     0.51      1026.0     2        38         3        63        9.42     434        7.7
   02/21/2017 08:10      55.8      55.5       92     53.3      0.00     17.75      58.7     0.51      1027.0     3       160         4       119        9.42     423        8.6
   02/21/2017 08:00      55.7      55.4       93     53.4      0.00     17.75      58.0     0.51      1027.0     2       240         4       256        9.42     415       16.3
   02/21/2017 07:50      55.5      55.2       93     53.5      0.00     17.75      58.4     0.51      1026.0     1       213         3       239        9.42     415       47.8
   02/21/2017 07:40      55.3      55.0       93     53.3      0.00     17.75      58.7     0.51      1026.0     1       349         1       301        9.42     418       37.3
   02/21/2017 07:30      55.1      54.9       94     53.1      0.00     17.75      58.4     0.51      1026.0     0        19         1       338        9.42     420       14.7
   02/21/2017 07:20      54.9      54.6       94     53.0      0.00     17.75      57.8     0.51      1025.0     1       111         1       143        9.42     420       26.1
   02/21/2017 07:10      54.8      54.6       94     52.9      0.00     17.75      57.9     0.51      1025.0     1        58         1        79        9.42     422       16.6
   02/21/2017 07:00      54.7      54.6       94     52.9      0.00     17.75      57.9     0.51      1025.0     1       186         1       143        9.42     423        7.9
   02/21/2017 06:50      54.6      54.5       94     52.9      0.00     17.75      57.8     0.51      1025.0     2       226         2       221        9.42     423        5.1
   02/21/2017 06:40      54.6      54.3       94     52.9      0.00     17.75      58.0     0.51      1025.0     1       271         2       249        9.42     424        0.8
   02/21/2017 06:30      54.5      54.1       94     52.7      0.00     17.75      57.5     0.51      1025.0     1       217         2       200        9.42     425       -0.7
   02/21/2017 06:20      54.5      54.1       95     52.7      0.00     17.75      58.5     0.51      1025.0     2       220         2       199        9.42     425       -1.4
   02/21/2017 06:10      54.2      54.0       94     52.6      0.00     17.75      58.3     0.51      1025.0     1       189         2       198        9.42     425       -1.4
   02/21/2017 06:00      54.4      54.2       95     52.8      0.00     17.75      58.5     0.51      1025.0     1       217         1       246        9.42     424       -1.6
   02/21/2017 05:50      54.6      54.3       95     52.8      0.00     17.75      58.5     0.51      1025.0     1       233         2       243        9.42     424       -1.6
   02/21/2017 05:40      54.5      54.2       95     52.8      0.00     17.75      58.4     0.51      1025.0     2       158         2       173        9.42     424       -1.4
   02/21/2017 05:30      54.5      54.0       95     52.7      0.00     17.75      58.5     0.51      1025.0     1       127         2       128        9.42     424       -1.1
   02/21/2017 05:20      54.3      54.0       95     52.7      0.00     17.75      58.4     0.51      1026.0     1       151         1       137        9.42     424       -1.3
   02/21/2017 05:10      54.2      54.0       95     52.5      0.00     17.75      58.5     0.51      1026.0     2       157         2       161        9.42     425       -1.4
   02/21/2017 05:00      54.1      53.9       95     52.5      0.00     17.75      58.6     0.51      1025.0     1       133         1       144        9.42     425       -1.7
   02/21/2017 04:50      54.1      54.0       94     52.5      0.00     17.75      58.1     0.51      1025.0     0        77         1        93        9.42     425       -1.5
   02/21/2017 04:40      54.2      54.1       94     52.6      0.00     17.75      58.4     0.51      1025.0     0       330         1       336        9.42     425       -1.4
   02/21/2017 04:30      54.1      53.8       94     52.3      0.00     17.75      58.6     0.51      1025.0     1       303         2       333        9.42     426       -1.6
   02/21/2017 04:20      54.1      53.7       94     52.3      0.00     17.75      58.3     0.51      1025.0     1       159         1       141        9.42     426       -1.6
   02/21/2017 04:10      54.1      53.8       94     52.4      0.00     17.75      58.1     0.51      1025.0     1       259         1       264        9.42     427       -1.6
   02/21/2017 04:00      54.1      54.0       94     52.5      0.00     17.75      58.5     0.51      1025.0     1       258         1       278        9.42     427       -1.5
   02/21/2017 03:50      54.3      54.1       94     52.6      0.00     17.75      58.4     0.51      1025.0     0       147         1       183        9.42     427       -2.6
   02/21/2017 03:40      54.3      54.1       94     52.6      0.00     17.75      58.3     0.51      1025.0     1       143         2       155        9.42     425       -2.1
   02/21/2017 03:30      54.5      54.2       94     52.7      0.00     17.75      58.2     0.51      1025.0     1       146         2       152        9.42     424       -1.8
   02/21/2017 03:20      54.5      54.3       94     52.8      0.00     17.75      58.2     0.51      1026.0     1       214         1       183        9.42     424       -1.7
   02/21/2017 03:10      54.5      54.3       94     52.7      0.00     17.75      58.9     0.51      1026.0     1       170         2       159        9.42     424       -2.0
   02/21/2017 03:00      54.7      54.5       94     52.9      0.00     17.75      58.6     0.51      1026.0     1       111         1        69        9.42     423       -2.0
   02/21/2017 02:50      54.6      54.5       94     52.9      0.00     17.75      58.5     0.51      1026.0     0        75         1       102        9.42     425       -2.1
   02/21/2017 02:40      54.7      54.5       94     52.9      0.00     17.75      58.8     0.51      1026.0     1       225         2       240        9.42     425       -1.7
   02/21/2017 02:30      54.8      54.6       94     53.0      0.00     17.75      58.2     0.51      1026.0     1       273         1       257        9.42     424       -1.8
   02/21/2017 02:20      54.8      54.6       94     52.9      0.00     17.75      58.2     0.51      1026.0     1        33         2        69        9.42     424       -2.1
   02/21/2017 02:10      54.8      54.6       94     52.9      0.00     17.75      58.0     0.51      1026.0     1       101         1       138        9.42     423       -2.0
   02/21/2017 02:00      54.9      54.7       94     53.0      0.00     17.75      58.2     0.51      1026.0     1        26         1        33        9.42     423       -1.8
   02/21/2017 01:50      54.9      54.7       94     52.9      0.00     17.75      58.6     0.51      1026.0     1       143         1       173        9.42     422       -1.8
   02/21/2017 01:40      54.8      54.6       94     52.9      0.00     17.75      58.7     0.51      1026.0     2       184         2       190        9.42     422       -1.6
   02/21/2017 01:30      54.9      54.7       93     52.9      0.00     17.75      58.4     0.51      1026.0     2       151         2       163        9.42     421       -2.0
   02/21/2017 01:20      55.1      54.9       93     53.0      0.00     17.75      58.4     0.51      1026.0     1       143         2       142        9.42     420       -1.9
   02/21/2017 01:10      55.3      55.1       93     53.3      0.00     17.75      58.3     0.51      1026.0     0       174         1       164        9.42     420       -1.9
   02/21/2017 01:00      55.4      55.2       93     53.4      0.00     17.75      57.6     0.51      1026.0     1       237         2       231        9.42     419       -2.0
   02/21/2017 00:50      55.4      55.2       93     53.4      0.00     17.75      57.9     0.51      1026.0     1       250         2       267        9.42     418       -1.7
   02/21/2017 00:40      55.3      55.1       93     53.3      0.00     17.75      58.3     0.51      1026.0     2       245         2       253        9.42     418       -1.6
   02/21/2017 00:30      55.2      55.1       93     53.3      0.00     17.75      58.5     0.51      1026.0     2       241         2       224        9.42     418       -1.7
   02/21/2017 00:20      55.2      54.9       93     53.1      0.00     17.75      58.1     0.51      1026.0     1       268         1       259        9.42     418       -1.7
   02/21/2017 00:10      55.2      54.8       93     53.0      0.00     17.75      57.3     0.51      1026.0     1       195         2       272        9.42     417       -2.2
   02/21/2017 00:00      55.4      55.0       93     53.0      0.00     17.75      57.7     0.51      1026.0     1       151         1       144        9.42     416       -2.0
   02/20/2017 23:50      55.6      55.4       92     53.4      0.00     17.75      57.7     0.51      1026.0     1       284         1       270        9.42     416       -1.9
   02/20/2017 23:40      55.7      55.5       92     53.3      0.00     17.75      57.7     0.51      1026.0     1       240         1       258        9.42     415       -2.2
   02/20/2017 23:30      55.7      55.5       92     53.3      0.00     17.75      58.1     0.51      1026.0     0       357         1       323        9.42     414       -2.0
   02/20/2017 23:20      55.7      55.4       92     53.3      0.00     17.75      58.6     0.51      1026.0     0        13         1        33        9.42     414       -1.8
   02/20/2017 23:10      55.7      55.5       92     53.3      0.00     17.75      58.1     0.51      1026.0     1        53         1        69        9.42     414       -1.8
   02/20/2017 23:00      55.8      55.5       92     53.3      0.00     17.75      58.3     0.51      1026.0     1        93         2       101        9.42     414       -1.6
   02/20/2017 22:50      55.7      55.5       92     53.2      0.00     17.75      57.8     0.51      1026.0     1        34         1        25        9.42     414       -1.5
   02/20/2017 22:40      55.7      55.5       91     53.1      0.00     17.75      58.2     0.51      1026.0     1        18         2        77        9.42     414       -1.4
   02/20/2017 22:30      55.7      55.4       91     52.9      0.00     17.75      58.1     0.51      1026.0     1        49         2        82        9.42     414       -1.6
   02/20/2017 22:20      55.7      55.4       91     52.8      0.00     17.75      57.8     0.51      1026.0     1        74         2        66        9.42     415       -1.5
   02/20/2017 22:10      55.7      55.4       91     52.8      0.00     17.75      58.1     0.51      1026.0     1       104         1        73        9.42     415       -1.5
   02/20/2017 22:00      55.7      55.4       90     52.7      0.00     17.75      58.7     0.51      1026.0     1        93         2        68        9.42     415       -1.4
   02/20/2017 21:50      55.7      55.5       90     52.6      0.00     17.75      58.4     0.51      1026.0     1       100         1       115        9.42     415       -1.7
   02/20/2017 21:40      55.6      55.3       90     52.5      0.00     17.75      58.0     0.51      1026.0     1       221         1       204        9.42     415       -1.6
   02/20/2017 21:30      55.5      55.3       90     52.5      0.00     17.75      58.1     0.51      1026.0     1       186         1       180        9.42     415       -1.7
   02/20/2017 21:20      55.7      55.5       89     52.5      0.00     17.75      58.3     0.51      1026.0     1       132         1        75        9.42     415       -1.8
   02/20/2017 21:10      55.5      55.3       90     52.4      0.00     17.75      58.7     0.51      1026.0     1       264         2       248        9.42     415       -1.9
   02/20/2017 21:00      55.4      55.2       90     52.3      0.00     17.75      59.0     0.51      1026.0     1       340         2        62        9.42     415       -2.1
   02/20/2017 20:50      55.5      55.3       89     52.3      0.00     17.75      58.3     0.51      1026.0     2       113         3       117        9.42     414       -2.0
   02/20/2017 20:40      55.5      55.3       89     52.3      0.00     17.75      58.2     0.51      1026.0     1       231         2       217        9.42     414       -2.3
   02/20/2017 20:30      55.5      55.2       89     52.2      0.00     17.75      58.3     0.51      1026.0     1       127         2       154        9.42     413       -2.2
   02/20/2017 20:20      55.4      55.1       89     52.2      0.00     17.75      58.2     0.51      1026.0     1       171         2       186        9.42     413       -2.1
   02/20/2017 20:10      55.4      55.1       89     52.1      0.00     17.75      58.4     0.51      1026.0     2       187         2       214        9.42     412       -2.0
   02/20/2017 20:00      55.5      55.3       88     52.1      0.00     17.75      58.4     0.51      1026.0     3       183         4       177        9.42     412       -2.1
   02/20/2017 19:50      55.8      55.7       88     52.2      0.00     17.75      58.7     0.51      1026.0     1       209         2       170        9.42     411       -2.1
   02/20/2017 19:40      56.0      55.7       88     52.3      0.00     17.75      58.3     0.51      1025.0     0       169         1       193        9.42     411       -1.8
   02/20/2017 19:30      55.8      55.5       88     52.1      0.00     17.75      59.1     0.51      1025.0     1       228         1       194        9.42     410       -1.9
   02/20/2017 19:20      55.8      55.5       88     52.1      0.00     17.75      58.5     0.51      1025.0     1       178         2       133        9.42     410       -1.9
   02/20/2017 19:10      55.8      55.5       88     52.0      0.00     17.75      58.3     0.51      1025.0     2       115         3        83        9.42     410       -1.8
   02/20/2017 19:00      55.7      55.5       88     52.0      0.00     17.75      58.5     0.51      1025.0     2       100         3       100        9.42     409       -2.0
   02/20/2017 18:50      55.7      55.5       88     52.0      0.00     17.75      58.3     0.51      1025.0     2       121         3       118        9.42     408       -2.1
   02/20/2017 18:40      55.9      55.6       87     52.0      0.00     17.75      58.5     0.51      1025.0     2       113         3       142        9.42     407       -2.0
   02/20/2017 18:30      56.1      55.8       87     52.1      0.00     17.75      59.0     0.51      1025.0     2       100         3       150        9.42     406       -2.1
   02/20/2017 18:20      56.1      55.8       86     52.0      0.00     17.75      58.5     0.51      1025.0     2       116         3       118        9.42     406       -2.0
   02/20/2017 18:10      56.1      56.0       86     52.0      0.00     17.75      58.5     0.51      1025.0     1       120         2       142        9.42     405       -1.7
   02/20/2017 18:00      56.3      56.0       86     52.0      0.00     17.75      58.3     0.51      1025.0     2       111         3        86        9.42     404       -1.8
   02/20/2017 17:50      56.5      56.2       85     52.0      0.00     17.75      58.1     0.51      1025.0     2       135         3       140        9.42     403       -1.0
   02/20/2017 17:40      56.6      56.4       84     51.9      0.00     17.75      58.2     0.51      1025.0     2       132         3       131        9.42     402        0.6
   02/20/2017 17:30      56.9      56.5       84     52.0      0.00     17.75      58.5     0.51      1024.0     2       108         3        93        9.42     402        4.1
   02/20/2017 17:20      57.0      56.7       84     52.1      0.00     17.75      58.3     0.51      1024.0     1       126         2       140        9.42     401        6.2
   02/20/2017 17:10      57.0      56.7       84     52.0      0.00     17.75      58.4     0.51      1024.0     1        98         3        68        9.42     401       11.0
   02/20/2017 17:00      56.7      56.6       83     51.6      0.00     17.75      58.6     0.51      1024.0     2       110         3       129        9.42     401       14.6
   02/20/2017 16:50      57.0      56.7       83     51.8      0.00     17.75      57.8     0.51      1024.0     2       121         3       134        9.42     402       16.5
   02/20/2017 16:40      57.2      56.9       83     51.8      0.00     17.75      57.6     0.51      1024.0     3       112         4        73        9.42     401       17.5
   02/20/2017 16:30      57.4      57.1       82     51.9      0.00     17.75      57.8     0.51      1024.0     2        77         3        83        9.42     401       27.8
   02/20/2017 16:20      57.3      57.0       83     52.0      0.00     17.75      57.9     0.51      1024.0     2       105         3       132        9.42     402       46.8
   02/20/2017 16:10      57.4      56.9       83     52.1      0.00     17.75      58.6     0.51      1024.0     2       113         3       101        9.42     403       44.0
   02/20/2017 16:00      57.5      57.0       83     52.1      0.00     17.75      58.5     0.51      1024.0     2        93         3       106        9.42     404       48.1
   02/20/2017 15:50      57.4      56.9       83     51.9      0.00     17.75      58.0     0.51      1024.0     1        57         3        67        9.42     405       43.6
   02/20/2017 15:40      57.0      56.6       83     51.7      0.00     17.75      58.5     0.51      1024.0     2        93         4       126        9.42     406       66.8
   02/20/2017 15:30      56.6      56.4       85     52.0      0.00     17.75      57.3     0.51      1024.0     3       104         6        81        9.42     408       83.6
   02/20/2017 15:20      56.6      56.3       86     52.3      0.00     17.75      57.8     0.51      1023.0     1       101         2        77        9.42     410       63.4
   02/20/2017 15:10      56.4      56.0       86     52.1      0.00     17.75      58.0     0.51      1023.0     2        94         3       106        9.42     411       43.5
   02/20/2017 15:00      56.1      55.9       86     51.9      0.00     17.75      57.6     0.51      1023.0     3        90         4       112        9.42     414       59.3
   02/20/2017 14:50      56.1      55.8       86     51.8      0.00     17.75      57.9     0.51      1023.0     3        83         4       114        9.42     415       57.4
   02/20/2017 14:40      56.3      56.1       86     51.9      0.00     17.75      57.9     0.51      1023.0     3        77         5        68        9.42     415       58.5
   02/20/2017 14:30      56.4      56.0       86     52.0      0.00     17.75      58.4     0.51      1023.0     3        69         5        67        9.42     415       78.5
   02/20/2017 14:20      56.1      55.9       86     51.8      0.00     17.75      57.7     0.51      1023.0     3        64         6        74        9.42     416       85.6
   02/20/2017 14:10      56.1      55.8       86     51.8      0.00     17.75      57.6     0.51      1023.0     3        95         4        98        9.42     417       78.2
   02/20/2017 14:00      56.1      55.8       86     51.8      0.00     17.75      57.9     0.51      1023.0     3        74         5        59        9.42     417       77.0
   02/20/2017 13:50      56.1      56.0       85     51.6      0.00     17.75      58.4     0.51      1023.0     4        79         6        89        9.42     419       85.8
   02/20/2017 13:40      56.1      56.0       85     51.5      0.00     17.75      57.9     0.51      1023.0     3        85         5        86        9.42     420       88.1
   02/20/2017 13:30      56.2      55.9       85     51.6      0.00     17.75      57.7     0.51      1023.0     3        71         5        68        9.42     421      122.7
   02/20/2017 13:20      55.8      55.5       86     51.6      0.00     17.75      57.5     0.51      1023.0     3        85         6        65        9.42     423      136.4
   02/20/2017 13:10      55.5      55.0       87     51.5      0.00     17.75      57.4     0.51      1024.0     3        90         5        73        9.42     425      140.2
   02/20/2017 13:00      55.2      54.7       88     51.3      0.00     17.75      57.6     0.51      1024.0     3        72         3        65        9.42     428      118.8
   02/20/2017 12:50      54.9      54.7       88     51.2      0.00     17.75      57.9     0.51      1024.0     3        72         4        88        9.42     429       82.4
   02/20/2017 12:40      54.9      54.5       88     51.1      0.00     17.75      57.8     0.51      1024.0     3        69         5        60        9.42     430       84.9
   02/20/2017 12:30      54.8      54.5       88     51.1      0.00     17.75      57.8     0.51      1024.0     3        59         5        67        9.42     431       81.9
   02/20/2017 12:20      54.7      54.5       88     51.1      0.00     17.75      57.8     0.51      1024.0     4        56         7        71        9.42     432       89.8
   02/20/2017 12:10      54.6      54.4       88     51.0      0.00     17.75      58.0     0.51      1024.0     3        61         5        57        9.42     433       92.6
   02/20/2017 12:00      54.7      54.4       88     51.1      0.00     17.75      57.9     0.51      1024.0     3        68         5        63        9.42     435      104.7
   02/20/2017 11:50      54.6      54.4       89     51.2      0.00     17.75      58.0     0.51      1024.0     4        74         7        91        9.42     435      108.7
   02/20/2017 11:40      54.6      54.5       90     51.5      0.00     17.75      57.8     0.51      1024.0     4        87         6        89        9.42     437      125.7
   02/20/2017 11:30      54.6      54.0       91     51.6      0.00     17.75      58.0     0.51      1024.0     3        77         6       113        9.42     437      190.3
   02/20/2017 11:20      54.3      54.0       92     51.8      0.00     17.75      57.1     0.51      1024.0     4        83         7       116        9.42     439      197.2
   02/20/2017 11:10      54.0      53.6       93     51.7      0.00     17.75      57.9     0.51      1024.0     4        70         7        75        9.42     442      220.5
   02/20/2017 11:00      53.9      53.4       94     51.9      0.00     17.75      57.9     0.51      1025.0     2        56         4        62        9.42     447      172.9
   02/20/2017 10:50      53.6      53.0       94     51.6      0.00     17.75      58.2     0.51      1025.0     3        62         4        69        9.42     450      192.2
   02/20/2017 10:40      53.1      52.7       94     51.3      0.00     17.75      57.9     0.51      1025.0     3        56         3        53        9.42     455      130.1
   02/20/2017 10:30      52.9      52.6       94     51.1      0.00     17.75      57.9     0.51      1025.0     2        43         4        66        9.42     458      142.7
   02/20/2017 10:20      52.9      52.5       94     51.1      0.00     17.75      57.2     0.51      1025.0     2        51         3        36        9.42     460      126.5
   02/20/2017 10:10      52.6      52.4       94     50.8      0.00     17.75      57.2     0.51      1025.0     2        46         3        56        9.42     463      108.6
   02/20/2017 10:00      52.6      52.1       94     50.7      0.00     17.75      57.7     0.51      1024.0     2        50         3        57        9.42     465      106.5
   02/20/2017 09:50      52.1      51.9       94     50.5      0.00     17.75      57.8     0.51      1024.0     3        68         5        73        9.42     469       91.5
   02/20/2017 09:40      52.1      51.8       95     50.4      0.00     17.75      57.3     0.51      1024.0     3        60         5        66        9.42     473       75.0
   02/20/2017 09:30      51.9      51.6       95     50.3      0.00     17.75      57.8     0.51      1024.0     3        69         4        92        9.42     474       90.0
   02/20/2017 09:20      51.9      51.7       95     50.4      0.00     17.75      57.8     0.51      1024.0     2        59         2        44        9.42     476       66.9
   02/20/2017 09:10      51.8      51.4       95     50.3      0.00     17.75      57.4     0.51      1024.0     2        59         6        67        9.42     477       85.8
   02/20/2017 09:00      51.7      51.2       95     50.1      0.00     17.75      58.1     0.51      1024.0     2        64         4        80        9.42     479       83.4
   02/20/2017 08:50      51.4      51.0       96     49.9      0.00     17.75      58.2     0.51      1024.0     2        51         3        64        9.42     482       68.8
   02/20/2017 08:40      51.3      50.8       96     49.7      0.00     17.75      58.0     0.51      1024.0     2        37         2        66        9.42     484       55.1
   02/20/2017 08:30      51.0      50.7       96     49.6      0.01     17.75      58.2     0.51      1024.0     2        34         2        14        9.42     487       41.8
   02/20/2017 08:20      50.8      50.3       96     49.4      0.00     17.74      57.9     0.51      1024.0     1        28         2        32        9.42     488       34.1
   02/20/2017 08:10      50.7      50.3       96     49.2      0.00     17.74      58.5     0.51      1024.0     2        28         3        29        9.42     488       26.0
   02/20/2017 08:00      50.5      50.2       96     49.1      0.00     17.74      58.1     0.51      1024.0     2        35         2        55        9.43     489       13.1
   02/20/2017 07:50      50.3      50.1       96     49.1      0.01     17.74      58.3     0.51      1023.0     2        39         3        35        9.42     487       10.6
   02/20/2017 07:40      50.4      50.2       96     49.1      0.00     17.73      58.0     0.51      1023.0     2        35         2        16        9.42     488       11.3
   02/20/2017 07:30      50.4      50.1       96     49.0      0.00     17.73      57.6     0.51      1023.0     2        41         3        33        9.42     487        7.9
   02/20/2017 07:20      50.3      50.0       96     48.9      0.00     17.73      57.7     0.51      1023.0     2        36         2        33        9.42     487        5.1
   02/20/2017 07:10      50.1      49.9       96     48.8      0.00     17.73      58.0     0.51      1023.0     2        45         2        45        9.42     487        4.2
   02/20/2017 07:00      50.1      50.0       96     48.8      0.00     17.73      57.6     0.51      1022.0     2        49         3        42        9.42     486        0.5
   02/20/2017 06:50      50.2      50.0       95     48.8      0.00     17.73      57.6     0.51      1022.0     2        36         3        64        9.42     486       -1.1
   02/20/2017 06:40      50.0      49.9       95     48.7      0.00     17.73      58.5     0.51      1022.0     2        30         3         7        9.42     485       -2.5
   02/20/2017 06:30      50.3      50.0       95     48.8      0.01     17.73      57.9     0.51      1022.0     1        42         2        26        9.42     484       -3.4
   02/20/2017 06:20      50.2      49.9       95     48.7      0.00     17.72      58.0     0.51      1022.0     2        58         3        70        9.42     483       -3.6
   02/20/2017 06:10      50.0      49.9       95     48.7      0.00     17.72      58.3     0.51      1022.0     1        46         2        41        9.42     483       -3.7
   02/20/2017 06:00      50.1      49.8       95     48.6      0.00     17.72      58.4     0.51      1022.0     2        55         3        77        9.42     483       -3.7
   02/20/2017 05:50      50.1      49.7       95     48.6      0.00     17.72      57.7     0.50      1022.0     2        49         3        68        9.42     483       -3.7
   02/20/2017 05:40      49.9      49.7       95     48.6      0.00     17.72      58.1     0.50      1022.0     2        35         3        35        9.43     484       -3.6
   02/20/2017 05:30      50.0      49.8       95     48.6      0.00     17.72      57.6     0.50      1022.0     2        45         3        22        9.42     485       -3.7
   02/20/2017 05:20      50.0      49.8       95     48.6      0.01     17.72      58.6     0.50      1022.0     2        50         2        78        9.42     484       -3.7
   02/20/2017 05:10      49.9      49.7       95     48.5      0.02     17.71      57.9     0.50      1022.0     3        65         3        82        9.42     484       -3.7
   02/20/2017 05:00      49.9      49.7       95     48.5      0.00     17.69      58.5     0.50      1022.0     2        32         3        28        9.42     481       -4.3
   02/20/2017 04:50      50.0      49.8       95     48.6      0.00     17.69      58.4     0.50      1022.0     2        44         3        40        9.42     478       -4.4
   02/20/2017 04:40      50.0      49.7       95     48.5      0.01     17.69      58.1     0.50      1022.0     2        49         5        81        9.42     477       -4.6
   02/20/2017 04:30      49.9      49.7       95     48.5      0.00     17.68      57.6     0.50      1022.0     2        45         3        31        9.42     474       -4.9
   02/20/2017 04:20      50.1      49.9       95     48.6      0.00     17.68      57.6     0.50      1021.0     3        52         4        35        9.42     473       -4.6
   02/20/2017 04:10      50.1      50.0       95     48.6      0.00     17.68      58.2     0.50      1021.0     2        54         3        63        9.42     471       -4.6
   02/20/2017 04:00      50.5      50.0       95     48.8      0.01     17.68      57.8     0.50      1021.0     2        47         4        53        9.42     471       -4.6
   02/20/2017 03:50      50.2      50.0       95     48.8      0.00     17.67      57.8     0.50      1021.0     2        39         3        32        9.42     469       -4.7
   02/20/2017 03:40      50.3      50.2       95     48.8      0.00     17.67      58.4     0.50      1021.0     2        46         3        36        9.42     467       -3.9
   02/20/2017 03:30      50.4      50.2       95     48.8      0.01     17.67      57.6     0.50      1021.0     1        42         2        68        9.42     465       -4.0
   02/20/2017 03:20      50.4      50.1       95     48.8      0.00     17.66      58.1     0.50      1021.0     2        41         3        35        9.42     463       -4.0
   02/20/2017 03:10      50.3      50.1       95     48.7      0.00     17.66      57.9     0.50      1021.0     2        54         4        71        9.42     462       -4.1
   02/20/2017 03:00      50.3      50.1       95     48.7      0.00     17.66      57.8     0.50      1021.0     3        47         5        73        9.42     460       -4.2
   02/20/2017 02:50      50.5      50.2       95     48.8      0.00     17.66      58.8     0.50      1021.0     3        40         4        45        9.42     459       -3.9
   02/20/2017 02:40      50.5      50.1       95     48.8      0.00     17.66      57.9     0.50      1021.0     2        39         5        64        9.42     458       -4.1
   02/20/2017 02:30      50.5      50.2       94     48.8      0.00     17.66      57.8     0.50      1021.0     2        49         3        68        9.42     458       -4.4
   02/20/2017 02:20      50.6      50.4       94     49.0      0.00     17.66      57.7     0.50      1021.0     3        52         5        63        9.42     457       -4.2
   02/20/2017 02:10      50.8      50.4       94     49.0      0.00     17.66      58.3     0.50      1021.0     2        60         4        65        9.42     456       -4.3
   02/20/2017 02:00      51.0      50.6       94     49.1      0.01     17.66      57.8     0.50      1021.0     3        50         4        92        9.42     456       -4.2
   02/20/2017 01:50      51.2      51.0       94     49.4      0.00     17.65      58.0     0.50      1021.0     3        64         4        76        9.42     454       -3.9
   02/20/2017 01:40      51.4      51.2       94     49.5      0.00     17.65      58.0     0.50      1021.0     2        66         4        78        9.42     452       -3.7
   02/20/2017 01:30      51.5      51.3       93     49.5      0.01     17.65      58.3     0.50      1022.0     1        54         2        51        9.42     452       -3.8
   02/20/2017 01:20      51.5      51.3       93     49.5      0.00     17.64      57.8     0.50      1022.0     1       132         1       147        9.41     452       -4.0
   02/20/2017 01:10      51.6      51.4       93     49.5      0.01     17.64      58.5     0.50      1021.0     0       143         1       121        9.41     451       -4.1
   02/20/2017 01:00      51.7      51.4       93     49.5      0.00     17.63      57.9     0.50      1021.0     1        90         1        65        9.41     448       -4.2
   02/20/2017 00:50      51.5      51.3       93     49.5      0.01     17.63      58.1     0.50      1021.0     1        78         1        68        9.41     447       -4.3
   02/20/2017 00:40      51.7      51.4       93     49.5      0.00     17.62      58.0     0.50      1021.0     1        36         1        76        9.41     444       -4.3
   02/20/2017 00:30      51.7      51.5       93     49.6      0.00     17.62      57.9     0.50      1021.0     1        19         1        74        9.41     443       -4.3
   02/20/2017 00:20      51.7      51.5       93     49.6      0.00     17.62      58.3     0.50      1021.0     0        68         1        70        9.41     442       -4.3
   02/20/2017 00:10      51.7      51.4       93     49.6      0.00     17.62      58.2     0.50      1021.0     1        80         1        72        9.41     442       -4.3
   02/20/2017 00:00      51.9      51.5       93     49.6      0.00     17.62      58.3     0.50      1021.0     1       109         1        99        9.41     440       -4.2
   02/19/2017 23:50      51.8      51.5       92     49.5      0.00     17.62      58.1     0.50      1021.0     0       138         1       150        9.41     439       -4.6
   02/19/2017 23:40      51.5      51.4       92     49.3      0.00     17.62      58.0     0.50      1021.0     1       245         1       271        9.41     440       -4.7
   02/19/2017 23:30      51.5      51.2       92     49.1      0.00     17.62      58.0     0.50      1021.0     1       113         1       105        9.41     440       -4.9
   02/19/2017 23:20      51.5      51.3       92     49.2      0.01     17.62      58.0     0.50      1021.0     1       108         1        84        9.41     441       -5.0
   02/19/2017 23:10      51.7      51.4       92     49.3      0.01     17.61      58.4     0.50      1021.0     1        51         2        89        9.41     440       -5.0
   02/19/2017 23:00      51.8      51.5       91     49.3      0.01     17.60      57.6     0.50      1021.0     1        51         1        55        9.40     439       -5.2
   02/19/2017 22:50      51.8      51.6       91     49.1      0.01     17.59      58.2     0.50      1021.0     1        45         1        54        9.39     436       -5.4
   02/19/2017 22:40      51.9      51.6       90     48.9      0.00     17.58      58.1     0.50      1021.0     1        73         2        86        9.39     433       -5.7
   02/19/2017 22:30      51.8      51.6       90     48.7      0.01     17.58      57.9     0.50      1021.0     1        91         1        76        9.39     429       -6.0
   02/19/2017 22:20      51.9      51.7       89     48.6      0.00     17.57      58.0     0.50      1021.0     1        77         2        63        9.39     426       -6.0
   02/19/2017 22:10      51.9      51.7       88     48.5      0.00     17.57      58.1     0.50      1021.0     1        90         2        75        9.38     425       -6.0
   02/19/2017 22:00      52.2      51.9       87     48.5      0.01     17.57      58.2     0.50      1020.0     1        82         2        98        9.38     422       -6.3
   02/19/2017 21:50      52.3      52.1       86     48.1      0.01     17.56      58.4     0.50      1020.0     1       132         1       186        9.38     419       -7.1
   02/19/2017 21:40      52.3      52.1       85     47.9      0.00     17.55      58.3     0.50      1020.0     1       109         1        63        9.38     414       -7.5
   02/19/2017 21:30      52.2      52.0       85     47.9      0.00     17.55      58.2     0.50      1020.0     1        87         2        99        9.38     412       -7.3
   02/19/2017 21:20      52.3      52.0       85     47.8      0.00     17.55      58.4     0.50      1020.0     2        67         2        60        9.38     410       -7.9
   02/19/2017 21:10      52.3      51.8       84     47.5      0.00     17.55      58.0     0.50      1020.0     1        49         2        70        9.38     407       -8.1
   02/19/2017 21:00      52.0      51.7       84     47.2      0.00     17.55      58.5     0.50      1020.0     2        92         3        92        9.38     405       -8.8
   02/19/2017 20:50      51.9      51.7       87     47.9      0.00     17.55      58.0     0.50      1019.0     1       114         2       115        9.38     402       -8.5
   02/19/2017 20:40      51.8      51.7       87     48.0      0.00     17.55      58.5     0.50      1019.0     1        99         2       127        9.38     400       -8.8
   02/19/2017 20:30      51.9      51.8       86     47.9      0.00     17.55      58.1     0.50      1019.0     1       142         2       153        9.38     398       -9.1
   02/19/2017 20:20      52.3      51.9       86     48.0      0.00     17.55      58.6     0.50      1019.0     1       174         2       183        9.38     396       -9.3
   02/19/2017 20:10      52.4      52.1       86     48.1      0.00     17.55      58.2     0.50      1019.0     1       197         2       226        9.38     391       -9.9
   02/19/2017 20:00      52.3      52.0       87     48.4      0.00     17.55      58.1     0.50      1019.0     1       211         2       217        9.38     389       -9.9
   02/19/2017 19:50      52.3      52.1       88     48.7      0.00     17.55      58.3     0.50      1018.0     2       148         3       161        9.38     387       -9.3
   02/19/2017 19:40      52.6      52.4       87     48.7      0.00     17.55      58.5     0.50      1018.0     2       126         2        80        9.38     384       -9.1
   02/19/2017 19:30      53.1      52.6       85     48.3      0.01     17.55      58.1     0.50      1018.0     2       212         2       223        9.38     381       -9.6
   02/19/2017 19:20      53.4      53.0       83     48.3      0.01     17.54      58.1     0.50      1018.0     1       137         1       118        9.38     379      -10.3
   02/19/2017 19:10      53.4      53.1       81     47.7      0.00     17.53      58.0     0.50      1018.0     1       215         1       230        9.38     372      -11.0
   02/19/2017 19:00      53.3      53.1       79     46.9      0.00     17.53      57.8     0.50      1018.0     1       215         1       206        9.38     368      -11.7
   02/19/2017 18:50      53.4      53.1       79     46.7      0.00     17.53      57.8     0.50      1018.0     2       208         2       214        9.38     366      -13.7
   02/19/2017 18:40      53.4      53.2       79     47.1      0.00     17.53      58.0     0.50      1017.0     1       186         2       165        9.38     363      -14.7
   02/19/2017 18:30      53.5      53.4       81     47.7      0.00     17.53      58.4     0.50      1017.0     1       294         1       154        9.38     359      -12.9
   02/19/2017 18:20      53.6      53.3       81     47.7      0.00     17.53      58.4     0.50      1017.0     1       342         2       312        9.38     356      -12.4
   02/19/2017 18:10      53.5      53.2       80     47.4      0.00     17.53      58.3     0.50      1017.0     1       192         3        98        9.38     352      -13.2
   02/19/2017 18:00      53.6      53.4       78     46.8      0.00     17.53      57.8     0.50      1017.0     2       189         5       211        9.38     349      -14.9
   02/19/2017 17:50      54.1      53.7       76     46.5      0.00     17.53      58.1     0.50      1017.0     4       186         5       200        9.38     344      -16.0
   02/19/2017 17:40      54.7      54.3       75     46.6      0.00     17.53      58.0     0.50      1017.0     3       191         6       201        9.38     339      -15.8
   02/19/2017 17:30      54.9      54.7       74     46.5      0.00     17.53      58.3     0.50      1017.0     1       189         3       237        9.38     333      -14.7
   02/19/2017 17:20      55.0      54.8       72     46.1      0.00     17.53      58.0     0.50      1016.0     4       172         6       181        9.38     329      -13.3
   02/19/2017 17:10      55.2      55.0       72     46.2      0.00     17.53      58.2     0.50      1016.0     3       158         5       205        9.38     326      -10.7
   02/19/2017 17:00      55.4      55.0       71     46.1      0.00     17.53      57.9     0.50      1016.0     5       160         7       174        9.38     324      -10.7
   02/19/2017 16:50      55.6      55.3       71     46.2      0.00     17.53      57.8     0.50      1016.0     4       161         7       175        9.38     322        0.4
   02/19/2017 16:40      56.1      55.6       70     46.1      0.00     17.53      57.7     0.50      1016.0     5       167         8       185        9.38     320        9.2
   02/19/2017 16:30      57.1      56.2       69     46.5      0.00     17.53      58.0     0.50      1015.0     5       161         7       179        9.38     319        9.2
   02/19/2017 16:20      57.3      57.0       68     46.6      0.00     17.53      57.9     0.50      1015.0     2       149         2       119        9.38     318       18.6
   02/19/2017 16:10      57.4      56.7       68     46.7      0.00     17.53      57.8     0.50      1015.0     2       170         4       198        9.38     318       37.7
   02/19/2017 16:00      57.0      56.5       68     46.6      0.00     17.53      57.8     0.50      1015.0     4       175         6       160        9.38     319       67.8
   02/19/2017 15:50      56.7      56.4       69     46.5      0.00     17.53      57.6     0.50      1015.0     5       161         6       147        9.39     320       61.1
   02/19/2017 15:40      57.0      56.5       68     46.3      0.00     17.53      57.7     0.50      1015.0     4       160         7       163        9.38     321      101.7
   02/19/2017 15:30      57.1      56.5       68     46.2      0.00     17.53      57.7     0.50      1015.0     5       140         9       124        9.38     324      114.8
   02/19/2017 15:20      57.5      57.1       68     46.8      0.00     17.53      57.3     0.50      1015.0     3       137         4       132        9.38     326      114.7
   02/19/2017 15:10      57.0      57.0       68     46.8      0.00     17.53      58.0     0.50      1015.0     3       139         5       120        9.39     329      146.0
   02/19/2017 15:00      57.1      56.3       70     47.0      0.00     17.53      57.6     0.50      1015.0     5       154         9       137        9.38     333      194.8
   02/19/2017 14:50      56.7      56.4       70     47.0      0.00     17.53      58.1     0.50      1015.0     6       167         9       175        9.38     338      171.1
   02/19/2017 14:40      56.6      56.1       71     47.0      0.00     17.53      57.7     0.50      1015.0     6       159         8       164        9.38     342      198.2
   02/19/2017 14:30      56.7      56.4       71     47.1      0.00     17.53      57.3     0.50      1015.0     5       152         9       164        9.39     347      118.3
   02/19/2017 14:20      56.7      56.4       70     47.0      0.00     17.53      57.9     0.50      1014.0     6       153         8       149        9.39     350      112.9
   02/19/2017 14:10      56.5      56.1       70     46.8      0.00     17.53      57.5     0.50      1014.0     6       166         9       162        9.38     352      107.2
   02/19/2017 14:00      57.0      56.5       70     47.0      0.00     17.53      57.5     0.50      1014.0     5       176         7       175        9.38     355       89.7
   02/19/2017 13:50      57.3      57.1       69     47.1      0.00     17.53      57.6     0.50      1014.0     6       153         8       166        9.38     358      158.5
   02/19/2017 13:40      57.7      57.3       66     46.3      0.00     17.53      57.8     0.50      1014.0     5       118         8       162        9.38     363       98.6
   02/19/2017 13:30      58.0      57.7       65     46.2      0.00     17.53      57.4     0.50      1014.0     3        63         4        77        9.38     366       69.9
   02/19/2017 13:20      58.2      57.6       66     46.8      0.00     17.53      57.4     0.50      1014.0     3        95         4       145        9.38     367      134.8
   02/19/2017 13:10      57.6      56.8       69     47.0      0.00     17.53      57.3     0.50      1014.0     3       120         5        57        9.38     372      166.9
   02/19/2017 13:00      56.9      56.4       70     47.0      0.00     17.53      57.2     0.50      1014.0     4       122         5        78        9.38     376      113.3
   02/19/2017 12:50      56.4      55.9       72     47.3      0.00     17.53      57.7     0.50      1014.0     4       139         8       131        9.38     379      105.1
   02/19/2017 12:40      57.0      56.1       72     47.5      0.00     17.53      58.0     0.50      1014.0     5       158         7       125        9.39     382      122.0
   02/19/2017 12:30      57.1      56.5       71     47.4      0.00     17.53      57.5     0.50      1015.0     3       132         5       169        9.38     385      123.6
   02/19/2017 12:20      56.5      55.9       72     47.5      0.00     17.53      57.8     0.50      1015.0     4       130         7       160        9.39     389      151.4
   02/19/2017 12:10      57.1      56.0       71     47.5      0.00     17.53      57.3     0.50      1014.0     6       144         8       166        9.38     392      223.6
   02/19/2017 12:00      56.7      56.1       73     47.7      0.00     17.53      57.4     0.50      1014.0     5       119         9       127        9.38     398      225.1
   02/19/2017 11:50      57.6      56.6       73     48.4      0.00     17.53      57.6     0.50      1014.0     7       121         9       134        9.39     403      486.7
   02/19/2017 11:40      56.5      55.5       75     48.3      0.00     17.53      57.7     0.50      1014.0     5       112         8       159        9.38     417      339.9
   02/19/2017 11:30      55.6      54.5       77     48.1      0.00     17.53      57.5     0.50      1014.0     4       110         6       139        9.38     427      350.9
   02/19/2017 11:20      54.5      53.9       78     47.4      0.00     17.53      57.3     0.50      1014.0     4       102         6       132        9.38     440      165.1
   02/19/2017 11:10      54.4      54.0       78     47.5      0.00     17.53      57.7     0.50      1014.0     4       124         5       114        9.38     444      105.4
   02/19/2017 11:00      55.3      54.5       78     48.1      0.00     17.53      57.4     0.50      1014.0     4        90         7        57        9.38     444       96.8
   02/19/2017 10:50      55.6      55.4       79     49.0      0.00     17.53      56.9     0.50      1014.0     4        55         6        74        9.38     446      103.3
   02/19/2017 10:40      55.6      55.2       80     49.2      0.00     17.53      57.2     0.51      1014.0     2        73         3        60        9.39     450      137.6
   02/19/2017 10:30      55.4      54.9       81     49.3      0.00     17.53      57.3     0.51      1014.0     3        82         4        90        9.39     455      141.7
   02/19/2017 10:20      55.1      54.1       82     49.2      0.00     17.53      56.9     0.51      1014.0     2        95         3       117        9.39     458      176.2
   02/19/2017 10:10      54.3      54.1       83     49.1      0.00     17.53      57.4     0.51      1014.0     3        79         4        77        9.39     463      136.4
   02/19/2017 10:00      54.3      53.7       84     49.1      0.00     17.53      57.3     0.51      1014.0     2        75         4        75        9.38     467      104.7
   02/19/2017 09:50      54.0      53.6       83     48.8      0.00     17.53      57.5     0.51      1014.0     2        82         4       101        9.38     470      132.9
   02/19/2017 09:40      53.8      53.3       84     48.9      0.00     17.53      57.3     0.51      1014.0     1        28         2       307        9.38     473      136.3
   02/19/2017 09:30      53.6      53.1       85     49.0      0.00     17.53      57.2     0.51      1013.0     1        37         2        18        9.38     477      112.7
   02/19/2017 09:20      53.3      52.7       86     49.0      0.00     17.53      57.3     0.51      1013.0     1        89         2        77        9.38     481      112.2
   02/19/2017 09:10      52.8      52.6       88     49.2      0.00     17.53      57.5     0.51      1013.0     2        65         3        54        9.38     485      114.9
   02/19/2017 09:00      52.8      52.2       90     49.5      0.00     17.53      57.5     0.51      1013.0     2        49         3        94        9.38     488      188.6
   02/19/2017 08:50      52.2      51.2       91     49.0      0.00     17.53      57.6     0.51      1012.0     1        24         1        44        9.39     494      163.2
   02/19/2017 08:40      51.3      50.7       91     48.6      0.00     17.53      58.1     0.51      1012.0     0        32         1        25        9.38     500       61.2
   02/19/2017 08:30      50.9      50.4       92     48.3      0.00     17.53      58.0     0.51      1012.0     0       298         1       255        9.38     501       38.2
   02/19/2017 08:20      50.6      50.2       92     48.0      0.00     17.53      57.8     0.51      1012.0     1       312         1       295        9.38     503       30.8
   02/19/2017 08:10      50.3      50.1       92     47.9      0.01     17.53      57.8     0.51      1012.0     1       329         2         2        9.38     504       27.1
   02/19/2017 08:00      50.5      50.2       92     48.1      0.00     17.52      58.0     0.51      1012.0     1       323         2       322        9.38     504       23.7
   02/19/2017 07:50      50.4      50.1       92     47.9      0.00     17.52      57.4     0.51      1012.0     1       336         2       309        9.38     504       21.8
   02/19/2017 07:40      50.1      49.8       92     47.8      0.00     17.52      57.4     0.51      1012.0     1       267         2       276        9.38     504       13.1
   02/19/2017 07:30      50.0      49.7       93     47.9      0.00     17.52      57.3     0.51      1011.0     1       339         2       292        9.38     504       15.7
   02/19/2017 07:20      49.9      49.5       93     47.8      0.00     17.52      57.6     0.51      1011.0     1       339         1        14        9.38     505       12.7
   02/19/2017 07:10      49.8      49.3       94     47.7      0.00     17.52      57.9     0.51      1011.0     1        14         1       330        9.38     506        5.8
   02/19/2017 07:00      49.4      49.1       94     47.5      0.00     17.52      58.1     0.51      1011.0     1       241         2       217        9.38     506        2.7
   02/19/2017 06:50      49.1      48.9       94     47.3      0.00     17.52      58.0     0.51      1011.0     1       220         2       197        9.38     506        0.4
   02/19/2017 06:40      49.0      48.7       94     47.2      0.00     17.52      58.0     0.51      1010.0     1       198         2       195        9.38     505       -0.9
   02/19/2017 06:30      48.9      48.6       94     47.2      0.00     17.52      57.7     0.51      1010.0     1       151         2       156        9.38     505       -2.1
   02/19/2017 06:20      48.8      48.5       94     47.1      0.00     17.52      57.9     0.51      1010.0     2       158         2       162        9.38     505       -2.5
   02/19/2017 06:10      48.8      48.3       95     47.0      0.00     17.52      57.6     0.51      1010.0     1       141         1       144        9.38     505       -2.5
   02/19/2017 06:00      48.5      48.3       95     46.9      0.00     17.52      58.0     0.51      1010.0     1       155         2       152        9.38     505       -2.6
   02/19/2017 05:50      48.3      48.0       95     46.7      0.00     17.52      57.4     0.51      1010.0     1       188         2       187        9.38     505       -2.6
   02/19/2017 05:40      48.3      48.0       95     46.7      0.00     17.52      57.8     0.51      1010.0     1       145         1       141        9.38     505       -3.5
   02/19/2017 05:30      48.1      48.0       95     46.6      0.00     17.52      57.4     0.51      1010.0     1         8         1       317        9.38     505       -2.9
   02/19/2017 05:20      48.3      48.0       95     46.7      0.00     17.52      58.1     0.51      1010.0     1       353         1        35        9.38     505       -2.4
   02/19/2017 05:10      48.3      48.1       95     46.7      0.00     17.52      57.8     0.51      1010.0     1        32         2        27        9.38     505       -2.6
   02/19/2017 05:00      48.3      47.9       95     46.7      0.00     17.52      57.9     0.51      1009.0     2       305         3        19        9.38     504       -2.6
   02/19/2017 04:50      48.0      47.7       95     46.5      0.00     17.52      57.4     0.51      1009.0     1       339         1       258        9.38     504       -1.7
   02/19/2017 04:40      47.9      47.7       95     46.4      0.00     17.52      57.9     0.51      1009.0     1       163         1       180        9.38     505       -1.8
   02/19/2017 04:30      47.9      47.5       95     46.3      0.00     17.52      57.5     0.51      1009.0     1       191         1       188        9.38     504       -1.9
   02/19/2017 04:20      47.5      47.4       95     46.2      0.00     17.52      58.0     0.51      1009.0     1       204         2       201        9.38     504       -2.3
   02/19/2017 04:10      47.6      47.2       95     46.1      0.00     17.52      57.7     0.51      1009.0     1       306         2       296        9.38     503       -2.3
   02/19/2017 04:00      47.4      46.9       95     45.9      0.00     17.52      58.0     0.51      1009.0     1       294         1       319        9.38     503       -2.2
   02/19/2017 03:50      47.1      46.9       95     45.6      0.00     17.52      58.1     0.51      1009.0     1       246         2       262        9.38     503       -1.5
   02/19/2017 03:40      47.0      46.7       95     45.5      0.00     17.52      58.1     0.51      1009.0     1        50         2         5        9.38     503       -1.7
   02/19/2017 03:30      46.8      46.5       95     45.5      0.00     17.52      57.7     0.51      1009.0     1        10         2       346        9.38     503       -1.8
   02/19/2017 03:20      46.8      46.3       95     45.2      0.00     17.52      57.9     0.51      1009.0     1        56         1        46        9.38     502       -1.6
   02/19/2017 03:10      46.6      46.1       95     45.0      0.00     17.52      57.6     0.51      1009.0     1        95         1       125        9.38     501       -1.8
   02/19/2017 03:00      46.2      46.0       95     44.8      0.00     17.52      58.2     0.51      1009.0     1       104         1       145        9.38     501       -2.4
   02/19/2017 02:50      46.2      45.9       95     44.6      0.00     17.52      58.1     0.51      1009.0     1       148         2       179        9.38     500       -2.8
   02/19/2017 02:40      46.3      45.9       95     44.7      0.00     17.52      57.8     0.51      1009.0     1       193         2       194        9.38     500       -7.0
   02/19/2017 02:30      46.5      46.3       95     44.9      0.00     17.52      57.5     0.51      1008.0     1       228         3       231        9.38     499       -8.2
   02/19/2017 02:20      46.5      46.3       95     44.9      0.00     17.52      58.3     0.51      1008.0     1       274         3       246        9.38     500       -9.5
   02/19/2017 02:10      46.5      46.3       94     44.9      0.00     17.52      57.8     0.51      1008.0     2       219         4       194        9.38     499      -13.8
   02/19/2017 02:00      46.6      46.1       95     44.9      0.00     17.52      58.1     0.51      1008.0     2       261         3       264        9.38     497      -19.1
   02/19/2017 01:50      46.3      45.5       94     44.4      0.00     17.52      58.7     0.51      1008.0     2       209         3       211        9.38     495      -19.3
   02/19/2017 01:40      45.6      45.0       94     43.5      0.00     17.52      58.2     0.51      1007.0     2       182         2       213        9.38     493      -20.5
   02/19/2017 01:30      45.8      45.2       93     43.6      0.00     17.52      58.9     0.51      1007.0     2       153         2       143        9.38     491      -22.4
   02/19/2017 01:20      46.7      45.9       92     44.2      0.00     17.52      57.9     0.51      1007.0     1       131         2       128        9.38     487      -24.0
   02/19/2017 01:10      46.9      46.8       92     44.7      0.00     17.52      58.6     0.51      1007.0     1       347         1        37        9.38     484      -25.1
   02/19/2017 01:00      47.5      47.1       92     45.1      0.00     17.52      58.3     0.51      1007.0     1        47         2         4        9.38     481      -26.3
   02/19/2017 00:50      47.9      47.5       91     45.4      0.00     17.52      58.5     0.51      1007.0     1        12         1        29        9.38     479      -28.0
   02/19/2017 00:40      48.3      47.9       91     45.8      0.00     17.52      59.0     0.51      1007.0     1       167         2       130        9.38     476      -28.5
   02/19/2017 00:30      48.5      48.2       91     45.9      0.00     17.52      58.7     0.51      1007.0     3       160         5       193        9.38     473      -28.7
   02/19/2017 00:20      48.5      48.0       91     45.8      0.00     17.52      58.7     0.51      1008.0     3       211         5       208        9.38     470      -30.7
   02/19/2017 00:10      48.3      48.0       90     45.4      0.00     17.52      58.3     0.51      1007.0     2       259         5       240        9.38     467      -35.9
   02/19/2017 00:00      48.9      48.3       90     45.8      0.00     17.52      58.3     0.51      1007.0     1        93         1       138        9.38     466      -39.2
   02/18/2017 23:50      49.2      48.8       90     46.1      0.00     17.52      58.3     0.51      1007.0     2       186         3       206        9.38     463      -39.8
   02/18/2017 23:40      49.3      49.1       89     46.2      0.00     17.52      58.3     0.51      1007.0     3       204         4       192        9.38     460      -33.7
   02/18/2017 23:30      49.3      49.0       90     46.3      0.00     17.52      58.5     0.51      1007.0     3       228         4       190        9.38     459      -41.2
   02/18/2017 23:20      49.2      48.8       90     45.9      0.00     17.52      59.0     0.51      1007.0     2       206         5       212        9.38     456      -37.8
   02/18/2017 23:10      49.4      48.8       89     45.9      0.00     17.52      58.9     0.51      1007.0     2       174         2       159        9.38     454      -38.0
   02/18/2017 23:00      49.4      49.3       88     46.0      0.00     17.52      58.4     0.51      1007.0     2       220         3       217        9.38     454      -46.9
   02/18/2017 22:50      49.6      49.4       88     46.1      0.00     17.52      58.3     0.51      1007.0     2       227         3       225        9.38     453      -52.9
   02/18/2017 22:40      49.7      49.2       89     46.2      0.00     17.52      58.5     0.51      1007.0     2       248         4       243        9.38     450      -56.1
   02/18/2017 22:30      49.4      48.9       88     45.8      0.00     17.52      58.5     0.51      1007.0     2       236         4       232        9.38     446      -61.6
   02/18/2017 22:20      49.9      49.3       87     45.8      0.00     17.52      58.7     0.51      1007.0     1        68         3       205        9.38     443      -65.7
   02/18/2017 22:10      50.1      49.9       87     46.1      0.00     17.52      58.7     0.51      1006.0     2       227         4       253        9.38     440      -64.8
   02/18/2017 22:00      50.0      49.8       87     46.1      0.00     17.52      58.7     0.51      1006.0     2       225         4       277        9.38     437      -64.1
   02/18/2017 21:50      50.3      50.0       86     46.2      0.00     17.52      58.8     0.51      1006.0     3       207         5       187        9.38     435      -62.4
   02/18/2017 21:40      50.3      50.0       86     46.2      0.00     17.52      58.6     0.51      1006.0     4       210         5       187        9.38     432      -58.7
   02/18/2017 21:30      50.2      49.9       86     46.2      0.00     17.52      58.4     0.51      1006.0     4       195         5       201        9.39     429      -61.6
   02/18/2017 21:20      50.1      49.7       87     46.1      0.00     17.52      58.1     0.51      1006.0     3       203         5       221        9.38     427      -61.0
   02/18/2017 21:10      50.0      49.7       87     46.2      0.00     17.52      59.1     0.52      1006.0     3       203         4       195        9.38     424      -63.4
   02/18/2017 21:00      50.1      49.7       87     46.2      0.00     17.52      58.0     0.52      1006.0     1       206         3       205        9.38     420      -64.3
   02/18/2017 20:50      50.7      50.2       86     46.3      0.00     17.52      58.9     0.51      1005.0     3       190         4       201        9.38     416      -65.8
   02/18/2017 20:40      50.8      50.5       86     46.5      0.00     17.52      58.5     0.52      1005.0     3       210         4       200        9.38     411      -66.5
   02/18/2017 20:30      50.8      50.6       86     46.6      0.00     17.52      59.0     0.52      1005.0     3       197         5       214        9.39     407      -66.4
   02/18/2017 20:20      51.0      50.7       86     46.8      0.00     17.52      58.7     0.52      1005.0     4       206         5       204        9.39     403      -65.8
   02/18/2017 20:10      51.4      50.9       85     46.9      0.00     17.52      58.3     0.52      1005.0     3       199         5       218        9.39     399      -67.7
   02/18/2017 20:00      51.5      51.1       85     46.9      0.00     17.52      58.2     0.52      1004.0     4       207         5       202        9.39     395      -68.3
   02/18/2017 19:50      51.6      51.4       85     47.1      0.00     17.52      59.0     0.52      1004.0     4       206         6       196        9.39     390      -68.7
   02/18/2017 19:40      51.7      51.4       85     47.2      0.00     17.52      58.7     0.52      1004.0     4       207         5       200        9.39     385      -68.8
   02/18/2017 19:30      51.8      51.6       85     47.3      0.00     17.52      57.9     0.51      1004.0     4       206         5       208        9.39     381      -69.1
   02/18/2017 19:20      52.0      51.8       85     47.4      0.00     17.52      57.9     0.51      1004.0     4       213         6       227        9.39     375      -69.5
   02/18/2017 19:10      52.1      51.8       85     47.5      0.00     17.52      58.4     0.51      1004.0     4       206         6       210        9.39     370      -69.4
   02/18/2017 19:00      52.3      52.1       84     47.6      0.00     17.52      58.2     0.51      1004.0     3       209         5       225        9.39     365      -69.5
   02/18/2017 18:50      52.6      52.1       83     47.4      0.00     17.52      58.6     0.51      1003.0     3       206         4       225        9.39     360      -69.6
   02/18/2017 18:40      52.8      52.6       83     47.6      0.00     17.52      58.4     0.51      1003.0     3       220         5       238        9.39     353      -70.4
   02/18/2017 18:30      52.9      52.6       82     47.6      0.00     17.52      58.6     0.52      1003.0     3       213         5       249        9.39     347      -70.3
   02/18/2017 18:20      53.2      52.9       81     47.5      0.00     17.52      58.2     0.52      1003.0     3       210         4       198        9.39     343      -71.1
   02/18/2017 18:10      53.9      53.5       79     47.4      0.00     17.52      59.1     0.52      1003.0     3       219         5       228        9.39     337      -71.8
   02/18/2017 18:00      54.1      53.8       79     47.5      0.00     17.52      58.0     0.52      1003.0     4       235         5       235        9.39     331      -64.4
   02/18/2017 17:50      54.2      54.0       78     47.5      0.00     17.52      58.9     0.52      1002.0     3       229         4       237        9.39     326      -47.5
   02/18/2017 17:40      54.5      54.3       78     47.6      0.00     17.52      58.7     0.52      1002.0     4       227         5       240        9.39     322      -46.8
   02/18/2017 17:30      55.0      54.5       76     47.5      0.00     17.52      59.0     0.52      1002.0     3       207         4       204        9.39     318      -43.7
   02/18/2017 17:20      55.3      55.0       76     47.6      0.00     17.52      57.9     0.52      1002.0     3       232         4       227        9.39     313      -26.6
   02/18/2017 17:10      56.0      55.2       74     47.4      0.00     17.52      58.8     0.52      1002.0     5       227         7       236        9.39     310      -26.0
   02/18/2017 17:00      56.7      56.1       70     47.0      0.00     17.52      58.1     0.52      1002.0     5       220         8       256        9.39     306        4.6
   02/18/2017 16:50      56.6      55.5       71     46.8      0.00     17.52      58.1     0.52      1002.0     4       241         6       230        9.39     305       31.2
   02/18/2017 16:40      55.8      55.5       72     46.8      0.00     17.52      57.8     0.52      1002.0     5       242         7       226        9.39     305      -13.8
   02/18/2017 16:30      55.9      55.5       73     47.4      0.00     17.52      57.8     0.52      1002.0     5       240         8       253        9.39     301      -24.3
   02/18/2017 16:20      56.1      55.8       73     47.3      0.00     17.52      58.0     0.52      1002.0     5       233         9       230        9.39     297        4.2
   02/18/2017 16:10      56.5      55.7       72     47.2      0.00     17.52      57.7     0.52      1002.0     5       245         6       232        9.39     295       26.6
   02/18/2017 16:00      57.6      56.9       72     48.2      0.00     17.52      58.2     0.52      1002.0     4       234         6       215        9.40     293       88.0
   02/18/2017 15:50      58.0      57.5       70     48.1      0.00     17.52      58.0     0.52      1002.0     6       243        10       246        9.40     294      251.3
   02/18/2017 15:40      58.0      57.4       72     48.7      0.00     17.52      58.0     0.52      1002.0     5       236         7       237        9.40     296      354.3
   02/18/2017 15:30      57.5      56.8       73     48.6      0.00     17.52      57.7     0.52      1002.0     5       230         8       228        9.40     298      249.2
   02/18/2017 15:20      56.9      56.5       74     48.5      0.00     17.52      58.1     0.52      1002.0     5       242         6       255        9.40     302      148.5
   02/18/2017 15:10      56.6      56.3       76     48.8      0.00     17.52      57.6     0.52      1002.0     4       230         6       182        9.40     303       85.5
   02/18/2017 15:00      56.6      55.9       78     49.4      0.00     17.52      58.5     0.52      1002.0     3       219         6       193        9.40     305      117.3
   02/18/2017 14:50      55.8      55.1       79     48.9      0.00     17.52      57.3     0.52      1002.0     3       235         5       237        9.40     307       89.6
   02/18/2017 14:40      55.0      54.6       79     48.5      0.00     17.52      58.0     0.52      1002.0     4       222         6       222        9.40     308       55.6
   02/18/2017 14:30      54.8      54.5       80     48.7      0.00     17.52      58.1     0.52      1001.0     5       233         8       246        9.40     308       48.6
   02/18/2017 14:20      54.8      54.4       83     49.3      0.00     17.52      58.3     0.52      1001.0     5       231         8       239        9.40     307       47.1
   02/18/2017 14:10      55.7      54.5       83     49.8      0.00     17.52      57.5     0.52      1001.0     5       229         9       225        9.40     305       48.0
   02/18/2017 14:00      57.4      55.9       73     48.2      0.00     17.52      57.2     0.52      1001.0     4       217         7       200        9.41     303       34.1
   02/18/2017 13:50      57.7      57.2       70     47.6      0.00     17.52      57.6     0.52      1001.0     2       200         4       219        9.41     302       55.3
   02/18/2017 13:40      58.9      57.8       69     48.3      0.00     17.52      57.4     0.52      1001.0     3       181         4       203        9.41     302      238.2
   02/18/2017 13:30      59.0      57.2       70     48.3      0.00     17.52      57.6     0.52      1001.0     2       141         3       172        9.41     307      391.7
   02/18/2017 13:20      58.9      57.2       69     47.6      0.00     17.52      57.4     0.52      1001.0     2       113         3       146        9.41     311      113.6
   02/18/2017 13:10      60.3      58.8       67     48.7      0.00     17.52      57.3     0.52      1001.0     2       104         4        70        9.41     311      435.5
   02/18/2017 13:00      58.9      57.9       70     48.3      0.00     17.52      57.0     0.52      1001.0     2       289         2       336        9.41     317      402.4
   02/18/2017 12:50      58.0      55.2       77     49.1      0.00     17.52      56.9     0.52      1001.0     1       349         2       349        9.41     323      409.5
   02/18/2017 12:40      55.8      55.3       78     48.8      0.00     17.52      57.5     0.52      1001.0     3       227         4       243        9.41     328      177.2
   02/18/2017 12:30      56.9      56.0       73     47.6      0.00     17.52      58.1     0.52      1001.0     3       240         4       236        9.41     328      122.3
   02/18/2017 12:20      57.2      56.9       71     47.6      0.00     17.52      57.9     0.52      1001.0     2       311         3       266        9.41     329      137.6
   02/18/2017 12:10      57.4      57.1       70     47.5      0.00     17.52      57.9     0.52      1001.0     1       347         2       330        9.41     331      178.6
   02/18/2017 12:00      57.6      56.4       72     48.3      0.00     17.52      57.6     0.52      1001.0     1       320         2        18        9.41     334      238.1
   02/18/2017 11:50      56.4      55.5       73     47.4      0.00     17.52      57.4     0.52      1001.0     2       110         3       109        9.41     338      310.4
   02/18/2017 11:40      55.6      55.4       75     47.9      0.00     17.52      57.8     0.52      1001.0     3        74         4       115        9.41     342      212.6
   02/18/2017 11:30      55.5      54.7       76     47.8      0.00     17.52      57.8     0.52      1002.0     2        81         4        65        9.41     345      189.5
   02/18/2017 11:20      54.9      54.5       76     47.4      0.00     17.52      57.7     0.52      1002.0     3        96         4       116        9.41     348      202.5
   02/18/2017 11:10      55.1      54.5       77     47.6      0.00     17.52      57.5     0.52      1002.0     3        82         6        81        9.41     349      222.7
   02/18/2017 11:00      54.7      54.1       79     47.9      0.00     17.52      57.7     0.52      1002.0     3       108         5       129        9.41     352      186.2
   02/18/2017 10:50      54.7      54.3       79     48.1      0.00     17.52      57.1     0.52      1002.0     4       111         6       120        9.41     354      240.1
   02/18/2017 10:40      54.4      54.0       81     48.6      0.00     17.52      57.7     0.52      1002.0     3        97         5       138        9.41     357      289.5
   02/18/2017 10:30      54.2      53.7       82     48.7      0.00     17.52      56.9     0.52      1002.0     3        51         6        76        9.41     362      207.8
   02/18/2017 10:20      53.8      53.2       86     49.3      0.00     17.52      57.7     0.52      1002.0     3        69         4        75        9.41     365      226.3
   02/18/2017 10:10      53.5      53.0       88     49.6      0.00     17.52      57.3     0.53      1002.0     3        58         5        53        9.41     369      202.3
   02/18/2017 10:00      53.1      52.4       89     49.8      0.00     17.52      58.1     0.53      1002.0     2        57         4        61        9.41     371      191.1
   02/18/2017 09:50      52.6      52.3       90     49.5      0.00     17.52      57.2     0.53      1002.0     2        42         3        32        9.41     375      202.8
   02/18/2017 09:40      52.4      51.8       91     49.6      0.00     17.52      56.9     0.53      1002.0     2        31         2        36        9.41     379      164.9
   02/18/2017 09:30      52.3      51.8       92     49.8      0.00     17.52      57.3     0.53      1002.0     2        34         3        35        9.41     383      175.8
   02/18/2017 09:20      52.0      51.7       93     49.9      0.00     17.52      57.0     0.53      1002.0     3        48         4        69        9.41     386      214.4
   02/18/2017 09:10      51.9      51.2       94     49.8      0.00     17.52      57.3     0.53      1001.0     3        67         4        54        9.41     392      180.7
   02/18/2017 09:00      51.4      51.2       94     49.8      0.00     17.52      57.2     0.53      1001.0     3        66         6        92        9.41     396      161.4
   02/18/2017 08:50      51.3      50.7       95     49.5      0.00     17.52      56.8     0.53      1001.0     2        57         2        40        9.41     400      131.9
   02/18/2017 08:40      50.9      50.6       95     49.4      0.00     17.52      56.8     0.53      1001.0     2        50         2        67        9.41     404      101.2
   02/18/2017 08:30      50.8      50.3       95     49.2      0.00     17.52      57.2     0.53      1001.0     2        62         3        76        9.41     408       65.8
   02/18/2017 08:20      50.7      50.4       95     49.2      0.00     17.52      58.0     0.53      1001.0     2        36         2        59        9.41     407      108.1
   02/18/2017 08:10      50.4      49.8       96     48.9      0.00     17.52      57.4     0.53      1001.0     2        23         3         6        9.41     410      126.8
   02/18/2017 08:00      50.0      49.7       96     48.6      0.00     17.52      57.6     0.53      1001.0     2        26         3         3        9.41     415       82.0
   02/18/2017 07:50      49.7      49.5       96     48.4      0.00     17.52      57.4     0.53      1001.0     2        46         3        73        9.41     417       48.7
   02/18/2017 07:40      49.6      49.2       96     48.2      0.00     17.52      57.8     0.53      1001.0     2        36         3        41        9.41     419       43.6
   02/18/2017 07:30      49.4      49.2       96     48.1      0.01     17.52      56.7     0.53      1000.0     2        45         2        39        9.41     422       25.4
   02/18/2017 07:20      49.4      49.1       96     48.0      0.00     17.51      57.5     0.53      1000.0     2        37         3        33        9.41     423       12.3
   02/18/2017 07:10      49.2      49.0       96     48.0      0.00     17.51      57.1     0.53      1000.0     2        35         2        35        9.41     423        4.7
   02/18/2017 07:00      49.1      48.9       96     47.8      0.00     17.51      57.3     0.53      1000.0     1        40         2        36        9.41     423        2.9
   02/18/2017 06:50      49.1      48.9       96     47.8      0.00     17.51      57.7     0.54      1000.0     2        40         3        64        9.41     425        1.6
   02/18/2017 06:40      49.2      48.9       96     47.8      0.00     17.51      57.7     0.54      1000.0     2        65         4        70        9.41     427       -0.5
   02/18/2017 06:30      49.1      48.9       96     47.8      0.01     17.51      57.0     0.54      1000.0     1        36         2        49        9.41     430       -2.4
   02/18/2017 06:20      49.1      48.9       96     47.8      0.00     17.50      57.4     0.54      1000.0     2        44         3        86        9.41     434       -2.0
   02/18/2017 06:10      49.0      48.9       96     47.7      0.00     17.50      57.5     0.54      1000.0     3        52         5        59        9.41     438       -1.3
   02/18/2017 06:00      49.0      48.9       96     47.8      0.00     17.50      57.0     0.54      1000.0     3        57         4        72        9.42     442       -1.0
   02/18/2017 05:50      49.1      48.8       96     47.7      0.01     17.50      57.9     0.54      1000.0     2        43         4        26        9.41     442       -1.0
   02/18/2017 05:40      49.0      48.9       96     47.8      0.00     17.49      57.6     0.54      1000.0     2        38         5        79        9.41     450       -1.2
   02/18/2017 05:30      49.0      48.8       96     47.7      0.00     17.49      57.7     0.54       999.0     2        42         3        70        9.41     453       -1.2
   02/18/2017 05:20      49.0      48.8       95     47.6      0.01     17.49      57.9     0.54       999.0     3        46         3        60        9.41     443       -1.1
   02/18/2017 05:10      49.1      48.8       95     47.6      0.01     17.48      58.0     0.54       999.0     2        43         3        30        9.41     443       -0.9
   02/18/2017 05:00      49.0      48.7       95     47.6      0.01     17.47      57.2     0.54       999.0     3        55         4        84        9.41     441       -1.0
   02/18/2017 04:50      49.1      48.9       95     47.7      0.00     17.46      57.3     0.54       999.0     2        43         3        63        9.41     432       -1.3
   02/18/2017 04:40      49.0      48.8       95     47.6      0.01     17.46      57.4     0.54       999.0     2        51         5        74        9.41     430       -1.3
   02/18/2017 04:30      49.1      48.8       95     47.6      0.00     17.45      57.8     0.54       999.0     2        54         3        68        9.41     433       -1.5
   02/18/2017 04:20      49.0      48.8       95     47.5      0.01     17.45      57.8     0.54       999.0     3        55         5        65        9.41     433       -1.3
   02/18/2017 04:10      48.9      48.8       95     47.5      0.01     17.44      57.2     0.54       999.0     3        69         5        62        9.41     425       -1.1
   02/18/2017 04:00      48.9      48.8       95     47.5      0.00     17.43      57.5     0.55       999.0     3        62         5        55        9.41     422       -1.0
   02/18/2017 03:50      49.0      48.8       95     47.5      0.00     17.43      58.3     0.55       999.0     2        52         4        71        9.41     425       -1.4
   02/18/2017 03:40      49.1      48.8       95     47.5      0.01     17.43      57.3     0.55       999.0     2        53         3        71        9.41     427       -1.3
   02/18/2017 03:30      48.9      48.6       95     47.4      0.00     17.42      57.7     0.55       999.0     3        63         5        80        9.41     431       -1.1
   02/18/2017 03:20      48.9      48.7       95     47.4      0.01     17.42      57.6     0.55       999.0     3        49         6        71        9.41     431       -1.0
   02/18/2017 03:10      48.9      48.6       95     47.3      0.00     17.41      57.5     0.55       999.0     2        57         4        58        9.41     436       -0.8
   02/18/2017 03:00      48.8      48.6       95     47.3      0.01     17.41      57.4     0.55       999.0     3        58         6        70        9.41     436       -0.9
   02/18/2017 02:50      48.9      48.8       95     47.4      0.01     17.40      57.6     0.55       999.0     3        70         6        64        9.41     438       -1.1
   02/18/2017 02:40      48.9      48.6       95     47.3      0.02     17.39      57.9     0.55       999.0     4        77         7        77        9.41     443       -0.9
   02/18/2017 02:30      48.8      48.6       95     47.3      0.01     17.37      57.4     0.55       999.0     3        69         6        84        9.41     433       -0.9
   02/18/2017 02:20      48.9      48.6       95     47.3      0.01     17.36      57.3     0.55       999.0     3        58         8        64        9.41     431       -0.8
   02/18/2017 02:10      48.9      48.6       95     47.3      0.00     17.35      57.8     0.55       999.0     4        69         7        95        9.40     427       -0.8
   02/18/2017 02:00      48.9      48.6       95     47.3      0.01     17.35      57.2     0.55       999.0     4        59         7        63        9.40     425       -0.8
   02/18/2017 01:50      48.9      48.7       95     47.4      0.01     17.34      57.6     0.55       999.0     4        65         6       100        9.41     422       -0.8
   02/18/2017 01:40      49.0      48.8       95     47.3      0.00     17.33      57.8     0.55       999.0     3        59         5        68        9.40     421       -0.6
   02/18/2017 01:30      49.1      48.8       94     47.5      0.01     17.33      58.0     0.56       999.0     3        58         4        91        9.41     420       -0.8
   02/18/2017 01:20      49.1      48.9       94     47.5      0.00     17.32      57.7     0.56       999.0     3        51         5        80        9.40     423       -1.2
   02/18/2017 01:10      49.1      48.8       94     47.4      0.01     17.32      57.8     0.56       999.0     3        61         5        60        9.40     419       -1.3
   02/18/2017 01:00      49.1      48.9       94     47.3      0.00     17.31      57.9     0.56       999.0     3        78         6        72        9.41     415       -1.2
   02/18/2017 00:50      49.1      49.0       94     47.3      0.01     17.31      57.9     0.56       999.0     4        72         5        94        9.40     413       -1.2
   02/18/2017 00:40      49.2      48.9       93     47.2      0.00     17.30      57.9     0.56       999.0     3        71         5        66        9.40     409       -1.2
   02/18/2017 00:30      49.1      48.8       93     47.1      0.00     17.30      58.0     0.56       999.0     4        61         5        60        9.40     410       -1.3
   02/18/2017 00:20      49.1      48.9       93     47.1      0.01     17.30      57.8     0.57       999.0     4        67         7        93        9.40     410       -1.3
   02/18/2017 00:10      49.4      49.1       93     47.2      0.00     17.29      57.7     0.57       999.0     3        63         6        81        9.40     410       -1.3
   02/18/2017 00:00      49.4      49.2       92     47.1      0.00     17.29      57.3     0.57       999.0     4        65         5        72        9.40     410       -1.4
   02/17/2017 23:50      49.6      49.4       92     47.1      0.00     17.29      58.2     0.57       999.0     3        63         4        67        9.40     409       -2.0
   02/17/2017 23:40      49.8      49.5       90     46.9      0.00     17.29      57.7     0.57       999.0     2        65         4        71        9.40     409       -1.9
   02/17/2017 23:30      49.8      49.7       89     46.6      0.00     17.29      58.0     0.57       999.0     3        91         6        81        9.41     410       -1.9
   02/17/2017 23:20      49.9      49.7       88     46.5      0.00     17.29      57.3     0.57       998.0     4        92         7        81        9.41     411       -1.6
   02/17/2017 23:10      49.9      49.4       89     46.5      0.00     17.29      57.7     0.57       998.0     5       114         8        97        9.41     411       -1.0
   02/17/2017 23:00      49.5      49.2       91     46.7      0.00     17.29      58.1     0.57       998.0     4       105         9       101        9.41     414       -1.3
   02/17/2017 22:50      49.4      49.2       91     46.8      0.01     17.29      58.0     0.58       998.0     4       103         5       100        9.41     415       -1.5
   02/17/2017 22:40      49.4      49.2       91     46.8      0.00     17.28      57.6     0.58       998.0     5        76        10        84        9.42     417       -1.7
   02/17/2017 22:30      49.5      49.2       91     46.9      0.01     17.28      57.9     0.58       998.0     5        96        10        70        9.42     419       -2.1
   02/17/2017 22:20      49.5      49.2       92     47.0      0.00     17.27      58.1     0.58       998.0     5       110        10       129        9.42     418       -1.7
   02/17/2017 22:10      49.5      49.4       91     47.0      0.01     17.27      57.5     0.58       998.0     6       115         8        98        9.42     416       -2.0
   02/17/2017 22:00      49.9      49.5       91     47.2      0.01     17.26      57.5     0.58       998.0     6       111        11       144        9.42     416       -2.2
   02/17/2017 21:50      49.9      49.7       92     47.6      0.00     17.25      57.8     0.58       998.0     6       122        10       126        9.42     411       -2.8
   02/17/2017 21:40      49.9      49.7       92     47.7      0.00     17.25      58.2     0.58       998.0     3        95         6       105        9.42     410       -2.2
   02/17/2017 21:30      50.0      49.7       93     47.8      0.01     17.25      58.5     0.58       998.0     4        66         7        69        9.42     412       -2.1
   02/17/2017 21:20      50.0      49.7       93     47.7      0.00     17.24      58.2     0.59       998.0     4        83         5        82        9.42     411       -1.9
   02/17/2017 21:10      50.1      49.8       93     47.9      0.00     17.24      57.4     0.59       998.0     4        95         8        64        9.42     416       -2.0
   02/17/2017 21:00      50.0      49.8       93     48.0      0.00     17.24      57.9     0.59       998.0     3        99         5        77        9.42     417       -2.0
   02/17/2017 20:50      50.0      49.9       93     48.1      0.01     17.24      58.2     0.59       998.0     3        67         5        73        9.42     419       -2.0
   02/17/2017 20:40      50.1      49.9       93     48.1      0.00     17.23      58.5     0.59       998.0     3        91         7        76        9.42     419       -2.1
   02/17/2017 20:30      50.0      49.7       94     48.1      0.01     17.23      57.8     0.59       997.0     4        83         6        80        9.42     424       -2.6
   02/17/2017 20:20      50.0      49.7       94     48.1      0.02     17.22      57.9     0.59       997.0     6        78         8        74        9.42     426       -2.1
   02/17/2017 20:10      50.1      49.9       94     48.4      0.00     17.20      58.5     0.59       997.0     4        77         6        59        9.42     423       -1.6
   02/17/2017 20:00      50.3      50.0       94     48.6      0.01     17.20      58.2     0.59       997.0     5        75         8        65        9.42     429       -1.5
   02/17/2017 19:50      50.3      50.1       94     48.7      0.02     17.19      57.5     0.59       997.0     4        67         7        60        9.42     436       -1.8
   02/17/2017 19:40      50.3      50.1       94     48.7      0.02     17.17      57.6     0.59       997.0     4        71         7        70        9.42     445       -2.4
   02/17/2017 19:30      50.5      50.2       94     48.7      0.03     17.15      58.1     0.59       997.0     5        83        11        80        9.42     443       -3.9
   02/17/2017 19:20      50.7      50.5       94     49.0      0.03     17.12      57.5     0.59       997.0     5        68         9        60        9.42     433       -3.7
   02/17/2017 19:10      50.8      50.7       94     49.1      0.01     17.09      58.0     0.60       997.0     4        63         7        69        9.42     428       -2.8
   02/17/2017 19:00      50.9      50.7       94     49.1      0.01     17.08      57.9     0.60       997.0     4        70         7        88        9.42     426       -2.6
   02/17/2017 18:50      50.9      50.6       94     48.9      0.01     17.07      58.1     0.60       997.0     3        82         5        86        9.42     428       -2.7
   02/17/2017 18:40      50.8      50.7       93     48.9      0.02     17.06      57.5     0.60       997.0     3        60         5        59        9.42     432       -3.2
   02/17/2017 18:30      51.0      50.7       93     49.0      0.03     17.04      57.7     0.60       997.0     2        55         3        40        9.42     436       -3.9
   02/17/2017 18:20      51.2      50.9       93     49.1      0.02     17.01      57.4     0.60       997.0     3        61         6        67        9.42     440       -2.8
   02/17/2017 18:10      51.3      51.2       93     49.3      0.03     16.99      58.4     0.60       997.0     3        62         8        80        9.42     438       -2.1
   02/17/2017 18:00      51.4      51.2       92     49.1      0.03     16.96      57.6     0.60       997.0     4        86         6        61        9.42     438       -2.8
   02/17/2017 17:50      51.4      51.2       92     49.2      0.03     16.93      58.2     0.60       997.0     2        90         4        84        9.42     448       -2.1
   02/17/2017 17:40      51.3      51.2       92     49.0      0.03     16.90      57.9     0.60       997.0     1        72         3       134        9.42     442       -1.3
   02/17/2017 17:30      51.3      50.9       91     48.7      0.02     16.87      57.5     0.60       997.0     2       101         4       161        9.42     436       -0.6
   02/17/2017 17:20      51.1      50.9       90     48.2      0.03     16.85      58.1     0.60       997.0     2       128         5       135        9.42     450        0.4
   02/17/2017 17:10      51.2      51.0       89     48.0      0.02     16.82      57.8     0.60       997.0     4       168         7       185        9.42     441        1.0
   02/17/2017 17:00      51.3      51.1       88     47.8      0.01     16.80      58.0     0.60       997.0     4       160         7       165        9.42     429        0.9
   02/17/2017 16:50      51.5      51.2       88     47.8      0.02     16.79      57.3     0.60       997.0     5       169        11       158        9.42     431        1.5
   02/17/2017 16:40      52.0      51.4       88     48.2      0.01     16.77      58.1     0.60       997.0     9       148        15       158        9.42     435        0.5
   02/17/2017 16:30      53.8      52.3       87     49.0      0.04     16.76      58.0     0.60       997.0     9       161        15       159        9.42     454        0.3
   02/17/2017 16:20      54.7      54.3       89     51.5      0.09     16.72      57.9     0.60       997.0    10       147        16       161        9.42     452        3.5
   02/17/2017 16:10      54.9      54.6       90     51.9      0.12     16.63      58.5     0.60       997.0    11       122        17       126        9.42     490        5.8
   02/17/2017 16:00      54.9      54.4       90     51.8      0.07     16.51      57.7     0.60       997.0    10       121        13        63        9.42     462        9.7
   02/17/2017 15:50      54.8      54.6       89     51.6      0.09     16.44      57.8     0.60       997.0    11       123        16       116        9.42     458        9.5
   02/17/2017 15:40      54.8      54.3       89     51.4      0.06     16.35      57.8     0.60       997.0    14       111        20       118        9.42     456        9.5
   02/17/2017 15:30      54.6      54.3       90     51.4      0.05     16.29      57.6     0.60       997.0    10       113        17       124        9.42     459       12.0
   02/17/2017 15:20      54.3      54.1       91     51.5      0.07     16.24      57.9     0.60       997.0    11       124        22       132        9.42     443       14.5
   02/17/2017 15:10      54.4      54.1       90     51.5      0.11     16.17      57.6     0.60       997.0    10       114        19       133        9.42     456        8.5
   02/17/2017 15:00      54.6      54.3       90     51.5      0.13     16.06      57.8     0.60       998.0    11       129        18       146        9.42     455        8.2
   02/17/2017 14:50      54.8      54.5       90     51.7      0.09     15.93      57.9     0.60       998.0    12       129        24       129        9.42     458        7.7
   02/17/2017 14:40      54.6      54.0       91     51.6      0.10     15.84      58.1     0.60       998.0    12       123        23       153        9.42     477        8.9
   02/17/2017 14:30      54.2      54.0       90     51.4      0.12     15.74      58.1     0.60       998.0     9       113        17       124        9.42     465        9.1
   02/17/2017 14:20      54.3      54.0       90     51.4      0.09     15.62      58.7     0.60       998.0    10       117        15       106        9.42     459       11.4
   02/17/2017 14:10      54.5      54.3       89     51.2      0.10     15.53      58.4     0.60       998.0    15       126        22       153        9.42     455       14.9
   02/17/2017 14:00      54.5      54.1       90     51.5      0.09     15.43      58.7     0.60       999.0    11       104        15       105        9.42     459       17.7
   02/17/2017 13:50      54.2      53.9       91     51.4      0.08     15.34      58.9     0.60       999.0    10       120        16       129        9.42     450       15.9
   02/17/2017 13:40      54.0      53.7       90     51.0      0.12     15.26      59.0     0.60       999.0    11       123        18       112        9.42     460       16.0
   02/17/2017 13:30      54.1      53.7       89     50.9      0.12     15.14      58.9     0.60       999.0    12       130        18       117        9.42     467       22.2
   02/17/2017 13:20      54.1      54.0       90     51.1      0.13     15.02      59.2     0.60      1000.0     9       118        16       130        9.42     465       22.5
   02/17/2017 13:10      54.3      53.9       89     51.0      0.13     14.89      59.3     0.60      1000.0    15       116        20       123        9.41     469       25.7
   02/17/2017 13:00      54.1      53.8       89     50.7      0.10     14.76      59.8     0.60      1000.0    14       125        20       125        9.40     444       24.5
   02/17/2017 12:50      54.1      53.7       89     50.6      0.11     14.66      59.8     0.60      1000.0    10       118        22       116        9.38     447       25.3
   02/17/2017 12:40      54.3      53.8       88     50.4      0.10     14.55      60.2     0.59      1000.0    16       113        26       120        9.34     441       30.0
   02/17/2017 12:30      54.0      53.6       89     50.7      0.08     14.45      60.6     0.59      1000.0    13       125        21       132        9.32     444       23.2
   02/17/2017 12:20      53.7      53.2       91     51.1      0.10     14.37      60.8     0.59      1001.0    10       119        14       128        9.29     445       18.8
   02/17/2017 12:10      53.4      53.1       92     51.0      0.09     14.27      60.7     0.57      1001.0     7       108        11       108        9.27     433       17.3
   02/17/2017 12:00      53.5      53.0       92     50.9      0.07     14.18      60.7     0.55      1001.0     8       124        11       133        9.24     434       20.3
   02/17/2017 11:50      53.3      53.0       92     50.8      0.09     14.11      60.9     0.53      1001.0    11       116        20       126        9.23     417       21.8
   02/17/2017 11:40      53.3      53.0       92     50.8      0.07     14.02      61.1     0.52      1002.0    10       104        17       126        9.21     412       18.1
   02/17/2017 11:30      53.4      53.1       92     50.8      0.05     13.95      61.2     0.52      1002.0    12       101        15        85        9.19     404       29.8
   02/17/2017 11:20      53.2      53.0       91     50.7      0.03     13.90      60.8     0.52      1002.0     9       105        16        69        9.16     387       17.6
   02/17/2017 11:10      53.4      53.1       91     50.6      0.03     13.87      61.0     0.51      1003.0     9       105        13       101        9.14     388       17.9
   02/17/2017 11:00      53.2      53.0       91     50.5      0.01     13.84      60.5     0.51      1003.0    11        98        14       102        9.14     382       20.2
   02/17/2017 10:50      53.0      52.9       91     50.4      0.02     13.83      60.7     0.51      1003.0     8        97        12        85        9.12     383       16.0
   02/17/2017 10:40      53.1      52.9       91     50.4      0.03     13.81      60.8     0.50      1004.0     9       108        13       148        9.09     399       16.1
   02/17/2017 10:30      53.2      52.9       92     50.6      0.04     13.78      60.4     0.50      1004.0     8       107        12       107        9.06     397       23.7
   02/17/2017 10:20      53.0      52.9       92     50.5      0.03     13.74      60.7     0.50      1004.0     8        99        17       122        9.03     391       29.6
   02/17/2017 10:10      53.0      52.8       92     50.6      0.03     13.71      61.2     0.50      1005.0     8        91        12       126        9.01     386       25.0
   02/17/2017 10:00      52.9      52.6       92     50.5      0.04     13.68      60.5     0.50      1005.0     5        86         8        70        9.00     383       31.8
   02/17/2017 09:50      53.0      52.7       91     50.4      0.04     13.64      60.8     0.49      1005.0     6        91         9        83        9.00     390       18.2
   02/17/2017 09:40      53.1      52.9       90     50.2      0.03     13.60      61.0     0.49      1005.0     8        91        12        98        8.99     384       19.5
   02/17/2017 09:30      53.2      52.9       90     50.0      0.03     13.57      61.3     0.49      1005.0     7        92        13        73        8.96     383        9.3
   02/17/2017 09:20      53.2      53.0       89     50.0      0.02     13.54      61.4     0.49      1006.0     8       108        13       121        8.95     380       13.8
   02/17/2017 09:10      53.1      52.8       89     49.9      0.02     13.52      61.4     0.49      1006.0     9        84        18        73        8.94     381       17.1
   02/17/2017 09:00      52.9      52.6       89     49.7      0.02     13.50      60.9     0.49      1006.0     8       108        16        95        8.92     380        5.5
   02/17/2017 08:50      52.9      52.6       89     49.5      0.01     13.48      61.4     0.49      1007.0     8       111        16       119        8.91     370        8.3
   02/17/2017 08:40      52.7      52.4       89     49.5      0.01     13.47      61.2     0.49      1007.0     6       102         9       133        8.90     373        3.5
   02/17/2017 08:30      52.7      52.3       89     49.3      0.02     13.46      61.0     0.49      1007.0     7        86        11        68        8.90     373        1.4
   02/17/2017 08:20      52.4      52.1       89     49.0      0.03     13.44      61.3     0.49      1007.0     6       108         9       125        8.90     391       -0.3
   02/17/2017 08:10      52.4      52.1       88     48.8      0.02     13.41      60.8     0.49      1007.0     7        92        17        56        8.89     378        1.2
   02/17/2017 08:00      52.9      52.5       86     48.6      0.06     13.39      61.4     0.48      1007.0     7        98         9        67        8.89     375        1.0
   02/17/2017 07:50      53.7      53.0       83     48.1      0.03     13.33      61.2     0.48      1007.0     7        83        16        64        8.89     338       -4.5
   02/17/2017 07:40      54.1      53.7       78     47.4      0.01     13.30      61.1     0.48      1007.0     7       104        11       111        8.89     322       -4.2
   02/17/2017 07:30      54.1      54.0       79     47.6      0.00     13.29      61.7     0.48      1007.0     7       108        11       127        8.89     311       -1.9
   02/17/2017 07:20      54.2      53.9       80     47.9      0.00     13.29      61.7     0.48      1007.0     7       122         9       124        8.89     312       -2.3
   02/17/2017 07:10      54.2      54.0       78     47.5      0.00     13.29      62.0     0.48      1008.0     5       106         8       133        8.89     311       -1.4
   02/17/2017 07:00      54.1      53.6       80     47.8      0.00     13.29      61.4     0.48      1008.0     7       106        13       118        8.89     311       -3.9
   02/17/2017 06:50      53.7      53.5       84     48.8      0.00     13.29      61.7     0.48      1008.0     6       112        10       111        8.89     311       -5.5
   02/17/2017 06:40      53.7      53.5       84     48.9      0.00     13.29      61.7     0.48      1008.0     4        93         7        61        8.89     310       -6.5
   02/17/2017 06:30      53.5      53.2       85     49.0      0.00     13.29      61.5     0.48      1007.0     6        80        10        86        8.89     309       -9.0
   02/17/2017 06:20      53.5      53.2       85     49.1      0.00     13.29      61.8     0.48      1008.0     6        85         9        91        8.89     308       -8.4
   02/17/2017 06:10      53.6      53.3       85     48.9      0.00     13.29      61.3     0.48      1008.0     5        79         9        73        8.89     307       -9.4
   02/17/2017 06:00      53.5      53.4       83     48.5      0.00     13.29      61.1     0.48      1009.0     4        93         8       110        8.89     304       -9.6
   02/17/2017 05:50      53.8      53.6       80     47.8      0.01     13.29      61.5     0.48      1009.0     5        89         9        72        8.89     305      -12.6
   02/17/2017 05:40      54.4      54.0       79     47.7      0.00     13.28      61.4     0.48      1009.0     6       116        10       136        8.89     323      -12.1
   02/17/2017 05:30      54.6      54.3       76     47.0      0.00     13.28      61.7     0.48      1009.0     6       118        11       151        8.89     306       -9.3
   02/17/2017 05:20      54.6      54.3       77     47.3      0.00     13.28      61.7     0.48      1009.0     5       115         8       124        8.89     311      -10.4
   02/17/2017 05:10      54.5      54.1       78     47.6      0.00     13.28      61.6     0.48      1009.0     4       108         5       122        8.89     310       -9.8
   02/17/2017 05:00      54.5      54.3       77     47.5      0.00     13.28      61.1     0.48      1009.0     6       115         8       100        8.89     305      -10.8
   02/17/2017 04:50      54.6      54.3       77     47.4      0.00     13.28      61.3     0.48      1009.0     6       118        10       100        8.89     290      -11.0
   02/17/2017 04:40      54.6      54.3       78     47.7      0.00     13.28      61.5     0.48      1009.0     5       106         6       119        8.89     289      -10.2
   02/17/2017 04:30      54.7      54.5       77     47.5      0.00     13.28      61.3     0.48      1009.0     6        93         9       136        8.89     287       -9.3
   02/17/2017 04:20      54.8      54.6       77     47.6      0.00     13.28      61.6     0.48      1009.0     5        95         7       129        8.89     286       -9.5
   02/17/2017 04:10      54.9      54.7       78     48.0      0.00     13.28      61.7     0.48      1009.0     4       106         6       124        8.89     286       -9.2
   02/17/2017 04:00      55.2      54.9       78     48.3      0.00     13.28      61.1     0.48      1009.0     4       128         8       137        8.89     286       -8.8
   02/17/2017 03:50      55.4      55.2       77     48.4      0.00     13.28      62.0     0.48      1009.0     1       112         2       104        8.89     286       -8.4
   02/17/2017 03:40      55.5      55.2       76     48.2      0.00     13.28      61.4     0.48      1010.0     3       168         5       217        8.89     286       -8.7
   02/17/2017 03:30      55.5      55.1       78     48.5      0.00     13.28      61.8     0.48      1009.0     3       107         6        88        8.89     285       -9.1
   02/17/2017 03:20      55.2      55.0       80     49.0      0.00     13.28      61.7     0.48      1009.0     4       104         6       118        8.89     285       -8.4
   02/17/2017 03:10      55.2      55.1       81     49.4      0.00     13.28      61.6     0.48      1009.0     3        70         5        72        8.89     284       -8.1
   02/17/2017 03:00      55.3      55.1       82     49.9      0.00     13.28      61.4     0.48      1009.0     2        83         4        72        8.89     284       -8.1
   02/17/2017 02:50      55.3      55.0       83     50.2      0.00     13.28      62.1     0.48      1009.0     3        63         6        62        8.89     284       -8.1
   02/17/2017 02:40      55.2      55.0       85     50.5      0.00     13.28      61.7     0.48      1009.0     3        91         5        64        8.89     284       -8.0
   02/17/2017 02:30      55.2      55.0       85     50.8      0.00     13.28      61.4     0.48      1009.0     3        76         5        57        8.89     284       -7.8
   02/17/2017 02:20      55.1      54.9       86     51.0      0.00     13.28      61.8     0.48      1010.0     2        55         3        39        8.89     283       -8.0
   02/17/2017 02:10      55.2      55.0       87     51.3      0.00     13.28      62.3     0.48      1010.0     1        73         2        78        8.89     283       -8.7
   02/17/2017 02:00      55.2      55.1       87     51.4      0.00     13.28      61.7     0.48      1010.0     1        40         3        12        8.89     283       -9.4
   02/17/2017 01:50      55.1      55.0       87     51.2      0.00     13.28      62.1     0.48      1010.0     1        45         1        69        8.89     283       -9.6
   02/17/2017 01:40      55.3      55.1       86     51.1      0.00     13.28      61.9     0.48      1011.0     1        37         1        37        8.89     283       -9.7
   02/17/2017 01:30      55.2      54.9       87     51.2      0.00     13.28      62.2     0.48      1011.0     1       101         2       130        8.89     283       -8.9
   02/17/2017 01:20      55.1      54.9       88     51.5      0.00     13.28      61.6     0.48      1010.0     2        87         3        94        8.89     282       -8.8
   02/17/2017 01:10      55.2      54.9       88     51.6      0.00     13.28      61.9     0.48      1010.0     2        70         3        58        8.89     282       -9.2
   02/17/2017 01:00      55.2      54.9       88     51.6      0.00     13.28      62.1     0.48      1010.0     3        59         5        69        8.89     282       -9.3
   02/17/2017 00:50      55.2      54.9       88     51.6      0.00     13.28      61.8     0.48      1011.0     2        53         4        86        8.89     282       -9.4
   02/17/2017 00:40      55.2      54.9       88     51.5      0.00     13.28      61.7     0.48      1011.0     3        59         4        66        8.89     282       -9.2
   02/17/2017 00:30      55.2      55.0       88     51.5      0.00     13.28      62.2     0.48      1011.0     3        78         4        89        8.89     282       -9.1
   02/17/2017 00:20      55.2      55.1       88     51.7      0.00     13.28      61.0     0.48      1011.0     2        59         4        54        8.89     282      -10.1
   02/17/2017 00:10      55.3      55.1       89     51.9      0.00     13.28      61.8     0.48      1011.0     2        59         3        81        8.89     282      -10.6
   02/17/2017 00:00      55.6      55.3       87     51.8      0.00     13.28      61.8     0.48      1012.0     1        76         2        14        8.89     282      -10.3
   02/16/2017 23:50      55.7      55.4       87     51.6      0.00     13.28      62.0     0.48      1012.0     2         8         2        36        8.89     282      -10.5
   02/16/2017 23:40      55.7      55.5       85     51.2      0.01     13.28      61.8     0.48      1012.0     1       170         1        91        8.89     283      -11.1
   02/16/2017 23:30      56.0      55.7       84     51.2      0.00     13.27      61.5     0.48      1012.0     2        86         3        65        8.89     282      -12.3
   02/16/2017 23:20      56.5      56.0       83     51.3      0.00     13.27      61.5     0.48      1012.0     1       101         2       136        8.89     280      -12.9
   02/16/2017 23:10      56.7      56.4       82     51.1      0.00     13.27      61.7     0.48      1012.0     2        43         2        55        8.89     279      -14.1
   02/16/2017 23:00      57.0      56.8       81     51.1      0.00     13.27      61.6     0.48      1012.0     3        33         6        26        8.89     278      -16.7
   02/16/2017 22:50      57.3      56.9       79     50.7      0.00     13.27      61.7     0.48      1012.0     2        21         4        36        8.89     276      -19.9
   02/16/2017 22:40      57.5      57.2       78     50.5      0.00     13.27      61.9     0.48      1012.0     2        33         2        29        8.89     275      -20.7
   02/16/2017 22:30      57.8      57.5       75     49.9      0.00     13.27      61.9     0.48      1012.0     2        31         3        33        8.89     275      -18.6
   02/16/2017 22:20      58.0      57.8       73     49.3      0.00     13.27      61.7     0.48      1013.0     2        56         2        68        8.89     274      -18.7
   02/16/2017 22:10      58.1      58.0       72     48.9      0.00     13.27      61.8     0.48      1013.0     2        63         3        83        8.89     274      -18.1
   02/16/2017 22:00      58.3      58.1       71     48.6      0.00     13.27      61.9     0.48      1013.0     2        65         3        57        8.89     274      -18.0
   02/16/2017 21:50      58.6      58.3       70     48.8      0.00     13.27      61.9     0.48      1013.0     2        73         4        68        8.89     274      -20.1
   02/16/2017 21:40      59.0      58.5       69     48.7      0.00     13.27      61.4     0.48      1013.0     2        46         3        78        8.89     274      -21.2
   02/16/2017 21:30      59.1      58.9       65     47.3      0.00     13.27      61.8     0.48      1013.0     1        49         3        39        8.89     273      -20.5
   02/16/2017 21:20      59.2      58.8       64     47.0      0.00     13.27      61.7     0.48      1013.0     1        76         2        66        8.89     274      -20.8
   02/16/2017 21:10      59.1      58.9       65     47.1      0.00     13.27      61.8     0.48      1013.0     1       167         2       218        8.89     273      -20.3
   02/16/2017 21:00      59.5      59.1       63     46.9      0.00     13.27      61.8     0.48      1013.0     1       190         2       198        8.89     273      -20.8
   02/16/2017 20:50      59.7      59.5       62     46.8      0.00     13.27      61.7     0.48      1013.0     1       240         2       238        8.89     273      -21.4
   02/16/2017 20:40      59.9      59.7       62     46.9      0.00     13.27      61.5     0.48      1013.0     3       233         4       224        8.89     273      -20.8
   02/16/2017 20:30      59.8      59.7       63     46.9      0.00     13.27      61.6     0.48      1013.0     2       234         4       245        8.90     273      -20.7
   02/16/2017 20:20      59.7      59.5       62     46.6      0.00     13.27      61.6     0.48      1013.0     3       240         4       231        8.90     273      -20.5
   02/16/2017 20:10      59.8      59.5       62     46.5      0.00     13.27      61.5     0.48      1013.0     1       173         3       147        8.90     273      -22.7
   02/16/2017 20:00      59.7      59.5       62     46.6      0.00     13.27      61.7     0.48      1013.0     3       191         5       201        8.90     273      -22.0
   02/16/2017 19:50      59.9      59.6       62     46.7      0.00     13.27      61.6     0.48      1013.0     3       226         4       242        8.90     273      -20.6
   02/16/2017 19:40      60.5      59.9       62     47.3      0.00     13.27      61.3     0.48      1013.0     3       244         5       233        8.90     273      -20.4
   02/16/2017 19:30      60.6      60.3       63     47.6      0.00     13.27      61.9     0.48      1013.0     3       265         3       243        8.90     273      -22.1
   02/16/2017 19:20      61.3      60.7       62     47.7      0.00     13.27      61.5     0.48      1013.0     3       243         5       228        8.90     273      -21.8
   02/16/2017 19:10      61.8      61.5       62     48.7      0.00     13.27      61.7     0.48      1013.0     3       248         4       260        8.90     273      -21.1
   02/16/2017 19:00      62.0      61.6       63     48.8      0.00     13.27      61.4     0.48      1013.0     3       250         4       251        8.90     273      -22.5
   02/16/2017 18:50      62.5      61.8       59     47.4      0.00     13.27      61.2     0.48      1013.0     1       187         2       244        8.90     273      -23.4
   02/16/2017 18:40      62.9      62.7       55     46.6      0.00     13.27      61.5     0.48      1013.0     1       220         2       288        8.90     273      -22.2
   02/16/2017 18:30      63.0      62.7       55     46.3      0.00     13.27      61.1     0.48      1013.0     2       244         2       144        8.90     272      -25.9
   02/16/2017 18:20      62.9      62.7       54     45.7      0.00     13.27      61.4     0.48      1012.0     2       144         3       179        8.90     272      -24.3
   02/16/2017 18:10      63.0      62.7       53     45.3      0.00     13.27      61.3     0.48      1012.0     3       143         5       129        8.90     271      -24.6
   02/16/2017 18:00      63.0      62.3       52     44.7      0.00     13.27      61.4     0.48      1013.0     2       127         4       129        8.90     271      -25.8
   02/16/2017 17:50      62.7      62.2       53     45.1      0.00     13.27      61.1     0.48      1013.0     2       203         4       227        8.90     271      -26.4
   02/16/2017 17:40      62.8      62.5       53     45.4      0.00     13.27      61.3     0.48      1013.0     4       272         6       308        8.91     271      -27.3
   02/16/2017 17:30      63.3      62.9       52     45.2      0.00     13.27      61.1     0.48      1013.0     5       283         6       294        8.91     271      -27.2
   02/16/2017 17:20      64.5      63.3       50     44.6      0.00     13.27      61.1     0.48      1013.0     5       298         9       278        8.91     271      -26.6
   02/16/2017 17:10      66.2      64.9       40     40.4      0.00     13.27      61.1     0.48      1013.0     5       264         7       282        8.91     271      -23.3
   02/16/2017 17:00      67.3      66.5       30     34.2      0.00     13.27      61.1     0.48      1013.0     4       285         6       323        8.92     271      -20.2
   02/16/2017 16:50      68.2      67.6       27     32.8      0.00     13.27      61.2     0.48      1013.0     4       277         5       248        8.92     271      -17.7
   02/16/2017 16:40      68.6      68.2       27     33.1      0.00     13.27      60.8     0.48      1013.0     3       287         4       313        8.92     271      -15.3
   02/16/2017 16:30      68.8      68.3       26     32.1      0.00     13.27      61.1     0.48      1013.0     4       275         6       269        8.92     271       -8.5
   02/16/2017 16:20      69.7      69.1       25     32.0      0.00     13.27      60.9     0.48      1013.0     3       266         5       256        8.92     271       11.1
   02/16/2017 16:10      70.3      69.7       24     31.3      0.00     13.27      60.9     0.48      1013.0     3       298         4       319        8.92     271        8.1
   02/16/2017 16:00      70.5      70.3       24     31.5      0.00     13.27      60.7     0.48      1013.0     1       311         2       312        8.93     271       23.7
   02/16/2017 15:50      71.4      70.8       23     31.1      0.00     13.27      60.7     0.48      1013.0     2       350         2       355        8.93     270       27.8
   02/16/2017 15:40      71.4      71.0       24     32.2      0.00     13.27      60.6     0.48      1013.0     2       319         3       339        8.93     271      120.4
   02/16/2017 15:30      71.5      71.3       24     32.9      0.00     13.27      60.9     0.48      1013.0     4       349         6       357        8.93     271      167.0
   02/16/2017 15:20      72.4      71.1       24     33.4      0.00     13.27      60.6     0.48      1013.0     3       344         5        11        8.93     271      284.1
   02/16/2017 15:10      71.0      69.1       26     33.9      0.00     13.27      60.5     0.48      1013.0     1         6         3       336        8.93     271      195.8
   02/16/2017 15:00      69.3      68.8       30     36.0      0.00     13.27      60.5     0.48      1014.0     3       238         5       250        8.93     271      128.1
   02/16/2017 14:50      70.5      69.3       30     36.9      0.00     13.27      60.4     0.48      1013.0     4       262         5       209        8.94     270       93.2
   02/16/2017 14:40      70.5      70.1       30     37.9      0.00     13.27      60.5     0.48      1013.0     4       282         8       344        8.94     271      270.1
   02/16/2017 14:30      71.1      70.0       32     39.1      0.00     13.27      60.4     0.48      1014.0     4       274         9       252        8.94     271      310.8
   02/16/2017 14:20      70.8      68.9       33     39.8      0.00     13.27      60.2     0.48      1014.0     3       313         5       350        8.94     271      382.6
   02/16/2017 14:10      69.8      68.9       34     40.0      0.00     13.27      60.2     0.48      1014.0     4       282         6       265        8.94     271      188.5
   02/16/2017 14:00      70.2      69.5       33     39.5      0.00     13.27      60.2     0.48      1014.0     4       295         7       309        8.94     271      245.4
   02/16/2017 13:50      70.4      69.9       33     39.8      0.00     13.27      60.2     0.48      1014.0     4       273         5       314        8.94     271      261.5
   02/16/2017 13:40      70.2      69.8       31     38.3      0.00     13.27      60.3     0.48      1014.0     4       247         6       278        8.94     273      344.6
   02/16/2017 13:30      70.0      69.4       34     40.0      0.00     13.27      60.2     0.48      1014.0     6       270         8       266        8.94     273      322.6
   02/16/2017 13:20      69.9      69.1       32     38.3      0.00     13.27      60.4     0.48      1014.0     3       261         5       330        8.94     273      268.8
   02/16/2017 13:10      70.0      69.4       32     38.6      0.00     13.27      60.1     0.48      1015.0     3       263         5       269        8.94     272      236.6
   02/16/2017 13:00      69.9      69.3       34     39.8      0.00     13.27      60.3     0.48      1015.0     5       279         8       218        8.94     273      269.3
   02/16/2017 12:50      70.3      69.3       31     37.5      0.00     13.27      59.9     0.48      1015.0     5       243         7       297        8.94     272      166.1
   02/16/2017 12:40      70.8      70.2       28     35.9      0.00     13.27      60.0     0.48      1015.0     3       224         6       245        8.94     272      221.5
   02/16/2017 12:30      71.0      70.2       26     34.0      0.00     13.27      60.0     0.48      1015.0     3       246         5       214        8.95     272      236.7
   02/16/2017 12:20      70.8      70.5       24     32.6      0.00     13.27      60.1     0.48      1015.0     2       295         4       259        8.95     273      165.3
   02/16/2017 12:10      71.7      71.0       27     35.3      0.00     13.27      60.1     0.48      1015.0     2       323         3       352        8.95     273      145.3
   02/16/2017 12:00      72.2      71.8       27     36.0      0.00     13.27      60.4     0.48      1015.0     2       350         4       346        8.95     273      199.1
   02/16/2017 11:50      71.9      70.9       28     36.4      0.00     13.27      60.1     0.48      1016.0     2        30         4         7        8.95     273      398.2
   02/16/2017 11:40      70.8      69.7       28     35.7      0.00     13.27      60.3     0.48      1016.0     2       293         4       294        8.95     273      379.4
   02/16/2017 11:30      70.2      69.1       29     36.3      0.00     13.27      60.0     0.48      1016.0     2       326         4       327        8.95     277      237.3
   02/16/2017 11:20      70.5      69.3       31     38.0      0.00     13.27      60.1     0.48      1016.0     2       211         4       203        8.95     280      261.6
   02/16/2017 11:10      69.8      68.9       32     37.9      0.00     13.27      60.4     0.48      1016.0     2       264         3       258        8.95     283      345.0
   02/16/2017 11:00      69.1      67.5       34     38.6      0.00     13.27      60.1     0.48      1016.0     2       255         4       239        8.95     285      392.3
   02/16/2017 10:50      67.8      67.4       35     38.7      0.00     13.27      60.3     0.48      1017.0     2       264         4       307        8.95     287      234.1
   02/16/2017 10:40      69.1      67.8       34     39.0      0.00     13.27      60.2     0.48      1016.0     2       280         4       234        8.95     288      295.7
   02/16/2017 10:30      68.2      66.9       35     39.1      0.00     13.27      60.5     0.48      1016.0     1       210         2       214        8.95     293      283.9
   02/16/2017 10:20      67.4      66.7       35     38.8      0.00     13.27      60.2     0.48      1016.0     1       236         2       229        8.95     296      195.3
   02/16/2017 10:10      68.1      67.2       35     38.7      0.00     13.27      60.3     0.48      1016.0     2       343         3       334        8.95     299      323.1
   02/16/2017 10:00      67.2      65.7       36     38.7      0.00     13.27      60.4     0.48      1016.0     1       314         2         7        8.95     303      363.9
   02/16/2017 09:50      65.3      63.9       37     37.5      0.00     13.27      60.3     0.48      1016.0     2       338         3       349        8.95     311      328.9
   02/16/2017 09:40      63.9      63.6       38     37.4      0.00     13.27      60.5     0.48      1016.0     3         2         4       356        8.95     319      315.5
   02/16/2017 09:30      63.9      63.3       38     37.2      0.00     13.27      60.3     0.48      1016.0     2         7         2       352        8.95     328      272.6
   02/16/2017 09:20      63.7      63.1       39     37.8      0.00     13.27      60.1     0.48      1016.0     2         2         3       344        8.95     333      244.6
   02/16/2017 09:10      63.1      61.0       39     36.6      0.00     13.27      60.5     0.48      1016.0     1       274         1       265        8.95     339      214.0
   02/16/2017 09:00      61.0      60.3       41     37.1      0.00     13.27      60.6     0.48      1016.0     2       286         3       268        8.96     344      256.0
   02/16/2017 08:50      60.3      59.2       46     38.7      0.00     13.27      60.4     0.48      1016.0     1       320         2       325        8.96     351      257.2
   02/16/2017 08:40      59.1      57.0       50     39.4      0.00     13.27      60.6     0.48      1016.0     1       325         2       331        8.96     356      238.8
   02/16/2017 08:30      56.9      56.1       54     40.3      0.00     13.27      60.3     0.48      1016.0     0       152         1       208        8.96     358       86.7
   02/16/2017 08:20      57.9      56.4       54     40.3      0.00     13.27      60.6     0.48      1016.0     1       123         2       111        8.96     360        2.3
   02/16/2017 08:10      58.1      55.9       53     40.2      0.00     13.27      60.6     0.48      1016.0     1        74         2        79        8.96     362       21.7
   02/16/2017 08:00      55.7      53.4       58     39.9      0.00     13.27      60.6     0.48      1017.0     0       297         1       297        8.96     363      137.0
   02/16/2017 07:50      53.4      51.6       60     39.1      0.00     13.27      60.6     0.48      1017.0     1        44         1        32        8.96     366       58.0
   02/16/2017 07:40      51.3      48.2       67     39.2      0.00     13.27      60.3     0.48      1017.0     1       356         1         5        8.96     367       57.1
   02/16/2017 07:30      48.3      47.0       71     38.7      0.00     13.27      60.7     0.48      1017.0     1       355         1       353        8.96     367      -20.7
   02/16/2017 07:20      47.1      45.6       73     38.2      0.00     13.27      60.6     0.48      1017.0     1       239         2       256        8.96     367      -25.0
   02/16/2017 07:10      45.6      44.8       75     37.8      0.00     13.27      60.7     0.48      1017.0     0       175         1       205        8.96     367      -36.6
   02/16/2017 07:00      44.7      44.5       77     37.8      0.00     13.27      60.9     0.48      1017.0     1       182         2       133        8.96     366      -45.7
   02/16/2017 06:50      45.0      44.8       75     37.4      0.00     13.27      60.7     0.48      1017.0     1       147         1       128        8.96     364      -51.9
   02/16/2017 06:40      44.9      44.5       75     37.4      0.00     13.27      60.9     0.48      1016.0     1       222         1       259        8.96     363      -56.6
   02/16/2017 06:30      45.4      44.9       74     37.4      0.00     13.27      61.1     0.48      1016.0     1       114         1       123        8.96     361      -56.7
   02/16/2017 06:20      45.4      45.1       73     37.1      0.00     13.27      60.8     0.48      1016.0     2       136         2       139        8.96     360      -51.5
   02/16/2017 06:10      45.5      45.1       72     36.7      0.00     13.27      60.8     0.48      1016.0     1       223         2       235        8.96     358      -48.6
   02/16/2017 06:00      45.3      44.9       72     36.8      0.00     13.27      60.8     0.48      1016.0     1       253         2       257        8.96     357      -54.6
   02/16/2017 05:50      45.1      45.0       72     36.8      0.00     13.27      61.0     0.48      1016.0     1       154         1       137        8.96     355      -58.8
   02/16/2017 05:40      45.5      45.0       71     36.4      0.00     13.27      61.1     0.49      1016.0     1       133         2       128        8.96     353      -59.6
   02/16/2017 05:30      45.5      45.2       71     36.6      0.00     13.27      60.8     0.49      1016.0     1       141         1       133        8.96     351      -59.6
   02/16/2017 05:20      46.5      45.6       69     36.3      0.00     13.27      60.9     0.48      1016.0     1       125         1       113        8.96     350      -56.9
   02/16/2017 05:10      46.6      45.9       70     36.9      0.00     13.27      61.1     0.49      1016.0     2       277         3       283        8.96     348      -53.7
   02/16/2017 05:00      46.0      45.5       71     36.7      0.00     13.27      61.3     0.49      1016.0     1       276         1       281        8.96     346      -59.0
   02/16/2017 04:50      45.8      45.4       70     36.2      0.00     13.27      61.3     0.49      1016.0     0       151         1       171        8.96     344      -59.9
   02/16/2017 04:40      46.0      45.6       70     36.6      0.00     13.27      61.3     0.49      1016.0     0        83         1        83        8.97     343      -58.1
   02/16/2017 04:30      46.5      46.0       69     36.8      0.00     13.27      61.0     0.49      1016.0     1       112         2       111        8.97     341      -57.1
   02/16/2017 04:20      47.1      46.6       68     37.0      0.00     13.27      61.1     0.49      1016.0     1       112         2       129        8.97     339      -60.2
   02/16/2017 04:10      47.4      47.1       67     36.7      0.00     13.27      61.2     0.49      1016.0     1       139         2       129        8.97     336      -60.0
   02/16/2017 04:00      47.7      47.6       65     36.5      0.00     13.27      61.3     0.49      1016.0     1       186         1       159        8.97     334      -60.2
   02/16/2017 03:50      47.9      47.5       65     36.4      0.00     13.27      61.3     0.49      1016.0     1       146         1       139        8.97     332      -61.3
   02/16/2017 03:40      47.7      47.5       67     37.1      0.00     13.27      61.3     0.49      1016.0     1       232         1       259        8.97     330      -59.4
   02/16/2017 03:30      47.8      47.6       66     37.0      0.00     13.27      61.6     0.49      1016.0     1       130         1       137        8.97     328      -48.5
   02/16/2017 03:20      47.9      47.7       67     37.3      0.00     13.27      61.4     0.49      1017.0     1       164         2       131        8.97     327      -44.6
   02/16/2017 03:10      47.9      47.4       67     37.2      0.00     13.27      61.4     0.49      1017.0     2       139         2       133        8.97     325      -43.6
   02/16/2017 03:00      47.7      47.3       64     36.1      0.00     13.27      61.5     0.49      1017.0     1       152         2       137        8.97     324      -41.1
   02/16/2017 02:50      47.4      47.1       64     35.9      0.00     13.27      61.5     0.49      1017.0     1       145         2       136        8.97     323      -41.7
   02/16/2017 02:40      47.4      47.3       64     35.8      0.00     13.27      61.4     0.49      1017.0     0       235         1       307        8.97     321      -47.5
   02/16/2017 02:30      47.7      47.4       64     36.0      0.00     13.27      61.4     0.49      1017.0     0       248         1       305        8.97     320      -51.0
   02/16/2017 02:20      48.0      47.7       63     36.0      0.00     13.27      61.5     0.49      1017.0     1       330         2       331        8.97     318      -56.2
   02/16/2017 02:10      47.9      47.8       61     35.1      0.00     13.27      61.6     0.49      1017.0     0       203         0       290        8.97     316      -58.9
   02/16/2017 02:00      48.3      48.0       60     34.8      0.00     13.27      61.5     0.49      1017.0     0       218         1       206        8.97     313      -58.0
   02/16/2017 01:50      48.2      47.8       61     35.0      0.00     13.27      61.5     0.49      1017.0     1       164         1       124        8.97     311      -59.2
   02/16/2017 01:40      48.1      47.8       61     35.4      0.00     13.27      61.6     0.49      1017.0     1       172         1       142        8.97     309      -62.0
   02/16/2017 01:30      48.4      48.2       61     35.2      0.00     13.27      61.5     0.49      1018.0     1       149         2       142        8.97     307      -62.5
   02/16/2017 01:20      48.8      47.9       61     35.7      0.00     13.27      61.7     0.49      1018.0     2       145         3       127        8.97     306      -61.6
   02/16/2017 01:10      49.1      48.8       61     36.0      0.00     13.27      61.8     0.49      1018.0     1       213         1       232        8.97     303      -61.4
   02/16/2017 01:00      49.4      49.0       58     34.9      0.00     13.27      61.9     0.49      1018.0     1       149         2       133        8.97     302      -60.3
   02/16/2017 00:50      49.5      49.3       59     35.7      0.00     13.27      61.8     0.49      1018.0     1       242         1       248        8.97     300      -60.1
   02/16/2017 00:40      49.3      48.9       61     36.3      0.00     13.27      61.7     0.49      1018.0     1       188         1       148        8.97     298      -60.1
   02/16/2017 00:30      49.7      49.2       60     36.3      0.00     13.27      61.8     0.49      1018.0     2       141         2       146        8.97     297      -61.2
   02/16/2017 00:20      50.2      49.7       60     36.6      0.00     13.27      61.5     0.49      1018.0     1       133         1       150        8.97     296      -60.3
   02/16/2017 00:10      50.4      50.0       58     36.1      0.00     13.27      61.7     0.49      1018.0     1       215         1       207        8.97     295      -52.1
   02/16/2017 00:00      50.2      49.7       59     36.3      0.00     13.27      61.8     0.49      1018.0     1       148         2       148        8.97     293      -51.0
   02/15/2017 23:50      50.7      50.0       58     36.2      0.00     13.27      61.9     0.49      1018.0     1       126         2       128        8.97     292      -55.2
   02/15/2017 23:40      50.8      50.7       56     35.9      0.00     13.27      62.1     0.49      1018.0     1       138         1       130        8.97     291      -54.1
   02/15/2017 23:30      51.5      50.8       56     35.9      0.00     13.27      61.9     0.49      1018.0     1       145         2       140        8.97     290      -55.7
   02/15/2017 23:20      51.7      50.9       54     35.1      0.00     13.27      61.6     0.49      1018.0     1       186         1       151        8.97     289      -57.9
   02/15/2017 23:10      51.3      50.7       54     35.2      0.00     13.27      61.8     0.49      1018.0     1       180         1       178        8.97     288      -60.8
   02/15/2017 23:00      51.4      50.8       57     36.3      0.00     13.27      61.8     0.49      1018.0     1       137         2       125        8.98     288      -60.0
   02/15/2017 22:50      51.8      51.4       54     35.6      0.00     13.27      61.8     0.49      1018.0     0       161         1       227        8.97     287      -59.4
   02/15/2017 22:40      51.8      51.7       53     35.1      0.00     13.27      62.0     0.49      1018.0     1       181         1       253        8.97     286      -58.0
   02/15/2017 22:30      51.8      51.2       56     36.1      0.00     13.27      62.1     0.49      1018.0     1       245         1       311        8.98     285      -62.6
   02/15/2017 22:20      51.8      51.4       55     36.1      0.00     13.27      61.8     0.49      1018.0     1       156         1       129        8.98     284      -65.5
   02/15/2017 22:10      51.7      51.5       57     36.9      0.00     13.27      62.1     0.49      1018.0     1       142         2       136        8.98     282      -67.5
   02/15/2017 22:00      52.3      51.7       56     36.7      0.00     13.27      62.0     0.49      1018.0     1       182         2       236        8.98     282      -69.0
   02/15/2017 21:50      52.4      52.2       54     36.4      0.00     13.27      62.2     0.49      1018.0     1       182         2       179        8.98     281      -69.3
   02/15/2017 21:40      52.8      51.8       58     37.7      0.00     13.27      62.0     0.49      1018.0     2       163         2       132        8.98     280      -69.7
   02/15/2017 21:30      53.9      53.2       54     37.1      0.00     13.27      61.9     0.49      1018.0     2       174         2       141        8.98     279      -69.0
   02/15/2017 21:20      54.4      54.0       49     35.5      0.00     13.27      61.8     0.49      1018.0     1       198         2       201        8.98     278      -69.1
   02/15/2017 21:10      54.6      54.2       48     35.3      0.00     13.27      61.9     0.49      1018.0     1       135         1       118        8.98     278      -70.2
   02/15/2017 21:00      55.3      54.8       48     35.4      0.00     13.27      61.8     0.49      1018.0     1       135         1       147        8.98     277      -70.4
   02/15/2017 20:50      55.5      55.3       46     35.2      0.00     13.27      61.9     0.49      1018.0     1       168         1       195        8.99     276      -70.7
   02/15/2017 20:40      55.8      55.2       51     37.5      0.00     13.27      62.1     0.49      1018.0     1       122         1       163        8.99     275      -71.5
   02/15/2017 20:30      56.7      56.0       50     37.8      0.00     13.27      61.9     0.49      1018.0     1       114         2       111        8.99     275      -72.3
   02/15/2017 20:20      56.8      56.0       48     37.0      0.00     13.27      61.7     0.49      1018.0     1       232         2       212        8.99     274      -72.0
   02/15/2017 20:10      56.6      56.3       52     38.9      0.00     13.27      61.8     0.49      1018.0     1       181         2       185        8.99     274      -72.0
   02/15/2017 20:00      57.6      56.5       53     40.1      0.00     13.27      62.0     0.49      1018.0     1       156         2       127        9.00     273      -71.7
   02/15/2017 19:50      57.6      57.5       54     40.9      0.00     13.27      61.9     0.49      1018.0     1       223         2       213        9.00     273      -71.7
   02/15/2017 19:40      57.7      57.2       58     42.6      0.00     13.27      61.9     0.49      1018.0     1       151         2       147        9.00     272      -73.7
   02/15/2017 19:30      58.3      57.6       58     43.4      0.00     13.27      61.9     0.49      1018.0     1       138         2       108        9.00     272      -75.5
   02/15/2017 19:20      58.7      58.3       57     43.5      0.00     13.27      61.5     0.49      1018.0     1       153         2       163        9.00     272      -74.6
   02/15/2017 19:10      59.5      58.9       55     43.0      0.00     13.27      61.8     0.49      1018.0     1       167         2       153        9.01     271      -74.5
   02/15/2017 19:00      60.4      59.5       52     42.5      0.00     13.27      61.8     0.49      1018.0     1       181         2       166        9.01     271      -75.9
   02/15/2017 18:50      62.0      60.6       47     40.9      0.00     13.27      61.5     0.49      1018.0     1       143         2       113        9.01     271      -77.1
   02/15/2017 18:40      63.4      62.3       42     39.5      0.00     13.27      61.4     0.49      1018.0     2       188         3       198        9.01     271      -75.3
   02/15/2017 18:30      65.8      63.8       38     38.8      0.00     13.27      61.5     0.49      1018.0     1       240         2       241        9.01     271      -75.2
   02/15/2017 18:20      66.4      65.5       35     37.6      0.00     13.27      61.5     0.49      1018.0     2       282         4       301        9.01     271      -77.2
   02/15/2017 18:10      66.8      65.9       34     37.5      0.00     13.27      61.4     0.49      1017.0     3       269         4       280        9.01     271      -79.1
   02/15/2017 18:00      66.1      65.3       43     42.6      0.00     13.27      61.5     0.49      1017.0     3       260         4       266        9.01     271      -80.1
   02/15/2017 17:50      66.8      65.5       44     43.4      0.00     13.27      61.3     0.49      1017.0     2       271         3       296        9.01     270      -81.3
   02/15/2017 17:40      69.8      67.2       36     40.4      0.00     13.27      61.4     0.49      1017.0     2       283         2       308        9.01     270      -81.1
   02/15/2017 17:30      70.7      70.1       28     35.4      0.00     13.27      61.4     0.49      1017.0     3       272         5       212        9.01     270      -76.5
   02/15/2017 17:20      71.5      70.8       20     28.2      0.00     13.27      61.5     0.49      1017.0     2       215         3       217        9.02     269      -59.3
   02/15/2017 17:10      72.0      71.6       20     28.1      0.00     13.27      61.3     0.49      1017.0     3       207         5       220        9.02     269      -42.2
   02/15/2017 17:00      72.7      72.2       22     30.9      0.00     13.27      61.0     0.49      1017.0     3       229         5       221        9.02     269       -6.7
   02/15/2017 16:50      72.8      72.2       28     37.7      0.00     13.27      60.9     0.49      1017.0     3       284         6       289        9.02     269      -17.8
   02/15/2017 16:40      73.0      72.3       19     27.6      0.00     13.27      61.0     0.49      1017.0     3       248         4       230        9.02     269       -6.2
   02/15/2017 16:30      72.7      72.4       19     27.4      0.00     13.27      60.9     0.49      1017.0     4       193         6       174        9.02     268       -3.9
   02/15/2017 16:20      73.7      72.6       19     28.4      0.00     13.27      61.0     0.49      1016.0     5       159         7       155        9.02     268      -30.4
   02/15/2017 16:10      75.2      74.0       18     28.4      0.00     13.27      60.9     0.49      1016.0     5       168         8       165        9.03     268      -28.3
   02/15/2017 16:00      75.8      75.4       18     28.5      0.00     13.27      60.8     0.49      1016.0     6       169         7       167        9.03     268       87.7
   02/15/2017 15:50      76.2      75.8       17     28.3      0.00     13.27      60.8     0.49      1016.0     6       180         9       177        9.03     268      145.3
   02/15/2017 15:40      76.5      76.1       17     27.9      0.00     13.27      60.7     0.49      1016.0     6       182         9       207        9.03     269      117.2
   02/15/2017 15:30      76.5      76.2       17     28.4      0.00     13.27      60.6     0.48      1016.0     5       168         8       191        9.03     269      105.9
   02/15/2017 15:20      77.8      76.6       16     28.1      0.00     13.27      60.7     0.48      1016.0     4       186         6       156        9.04     269       87.3
   02/15/2017 15:10      78.3      77.8       15     26.3      0.00     13.27      60.6     0.48      1016.0     4       257         6       220        9.04     269      109.4
   02/15/2017 15:00      78.5      77.8       15     26.6      0.00     13.27      60.5     0.48      1016.0     4       236         6       216        9.04     269      115.4
   02/15/2017 14:50      79.1      78.5       15     27.0      0.00     13.27      60.6     0.48      1016.0     4       209         6       237        9.04     269      258.2
   02/15/2017 14:40      79.5      79.0       15     28.0      0.00     13.27      60.3     0.48      1016.0     4       197         7       218        9.04     269      287.0
   02/15/2017 14:30      79.8      79.2       14     26.5      0.00     13.27      60.4     0.48      1016.0     6       278        16       312        9.04     269      326.4
   02/15/2017 14:20      79.7      79.0       14     26.3      0.00     13.27      60.3     0.48      1017.0     4       232         6       249        9.04     270      341.2
   02/15/2017 14:10      80.3      79.0       14     26.4      0.00     13.27      60.1     0.48      1017.0     5       206         7       201        9.05     270      331.9
   02/15/2017 14:00      80.5      80.0       14     27.4      0.00     13.27      60.1     0.48      1017.0     2       212         4       313        9.05     271      328.8
   02/15/2017 13:50      80.1      79.4       14     26.0      0.00     13.27      60.2     0.48      1017.0     3       247         5       303        9.05     271      332.6
   02/15/2017 13:40      80.0      78.3       13     23.9      0.00     13.27      60.0     0.48      1017.0     3       266         5       228        9.05     272      355.3
   02/15/2017 13:30      78.7      78.1       13     24.2      0.00     13.27      60.0     0.48      1017.0     4       202         7       246        9.06     271      372.5
   02/15/2017 13:20      78.9      78.2       14     25.2      0.00     13.27      60.1     0.48      1017.0     4       188         6       161        9.06     271      374.3
   02/15/2017 13:10      79.5      79.0       14     26.5      0.00     13.27      59.8     0.48      1017.0     4       231         7       202        9.06     271      384.7
   02/15/2017 13:00      79.7      78.8       15     27.4      0.00     13.27      60.1     0.48      1017.0     3       274         5       232        9.06     272      368.1
   02/15/2017 12:50      80.6      78.8       15     27.8      0.00     13.27      60.1     0.48      1018.0     2       294         5       222        9.06     272      366.3
   02/15/2017 12:40      79.7      78.4       15     26.6      0.00     13.27      60.0     0.48      1018.0     2       324         4       328        9.06     272      416.3
   02/15/2017 12:30      78.8      77.9       15     27.6      0.00     13.27      59.6     0.48      1018.0     2       229         5       331        9.07     271      414.9
   02/15/2017 12:20      78.1      77.1       15     27.0      0.00     13.27      59.9     0.48      1018.0     2       278         3       277        9.07     271      390.5
   02/15/2017 12:10      78.2      76.9       15     26.7      0.00     13.27      60.0     0.48      1018.0     3       195         5       192        9.07     272      417.6
   02/15/2017 12:00      77.9      76.9       14     25.0      0.00     13.27      59.9     0.48      1018.0     2       303         4       249        9.07     273      418.7
   02/15/2017 11:50      78.5      77.7       16     28.1      0.00     13.27      59.8     0.48      1019.0     3       353         4       247        9.07     273      414.1
   02/15/2017 11:40      78.5      77.8       16     27.8      0.00     13.27      59.9     0.48      1019.0     2         7         3         2        9.07     273      397.2
   02/15/2017 11:30      78.8      76.8       18     30.7      0.00     13.27      60.0     0.48      1019.0     1       339         3       358        9.07     274      407.6
   02/15/2017 11:20      76.8      76.3       17     29.1      0.00     13.27      60.0     0.48      1019.0     2        27         3        69        9.07     277      368.7
   02/15/2017 11:10      77.2      75.9       18     30.5      0.00     13.27      59.9     0.48      1019.0     1       343         3       350        9.07     279      395.1
   02/15/2017 11:00      76.0      75.1       18     29.1      0.00     13.27      60.0     0.48      1020.0     1       140         1       205        9.07     281      408.1
   02/15/2017 10:50      75.4      74.3       19     30.4      0.00     13.27      60.4     0.48      1020.0     1       359         2         5        9.07     283      395.2
   02/15/2017 10:40      73.8      72.5       20     29.0      0.00     13.27      60.4     0.48      1020.0     2       317         3       313        9.07     286      386.7
   02/15/2017 10:30      72.6      70.8       23     31.4      0.00     13.27      59.9     0.48      1020.0     2       212         4       208        9.07     292      389.4
   02/15/2017 10:20      71.4      70.2       25     32.7      0.00     13.27      60.2     0.48      1020.0     2       197         4       211        9.08     298      371.2
   02/15/2017 10:10      70.3      69.5       25     32.5      0.00     13.27      59.8     0.48      1020.0     3       214         4       200        9.08     308      366.6
   02/15/2017 10:00      69.6      68.8       24     30.4      0.00     13.27      60.3     0.48      1020.0     2       218         4       217        9.08     319      351.1
   02/15/2017 09:50      68.8      66.3       30     35.1      0.00     13.27      59.9     0.49      1020.0     2       170         3       153        9.08     343      341.0
   02/15/2017 09:40      66.0      64.9       34     36.0      0.00     13.27      60.0     0.49      1020.0     3       147         4       145        9.08     365      209.1
   02/15/2017 09:30      64.9      64.3       34     35.7      0.00     13.27      60.3     0.49      1020.0     3       165         5       181        9.08     374       99.4
   02/15/2017 09:20      64.5      64.2       34     35.3      0.00     13.27      60.3     0.49      1020.0     3       211         3       221        9.08     380       87.8
   02/15/2017 09:10      64.9      63.6       39     38.8      0.00     13.27      60.3     0.49      1020.0     2       223         3       186        9.08     385      210.7
   02/15/2017 09:00      63.5      60.7       45     40.4      0.00     13.27      60.4     0.49      1020.0     2       272         3       250        9.08     394      311.3
   02/15/2017 08:50      60.6      57.9       48     39.5      0.00     13.27      60.4     0.49      1020.0     2       270         4       256        9.08     403      318.4
   02/15/2017 08:40      57.8      56.4       52     39.4      0.00     13.27      60.4     0.49      1020.0     3       237         4       242        9.08     410      188.2
   02/15/2017 08:30      56.4      55.0       58     41.2      0.00     13.27      60.6     0.49      1020.0     2       292         4       263        9.09     414      186.5
   02/15/2017 08:20      55.1      54.0       62     41.8      0.00     13.27      60.5     0.49      1020.0     2       279         5       259        9.09     415      160.6
   02/15/2017 08:10      53.7      50.6       73     43.6      0.00     13.27      60.1     0.49      1020.0     1         9         1       325        9.09     416      113.2
   02/15/2017 08:00      50.7      49.3       77     43.1      0.00     13.27      60.3     0.49      1020.0     1       343         1       332        9.09     416       75.9
   02/15/2017 07:50      49.3      47.9       81     42.9      0.00     13.27      60.3     0.49      1019.0     1       327         1       325        9.09     417       62.1
   02/15/2017 07:40      47.9      47.4       82     42.5      0.00     13.27      60.1     0.49      1019.0     1        34         2        19        9.09     418       55.9
   02/15/2017 07:30      47.3      45.3       86     42.5      0.00     13.27      60.4     0.49      1019.0     2       271         3       254        9.09     418       32.0
   02/15/2017 07:20      45.0      43.2       92     41.8      0.00     13.27      60.7     0.49      1019.0     2       226         4       264        9.09     418       28.8
   02/15/2017 07:10      43.2      42.8       92     40.8      0.00     13.27      60.5     0.49      1019.0     1        41         2        78        9.09     418       21.2
   02/15/2017 07:00      42.8      42.7       92     40.5      0.00     13.27      60.7     0.49      1019.0     1       100         2       103        9.09     416        9.9
   02/15/2017 06:50      42.8      42.5       92     40.6      0.00     13.27      60.8     0.49      1019.0     2       143         3       159        9.09     415       -3.2
   02/15/2017 06:40      42.8      42.5       92     40.6      0.00     13.27      60.5     0.49      1019.0     1       144         2       137        9.09     413      -10.1
   02/15/2017 06:30      43.2      42.7       92     40.9      0.00     13.27      61.2     0.49      1019.0     2       160         2       137        9.09     411      -14.0
   02/15/2017 06:20      43.2      43.0       93     41.3      0.00     13.27      61.0     0.49      1019.0     1       242         1       200        9.09     411      -15.0
   02/15/2017 06:10      43.2      43.0       93     41.3      0.00     13.27      61.0     0.49      1019.0     1       187         2       218        9.09     409      -14.7
   02/15/2017 06:00      43.5      43.1       94     41.6      0.00     13.27      60.8     0.49      1018.0     1       227         1       180        9.09     407      -15.4
   02/15/2017 05:50      43.4      43.1       93     41.4      0.00     13.27      60.7     0.49      1018.0     1       132         2       127        9.09     405      -15.3
   02/15/2017 05:40      43.7      43.5       94     41.9      0.00     13.27      61.2     0.49      1018.0     1       159         2       128        9.09     403      -15.2
   02/15/2017 05:30      43.8      43.4       93     41.7      0.00     13.27      61.0     0.49      1018.0     1       134         1       135        9.10     401      -15.3
   02/15/2017 05:20      44.1      43.7       93     42.1      0.00     13.27      60.9     0.49      1018.0     1       337         1         9        9.09     400      -16.2
   02/15/2017 05:10      44.0      43.7       93     42.1      0.00     13.27      60.9     0.49      1018.0     1       171         2       140        9.09     399      -15.7
   02/15/2017 05:00      44.6      44.0       93     42.4      0.00     13.27      61.5     0.49      1018.0     1       104         2       138        9.09     402      -15.5
   02/15/2017 04:50      44.5      44.1       93     42.5      0.00     13.27      61.4     0.49      1018.0     1       238         2       157        9.09     403      -15.9
   02/15/2017 04:40      44.5      44.3       93     42.7      0.00     13.27      61.1     0.49      1018.0     2       184         2       243        9.09     401      -15.9
   02/15/2017 04:30      44.6      44.0       94     42.7      0.00     13.27      60.8     0.49      1018.0     1       189         2       233        9.09     400      -16.5
   02/15/2017 04:20      44.6      44.0       93     42.5      0.00     13.27      61.4     0.49      1018.0     1       102         2       120        9.09     398      -17.0
   02/15/2017 04:10      44.8      44.5       93     42.7      0.00     13.27      61.0     0.49      1018.0     1        68         1       109        9.09     396      -16.8
   02/15/2017 04:00      45.2      44.6       93     43.0      0.00     13.27      61.2     0.49      1018.0     1       183         2       129        9.09     394      -16.7
   02/15/2017 03:50      45.2      44.9       93     43.1      0.00     13.27      61.0     0.49      1018.0     1       146         1       181        9.09     392      -17.1
   02/15/2017 03:40      45.7      45.2       93     43.5      0.00     13.27      61.3     0.49      1018.0     1        87         2       167        9.09     390      -17.1
   02/15/2017 03:30      45.9      45.4       92     43.5      0.00     13.27      61.0     0.49      1018.0     1       140         2       131        9.10     388      -17.8
   02/15/2017 03:20      46.0      45.5       92     43.6      0.00     13.27      61.3     0.49      1018.0     1       180         2       117        9.10     386      -17.5
   02/15/2017 03:10      46.5      46.1       92     44.1      0.00     13.27      61.3     0.49      1018.0     1       148         2       126        9.10     384      -17.6
   02/15/2017 03:00      46.5      46.3       91     44.0      0.00     13.27      61.2     0.49      1018.0     1       227         1       222        9.10     382      -18.0
   02/15/2017 02:50      47.1      46.7       91     44.4      0.00     13.27      61.3     0.49      1018.0     1       139         1       331        9.10     379      -17.8
   02/15/2017 02:40      47.0      46.8       91     44.4      0.00     13.27      61.5     0.49      1018.0     1       139         2       129        9.10     377      -18.5
   02/15/2017 02:30      47.3      46.6       91     44.4      0.00     13.27      61.3     0.49      1018.0     2       140         2       143        9.10     375      -18.3
   02/15/2017 02:20      47.4      46.8       91     44.8      0.00     13.27      61.5     0.49      1019.0     1       118         2       171        9.10     373      -18.5
   02/15/2017 02:10      47.7      46.9       90     44.6      0.00     13.27      61.6     0.49      1019.0     3       152         4       162        9.10     370      -18.6
   02/15/2017 02:00      47.6      47.3       90     44.7      0.00     13.27      61.6     0.49      1019.0     2       192         2       196        9.10     369      -19.0
   02/15/2017 01:50      48.7      47.6       91     45.5      0.00     13.27      61.7     0.49      1019.0     2       193         4       226        9.10     366      -18.8
   02/15/2017 01:40      47.8      47.3       91     45.0      0.00     13.27      61.7     0.49      1019.0     2       184         3       211        9.10     364      -19.7
   02/15/2017 01:30      47.9      47.6       91     45.4      0.00     13.27      61.4     0.49      1019.0     2       205         2       267        9.10     361      -20.1
   02/15/2017 01:20      48.0      47.8       91     45.5      0.00     13.27      61.5     0.49      1019.0     1       140         3       136        9.10     358      -20.6
   02/15/2017 01:10      48.5      48.0       92     45.9      0.00     13.27      61.6     0.49      1019.0     3       185         4       191        9.10     356      -20.4
   02/15/2017 01:00      48.3      48.1       91     45.8      0.00     13.27      61.6     0.49      1019.0     1       193         1       195        9.10     353      -21.3
   02/15/2017 00:50      48.6      48.2       91     46.0      0.00     13.27      61.7     0.49      1019.0     1       115         2       129        9.10     350      -22.0
   02/15/2017 00:40      48.6      47.9       91     45.9      0.00     13.27      61.4     0.49      1019.0     2       183         4       170        9.10     348      -21.9
   02/15/2017 00:30      48.5      48.2       90     45.6      0.00     13.27      61.6     0.49      1019.0     1       160         2       181        9.10     344      -24.4
   02/15/2017 00:20      48.6      48.3       90     45.6      0.00     13.27      61.5     0.49      1018.0     0       196         1       282        9.10     341      -25.8
   02/15/2017 00:10      49.3      48.8       89     46.0      0.00     13.27      61.7     0.49      1018.0     1        75         1       102        9.10     337      -27.0
   02/15/2017 00:00      49.3      49.1       89     46.2      0.00     13.27      61.6     0.49      1019.0     2       171         3       197        9.10     334      -27.1
   02/14/2017 23:50      49.4      49.0       89     46.1      0.00     13.27      61.8     0.49      1019.0     1       163         2       118        9.10     330      -28.9
   02/14/2017 23:40      50.0      49.3       89     46.5      0.00     13.27      62.0     0.49      1018.0     2       159         3       129        9.10     327      -30.6
   02/14/2017 23:30      50.0      49.6       88     46.5      0.00     13.27      61.9     0.49      1018.0     1       199         2       241        9.10     322      -33.6
   02/14/2017 23:20      50.3      50.0       88     46.8      0.00     13.27      61.9     0.49      1018.0     1        29         2        69        9.10     318      -35.5
   02/14/2017 23:10      51.1      50.3       87     47.0      0.00     13.27      62.2     0.49      1018.0     1       167         2       137        9.10     315      -37.3
   02/14/2017 23:00      51.4      51.1       87     47.5      0.00     13.27      61.4     0.49      1018.0     1       119         2       127        9.10     312      -38.4
   02/14/2017 22:50      51.7      51.4       87     47.9      0.00     13.27      61.9     0.49      1018.0     1       189         3       192        9.10     310      -41.3
   02/14/2017 22:40      51.7      51.1       87     47.5      0.00     13.27      62.1     0.49      1018.0     3       140         4       134        9.10     307      -45.9
   02/14/2017 22:30      52.5      51.7       85     47.8      0.00     13.27      61.5     0.49      1018.0     2       123         3       127        9.10     304      -48.4
   02/14/2017 22:20      52.4      51.7       87     47.9      0.00     13.27      61.9     0.49      1018.0     2       189         4       161        9.10     302      -52.0
   02/14/2017 22:10      52.2      51.8       86     47.9      0.00     13.27      61.8     0.49      1018.0     2       168         3       144        9.11     300      -58.9
   02/14/2017 22:00      52.8      51.9       85     47.9      0.00     13.27      61.9     0.49      1018.0     2       149         3       169        9.11     298      -63.3
   02/14/2017 21:50      53.0      52.6       84     48.2      0.00     13.27      62.0     0.49      1019.0     2       162         3       172        9.11     296      -65.3
   02/14/2017 21:40      53.5      52.8       84     48.3      0.00     13.27      61.8     0.49      1018.0     2       166         3       161        9.11     294      -68.9
   02/14/2017 21:30      54.1      53.6       82     48.5      0.00     13.27      61.9     0.49      1018.0     2       175         3       164        9.11     292      -71.5
   02/14/2017 21:20      54.1      53.7       82     48.7      0.00     13.27      62.0     0.49      1018.0     2       154         3       144        9.11     290      -72.5
   02/14/2017 21:10      54.1      53.5       83     48.6      0.00     13.27      62.2     0.49      1018.0     1       103         2        72        9.11     289      -73.6
   02/14/2017 21:00      54.7      54.1       81     48.6      0.00     13.27      61.9     0.49      1018.0     1        73         1       103        9.11     286      -74.3
   02/14/2017 20:50      55.5      54.9       79     48.8      0.00     13.27      61.7     0.49      1018.0     1        48         1       343        9.11     285      -73.8
   02/14/2017 20:40      55.8      55.4       78     49.0      0.00     13.27      61.8     0.49      1018.0     1       128         2       168        9.11     283      -73.5
   02/14/2017 20:30      56.5      56.1       76     48.9      0.00     13.27      61.9     0.49      1018.0     1        57         2       134        9.11     282      -74.3
   02/14/2017 20:20      58.5      56.6       71     48.5      0.00     13.27      61.8     0.49      1018.0     1       116         2        52        9.11     281      -75.3
   02/14/2017 20:10      59.0      58.5       70     48.9      0.00     13.27      61.8     0.49      1018.0     2       233         3       231        9.11     280      -76.4
   02/14/2017 20:00      58.5      58.0       72     49.3      0.00     13.27      61.9     0.49      1018.0     3       238         5       237        9.11     279      -75.0
   02/14/2017 19:50      58.1      57.5       74     49.6      0.00     13.27      61.8     0.49      1018.0     2       262         3       254        9.11     278      -74.4
   02/14/2017 19:40      57.6      57.0       75     49.5      0.00     13.27      61.5     0.49      1018.0     1       237         2       249        9.11     278      -73.9
   02/14/2017 19:30      57.6      57.2       75     49.6      0.00     13.27      61.6     0.49      1018.0     1       175         2       244        9.11     277      -75.6
   02/14/2017 19:20      57.9      57.7       74     49.5      0.00     13.27      61.4     0.49      1017.0     1       201         2       215        9.12     276      -76.4
   02/14/2017 19:10      59.1      58.2       72     49.5      0.00     13.27      61.6     0.49      1017.0     1       209         2       270        9.12     276      -76.5
   02/14/2017 19:00      59.5      58.9       70     49.6      0.00     13.27      61.7     0.49      1017.0     1       168         2       141        9.12     275      -76.9
   02/14/2017 18:50      61.2      59.8       67     49.5      0.00     13.27      61.5     0.49      1017.0     1       142         1       149        9.12     275      -78.1
   02/14/2017 18:40      61.6      61.3       65     49.6      0.00     13.27      61.7     0.49      1017.0     1       195         2       141        9.12     274      -80.4
   02/14/2017 18:30      62.0      61.6       64     49.6      0.00     13.27      61.5     0.49      1017.0     2        90         3        65        9.12     273      -81.8
   02/14/2017 18:20      61.9      61.5       63     49.1      0.00     13.27      61.7     0.49      1017.0     2        73         3        78        9.12     273      -82.0
   02/14/2017 18:10      63.0      62.4       61     49.2      0.00     13.27      61.2     0.49      1017.0     1        97         2        79        9.12     273      -82.2
   02/14/2017 18:00      64.2      62.8       61     50.0      0.00     13.27      61.2     0.49      1017.0     1       191         1       209        9.12     273      -82.2
   02/14/2017 17:50      65.7      64.3       55     48.7      0.00     13.27      61.4     0.49      1017.0     1       224         2       229        9.12     273      -82.3
   02/14/2017 17:40      67.8      65.7       52     48.5      0.00     13.27      61.5     0.49      1017.0     1       165         3       195        9.13     272      -80.0
   02/14/2017 17:30      68.4      68.0       49     48.3      0.00     13.27      61.2     0.49      1017.0     2       354         4       346        9.13     272      -76.6
   02/14/2017 17:20      69.2      68.5       49     48.8      0.00     13.27      61.2     0.49      1016.0     3       359         3         7        9.13     272      -73.6
   02/14/2017 17:10      70.1      69.2       48     49.5      0.00     13.27      61.1     0.49      1016.0     1        11         3         2        9.13     272      -71.0
   02/14/2017 17:00      70.3      70.0       48     49.3      0.00     13.27      61.3     0.49      1016.0     2        39         5        57        9.13     272      -46.4
   02/14/2017 16:50      70.9      70.3       48     49.7      0.00     13.27      61.0     0.49      1016.0     3        39         4        81        9.13     271      -25.5
   02/14/2017 16:40      71.7      70.9       47     49.9      0.00     13.27      61.0     0.49      1016.0     2        49         4        62        9.13     271       -9.2
   02/14/2017 16:30      72.7      71.8       46     50.3      0.00     13.27      60.8     0.49      1015.0     4        61         7        72        9.13     271       11.7
   02/14/2017 16:20      73.5      73.2       44     50.2      0.00     13.27      60.9     0.49      1015.0     3        54         6        77        9.13     271       32.1
   02/14/2017 16:10      74.4      73.5       43     50.0      0.00     13.27      61.0     0.49      1015.0     3        46         5        73        9.13     271       58.9
   02/14/2017 16:00      74.9      74.3       41     49.5      0.00     13.27      60.8     0.49      1015.0     3        53         5        34        9.14     271       88.3
   02/14/2017 15:50      75.8      75.4       38     48.0      0.00     13.27      60.6     0.49      1015.0     4        69         6        65        9.14     271      113.3
   02/14/2017 15:40      76.9      75.8       37     48.2      0.00     13.27      60.6     0.49      1015.0     3        44         5        70        9.14     271      134.5
   02/14/2017 15:30      77.8      77.0       35     47.3      0.00     13.27      60.8     0.49      1015.0     3        55         5        61        9.14     271      154.8
   02/14/2017 15:20      78.0      77.4       32     45.2      0.00     13.27      60.6     0.49      1015.0     2        48         4        28        9.14     271      176.6
   02/14/2017 15:10      78.4      77.8       29     43.5      0.00     13.27      60.5     0.49      1015.0     3        46         4        14        9.14     271      197.6
   02/14/2017 15:00      78.4      77.2       29     43.2      0.00     13.27      60.5     0.49      1015.0     2         4         3        33        9.14     271      216.2
   02/14/2017 14:50      77.8      77.1       30     43.5      0.00     13.27      60.4     0.49      1015.0     2        46         4        94        9.14     271      231.7
   02/14/2017 14:40      78.8      77.4       29     43.7      0.00     13.27      60.3     0.49      1015.0     3        37         5        62        9.15     271      251.1
   02/14/2017 14:30      78.9      77.3       27     41.4      0.00     13.27      60.4     0.49      1015.0     1        26         3         3        9.15     271      270.7
   02/14/2017 14:20      77.7      76.6       28     41.4      0.00     13.27      60.2     0.49      1016.0     2       343         3        10        9.15     271      288.1
   02/14/2017 14:10      77.0      76.1       29     42.0      0.00     13.27      60.0     0.49      1016.0     2         6         3        13        9.15     271      302.6
   02/14/2017 14:00      76.9      76.5       30     43.0      0.00     13.27      60.4     0.49      1016.0     2        77         4        46        9.15     272      315.0
   02/14/2017 13:50      77.2      76.2       29     42.3      0.00     13.27      60.5     0.49      1016.0     2        49         4        13        9.15     272      328.0
   02/14/2017 13:40      76.4      75.1       31     42.8      0.00     13.27      60.0     0.49      1016.0     2        70         4        60        9.15     272      342.8
   02/14/2017 13:30      75.3      74.9       31     42.3      0.00     13.27      60.0     0.49      1016.0     2       337         4        39        9.15     273      352.9
   02/14/2017 13:20      75.3      74.9       30     42.0      0.00     13.27      60.0     0.49      1016.0     2       331         4        94        9.15     273      364.3
   02/14/2017 13:10      75.9      75.3       30     42.1      0.00     13.27      60.0     0.49      1016.0     3        46         6         4        9.15     272      371.8
   02/14/2017 13:00      75.9      74.7       32     43.2      0.00     13.27      59.8     0.49      1016.0     2        22         3        48        9.15     273      382.4
   02/14/2017 12:50      75.3      73.2       33     43.0      0.00     13.27      59.9     0.49      1017.0     2       321         4         7        9.15     273      389.9
   02/14/2017 12:40      73.3      71.8       34     42.5      0.00     13.27      60.0     0.49      1017.0     1       253         3       320        9.15     272      397.6
   02/14/2017 12:30      72.4      71.6       36     43.2      0.00     13.27      59.9     0.49      1017.0     3       208         5       238        9.15     272      404.1
   02/14/2017 12:20      72.0      71.6       35     42.7      0.00     13.27      59.9     0.49      1017.0     2       248         3       207        9.15     273      405.8
   02/14/2017 12:10      71.7      70.5       36     42.9      0.00     13.27      60.0     0.49      1017.0     3       350         5         1        9.15     273      409.8
   02/14/2017 12:00      70.8      70.4       37     43.0      0.00     13.27      60.0     0.49      1018.0     3       189         4         1        9.15     274      408.2
   02/14/2017 11:50      71.5      70.0       36     42.5      0.00     13.27      60.1     0.49      1018.0     2       124         4        95        9.15     274      407.6
   02/14/2017 11:40      71.5      70.7       37     43.8      0.00     13.27      59.7     0.49      1018.0     2         5         3         4        9.16     274      404.4
   02/14/2017 11:30      70.3      69.3       39     43.5      0.00     13.27      59.7     0.49      1018.0     2       285         3       100        9.16     275      400.7
   02/14/2017 11:20      69.3      68.2       42     44.9      0.00     13.27      59.9     0.49      1018.0     2       290         3        58        9.16     277      397.4
   02/14/2017 11:10      68.5      67.5       43     44.7      0.00     13.27      60.1     0.49      1018.0     1       333         2       334        9.16     279      391.3
   02/14/2017 11:00      68.3      67.3       44     45.2      0.00     13.27      60.1     0.49      1018.0     2        31         4        39        9.16     280      386.1
   02/14/2017 10:50      67.4      65.9       47     45.7      0.00     13.27      60.1     0.49      1019.0     2        50         3       124        9.16     283      365.7
   02/14/2017 10:40      66.1      65.9       47     45.5      0.00     13.27      60.0     0.49      1019.0     2       337         3       299        9.16     287      364.2
   02/14/2017 10:30      66.3      64.5       50     45.9      0.00     13.27      60.3     0.49      1019.0     2        34         4        39        9.16     292      359.0
   02/14/2017 10:20      64.5      63.8       52     46.3      0.00     13.27      60.1     0.49      1019.0     2       350         3        23        9.16     296      349.2
   02/14/2017 10:10      64.2      63.3       54     46.8      0.00     13.27      60.1     0.49      1019.0     1       333         2       250        9.16     302      340.0
   02/14/2017 10:00      64.4      63.4       54     46.8      0.00     13.27      60.1     0.49      1019.0     2        28         2         5        9.16     313      326.2
   02/14/2017 09:50      63.4      62.8       55     46.6      0.00     13.27      60.1     0.49      1019.0     2        55         2        14        9.16     330      313.5
   02/14/2017 09:40      63.2      61.7       56     46.5      0.00     13.27      60.1     0.49      1019.0     2       118         3        92        9.16     345      302.8
   02/14/2017 09:40      63.2      61.7       56     46.5      0.00     13.27      60.1     0.49      1019.0     2       118         3        92        9.16     345           
   02/14/2017 09:30      61.5      60.2       58     45.9      0.00     13.27      60.1     0.49      1019.0     1         5         3        26        9.16     358      284.7
   02/14/2017 09:30      61.5      60.2       58     45.9      0.00     13.27      60.1     0.49      1019.0     1         5         3        26        9.16     358      284.7
   02/14/2017 09:20      60.2      59.0       59     45.6      0.00     13.27      60.6     0.49      1019.0     2       334         2       342        9.16     366      272.2
   02/14/2017 09:20      60.2      59.0       59     45.6      0.00     13.27      60.6     0.49      1019.0     2       334         2       342        9.16     366      272.2
   02/14/2017 09:10      58.8      57.9       61     45.0      0.00     13.27      60.4     0.49      1019.0     2       325         3         0        9.16     375      260.3
   02/14/2017 09:00      57.9      56.0       63     44.5      0.00     13.27      60.0     0.49      1019.0     1       333         3       359        9.16     384      237.6
   02/14/2017 08:50      56.1      55.4       65     44.4      0.00     13.27      60.3     0.49      1019.0     2       259         3       311        9.17     391       82.3
   02/14/2017 08:40      55.7      55.4       66     44.5      0.00     13.27      60.2     0.49      1019.0     3       236         4       253        9.17     395      113.6
   02/14/2017 08:30      55.7      55.5       66     44.4      0.00     13.27      60.3     0.49      1019.0     3       250         5       234        9.17     398      214.6
   02/14/2017 08:20      55.6      55.0       67     44.8      0.00     13.27      60.5     0.49      1019.0     2       267         4       243        9.17     400      170.0
   02/14/2017 08:10      55.0      54.5       69     44.8      0.00     13.27      60.5     0.49      1019.0     2       290         3       272        9.17     401       51.2
   02/14/2017 08:00      54.4      52.6       73     44.7      0.00     13.27      60.4     0.49      1018.0     2       267         3       280        9.17     401      109.7
   02/14/2017 07:50      52.6      50.6       80     45.5      0.00     13.27      60.4     0.49      1018.0     2       284         2       314        9.17     401       69.6
   02/14/2017 07:40      50.5      48.0       88     45.7      0.00     13.27      60.5     0.49      1018.0     1       258         2       240        9.18     401       59.5
   02/14/2017 07:30      47.9      46.6       89     44.1      0.00     13.27      60.5     0.49      1018.0     1       220         2       236        9.18     401       -0.6
   02/14/2017 07:20      46.6      46.3       89     43.5      0.00     13.27      60.5     0.49      1018.0     1       183         1       201        9.18     400      -17.0
   02/14/2017 07:10      46.6      46.3       89     43.5      0.00     13.27      60.6     0.49      1018.0     1       132         2       127        9.18     399      -25.3
   02/14/2017 07:00      46.5      46.3       89     43.3      0.00     13.27      60.5     0.49      1018.0     1       163         2       134        9.18     398      -33.3
   02/14/2017 06:50      46.8      46.4       88     43.4      0.00     13.27      60.3     0.49      1018.0     1       160         2       131        9.18     396      -39.9
   02/14/2017 06:40      47.1      46.7       88     43.5      0.00     13.27      60.4     0.49      1018.0     1       215         1       248        9.18     395      -46.4
   02/14/2017 06:30      47.3      46.8       88     43.7      0.00     13.27      60.5     0.49      1017.0     1       155         2       126        9.18     398      -50.4
   02/14/2017 06:20      47.4      47.3       87     43.8      0.00     13.27      60.9     0.49      1017.0     1       130         1       160        9.18     396      -50.5
   02/14/2017 06:10      47.6      46.9       88     43.9      0.00     13.27      60.6     0.49      1017.0     1       156         1       175        9.18     394      -42.3
   02/14/2017 06:00      47.1      46.8       88     43.4      0.00     13.27      60.7     0.49      1017.0     1       137         2       139        9.18     392      -44.4
   02/14/2017 05:50      47.3      46.8       86     42.8      0.00     13.27      60.5     0.49      1017.0     2       154         3       163        9.18     391      -49.7
   02/14/2017 05:40      47.7      47.4       85     43.3      0.00     13.27      60.7     0.49      1017.0     2       185         2       167        9.18     389      -52.7
   02/14/2017 05:30      47.6      47.0       86     43.1      0.00     13.27      61.0     0.49      1017.0     1       170         1       215        9.18     387      -51.8
   02/14/2017 05:20      47.5      47.4       84     42.9      0.00     13.27      60.7     0.49      1017.0     1        72         1        65        9.18     385      -48.0
   02/14/2017 05:10      47.9      47.3       84     43.0      0.00     13.27      60.5     0.49      1017.0     1       147         1       161        9.18     382      -54.6
   02/14/2017 05:00      48.0      47.7       82     42.8      0.00     13.27      60.7     0.49      1017.0     0        93         1       153        9.18     380      -58.2
   02/14/2017 04:50      48.5      48.2       82     43.0      0.00     13.27      60.8     0.49      1017.0     0       130         1       353        9.18     377      -54.1
   02/14/2017 04:40      48.8      48.4       82     43.3      0.00     13.27      61.3     0.49      1017.0     1       215         1         1        9.18     375      -61.5
   02/14/2017 04:30      49.3      48.9       81     43.7      0.00     13.27      60.8     0.49      1017.0     1       111         1       120        9.18     374      -65.1
   02/14/2017 04:20      49.4      49.3       82     44.0      0.00     13.27      60.7     0.49      1017.0     1       173         2       179        9.18     373      -63.9
   02/14/2017 04:10      49.4      49.3       83     44.4      0.00     13.27      61.1     0.49      1017.0     2       179         2       150        9.18     371      -52.1
   02/14/2017 04:00      49.4      49.1       83     44.5      0.00     13.27      61.0     0.49      1017.0     1       154         2       144        9.18     369      -41.6
   02/14/2017 03:50      49.9      49.5       82     44.5      0.00     13.27      61.0     0.49      1017.0     1       140         2       132        9.18     373      -50.6
   02/14/2017 03:40      50.2      49.7       82     44.6      0.00     13.27      60.7     0.49      1017.0     1       150         1       173        9.18     371      -56.9
   02/14/2017 03:30      50.4      50.1       81     44.6      0.00     13.27      61.0     0.49      1017.0     1        74         1        29        9.18     369      -49.4
   02/14/2017 03:20      50.4      50.2       81     44.8      0.00     13.27      60.9     0.49      1017.0     1       161         1       160        9.18     368      -38.0
   02/14/2017 03:10      50.4      50.2       81     44.6      0.00     13.27      61.2     0.49      1017.0     1       151         1       130        9.18     366      -35.5
   02/14/2017 03:00      50.2      49.9       80     44.2      0.00     13.27      61.0     0.49      1017.0     1       188         1       126        9.18     365      -32.6
   02/14/2017 02:50      50.4      50.0       79     43.9      0.00     13.27      60.7     0.49      1017.0     1       131         1       123        9.18     363      -31.5
   02/14/2017 02:40      50.0      49.6       80     43.8      0.00     13.27      61.0     0.49      1017.0     1       163         1       159        9.18     362      -32.9
   02/14/2017 02:30      49.8      49.6       80     43.7      0.00     13.27      61.0     0.49      1017.0     0       146         1       101        9.18     361      -37.4
   02/14/2017 02:20      49.9      49.7       79     43.6      0.00     13.27      60.9     0.50      1017.0     0       221         1       230        9.18     359      -44.6
   02/14/2017 02:10      50.3      49.9       78     43.7      0.00     13.27      61.3     0.50      1017.0     1       125         1       149        9.18     357      -50.6
   02/14/2017 02:00      50.5      50.2       77     43.4      0.00     13.27      61.1     0.49      1018.0     1         9         1       354        9.18     355      -53.6
   02/14/2017 01:50      50.6      50.3       77     43.4      0.00     13.27      61.3     0.50      1017.0     0       186         1       128        9.18     352      -54.7
   02/14/2017 01:40      50.8      49.9       77     43.2      0.00     13.27      61.4     0.49      1017.0     1       147         2       121        9.18     350      -57.8
   02/14/2017 01:30      51.3      51.0       73     43.0      0.00     13.27      61.3     0.50      1017.0     2       151         3       140        9.18     347      -58.8
   02/14/2017 01:20      51.4      50.9       74     43.1      0.00     13.27      61.3     0.50      1017.0     1       186         2       205        9.18     344      -60.2
   02/14/2017 01:10      51.7      51.3       73     43.2      0.00     13.27      61.4     0.50      1017.0     1       123         2       127        9.18     341      -63.8
   02/14/2017 01:00      51.8      51.5       73     43.2      0.00     13.27      61.1     0.49      1017.0     2       140         3       136        9.18     337      -62.3
   02/14/2017 00:50      51.9      51.6       73     43.4      0.00     13.27      61.2     0.50      1017.0     1       162         2       127        9.18     334      -56.2
   02/14/2017 00:40      51.8      51.3       73     43.2      0.00     13.27      61.3     0.50      1017.0     1       192         2       148        9.18     331      -47.1
   02/14/2017 00:30      51.8      51.3       72     43.0      0.00     13.27      61.1     0.50      1017.0     1       170         2       123        9.18     329      -50.4
   02/14/2017 00:20      52.4      52.1       70     42.8      0.00     13.27      61.4     0.50      1017.0     1       163         2       247        9.18     325      -58.8
   02/14/2017 00:10      52.5      52.3       69     42.7      0.00     13.27      61.3     0.50      1017.0     1       153         2       214        9.18     322      -61.7
   02/14/2017 00:00      53.0      52.5       67     42.2      0.00     13.27      61.4     0.50      1017.0     2       201         2       177        9.18     319      -59.1
   02/13/2017 23:50      52.9      52.8       67     42.2      0.00     13.27      61.3     0.50      1017.0     1       266         1       265        9.18     316      -55.5
   02/13/2017 23:40      53.3      52.8       67     42.4      0.00     13.27      61.6     0.50      1017.0     1       142         2       128        9.18     313      -59.2
   02/13/2017 23:30      53.6      53.4       63     41.4      0.00     13.27      61.3     0.50      1017.0     1       155         1       136        9.18     310      -60.4
   02/13/2017 23:20      53.9      53.5       63     41.6      0.00     13.27      61.3     0.50      1017.0     0       156         1       181        9.18     307      -61.5
   02/13/2017 23:10      54.6      53.9       64     42.4      0.00     13.27      61.3     0.50      1017.0     1       143         2       145        9.18     304      -63.3
   02/13/2017 23:00      55.3      54.8       61     41.9      0.00     13.27      61.3     0.50      1017.0     1       119         2       128        9.18     301      -64.8
   02/13/2017 22:50      55.4      55.3       61     42.3      0.00     13.27      61.4     0.50      1017.0     0       307         1       305        9.18     299      -59.2
   02/13/2017 22:40      55.7      55.2       62     42.6      0.00     13.27      61.3     0.50      1017.0     1       196         1       240        9.18     297      -45.4
   02/13/2017 22:30      55.4      54.9       63     42.9      0.00     13.27      61.4     0.50      1017.0     1       199         1       186        9.18     297      -35.4
   02/13/2017 22:20      55.5      55.1       65     43.5      0.00     13.27      61.3     0.50      1017.0     1       132         2       135        9.19     296      -32.9
   02/13/2017 22:10      55.6      55.1       63     43.0      0.00     13.27      61.3     0.50      1017.0     1       131         2       146        9.19     295      -33.0
   02/13/2017 22:00      55.5      55.1       62     42.7      0.00     13.27      61.3     0.50      1017.0     2       163         2       134        9.19     295      -35.9
   02/13/2017 21:50      55.8      55.2       61     42.3      0.00     13.27      61.5     0.50      1017.0     1       179         2       146        9.19     294      -37.6
   02/13/2017 21:40      55.7      55.5       62     42.6      0.00     13.27      61.5     0.50      1017.0     1       112         1        93        9.19     293      -38.2
   02/13/2017 21:30      56.5      55.5       60     42.3      0.00     13.27      61.3     0.50      1017.0     2       170         3       210        9.19     293      -50.8
   02/13/2017 21:20      56.6      55.9       59     42.0      0.00     13.27      61.4     0.50      1017.0     2       192         3       197        9.19     291      -59.9
   02/13/2017 21:10      56.5      55.9       60     42.5      0.00     13.27      61.5     0.50      1017.0     1       134         1       133        9.19     289      -56.8
   02/13/2017 21:00      56.7      56.4       58     41.9      0.00     13.27      61.2     0.50      1017.0     1       162         1       171        9.19     288      -52.0
   02/13/2017 20:50      57.1      56.5       58     42.1      0.00     13.27      61.4     0.50      1017.0     1        88         1       239        9.19     287      -51.1
   02/13/2017 20:40      57.0      56.5       58     42.3      0.00     13.27      61.4     0.50      1017.0     1       209         2       249        9.19     286      -59.7
   02/13/2017 20:30      57.5      56.7       57     42.0      0.00     13.27      61.3     0.50      1017.0     2       177         2       159        9.19     284      -60.2
   02/13/2017 20:20      57.8      57.3       56     42.0      0.00     13.27      61.3     0.50      1017.0     1       146         2       168        9.19     283      -63.2
   02/13/2017 20:10      58.5      57.7       55     42.2      0.00     13.27      61.4     0.50      1017.0     1       146         1        84        9.19     282      -65.9
   02/13/2017 20:00      58.7      58.3       54     42.1      0.00     13.27      61.2     0.50      1017.0     1       171         1       205        9.19     281      -65.5
   02/13/2017 19:50      59.4      58.9       53     42.0      0.00     13.27      61.3     0.50      1017.0     1       127         2       158        9.20     280      -66.5
   02/13/2017 19:40      59.9      59.4       52     42.2      0.00     13.27      61.3     0.50      1017.0     1       161         2       163        9.20     279      -67.0
   02/13/2017 19:30      60.3      59.9       51     42.1      0.00     13.27      61.2     0.50      1017.0     2       163         3       203        9.20     278      -67.8
   02/13/2017 19:20      60.0      59.4       52     42.0      0.00     13.27      61.1     0.50      1017.0     1       214         2       226        9.20     277      -67.2
   02/13/2017 19:10      60.0      59.8       51     41.9      0.00     13.27      61.2     0.50      1017.0     1       149         1       178        9.20     276      -68.6
   02/13/2017 19:00      60.4      59.9       52     42.3      0.00     13.27      60.8     0.50      1017.0     1       167         2       154        9.20     276      -69.4
   02/13/2017 18:50      61.6      60.6       49     42.0      0.00     13.27      60.7     0.49      1016.0     1       154         2       154        9.20     275      -70.3
   02/13/2017 18:40      62.3      61.8       45     40.3      0.00     13.27      61.3     0.49      1016.0     2       171         2       147        9.20     274      -69.4
   02/13/2017 18:30      62.5      62.4       44     40.2      0.00     13.27      60.8     0.50      1016.0     1       211         1       187        9.20     274      -67.4
   02/13/2017 18:20      63.9      62.5       43     40.2      0.00     13.27      61.1     0.49      1016.0     2       137         2       126        9.20     274      -68.5
   02/13/2017 18:10      65.5      64.0       40     39.8      0.00     13.27      61.0     0.49      1016.0     2       199         2       150        9.20     273      -67.8
   02/13/2017 18:00      66.5      65.6       36     38.4      0.00     13.27      61.0     0.49      1016.0     1       257         1       241        9.21     273      -66.9
   02/13/2017 17:50      67.5      66.5       33     37.3      0.00     13.27      60.7     0.49      1016.0     1        99         2        90        9.21     273      -68.8
   02/13/2017 17:40      68.8      67.8       31     36.9      0.00     13.27      60.8     0.49      1016.0     2        71         3        75        9.21     272      -72.2
   02/13/2017 17:30      69.6      69.0       30     36.6      0.00     13.27      60.7     0.49      1016.0     1        71         2        73        9.21     272      -67.8
   02/13/2017 17:20      70.2      69.7       29     36.0      0.00     13.27      60.9     0.49      1016.0     2        67         6        68        9.21     272      -61.5
   02/13/2017 17:10      71.3      70.3       28     36.0      0.00     13.27      60.7     0.49      1016.0     3        82         5        91        9.21     272      -55.4
   02/13/2017 17:00      71.7      71.3       27     36.1      0.00     13.27      60.6     0.49      1015.0     3        76         4        75        9.22     272      -43.2
   02/13/2017 16:50      72.3      71.7       27     36.6      0.00     13.27      60.6     0.49      1015.0     2        51         4        71        9.22     271      -24.4
   02/13/2017 16:40      72.9      72.5       27     36.9      0.00     13.27      60.6     0.49      1015.0     3        53         5        77        9.22     271      -12.6
   02/13/2017 16:30      73.0      72.8       27     37.2      0.00     13.27      60.5     0.49      1015.0     3        54         5        65        9.22     271        4.2
   02/13/2017 16:20      73.8      73.0       27     37.1      0.00     13.27      60.3     0.49      1015.0     3        33         5        65        9.22     271       32.4
   02/13/2017 16:10      74.8      74.2       26     37.7      0.00     13.27      60.4     0.49      1015.0     3        22         5       353        9.23     271       72.1
   02/13/2017 16:00      75.4      74.6       26     38.1      0.00     13.27      60.5     0.49      1015.0     4        26         6        10        9.23     271      129.7
   02/13/2017 15:50      75.7      75.1       26     38.1      0.00     13.27      60.3     0.49      1015.0     3        29         6       356        9.23     271      145.0
   02/13/2017 15:40      75.5      74.9       26     38.0      0.00     13.27      60.3     0.49      1015.0     3        34         4        28        9.23     271      113.1
   02/13/2017 15:30      76.8      75.6       25     38.3      0.00     13.27      60.2     0.49      1015.0     4        22         6         2        9.23     271      136.7
   02/13/2017 15:20      77.1      76.6       24     36.9      0.00     13.27      60.1     0.49      1015.0     6       355         9         0        9.23     271      236.1
   02/13/2017 15:10      77.5      76.8       23     36.1      0.00     13.27      59.9     0.49      1015.0     6       347         9       355        9.24     271      195.7
   02/13/2017 15:00      77.5      77.2       23     36.8      0.00     13.27      60.0     0.49      1015.0     3        25         7        60        9.24     271      199.1
   02/13/2017 14:50      77.7      76.8       20     33.0      0.00     13.27      59.8     0.49      1015.0     8       359        12       356        9.24     271      245.4
   02/13/2017 14:40      76.8      76.3       20     32.6      0.00     13.27      59.9     0.49      1015.0     8       351        12       331        9.25     271      262.2
   02/13/2017 14:30      77.2      76.4       20     32.5      0.00     13.27      59.9     0.49      1015.0     9       359        12        10        9.25     271      155.1
   02/13/2017 14:20      77.3      76.6       20     33.1      0.00     13.27      59.8     0.49      1015.0     6       358         8       353        9.25     271      180.4
   02/13/2017 14:10      77.6      76.9       19     32.4      0.00     13.27      59.7     0.49      1015.0     9       340        13       341        9.26     271      290.0
   02/13/2017 14:00      78.1      77.7       19     32.9      0.00     13.27      59.8     0.49      1015.0     9       352        13         7        9.26     271      365.7
   02/13/2017 13:50      78.0      77.2       20     32.9      0.00     13.27      59.8     0.49      1015.0     8       349        10       332        9.26     272      354.5
   02/13/2017 13:40      77.8      77.2       20     32.6      0.00     13.27      59.5     0.49      1015.0    10       344        13       329        9.26     272      332.8
   02/13/2017 13:30      77.5      76.6       20     32.5      0.00     13.27      59.5     0.49      1015.0     7         3        14         9        9.26     272      326.3
   02/13/2017 13:20      78.2      76.9       20     33.1      0.00     13.27      59.5     0.49      1016.0     6       355        11       344        9.26     272      294.1
   02/13/2017 13:10      78.0      77.3       20     33.3      0.00     13.27      59.8     0.49      1016.0     6       358         8       314        9.26     272      371.0
   02/13/2017 13:00      77.5      76.9       20     33.1      0.00     13.27      59.3     0.49      1016.0     7       337        11       325        9.26     272      356.5
   02/13/2017 12:50      77.4      76.8       21     34.1      0.00     13.27      59.7     0.49      1016.0     4        49         5        79        9.26     272      353.1
   02/13/2017 12:40      77.3      76.3       20     32.9      0.00     13.27      59.5     0.49      1016.0     4       341         8       328        9.26     272      323.0
   02/13/2017 12:30      76.6      76.3       20     33.0      0.00     13.27      59.4     0.49      1016.0     3        42         4        58        9.26     272      285.8
   02/13/2017 12:20      76.8      76.3       20     32.7      0.00     13.27      59.4     0.49      1016.0     5         7        14       348        9.26     272      356.4
   02/13/2017 12:10      77.1      76.2       21     33.5      0.00     13.27      59.4     0.49      1016.0     5        32         9       355        9.26     273      388.6
   02/13/2017 12:00      77.1      76.1       20     32.8      0.00     13.27      59.4     0.49      1016.0     6       352        10       357        9.27     273      394.1
   02/13/2017 11:50      76.1      75.4       20     32.0      0.00     13.27      59.4     0.49      1017.0     9       341        13       325        9.27     273      421.8
   02/13/2017 11:40      75.9      75.1       20     32.2      0.00     13.27      59.7     0.49      1017.0     8       346        13       355        9.27     273      414.3
   02/13/2017 11:30      75.1      74.4       21     31.9      0.00     13.27      59.4     0.49      1017.0     9       344        16       334        9.27     273      386.1
   02/13/2017 11:20      75.0      74.2       21     31.8      0.00     13.27      59.4     0.49      1017.0     8       352        12       340        9.27     274      388.0
   02/13/2017 11:10      74.2      73.6       21     31.4      0.00     13.27      59.4     0.49      1017.0     9       358        15       357        9.27     275      387.6
   02/13/2017 11:00      73.9      73.3       21     31.3      0.00     13.27      59.6     0.49      1017.0     8        10        12       356        9.27     275      370.1
   02/13/2017 10:50      73.9      73.1       22     31.9      0.00     13.27      59.5     0.49      1017.0     7         6        12         5        9.27     276      369.6
   02/13/2017 10:40      73.5      72.8       22     31.8      0.00     13.27      59.4     0.49      1018.0     7        13        12        18        9.27     278      372.8
   02/13/2017 10:30      73.0      72.3       22     31.3      0.00     13.27      59.5     0.49      1018.0     7         3         8       359        9.27     281      352.4
   02/13/2017 10:20      72.4      71.0       22     30.9      0.00     13.27      59.8     0.49      1018.0     8         5        13       346        9.27     283      352.2
   02/13/2017 10:10      71.1      70.9       22     30.2      0.00     13.27      59.5     0.49      1018.0    10         4        14         8        9.27     286      343.4
   02/13/2017 10:00      71.3      70.8       22     30.6      0.00     13.27      59.6     0.49      1018.0     9         2        16       346        9.27     291      319.8
   02/13/2017 09:50      70.9      70.4       22     29.9      0.00     13.27      59.8     0.49      1018.0     9       359        15         4        9.28     294      308.9
   02/13/2017 09:40      70.8      69.8       22     29.9      0.00     13.27      59.4     0.49      1018.0    10       343        13        23        9.28     298      293.0
   02/13/2017 09:30      70.0      68.9       23     30.1      0.00     13.27      59.4     0.50      1018.0     8       357        13       338        9.28     304      279.0
   02/13/2017 09:20      68.9      68.2       24     29.9      0.00     13.27      60.0     0.50      1018.0     8       341        11       324        9.28     312      255.5
   02/13/2017 09:10      68.7      68.4       24     30.1      0.00     13.27      59.5     0.50      1018.0     7       340        10       356        9.28     323      244.6
   02/13/2017 09:00      69.1      68.7       24     30.4      0.00     13.27      60.0     0.50      1018.0     4       337        11       344        9.28     338      220.1
   02/13/2017 08:50      68.8      67.2       25     31.2      0.00     13.27      59.9     0.50      1018.0     2       276         4       237        9.28     351      203.4
   02/13/2017 08:40      67.2      66.5       26     31.1      0.00     13.27      59.5     0.50      1018.0     2       244         6       253        9.28     359      183.0
   02/13/2017 08:30      66.5      65.8       26     30.7      0.00     13.27      59.5     0.50      1018.0     4       271         6       284        9.29     364      160.6
   02/13/2017 08:20      65.8      65.4       27     30.5      0.00     13.27      59.6     0.50      1018.0     4       268         6       234        9.29     367      136.1
   02/13/2017 08:10      65.4      64.9       28     31.5      0.00     13.27      59.5     0.50      1018.0     4       257         6       250        9.29     370       58.7
   02/13/2017 08:00      65.0      64.3       26     29.5      0.00     13.27      59.6     0.50      1018.0     4       257         6       266        9.29     372       70.9
   02/13/2017 07:50      64.4      62.8       28     29.4      0.00     13.27      59.6     0.50      1017.0     4       259         6       282        9.29     374       65.4
   02/13/2017 07:40      62.9      61.4       29     29.3      0.00     13.27      59.8     0.50      1017.0     4       238         6       239        9.29     375       10.2
   02/13/2017 07:30      61.4      60.5       31     29.9      0.00     13.27      59.8     0.50      1017.0     4       206         5       198        9.29     376      -47.2
   02/13/2017 07:20      60.8      59.3       32     29.7      0.00     13.27      59.9     0.50      1017.0     3       208         4       217        9.29     376      -48.0
   02/13/2017 07:10      60.7      59.4       31     29.4      0.00     13.27      60.0     0.50      1017.0     3       213         4       199        9.29     375      -52.2
   02/13/2017 07:00      61.0      60.8       28     27.7      0.00     13.27      60.1     0.50      1017.0     2       311         3       305        9.29     374      -58.8
   02/13/2017 06:50      61.1      60.9       27     27.2      0.00     13.27      59.8     0.50      1017.0     4       326         7       327        9.29     373      -63.1
   02/13/2017 06:40      61.4      61.1       27     27.2      0.00     13.27      59.8     0.50      1017.0     3       341         5       358        9.29     374      -66.5
   02/13/2017 06:30      61.5      61.1       27     27.1      0.00     13.27      59.7     0.50      1017.0     5       348         9       323        9.29     372      -69.0
   02/13/2017 06:20      61.4      61.1       27     27.1      0.00     13.27      60.1     0.50      1017.0     3       350         4       354        9.29     372      -69.0
   02/13/2017 06:10      61.4      61.0       27     27.0      0.00     13.27      59.8     0.50      1016.0     4       348         7       346        9.29     372      -69.0
   02/13/2017 06:00      61.4      61.1       27     27.0      0.00     13.27      60.1     0.50      1016.0     5       324         9       319        9.29     371      -70.2
   02/13/2017 05:50      61.0      60.5       28     27.3      0.00     13.27      60.1     0.50      1016.0     5       328         7       343        9.29     371      -69.8
   02/13/2017 05:40      61.0      60.8       28     27.3      0.00     13.27      60.3     0.50      1016.0     4       340         7       346        9.29     370      -70.6
   02/13/2017 05:30      61.1      60.9       27     27.2      0.00     13.27      60.1     0.50      1016.0     4       333         5       323        9.29     370      -70.9
   02/13/2017 05:20      61.3      61.1       27     27.2      0.00     13.27      59.9     0.50      1016.0     6       328         8       320        9.29     369      -71.6
   02/13/2017 05:10      61.5      61.3       27     27.0      0.00     13.27      60.1     0.50      1016.0     5       336         9       336        9.30     368      -72.0
   02/13/2017 05:00      61.4      61.3       27     27.2      0.00     13.27      60.0     0.50      1016.0     6       338        12       339        9.30     369      -71.8
   02/13/2017 04:50      62.0      61.4       27     27.1      0.00     13.27      60.2     0.50      1016.0     6       344        10       348        9.30     369      -72.0
   02/13/2017 04:40      62.2      61.7       26     26.8      0.00     13.27      60.0     0.50      1016.0     8       343        13       356        9.30     369      -71.6
   02/13/2017 04:30      61.9      61.6       27     27.1      0.00     13.27      60.0     0.50      1016.0     7       347        10       356        9.30     369      -71.5
   02/13/2017 04:20      62.1      62.0       26     27.0      0.00     13.27      60.2     0.50      1016.0     6       342        11       347        9.30     369      -71.6
   02/13/2017 04:10      62.4      61.9       26     26.8      0.00     13.27      60.2     0.50      1016.0     6       340         9       329        9.30     369      -71.4
   02/13/2017 04:00      62.4      62.1       26     27.0      0.00     13.27      60.3     0.50      1016.0     7       344         9       323        9.30     369      -70.7
   02/13/2017 03:50      62.5      62.4       26     26.9      0.00     13.27      60.3     0.50      1016.0     7       335         9       354        9.30     369      -69.9
   02/13/2017 03:40      62.6      62.2       26     26.8      0.00     13.27      60.2     0.50      1016.0     6       343        10       355        9.30     368      -70.0
   02/13/2017 03:30      62.5      61.9       26     26.8      0.00     13.27      60.1     0.50      1016.0     5       352         7       337        9.30     369      -69.6
   02/13/2017 03:20      62.0      61.8       26     26.9      0.00     13.27      60.7     0.50      1016.0     3       351         6       342        9.30     369      -69.5
   02/13/2017 03:10      61.9      61.3       27     27.3      0.00     13.27      60.1     0.50      1016.0     3       309         7       338        9.30     368      -69.8
   02/13/2017 03:00      61.6      61.4       27     27.3      0.00     13.27      60.4     0.50      1017.0     2       315         5       304        9.30     367      -70.3
   02/13/2017 02:50      61.6      61.3       27     27.5      0.00     13.27      60.4     0.50      1017.0     5       327         7       293        9.31     367      -70.9
   02/13/2017 02:40      61.4      60.9       28     27.7      0.00     13.27      60.8     0.50      1017.0     4       329         6       345        9.31     366      -71.1
   02/13/2017 02:30      61.1      60.6       29     28.2      0.00     13.27      60.4     0.50      1017.0     4       319         7       307        9.31     366      -70.7
   02/13/2017 02:20      61.0      60.5       29     28.3      0.00     13.27      60.7     0.50      1017.0     3       314         6       318        9.31     364      -71.9
   02/13/2017 02:10      60.7      60.3       30     28.6      0.00     13.27      60.5     0.50      1017.0     3       310         6       319        9.31     364      -71.3
   02/13/2017 02:00      60.5      60.4       30     28.9      0.00     13.27      60.8     0.50      1017.0     4       309         7       323        9.31     363      -71.4
   02/13/2017 01:50      61.0      60.4       30     29.1      0.00     13.27      60.2     0.50      1017.0     4       287         7       312        9.31     362      -72.0
   02/13/2017 01:40      60.9      60.3       30     29.1      0.00     13.27      60.4     0.50      1017.0     3       302         5       294        9.31     361      -72.5
   02/13/2017 01:30      60.4      60.2       31     29.6      0.00     13.27      60.4     0.50      1017.0     5       323         7       311        9.31     360      -72.3
   02/13/2017 01:20      60.4      60.2       31     29.8      0.00     13.27      60.7     0.50      1017.0     4       321         7       315        9.31     359      -72.0
   02/13/2017 01:10      60.6      60.4       31     29.6      0.00     13.27      60.4     0.50      1017.0     4       312         6       323        9.31     358      -71.5
   02/13/2017 01:00      60.7      60.4       31     29.7      0.00     13.27      60.6     0.50      1017.0     4       328         6       325        9.31     356      -71.3
   02/13/2017 00:50      60.5      60.3       32     30.2      0.00     13.27      60.5     0.50      1017.0     6       324         8       326        9.31     355      -71.0
   02/13/2017 00:40      60.7      60.2       32     30.4      0.00     13.27      60.6     0.50      1017.0     5       339         7       353        9.31     355      -70.5
   02/13/2017 00:30      60.8      60.3       32     30.8      0.00     13.27      60.5     0.50      1017.0     5       331         5       318        9.31     356      -70.9
   02/13/2017 00:20      61.0      60.7       32     30.8      0.00     13.27      60.7     0.50      1017.0     4       338         5         2        9.31     353      -71.5
   02/13/2017 00:10      61.1      60.9       32     30.9      0.00     13.27      60.8     0.50      1017.0     5       358         8       359        9.31     353      -72.9
   02/13/2017 00:00      61.1      60.8       32     31.0      0.00     13.27      60.8     0.50      1017.0     5       354         9       345        9.31     351      -72.8
   02/12/2017 23:50      60.7      60.4       33     31.4      0.00     13.27      60.5     0.50      1017.0     6       337         8       331        9.31     350      -71.1
   02/12/2017 23:40      61.3      60.8       32     31.4      0.00     13.27      60.8     0.50      1018.0     6       349         7       345        9.31     348      -71.0
   02/12/2017 23:30      61.4      61.0       32     31.2      0.00     13.27      60.5     0.50      1018.0     5         4         7         1        9.31     345      -71.3
   02/12/2017 23:20      61.0      60.5       33     31.8      0.00     13.27      60.9     0.50      1018.0     5       355         7         7        9.31     343      -71.5
   02/12/2017 23:10      61.1      61.0       33     32.0      0.00     13.27      60.8     0.50      1018.0     4       351         6       358        9.31     341      -72.4
   02/12/2017 23:00      61.4      61.0       33     32.0      0.00     13.27      60.7     0.50      1018.0     5       331         8       349        9.31     338      -73.0
   02/12/2017 22:50      62.0      61.4       32     31.7      0.00     13.27      60.8     0.50      1018.0     4       329         6       330        9.31     336      -72.8
   02/12/2017 22:40      62.9      62.3       31     31.6      0.00     13.27      60.8     0.50      1018.0     4       294         5       309        9.31     334      -72.5
   02/12/2017 22:30      63.2      61.8       31     31.2      0.00     13.27      60.7     0.50      1018.0     4       292         7       277        9.31     332      -72.3
   02/12/2017 22:20      61.4      56.9       37     32.5      0.00     13.27      60.9     0.50      1018.0     3       289         5       272        9.31     329      -70.0
   02/12/2017 22:10      56.9      55.0       46     35.3      0.00     13.27      60.6     0.50      1018.0     3       170         4       137        9.31     326      -70.5
   02/12/2017 22:00      57.4      55.6       46     35.9      0.00     13.27      61.0     0.50      1018.0     4       164         5       176        9.31     322      -71.1
   02/12/2017 21:50      59.4      57.7       41     35.2      0.00     13.27      60.8     0.50      1018.0     4       168         5       169        9.31     318      -72.5
   02/12/2017 21:40      62.4      59.7       36     33.8      0.00     13.27      60.9     0.50      1018.0     2       120         4       161        9.31     314      -74.5
   02/12/2017 21:30      63.2      62.6       31     32.3      0.00     13.27      60.8     0.50      1018.0     3        34         6         1        9.31     312      -76.2
   02/12/2017 21:20      63.6      63.0       31     32.4      0.00     13.27      61.1     0.50      1018.0     4         5         7       355        9.31     310      -77.0
   02/12/2017 21:10      63.6      63.3       31     32.1      0.00     13.27      61.0     0.50      1018.0     7       358        10       352        9.31     308      -77.4
   02/12/2017 21:00      63.5      63.1       31     32.4      0.00     13.27      61.1     0.50      1018.0     6       350         9       343        9.31     306      -77.2
   02/12/2017 20:50      63.1      62.7       32     32.5      0.00     13.27      60.9     0.50      1018.0     7       333        10       342        9.31     305      -76.8
   02/12/2017 20:40      62.8      62.6       32     32.7      0.00     13.27      60.9     0.50      1018.0     6       319         7       309        9.31     303      -76.7
   02/12/2017 20:30      63.9      63.2       31     32.6      0.00     13.27      60.8     0.50      1018.0     4       309         6       280        9.32     301      -77.2
   02/12/2017 20:20      64.0      63.8       31     32.4      0.00     13.27      60.8     0.50      1018.0     4       301         6       324        9.32     300      -77.3
   02/12/2017 20:10      64.0      63.5       31     32.7      0.00     13.27      61.0     0.50      1018.0     4       291         6       313        9.32     299      -76.4
   02/12/2017 20:00      63.9      63.8       31     32.8      0.00     13.27      60.8     0.50      1018.0     3       280         6       273        9.32     297      -76.4
   02/12/2017 19:50      64.2      63.4       32     33.1      0.00     13.27      60.6     0.50      1018.0     3       290         6       287        9.32     295      -76.6
   02/12/2017 19:40      63.7      62.9       33     33.9      0.00     13.27      60.7     0.50      1018.0     3       261         5       277        9.32     293      -76.0
   02/12/2017 19:30      64.3      63.4       32     33.5      0.00     13.27      60.6     0.50      1017.0     3       271         4       269        9.32     291      -76.5
   02/12/2017 19:20      64.3      64.0       32     33.5      0.00     13.27      60.7     0.50      1017.0     3       284         4       284        9.32     290      -77.5
   02/12/2017 19:10      64.3      63.9       32     34.0      0.00     13.27      60.5     0.50      1017.0     3       291         4       317        9.32     288      -78.0
   02/12/2017 19:00      64.5      64.2       32     34.0      0.00     13.27      60.7     0.50      1017.0     3       276         5       298        9.32     287      -78.6
   02/12/2017 18:50      64.4      64.3       32     34.0      0.00     13.27      60.6     0.50      1017.0     4       282         6       285        9.32     286      -78.0
   02/12/2017 18:40      64.7      64.3       33     34.4      0.00     13.27      60.3     0.50      1017.0     3       283         4       287        9.32     284      -77.2
   02/12/2017 18:30      65.2      64.8       32     34.4      0.00     13.27      60.5     0.50      1017.0     3       288         4       298        9.32     283      -78.0
   02/12/2017 18:20      65.5      65.2       31     34.2      0.00     13.27      60.6     0.50      1017.0     2       296         4       258        9.32     282      -78.8
   02/12/2017 18:10      66.2      65.7       30     33.6      0.00     13.27      60.3     0.50      1017.0     3       313         4       323        9.32     280      -80.2
   02/12/2017 18:00      66.4      66.2       29     33.4      0.00     13.27      60.4     0.50      1017.0     3       328         4         2        9.32     279      -81.3
   02/12/2017 17:50      67.2      66.6       29     33.3      0.00     13.27      60.6     0.50      1017.0     3       328         5       328        9.32     278      -81.8
   02/12/2017 17:40      68.0      67.2       28     33.1      0.00     13.27      60.7     0.50      1017.0     3       353         4       358        9.32     277      -81.8
   02/12/2017 17:30      68.3      68.1       26     32.5      0.00     13.27      60.5     0.50      1016.0     4       353         6       357        9.32     276      -80.3
   02/12/2017 17:20      68.8      68.4       26     32.5      0.00     13.27      60.5     0.50      1016.0     4       354         7        11        9.32     275      -77.9
   02/12/2017 17:10      69.4      68.8       25     32.3      0.00     13.27      60.3     0.50      1016.0     5         4         7         4        9.32     275      -75.3
   02/12/2017 17:00      69.8      69.3       25     32.3      0.00     13.27      60.2     0.50      1016.0     5       354         8       351        9.32     275      -48.3
   02/12/2017 16:50      70.2      69.9       25     33.1      0.00     13.27      60.3     0.50      1016.0     5        10         7       358        9.32     274      -17.2
   02/12/2017 16:40      70.3      70.0       26     33.3      0.00     13.27      59.7     0.50      1016.0     5        16         6        27        9.32     274        1.5
   02/12/2017 16:30      70.4      70.2       25     32.9      0.00     13.27      60.2     0.50      1016.0     6        20         8        49        9.32     274       22.1
   02/12/2017 16:20      70.5      70.0       25     32.7      0.00     13.27      60.2     0.50      1016.0     7       355        10       352        9.32     274       47.6
   02/12/2017 16:10      70.4      70.2       25     32.4      0.00     13.27      59.9     0.50      1016.0     7         9         9        14        9.32     274       73.2
   02/12/2017 16:00      70.7      70.3       25     32.7      0.00     13.27      60.5     0.50      1016.0     9         5        16         1        9.32     274       97.9
   02/12/2017 15:50      70.8      70.5       25     32.9      0.00     13.27      60.1     0.50      1016.0     9         4        13       356        9.33     274      122.2
   02/12/2017 15:40      71.0      70.5       25     33.0      0.00     13.27      60.1     0.50      1016.0     9        17        14       356        9.33     274      146.7
   02/12/2017 15:30      71.3      70.6       25     33.3      0.00     13.27      60.1     0.50      1016.0     9        11        11       353        9.33     274      169.7
   02/12/2017 15:20      70.9      70.5       25     33.1      0.00     13.27      60.3     0.50      1016.0    10       356        17       337        9.33     275      192.0
   02/12/2017 15:10      70.8      70.4       25     33.0      0.00     13.27      59.8     0.50      1016.0     9         1        13       357        9.33     274      214.0
   02/12/2017 15:00      71.0      70.7       25     33.5      0.00     13.27      60.0     0.50      1016.0    10        19        15         9        9.34     274      232.4
   02/12/2017 14:50      71.0      70.8       25     33.8      0.00     13.27      60.0     0.50      1016.0    10         6        15         3        9.34     274      250.9
   02/12/2017 14:40      71.2      70.8       26     34.1      0.00     13.27      59.6     0.50      1017.0    10        13        14       345        9.34     274      270.0
   02/12/2017 14:30      70.9      70.5       26     33.8      0.00     13.27      59.8     0.50      1017.0    13         1        18         0        9.34     274      290.2
   02/12/2017 14:20      71.1      70.5       26     34.1      0.00     13.27      60.0     0.50      1017.0    12         6        17       345        9.34     274      306.3
   02/12/2017 14:10      71.3      70.9       27     35.0      0.00     13.27      59.8     0.50      1017.0     9        19        16         2        9.34     275      320.5
   02/12/2017 14:00      70.9      70.3       27     35.0      0.00     13.27      59.7     0.50      1017.0    10       351        15       338        9.35     275      335.7
   02/12/2017 13:50      70.9      70.1       28     35.3      0.00     13.27      60.0     0.50      1017.0     9         2        12         9        9.35     275      349.0
   02/12/2017 13:40      70.4      70.0       27     34.9      0.00     13.27      59.8     0.50      1017.0    11       350        17       338        9.35     276      361.0
   02/12/2017 13:30      70.3      69.8       28     35.6      0.00     13.27      59.6     0.50      1017.0     8         7        15       342        9.35     277      372.5
   02/12/2017 13:20      69.9      69.6       28     35.0      0.00     13.27      59.3     0.50      1017.0    12        10        18       359        9.35     277      383.1
   02/12/2017 13:10      70.0      69.1       28     34.7      0.00     13.27      59.9     0.50      1018.0    12         4        20         3        9.35     277      391.8
   02/12/2017 13:00      69.9      69.3       28     34.7      0.00     13.27      59.7     0.50      1018.0     9       354        14       354        9.36     278      399.4
   02/12/2017 12:50      69.6      69.3       28     34.9      0.00     13.27      59.7     0.50      1018.0    11         1        15       350        9.36     279      407.0
   02/12/2017 12:40      69.4      69.1       28     35.1      0.00     13.27      59.7     0.50      1018.0    12       348        18       350        9.36     279      411.5
   02/12/2017 12:30      69.3      68.7       29     35.5      0.00     13.27      59.6     0.50      1018.0    11       354        21        21        9.36     280      414.1
   02/12/2017 12:20      69.5      68.9       30     36.1      0.00     13.27      59.7     0.50      1019.0     8         1        17         9        9.36     281      416.2
   02/12/2017 12:10      69.2      68.6       30     35.9      0.00     13.27      59.6     0.50      1019.0     9       353        12        14        9.36     283      419.0
   02/12/2017 12:00      68.7      68.3       30     35.9      0.00     13.27      59.8     0.50      1019.0     9       355        15       325        9.36     287      419.0
   02/12/2017 11:50      68.6      67.8       30     35.7      0.00     13.27      59.6     0.50      1019.0     7         3        13       357        9.36     290      416.5
   02/12/2017 11:40      68.4      67.9       30     35.7      0.00     13.27      59.6     0.50      1019.0     8         4        13       338        9.36     294      414.9
   02/12/2017 11:30      68.0      67.6       30     35.0      0.00     13.27      59.8     0.50      1019.0     9        13        15       333        9.37     298      415.1
   02/12/2017 11:20      67.8      66.9       29     34.2      0.00     13.27      59.8     0.50      1019.0    12         4        15         4        9.37     302      411.1
   02/12/2017 11:10      67.8      67.2       28     33.6      0.00     13.27      60.0     0.50      1019.0    12         5        21        16        9.37     306      405.4
   02/12/2017 11:00      67.4      66.8       28     33.1      0.00     13.27      59.4     0.50      1019.0    11         5        19       344        9.37     311      399.7
   02/12/2017 10:50      67.5      66.7       28     32.9      0.00     13.27      59.5     0.50      1019.0    12         9        25       346        9.37     317      391.6
   02/12/2017 10:40      67.4      66.8       28     33.2      0.00     13.27      60.0     0.50      1019.0    12         1        20        10        9.37     323      380.7
   02/12/2017 10:30      67.1      66.5       28     33.1      0.00     13.27      60.0     0.50      1019.0    10        19        19        10        9.37     328      371.4
   02/12/2017 10:20      66.7      66.2       29     33.4      0.00     13.27      59.9     0.50      1019.0    10         8        15        11        9.37     335      359.1
   02/12/2017 10:10      66.5      66.2       30     33.7      0.00     13.27      59.7     0.50      1019.0    12         3        21        11        9.37     340      345.5
   02/12/2017 10:00      66.2      65.6       31     34.4      0.00     13.27      59.6     0.50      1019.0    10        11        14        13        9.37     348      331.9
   02/12/2017 09:50      65.8      65.7       30     33.9      0.00     13.27      59.8     0.50      1019.0    12         6        16        31        9.37     361      317.2
   02/12/2017 09:40      65.8      65.5       31     34.6      0.00     13.27      60.0     0.51      1019.0     9         3        17         9        9.37     376      300.7
   02/12/2017 09:30      65.6      65.3       31     34.1      0.00     13.27      60.3     0.51      1019.0     9         3        12         3        9.37     392      284.1
   02/12/2017 09:20      65.4      65.0       31     34.1      0.00     13.27      60.0     0.51      1019.0     8         3        15       351        9.37     405      266.9
   02/12/2017 09:10      65.2      64.5       32     34.6      0.00     13.27      60.3     0.51      1019.0     9       360        13       350        9.37     418      248.9
   02/12/2017 09:00      64.4      63.4       35     35.9      0.00     13.27      60.0     0.51      1019.0     8       347        13       329        9.37     429      230.0
   02/12/2017 08:50      63.6      63.1       37     36.7      0.00     13.27      60.3     0.51      1019.0     9       344        16       336        9.37     439      209.6
   02/12/2017 08:40      63.2      62.4       38     36.7      0.00     13.27      60.3     0.51      1019.0     7       353        11         9        9.37     445      189.1
   02/12/2017 08:30      62.4      61.9       39     37.1      0.00     13.27      59.8     0.51      1019.0     7         1        11        24        9.37     449      169.7
   02/12/2017 08:20      62.1      61.6       39     36.6      0.00     13.27      60.0     0.51      1019.0     8        11        12         5        9.38     452      146.4
   02/12/2017 08:10      61.6      60.7       41     37.1      0.00     13.27      60.4     0.51      1019.0     7         0        14       358        9.38     457      105.4
   02/12/2017 08:00      60.9      60.4       47     40.5      0.00     13.27      60.5     0.51      1019.0     2       317         8        29        9.37     458       49.5
   02/12/2017 07:50      60.3      58.2       47     39.1      0.00     13.27      60.1     0.51      1019.0     1         6         3       342        9.37     459       63.6
   02/12/2017 07:40      58.2      56.9       50     39.1      0.00     13.27      60.6     0.51      1019.0     2       346         4         5        9.37     460        2.0
   02/12/2017 07:30      56.8      56.2       52     38.8      0.00     13.27      59.8     0.51      1019.0     1       327         3       287        9.38     461      -45.4
   02/12/2017 07:20      56.8      56.4       51     38.5      0.00     13.27      60.2     0.51      1019.0     2         8         4         3        9.38     462      -48.0
   02/12/2017 07:10      56.5      56.3       51     38.4      0.00     13.27      60.0     0.51      1019.0     4       350         6       359        9.38     463      -51.9
   02/12/2017 07:00      56.6      56.1       51     38.4      0.00     13.27      60.6     0.51      1019.0     3       356         5       349        9.38     463      -56.5
   02/12/2017 06:50      57.0      56.5       50     38.5      0.00     13.27      60.3     0.51      1019.0     3        16         5         6        9.38     463      -61.0
   02/12/2017 06:40      57.1      56.4       50     38.5      0.00     13.27      60.4     0.51      1019.0     5       354         7        22        9.38     463      -63.9
   02/12/2017 06:30      56.7      56.2       52     39.0      0.00     13.27      60.5     0.51      1019.0     5       354         8         1        9.38     462      -65.0
   02/12/2017 06:20      56.4      55.5       53     39.1      0.00     13.27      60.1     0.51      1018.0     4       337         6       322        9.38     462      -65.0
   02/12/2017 06:10      55.5      55.0       55     39.4      0.00     13.27      60.6     0.51      1018.0     4       313         5       314        9.38     463      -65.5
   02/12/2017 06:00      55.7      55.1       55     39.5      0.00     13.27      60.2     0.51      1018.0     4       272         4       260        9.38     462      -65.9
   02/12/2017 05:50      55.6      55.3       55     39.5      0.00     13.27      60.6     0.51      1018.0     4       301         5       320        9.38     462      -65.5
   02/12/2017 05:40      55.4      55.1       55     39.6      0.00     13.27      60.6     0.51      1018.0     4       280         5       304        9.38     462      -66.2
   02/12/2017 05:30      55.6      55.3       55     39.7      0.00     13.27      60.7     0.51      1018.0     3       287         4       302        9.38     461      -66.4
   02/12/2017 05:20      55.6      55.1       56     39.9      0.00     13.27      60.4     0.51      1018.0     4       275         7       283        9.38     461      -66.4
   02/12/2017 05:10      55.9      55.3       55     39.9      0.00     13.27      60.1     0.51      1018.0     4       267         6       257        9.38     460      -66.4
   02/12/2017 05:00      55.6      55.3       56     40.2      0.00     13.27      60.3     0.51      1018.0     3       293         6       283        9.38     460      -66.0
   02/12/2017 04:50      55.7      55.4       56     40.1      0.00     13.27      60.6     0.51      1018.0     3       306         6       322        9.38     459      -66.2
   02/12/2017 04:40      55.8      55.5       55     40.0      0.00     13.27      60.1     0.51      1018.0     3       266         4       263        9.38     458      -66.5
   02/12/2017 04:30      56.1      55.9       54     39.8      0.00     13.27      60.7     0.51      1018.0     3       267         4       242        9.38     457      -66.9
   02/12/2017 04:20      56.1      55.8       55     39.9      0.00     13.27      60.6     0.51      1018.0     4       288         6       280        9.38     456      -66.2
   02/12/2017 04:10      55.8      55.2       56     40.2      0.00     13.27      60.8     0.51      1018.0     4       295         9       296        9.38     459      -66.3
   02/12/2017 04:00      55.2      55.0       58     40.6      0.00     13.27      60.8     0.51      1018.0     4       290         7       304        9.38     461      -66.3
   02/12/2017 03:50      55.3      55.0       58     40.6      0.00     13.27      60.6     0.51      1018.0     4       281         6       305        9.38     462      -66.2
   02/12/2017 03:40      55.1      54.6       59     40.8      0.00     13.27      60.4     0.51      1018.0     4       301         5       296        9.38     462      -65.8
   02/12/2017 03:30      54.8      54.5       60     41.1      0.00     13.27      61.0     0.51      1018.0     3       301         4       280        9.38     461      -66.1
   02/12/2017 03:20      54.9      53.9       61     41.3      0.00     13.27      60.9     0.51      1018.0     2       302         3       279        9.38     460      -66.0
   02/12/2017 03:10      53.9      52.2       67     42.2      0.00     13.27      60.5     0.51      1018.0     2       271         3       294        9.38     459      -65.9
   02/12/2017 03:00      52.8      52.1       70     42.9      0.00     13.27      61.2     0.51      1018.0     2       245         2       232        9.38     458      -65.7
   02/12/2017 02:50      53.3      53.1       68     43.1      0.00     13.27      60.5     0.51      1018.0     2       241         3       215        9.38     457      -67.0
   02/12/2017 02:40      53.6      53.3       69     43.5      0.00     13.27      60.7     0.51      1018.0     2       256         4       268        9.38     455      -68.0
   02/12/2017 02:30      53.3      52.1       74     44.5      0.00     13.27      61.5     0.51      1018.0     3       265         7       272        9.38     455      -69.1
   02/12/2017 02:20      52.0      51.7       78     45.5      0.00     13.27      61.0     0.51      1018.0     2       258         3       249        9.38     454      -70.0
   02/12/2017 02:10      51.8      50.9       83     46.4      0.00     13.27      60.8     0.51      1018.0     3       240         7       214        9.38     453      -70.1
   02/12/2017 02:00      50.9      50.7       87     46.9      0.00     13.27      61.0     0.51      1018.0     3       230         5       220        9.38     452      -70.1
   02/12/2017 01:50      51.1      50.8       86     47.0      0.00     13.27      60.6     0.51      1018.0     4       238         6       226        9.38     451      -71.0
   02/12/2017 01:40      51.4      51.1       86     47.3      0.00     13.27      61.3     0.51      1018.0     4       246         5       239        9.38     450      -68.8
   02/12/2017 01:30      51.4      51.2       87     47.6      0.00     13.27      60.8     0.51      1018.0     2       247         3       247        9.38     449      -58.1
   02/12/2017 01:20      51.3      50.9       89     48.0      0.00     13.27      61.1     0.51      1018.0     2       263         3       245        9.38     448      -34.4
   02/12/2017 01:10      51.1      50.8       89     48.0      0.00     13.27      61.6     0.51      1018.0     1       302         2       280        9.38     450      -26.8
   02/12/2017 01:00      50.9      50.7       89     47.7      0.00     13.27      61.3     0.51      1019.0     1       207         2       233        9.38     449      -27.9
   02/12/2017 00:50      51.1      50.8       88     47.7      0.00     13.27      61.4     0.51      1019.0     1       167         1       157        9.38     449      -28.6
   02/12/2017 00:40      50.9      50.7       88     47.5      0.00     13.27      61.3     0.51      1019.0     1       231         1       173        9.38     448      -29.7
   02/12/2017 00:30      50.9      50.7       89     47.6      0.00     13.27      61.4     0.51      1019.0     1       158         1       135        9.38     447      -33.9
   02/12/2017 00:20      51.1      50.8       89     47.7      0.00     13.27      61.4     0.51      1019.0     1       167         2       146        9.38     448      -29.9
   02/12/2017 00:10      51.1      50.8       89     47.9      0.00     13.27      61.8     0.51      1019.0     1        91         1       108        9.38     447      -25.9
   02/12/2017 00:00      51.2      50.8       89     47.9      0.00     13.27      61.1     0.51      1019.0     1       113         1       116        9.38     448      -25.2
   02/11/2017 23:50      50.9      50.8       89     47.8      0.00     13.27      60.8     0.51      1019.0     1       150         2       194        9.38     450      -23.5
   02/11/2017 23:40      50.9      50.7       89     47.8      0.00     13.27      61.4     0.51      1019.0     1       154         2       150        9.38     450      -22.1
   02/11/2017 23:30      50.9      50.6       90     47.9      0.00     13.27      61.4     0.51      1019.0     1       168         2       174        9.38     450      -20.5
   02/11/2017 23:20      50.6      50.3       90     47.7      0.00     13.27      61.6     0.51      1019.0     2       170         2       163        9.38     449      -20.3
   02/11/2017 23:10      50.3      50.1       90     47.6      0.00     13.27      61.6     0.51      1019.0     1       145         1       124        9.38     449      -20.4
   02/11/2017 23:00      50.5      50.1       91     47.6      0.00     13.27      61.8     0.51      1019.0     1       207         1       211        9.38     448      -25.7
   02/11/2017 22:50      50.2      50.0       90     47.4      0.00     13.27      61.1     0.51      1018.0     1       182         2       157        9.38     448      -35.5
   02/11/2017 22:40      50.4      50.0       90     47.3      0.00     13.27      61.3     0.51      1018.0     1       166         2       144        9.38     448      -49.7
   02/11/2017 22:30      50.8      50.5       89     47.4      0.00     13.27      61.4     0.51      1018.0     1       171         2       148        9.39     447      -52.0
   02/11/2017 22:20      51.1      50.8       88     47.5      0.00     13.27      61.4     0.51      1019.0     1       168         2       157        9.39     446      -54.8
   02/11/2017 22:10      51.5      51.3       87     47.7      0.00     13.27      62.1     0.51      1019.0     1       185         2       217        9.39     445      -46.6
   02/11/2017 22:00      51.4      51.1       88     47.9      0.00     13.27      61.4     0.51      1019.0     2       169         2       182        9.39     445      -54.3
   02/11/2017 21:50      51.4      51.2       89     48.0      0.00     13.27      61.6     0.51      1019.0     2       154         3       155        9.39     444      -59.3
   02/11/2017 21:40      51.4      51.3       88     47.9      0.00     13.27      62.0     0.51      1019.0     2       155         2       138        9.39     443      -30.9
   02/11/2017 21:30      51.7      51.4       87     47.8      0.00     13.27      61.7     0.51      1019.0     1       177         1       184        9.39     442      -29.9
   02/11/2017 21:20      51.7      51.4       86     47.5      0.00     13.27      61.5     0.51      1018.0     2       160         3       167        9.39     441      -32.4
   02/11/2017 21:10      52.3      51.7       84     47.2      0.00     13.27      61.4     0.51      1019.0     1        99         2       153        9.39     440      -56.8
   02/11/2017 21:00      52.9      52.5       83     47.5      0.00     13.27      61.8     0.51      1018.0     1        17         1        11        9.39     445      -56.2
   02/11/2017 20:50      53.1      52.6       82     47.6      0.00     13.27      62.0     0.52      1018.0     1        15         2         1        9.39     443      -60.9
   02/11/2017 20:40      53.5      53.1       81     47.6      0.00     13.27      61.4     0.51      1018.0     1        50         3        84        9.39     440      -69.7
   02/11/2017 20:30      54.1      53.5       80     47.8      0.00     13.27      61.4     0.52      1018.0     2        69         4        70        9.39     437      -66.7
   02/11/2017 20:20      54.4      54.0       79     48.0      0.00     13.27      61.5     0.52      1018.0     3        77         4        72        9.39     433      -48.9
   02/11/2017 20:10      54.5      54.3       78     47.8      0.00     13.27      61.6     0.52      1018.0     2        72         4        80        9.39     431      -21.0
   02/11/2017 20:00      54.6      54.5       78     47.8      0.00     13.27      61.7     0.52      1018.0     3        79         6       102        9.39     431      -14.9
   02/11/2017 19:50      54.7      54.5       78     48.0      0.00     13.27      62.2     0.52      1018.0     3        66         6        30        9.39     429      -13.8
   02/11/2017 19:40      54.7      54.6       79     48.2      0.00     13.27      61.5     0.52      1018.0     2        34         5        35        9.39     431      -16.5
   02/11/2017 19:30      54.7      54.1       81     48.7      0.00     13.27      61.6     0.52      1018.0     2        28         4        18        9.39     425      -13.2
   02/11/2017 19:20      54.3      53.2       83     48.5      0.00     13.27      61.7     0.52      1018.0     2        25         2         8        9.39     426      -20.9
   02/11/2017 19:10      53.5      53.1       81     47.7      0.00     13.27      61.3     0.52      1017.0     1        45         2        37        9.39     424      -41.2
   02/11/2017 19:00      53.7      53.6       79     47.2      0.00     13.27      62.0     0.52      1017.0     1       104         2        61        9.39     421      -51.6
   02/11/2017 18:50      54.1      53.8       78     47.3      0.00     13.27      61.5     0.52      1017.0     1        73         2        75        9.40     416      -55.5
   02/11/2017 18:40      54.6      54.1       77     47.3      0.00     13.27      61.8     0.52      1017.0     1        80         2        79        9.40     411      -56.5
   02/11/2017 18:30      54.8      54.6       77     47.8      0.00     13.27      61.7     0.52      1017.0     1       337         1       338        9.40     407      -54.8
   02/11/2017 18:20      55.2      55.0       77     47.9      0.00     13.27      62.0     0.52      1017.0     2       105         3       117        9.40     401      -32.7
   02/11/2017 18:10      55.2      54.8       77     47.8      0.00     13.27      62.0     0.52      1017.0     1       326         3       312        9.40     399      -14.9
   02/11/2017 18:00      55.0      54.7       77     47.7      0.00     13.27      61.5     0.52      1017.0     1       337         2       306        9.40     395      -28.4
   02/11/2017 17:50      55.5      55.3       73     46.9      0.00     13.27      61.5     0.52      1017.0     1         3         1       318        9.40     389      -42.0
   02/11/2017 17:40      55.9      55.5       72     46.7      0.00     13.27      61.3     0.52      1017.0     2       315         2       316        9.40     382      -45.3
   02/11/2017 17:30      56.1      56.0       71     46.8      0.00     13.27      62.1     0.52      1017.0     1       344         2       323        9.40     374      -45.0
   02/11/2017 17:20      57.0      56.4       70     47.1      0.00     13.27      61.6     0.52      1017.0     2       345         4       328        9.40     366      -34.2
   02/11/2017 17:10      57.1      57.0       72     48.0      0.00     13.27      61.8     0.52      1017.0     2         2         3         6        9.40     357      -17.7
   02/11/2017 17:00      57.4      57.0       72     48.2      0.00     13.27      61.8     0.52      1017.0     3       359         7       359        9.40     349        2.8
   02/11/2017 16:50      57.4      57.1       71     48.0      0.00     13.27      61.5     0.52      1017.0     2        16         3        11        9.40     343       22.7
   02/11/2017 16:40      58.5      57.5       73     49.1      0.00     13.27      61.7     0.52      1017.0     3        27         3        19        9.40     336       74.9
   02/11/2017 16:30      58.6      58.3       68     47.9      0.00     13.27      61.8     0.52      1017.0     3        10         4       352        9.40     334      165.9
   02/11/2017 16:20      58.5      57.4       69     48.0      0.00     13.27      61.7     0.52      1017.0     2        66         3        38        9.40     338      202.9
   02/11/2017 16:10      57.6      57.2       73     48.8      0.00     13.27      61.8     0.52      1017.0     1        58         2        84        9.40     341      183.1
   02/11/2017 16:00      57.2      56.4       76     49.3      0.00     13.27      60.7     0.52      1017.0     2        42         2         8        9.40     345      237.9
   02/11/2017 15:50      56.3      55.0       80     49.3      0.00     13.27      61.5     0.52      1017.0     1       292         2       302        9.40     350      192.2
   02/11/2017 15:40      55.2      54.5       82     49.4      0.00     13.27      61.9     0.52      1017.0     2       272         4       248        9.40     353      105.2
   02/11/2017 15:30      54.7      54.5       84     49.8      0.00     13.27      61.2     0.52      1017.0     3       299         3       298        9.40     351       85.0
   02/11/2017 15:20      54.7      54.1       85     49.9      0.01     13.27      61.3     0.52      1017.0     2       290         4       306        9.40     347       60.5
   02/11/2017 15:10      54.4      54.1       83     49.3      0.00     13.26      60.8     0.52      1017.0     3       342         5       325        9.40     343       66.8
   02/11/2017 15:00      54.3      54.1       83     49.1      0.00     13.26      60.8     0.52      1017.0     5         0         9       352        9.40     333       55.0
   02/11/2017 14:50      54.6      54.1       82     48.9      0.01     13.26      61.1     0.52      1017.0     6       358         8       334        9.40     326       44.5
   02/11/2017 14:40      54.9      54.5       80     48.6      0.00     13.25      60.7     0.52      1017.0     3       312         5       243        9.40     319       16.5
   02/11/2017 14:30      55.8      55.1       76     48.0      0.00     13.25      60.9     0.52      1017.0     1       331         2       318        9.40     311       -0.2
   02/11/2017 14:20      57.1      56.0       69     46.4      0.00     13.25      60.9     0.52      1017.0     4       311         6       264        9.40     300       -7.3
   02/11/2017 14:10      58.4      57.2       62     44.8      0.00     13.25      61.3     0.52      1017.0     5       262         8       265        9.40     288        3.2
   02/11/2017 14:00      60.1      59.1       66     48.3      0.00     13.25      60.4     0.52      1017.0     6       222         7       217        9.40     283       31.1
   02/11/2017 13:50      60.6      60.3       68     50.0      0.00     13.25      60.6     0.52      1017.0     6       177         9       179        9.40     281      122.2
   02/11/2017 13:40      61.5      60.8       68     50.5      0.00     13.25      60.5     0.52      1016.0     8       144        15       114        9.41     281      158.5
   02/11/2017 13:30      62.6      61.7       67     50.9      0.00     13.25      60.9     0.52      1016.0     7       137        10       142        9.41     281      277.5
   02/11/2017 13:20      64.0      62.3       66     51.4      0.00     13.25      60.4     0.52      1016.0     8       136        12       140        9.41     281      313.9
   02/11/2017 13:10      64.1      63.1       62     50.3      0.00     13.25      60.5     0.52      1016.0     7       118        10       132        9.41     282      264.2
   02/11/2017 13:00      64.6      63.7       61     50.4      0.00     13.25      60.5     0.52      1016.0     5       127         8       147        9.41     282      429.7
   02/11/2017 12:50      63.9      63.5       62     50.5      0.00     13.25      61.1     0.52      1016.0     5       130         7       159        9.41     283      237.6
   02/11/2017 12:40      64.9      62.9       54     47.1      0.00     13.25      60.6     0.52      1016.0     5       126         8       157        9.41     283      120.8
   02/11/2017 12:30      66.3      65.3       48     45.8      0.00     13.25      61.2     0.52      1016.0     3        69         5        62        9.41     283      159.8
   02/11/2017 12:20      67.5      67.0       46     45.6      0.00     13.25      60.9     0.52      1017.0     4        53         6        67        9.41     283      376.5
   02/11/2017 12:10      67.3      66.8       45     45.0      0.00     13.25      60.5     0.51      1017.0     3        63         6         5        9.41     284      507.3
   02/11/2017 12:00      67.3      67.0       45     45.0      0.00     13.25      60.7     0.51      1017.0     4        43         7        87        9.41     286      475.3
   02/11/2017 11:50      67.2      65.7       48     45.9      0.00     13.25      60.6     0.52      1017.0     2        68         4         0        9.41     286      458.2
   02/11/2017 11:40      66.4      65.8       49     46.6      0.00     13.25      60.8     0.52      1017.0     3        71         6       100        9.41     288      449.7
   02/11/2017 11:30      66.1      65.1       52     47.8      0.00     13.25      60.5     0.52      1018.0     3        59         6        82        9.41     290      501.3
   02/11/2017 11:20      65.3      63.7       58     49.1      0.00     13.25      60.3     0.52      1018.0     3         0         5       352        9.41     295      549.3
   02/11/2017 11:10      63.7      63.1       61     49.9      0.00     13.25      60.4     0.52      1018.0     3       345         4        10        9.41     302      468.0
   02/11/2017 11:00      63.7      62.5       65     51.0      0.00     13.25      60.6     0.52      1018.0     2        23         4         6        9.41     310      506.6
   02/11/2017 10:50      63.3      63.0       66     51.4      0.00     13.25      60.8     0.52      1018.0     2         7         3        35        9.41     317      289.1
   02/11/2017 10:40      63.4      62.8       67     51.9      0.00     13.25      60.6     0.52      1018.0     2        11         5       342        9.41     321      292.9
   02/11/2017 10:30      63.4      62.9       66     51.5      0.00     13.25      60.1     0.52      1018.0     3       339         4       324        9.41     327      490.4
   02/11/2017 10:20      63.0      61.6       68     51.6      0.00     13.25      60.7     0.52      1018.0     2         5         4         5        9.41     336      552.9
   02/11/2017 10:10      61.6      60.4       71     51.2      0.00     13.25      61.0     0.52      1018.0     2        41         4        84        9.41     345      412.3
   02/11/2017 10:00      61.0      60.7       69     50.5      0.00     13.25      60.6     0.52      1018.0     2       103         2       124        9.41     351      205.8
   02/11/2017 09:50      60.9      60.5       70     50.9      0.00     13.25      61.0     0.52      1018.0     2        85         3        72        9.41     354      242.5
   02/11/2017 09:40      60.6      60.0       74     51.9      0.00     13.25      60.9     0.52      1018.0     2        56         2        72        9.41     358      224.3
   02/11/2017 09:30      60.3      59.4       78     52.8      0.00     13.25      60.9     0.52      1018.0     1       138         2        67        9.41     362      334.8
   02/11/2017 09:20      59.5      58.9       80     53.0      0.00     13.25      60.5     0.52      1018.0     1        58         2        43        9.41     371      155.2
   02/11/2017 09:10      60.0      59.0       80     53.3      0.00     13.25      60.6     0.52      1018.0     2         7         4         0        9.41     372      184.2
   02/11/2017 09:00      59.7      58.8       81     53.2      0.00     13.25      60.8     0.52      1018.0     1       237         3       317        9.41     376      278.8
   02/11/2017 08:50      58.9      58.4       82     53.3      0.00     13.25      60.5     0.52      1018.0     2       303         3       276        9.41     385      240.5
   02/11/2017 08:40      58.7      58.0       82     52.9      0.00     13.25      60.8     0.52      1018.0     2       265         3       320        9.41     394      221.0
   02/11/2017 08:30      58.0      57.4       85     53.1      0.00     13.25      60.6     0.52      1018.0     2       237         3       220        9.41     402      208.8
   02/11/2017 08:20      57.6      56.8       88     53.8      0.00     13.25      60.3     0.52      1018.0     2       218         3       207        9.41     407      206.9
   02/11/2017 08:10      56.7      55.5       91     53.3      0.00     13.25      60.7     0.52      1018.0     1       188         2       191        9.41     409      165.0
   02/11/2017 08:00      55.7      55.4       92     53.1      0.00     13.25      60.2     0.52      1018.0     2       180         3       194        9.41     410       62.4
   02/11/2017 07:50      55.6      55.2       92     53.3      0.00     13.25      60.9     0.52      1018.0     2       186         3       160        9.41     410       46.4
   02/11/2017 07:40      55.8      55.4       93     53.6      0.00     13.25      60.5     0.52      1018.0     1       210         2       216        9.41     410       58.4
   02/11/2017 07:30      55.5      55.2       94     53.5      0.00     13.25      60.4     0.52      1018.0     1       176         2       194        9.41     412       25.8
   02/11/2017 07:20      55.3      55.1       94     53.4      0.00     13.25      60.0     0.52      1017.0     2       129         3       132        9.41     413       17.1
   02/11/2017 07:10      55.3      55.1       94     53.5      0.00     13.25      60.3     0.52      1017.0     2       109         3       126        9.41     414       14.7
   02/11/2017 07:00      55.4      55.2       94     53.6      0.00     13.25      60.1     0.52      1017.0     2        91         2        86        9.41     416        4.3
   02/11/2017 06:50      55.7      55.4       94     53.9      0.00     13.25      60.6     0.52      1017.0     1        82         2        58        9.41     416       -0.2
   02/11/2017 06:40      55.8      55.4       94     53.9      0.00     13.25      60.0     0.52      1017.0     2       114         3       150        9.41     416       -2.0
   02/11/2017 06:30      55.7      55.5       94     53.9      0.00     13.25      60.9     0.52      1017.0     2       160         3       169        9.41     417       -2.5
   02/11/2017 06:20      55.8      55.5       94     54.0      0.00     13.25      60.4     0.52      1017.0     1       111         2        84        9.41     416       -2.4
   02/11/2017 06:10      56.0      55.8       94     54.2      0.00     13.25      60.4     0.52      1017.0     1       123         1       139        9.41     417       -2.4
   02/11/2017 06:00      56.1      55.8       94     54.3      0.00     13.25      60.4     0.52      1017.0     1        79         1        40        9.41     416       -2.4
   02/11/2017 05:50      56.1      55.9       94     54.3      0.00     13.25      60.6     0.52      1017.0     1        34         1        13        9.41     417       -2.3
   02/11/2017 05:40      56.0      55.9       94     54.2      0.00     13.25      61.0     0.52      1017.0     1        10         2       355        9.41     417       -2.3
   02/11/2017 05:30      56.0      55.8       94     54.2      0.00     13.25      60.1     0.52      1017.0     1       329         2       317        9.41     418       -2.2
   02/11/2017 05:20      56.0      55.7       94     54.0      0.02     13.25      60.9     0.52      1017.0     1       125         1       188        9.41     420       -2.2
   02/11/2017 05:10      56.0      55.8       94     54.0      0.01     13.23      60.2     0.52      1017.0     1       339         1       334        9.41     416       -2.4
   02/11/2017 05:00      56.1      55.8       94     54.1      0.01     13.22      60.8     0.52      1017.0     1       314         1       342        9.41     414       -2.3
   02/11/2017 04:50      56.1      55.9       94     54.3      0.00     13.21      60.3     0.52      1017.0     0       350         1       160        9.41     410       -2.3
   02/11/2017 04:40      56.1      56.0       94     54.3      0.00     13.21      60.8     0.52      1017.0     1       137         2        97        9.41     410       -2.2
   02/11/2017 04:30      56.1      56.0       94     54.3      0.00     13.21      61.0     0.52      1017.0     0       107         1       113        9.41     410       -2.3
   02/11/2017 04:20      56.1      55.9       94     54.3      0.00     13.21      60.7     0.52      1017.0     1       164         1       190        9.41     410       -2.3
   02/11/2017 04:10      56.2      56.0       94     54.3      0.00     13.21      60.3     0.52      1017.0     1       156         2       142        9.41     410       -2.3
   02/11/2017 04:00      56.1      56.0       94     54.3      0.00     13.21      60.8     0.52      1017.0     0       123         1       133        9.41     410       -2.3
   02/11/2017 03:50      56.1      55.9       94     54.2      0.00     13.21      61.1     0.52      1017.0     1        53         1        19        9.41     411       -2.4
   02/11/2017 03:40      56.2      55.9       93     54.2      0.00     13.21      61.0     0.52      1017.0     1        22         1        24        9.41     411       -2.5
   02/11/2017 03:30      56.0      55.6       93     53.9      0.00     13.21      61.5     0.52      1017.0     1        99         1        71        9.41     411       -2.6
   02/11/2017 03:20      55.8      55.6       93     53.8      0.00     13.21      61.7     0.52      1017.0     1       196         2       217        9.41     411       -2.6
   02/11/2017 03:10      56.1      55.7       93     54.0      0.00     13.21      61.1     0.52      1017.0     1       154         1       212        9.41     411       -2.9
   02/11/2017 03:00      56.1      56.0       93     54.1      0.00     13.21      60.2     0.52      1017.0     0         0         1       126        9.41     411       -2.9
   02/11/2017 02:50      56.1      56.0       93     54.1      0.00     13.21      61.0     0.52      1017.0     1        28         1        57        9.41     410       -3.3
   02/11/2017 02:40      56.1      56.0       93     54.1      0.00     13.21      61.1     0.52      1017.0     1       129         2       172        9.41     409       -3.3
   02/11/2017 02:30      56.1      55.9       93     54.1      0.00     13.21      60.2     0.52      1017.0     1       215         1       206        9.41     409       -3.0
   02/11/2017 02:20      56.3      56.0       93     54.2      0.00     13.21      61.5     0.52      1017.0     1       175         1       191        9.41     408       -2.6
   02/11/2017 02:10      56.1      55.9       94     54.2      0.00     13.21      61.2     0.52      1017.0     1       166         1       144        9.41     408       -2.7
   02/11/2017 02:00      56.1      55.9       94     54.2      0.00     13.21      61.3     0.52      1017.0     1       224         1       201        9.41     408       -2.5
   02/11/2017 01:50      56.1      56.0       94     54.4      0.00     13.21      60.7     0.52      1017.0     1       183         2       186        9.41     407       -2.0
   02/11/2017 01:40      56.1      55.9       94     54.4      0.00     13.21      61.5     0.52      1017.0     1       174         2       175        9.41     407       -2.0
   02/11/2017 01:30      56.4      56.0       94     54.5      0.00     13.21      60.6     0.52      1017.0     1       219         1       181        9.41     407       -2.1
   02/11/2017 01:20      56.5      56.3       94     54.7      0.00     13.21      61.0     0.52      1017.0     0       121         1       120        9.41     407       -2.4
   02/11/2017 01:10      56.4      56.1       94     54.6      0.00     13.21      61.4     0.52      1017.0     1       150         1       176        9.41     407       -2.4
   02/11/2017 01:00      56.5      56.3       94     54.7      0.00     13.21      61.1     0.52      1017.0     1       150         2       136        9.41     407       -2.2
   02/11/2017 00:50      56.4      56.2       94     54.7      0.00     13.21      60.9     0.52      1017.0     1       138         1       112        9.41     407       -2.0
   02/11/2017 00:40      56.4      56.1       94     54.6      0.00     13.21      60.9     0.52      1017.0     1       176         1       111        9.41     406       -2.1
   02/11/2017 00:30      56.3      56.1       94     54.6      0.00     13.21      61.9     0.52      1017.0     1       141         1       144        9.41     410       -2.2
   02/11/2017 00:20      56.3      56.0       94     54.6      0.00     13.21      60.8     0.52      1018.0     2       148         2       145        9.41     410       -2.0
   02/11/2017 00:10      56.3      56.2       94     54.7      0.00     13.21      60.9     0.52      1018.0     2       147         2       156        9.41     410       -2.4
   02/11/2017 00:00      56.5      56.3       94     54.7      0.00     13.21      61.7     0.52      1018.0     2       143         2       149        9.41     410       -2.2
   02/10/2017 23:50      56.4      56.2       94     54.7      0.00     13.21      60.9     0.52      1018.0     2       160         2       174        9.41     410       -2.0
   02/10/2017 23:40      56.5      56.3       94     54.7      0.00     13.21      61.0     0.52      1018.0     1       171         1       140        9.41     410       -2.1
   02/10/2017 23:30      56.3      56.0       94     54.5      0.00     13.21      60.7     0.52      1018.0     1       216         1       172        9.41     410       -2.4
   02/10/2017 23:20      56.1      55.9       94     54.4      0.00     13.21      61.9     0.52      1018.0     2       174         2       168        9.41     410       -2.0
   02/10/2017 23:10      56.1      55.9       94     54.2      0.00     13.21      61.4     0.52      1018.0     2       167         3       182        9.41     410       -2.3
   02/10/2017 23:00      56.2      55.9       94     54.3      0.00     13.21      61.2     0.52      1018.0     1       171         2       133        9.41     410       -2.6
   02/10/2017 22:50      56.1      55.9       94     54.2      0.00     13.21      61.7     0.52      1018.0     2       273         2       276        9.41     410       -3.1
   02/10/2017 22:40      56.1      55.9       93     54.2      0.00     13.21      61.6     0.52      1017.0     1       236         1       267        9.41     409       -3.9
   02/10/2017 22:30      56.2      56.0       93     54.1      0.00     13.21      61.3     0.52      1018.0     1       147         2       129        9.41     409       -3.7
   02/10/2017 22:20      56.5      56.1       93     54.3      0.00     13.21      61.3     0.52      1018.0     1        72         1       118        9.41     408       -3.8
   02/10/2017 22:10      56.6      56.3       93     54.3      0.00     13.21      61.3     0.52      1018.0     1       186         1       173        9.41     407       -3.5
   02/10/2017 22:00      56.6      56.5       93     54.6      0.00     13.21      61.5     0.52      1018.0     1       235         2       245        9.41     406       -3.7
   02/10/2017 21:50      56.6      56.5       93     54.6      0.00     13.21      61.1     0.52      1018.0     1       256         2       126        9.41     405       -3.8
   02/10/2017 21:40      56.8      56.5       93     54.5      0.00     13.21      61.2     0.52      1018.0     2       100         2        70        9.41     404       -3.5
   02/10/2017 21:30      56.9      56.8       93     54.6      0.00     13.21      61.6     0.52      1018.0     1       219         2       258        9.41     403       -3.9
   02/10/2017 21:20      56.9      56.6       93     54.7      0.00     13.21      61.4     0.52      1018.0     1       192         1       208        9.41     403       -3.7
   02/10/2017 21:10      57.0      56.9       93     54.9      0.00     13.21      60.9     0.52      1018.0     1       211         2       247        9.41     403       -3.6
   02/10/2017 21:00      57.1      57.0       93     55.1      0.00     13.21      61.4     0.52      1018.0     1       178         2       169        9.41     402       -3.6
   02/10/2017 20:50      57.2      56.9       93     55.1      0.00     13.21      61.2     0.52      1018.0     2       174         3       174        9.41     402       -3.1
   02/10/2017 20:40      57.1      57.0       93     55.1      0.00     13.21      61.0     0.52      1018.0     2       184         3       161        9.41     402       -3.0
   02/10/2017 20:30      57.2      57.0       93     55.0      0.00     13.21      61.4     0.52      1018.0     2       179         2       181        9.41     402       -3.1
   02/10/2017 20:20      57.3      57.0       93     55.1      0.00     13.21      61.3     0.52      1017.0     1       226         2       273        9.41     403       -3.3
   02/10/2017 20:10      57.1      56.9       93     55.1      0.00     13.21      61.0     0.51      1017.0     3       248         5       252        9.41     404       -3.5
   02/10/2017 20:00      57.1      56.9       93     55.2      0.01     13.21      61.2     0.51      1017.0     3       121         6        79        9.41     405       -2.8
   02/10/2017 19:50      57.4      57.0       93     55.2      0.01     13.20      61.6     0.51      1017.0     3       105         5        94        9.41     405       -2.7
   02/10/2017 19:40      57.5      57.4       93     55.3      0.01     13.19      61.5     0.51      1017.0     2       146         4        93        9.41     403       -2.9
   02/10/2017 19:30      57.5      57.1       93     55.3      0.00     13.18      61.0     0.51      1017.0     2       316         4       269        9.41     401       -3.4
   02/10/2017 19:20      57.2      57.0       93     55.1      0.00     13.18      61.2     0.51      1017.0     3       346         4       264        9.41     402       -3.4
   02/10/2017 19:10      57.5      57.2       92     55.2      0.01     13.18      61.5     0.51      1017.0     3       145         5        69        9.41     408       -3.6
   02/10/2017 19:00      57.5      57.1       93     55.2      0.02     13.17      61.7     0.51      1017.0     2       243         4       241        9.41     401       -4.4
   02/10/2017 18:50      57.4      57.1       93     55.3      0.00     13.15      61.8     0.51      1017.0     3       207         6       252        9.41     397       -3.7
   02/10/2017 18:40      57.6      57.4       93     55.5      0.01     13.15      61.5     0.51      1017.0     2       146         3       149        9.41     394       -2.9
   02/10/2017 18:30      57.7      57.5       93     55.7      0.00     13.14      61.5     0.51      1016.0     1        85         2       106        9.41     391       -2.8
   02/10/2017 18:20      58.0      57.7       93     55.8      0.01     13.14      61.8     0.51      1017.0     1        86         2       105        9.41     390       -2.8
   02/10/2017 18:10      58.1      57.9       93     55.9      0.00     13.13      60.6     0.51      1017.0     2        97         2       106        9.41     393       -2.8
   02/10/2017 18:00      58.1      57.9       93     55.9      0.01     13.13      61.0     0.51      1017.0     1       101         1       102        9.41     392       -3.0
   02/10/2017 17:50      58.1      57.9       93     55.9      0.01     13.12      60.8     0.51      1017.0     1       211         1       214        9.41     388       -3.4
   02/10/2017 17:40      58.1      58.0       92     56.0      0.01     13.11      61.9     0.51      1017.0     1       161         2       214        9.41     386       -3.1
   02/10/2017 17:30      58.3      58.0       92     55.9      0.01     13.10      61.2     0.50      1017.0     1       113         2       108        9.41     385       -1.8
   02/10/2017 17:20      58.4      58.2       92     56.0      0.01     13.09      61.1     0.50      1017.0     1       194         1       183        9.41     384       -1.6
   02/10/2017 17:10      58.5      58.3       92     56.0      0.01     13.08      60.7     0.50      1017.0     1        38         1        69        9.41     382        0.7
   02/10/2017 17:00      58.5      58.3       91     55.8      0.02     13.07      61.4     0.50      1017.0     1        61         1        76        9.41     379        1.3
   02/10/2017 16:50      58.5      58.2       91     55.6      0.01     13.05      61.0     0.50      1017.0     1       155         1       215        9.40     379        1.3
   02/10/2017 16:40      58.5      58.2       90     55.3      0.02     13.04      61.4     0.50      1017.0     1       210         3       202        9.39     378        2.0
   02/10/2017 16:30      58.5      58.1       89     55.0      0.01     13.02      61.6     0.50      1017.0     2       223         2       234        9.38     373        0.9
   02/10/2017 16:20      58.3      58.1       88     54.8      0.01     13.01      61.0     0.50      1017.0     2       231         3       234        9.37     375        6.2
   02/10/2017 16:10      58.6      58.3       88     55.0      0.01     13.00      61.2     0.50      1017.0     2       217         3       232        9.37     374        4.9
   02/10/2017 16:00      58.9      58.6       88     55.3      0.02     12.99      60.9     0.50      1017.0     2       237         3       216        9.36     371        6.2
   02/10/2017 15:50      59.2      58.9       88     55.4      0.01     12.97      61.1     0.50      1017.0     2       284         3       267        9.35     360       13.3
   02/10/2017 15:40      59.3      58.8       87     55.3      0.00     12.96      61.0     0.50      1016.0     2       311         4       290        9.35     361       17.6
   02/10/2017 15:30      59.6      59.4       86     55.3      0.00     12.96      61.4     0.50      1017.0     3       350         4       342        9.34     349       27.6
   02/10/2017 15:20      59.8      59.4       85     55.1      0.01     12.96      61.2     0.50      1017.0     2       323         2        11        9.34     347       30.6
   02/10/2017 15:10      59.5      59.4       84     54.6      0.01     12.95      61.5     0.50      1017.0     1       163         2       177        9.33     325       36.4
   02/10/2017 15:00      60.0      59.6       83     54.7      0.02     12.94      60.8     0.50      1017.0     2       199         3       216        9.32     319       25.7
   02/10/2017 14:50      61.2      60.1       79     54.0      0.02     12.92      61.3     0.50      1017.0     3       192         5       166        9.32     311       22.5
   02/10/2017 14:40      62.1      61.5       73     53.0      0.01     12.90      61.3     0.50      1017.0     4       208         5       226        9.32     298       17.1
   02/10/2017 14:30      62.7      62.1       70     52.6      0.00     12.89      61.3     0.50      1016.0     4       220         5       191        9.32     289       35.3
   02/10/2017 14:20      62.8      62.4       70     52.7      0.00     12.89      61.3     0.50      1016.0     3       243         4       248        9.32     287       29.6
   02/10/2017 14:10      62.8      62.4       70     52.6      0.00     12.89      61.4     0.50      1016.0     4       257         6       242        9.32     287       26.6
   02/10/2017 14:00      62.6      62.0       74     53.8      0.00     12.89      60.8     0.50      1016.0     4       252         7       241        9.32     287       63.8
   02/10/2017 13:50      62.3      62.1       75     54.0      0.00     12.89      61.5     0.50      1016.0     6       245         8       249        9.32     288       91.7
   02/10/2017 13:40      62.4      62.3       72     53.3      0.00     12.89      61.3     0.50      1016.0     4       236         7       232        9.32     289       90.7
   02/10/2017 13:30      62.4      62.2       71     52.8      0.00     12.89      60.9     0.50      1016.0     4       241         6       235        9.32     290       95.3
   02/10/2017 13:20      62.6      62.3       71     53.0      0.00     12.89      61.4     0.50      1016.0     3       235         4       230        9.32     291       88.5
   02/10/2017 13:10      62.6      62.3       72     53.3      0.00     12.89      61.3     0.50      1016.0     2       243         3       224        9.32     292       99.0
   02/10/2017 13:00      62.5      62.3       72     53.4      0.00     12.89      61.0     0.50      1016.0     2       254         4       243        9.32     293       92.5
   02/10/2017 12:50      62.6      62.2       72     53.1      0.00     12.89      61.3     0.50      1016.0     2       271         3       252        9.32     294      119.4
   02/10/2017 12:40      62.6      62.1       74     54.0      0.00     12.89      61.1     0.50      1017.0     3       259         4       261        9.32     296      105.7
   02/10/2017 12:30      62.3      61.8       74     53.7      0.00     12.89      60.7     0.50      1017.0     3       294         5       281        9.32     309      115.0
   02/10/2017 12:20      62.1      61.8       73     53.4      0.00     12.89      61.2     0.50      1017.0     4       248         5       257        9.32     308       98.4
   02/10/2017 12:10      62.2      61.5       77     54.5      0.00     12.89      61.3     0.50      1017.0     1       206         2       210        9.32     309       77.6
   02/10/2017 12:00      62.1      61.3       77     54.5      0.00     12.89      60.9     0.50      1017.0     1       301         3       205        9.32     313      104.7
   02/10/2017 11:50      61.5      61.0       78     54.4      0.00     12.89      60.9     0.50      1017.0     2       247         3       255        9.32     319      103.1
   02/10/2017 11:40      61.0      60.8       79     54.3      0.00     12.89      61.0     0.50      1017.0     3       229         4       228        9.32     323      108.4
   02/10/2017 11:30      61.0      60.0       79     54.0      0.00     12.89      61.2     0.50      1018.0     3       221         5       231        9.32     326       98.6
   02/10/2017 11:20      60.4      59.9       79     53.6      0.00     12.89      61.3     0.50      1018.0     4       234         6       215        9.32     329       86.4
   02/10/2017 11:10      60.6      60.4       77     53.4      0.00     12.89      61.2     0.50      1018.0     4       247         7       267        9.32     331       68.9
   02/10/2017 11:00      60.8      60.5       77     53.2      0.00     12.89      61.4     0.50      1018.0     3       220         4       243        9.32     334       84.0
   02/10/2017 10:50      60.6      60.4       76     53.1      0.00     12.89      61.1     0.50      1018.0     3       259         5       228        9.32     337      100.4
   02/10/2017 10:40      60.5      60.0       77     53.0      0.00     12.89      60.9     0.50      1018.0     2       196         3       147        9.32     343       62.2
   02/10/2017 10:30      60.4      60.1       76     52.7      0.00     12.89      61.6     0.50      1018.0     2       211         4       209        9.32     346       37.2
   02/10/2017 10:20      60.4      60.0       77     52.8      0.00     12.89      61.2     0.50      1018.0     2       234         4       228        9.32     348       55.5
   02/10/2017 10:10      60.2      59.9       77     53.0      0.00     12.89      61.4     0.50      1018.0     1       151         2       158        9.32     353       50.0
   02/10/2017 10:00      60.2      59.9       77     52.9      0.00     12.89      61.5     0.50      1017.0     2        92         3       110        9.32     356       49.0
   02/10/2017 09:50      60.1      59.5       78     52.8      0.00     12.89      61.8     0.50      1017.0     1        94         2       128        9.32     359       64.4
   02/10/2017 09:40      59.6      59.1       79     53.0      0.00     12.89      61.0     0.50      1017.0     2       131         2       138        9.32     364       50.3
   02/10/2017 09:30      59.2      58.8       80     52.7      0.00     12.89      61.3     0.50      1018.0     3       209         4       163        9.32     368       54.9
   02/10/2017 09:20      58.9      58.8       80     52.9      0.00     12.89      60.9     0.50      1018.0     4       225         5       229        9.32     371       46.5
   02/10/2017 09:10      58.9      58.6       81     53.0      0.00     12.89      61.2     0.50      1018.0     4       217         5       203        9.32     372       85.4
   02/10/2017 09:00      58.7      58.1       83     53.2      0.00     12.89      61.5     0.50      1017.0     2       289         3       295        9.32     377       33.4
   02/10/2017 08:50      58.2      57.6       85     53.4      0.00     12.89      61.0     0.50      1017.0     1       213         2       191        9.32     380       32.1
   02/10/2017 08:40      57.7      57.5       85     53.2      0.00     12.89      61.0     0.50      1017.0     2       193         3       202        9.32     382       29.4
   02/10/2017 08:30      57.5      57.1       86     53.4      0.00     12.89      61.3     0.50      1017.0     1       205         2       191        9.32     385       19.6
   02/10/2017 08:20      57.1      56.7       87     53.2      0.00     12.89      61.2     0.50      1017.0     1       269         2       314        9.32     386       38.4
   02/10/2017 08:10      57.0      56.4       88     53.0      0.00     12.89      61.8     0.50      1017.0     1       212         2       286        9.32     388       31.6
   02/10/2017 08:00      56.4      55.9       88     52.8      0.00     12.89      61.6     0.50      1017.0     1       227         3       258        9.32     390       25.0
   02/10/2017 07:50      56.0      55.5       89     52.8      0.00     12.89      61.4     0.50      1017.0     1        90         2       104        9.32     392       23.6
   02/10/2017 07:40      55.7      55.2       90     52.6      0.00     12.89      61.4     0.50      1017.0     1       111         3        94        9.32     393       18.1
   02/10/2017 07:30      55.3      55.0       91     52.5      0.00     12.89      61.8     0.50      1017.0     3       194         5       232        9.32     394       -0.2
   02/10/2017 07:20      55.1      54.7       92     52.5      0.00     12.89      61.7     0.50      1017.0     3       255         5       264        9.32     394       -1.6
   02/10/2017 07:10      54.8      54.5       92     52.4      0.00     12.89      61.6     0.50      1017.0     2       257         3       263        9.32     394       -3.3
   02/10/2017 07:00      54.6      54.1       92     52.1      0.00     12.89      61.7     0.50      1016.0     2       242         4       249        9.32     393       -7.6
   02/10/2017 06:50      54.2      54.0       92     51.9      0.00     12.89      61.3     0.50      1016.0     1       188         2       186        9.32     392      -13.9
   02/10/2017 06:40      54.4      54.1       92     52.0      0.00     12.89      61.5     0.50      1016.0     1       255         2       287        9.32     391      -14.4
   02/10/2017 06:30      54.2      54.1       92     52.0      0.00     12.89      61.6     0.50      1016.0     2       245         3       232        9.32     390      -15.6
   02/10/2017 06:20      54.1      54.0       92     51.8      0.00     12.89      62.0     0.50      1015.0     1       189         2       157        9.32     389      -13.6
   02/10/2017 06:10      54.6      54.1       92     52.0      0.00     12.89      61.4     0.50      1015.0     1       123         2       141        9.32     389      -13.3
   02/10/2017 06:00      54.7      54.5       92     52.3      0.00     12.89      61.4     0.50      1015.0     1       334         2       285        9.32     387      -16.1
   02/10/2017 05:50      54.7      54.5       92     52.3      0.00     12.89      61.5     0.50      1015.0     2       313         3       291        9.32     386      -16.5
   02/10/2017 05:40      54.6      54.2       93     52.3      0.00     12.89      62.0     0.50      1015.0     3       292         3       307        9.32     385      -16.3
   02/10/2017 05:30      54.3      53.9       93     52.0      0.00     12.89      61.7     0.50      1014.0     3       109         5       106        9.32     384      -15.2
   02/10/2017 05:20      54.2      53.8       93     52.1      0.00     12.89      62.2     0.50      1015.0     2       162         4       195        9.32     384      -13.7
   02/10/2017 05:10      53.9      53.7       93     51.8      0.00     12.89      61.6     0.50      1015.0     3       172         5       155        9.32     383      -15.6
   02/10/2017 05:00      54.1      53.8       93     51.9      0.00     12.89      61.7     0.50      1015.0     2       157         3       163        9.32     384      -18.9
   02/10/2017 04:50      54.1      54.0       93     52.0      0.00     12.89      61.9     0.50      1015.0     1        38         3        73        9.32     398      -15.1
   02/10/2017 04:40      54.1      53.7       93     52.1      0.00     12.89      62.2     0.50      1015.0     2       275         3       267        9.32     391      -13.2
   02/10/2017 04:30      53.9      53.4       93     51.6      0.00     12.89      61.8     0.50      1015.0     1       175         1       201        9.32     396      -15.7
   02/10/2017 04:20      53.7      53.5       93     51.5      0.00     12.89      61.9     0.50      1015.0     1        99         2        73        9.32     396      -20.1
   02/10/2017 04:10      53.6      53.5       92     51.4      0.00     12.89      62.2     0.50      1016.0     1       166         2       146        9.32     396      -17.9
   02/10/2017 04:00      53.6      53.4       92     51.4      0.00     12.89      61.6     0.50      1016.0     1        85         1       119        9.32     397      -20.0
   02/10/2017 03:50      53.7      53.5       92     51.4      0.00     12.89      62.0     0.50      1016.0     1       139         2       184        9.32     395      -21.7
   02/10/2017 03:40      53.6      53.4       92     51.2      0.00     12.89      62.0     0.50      1016.0     1       142         2       142        9.32     394      -22.0
   02/10/2017 03:30      53.7      53.5       91     51.2      0.00     12.89      62.2     0.50      1016.0     1       145         2       131        9.32     392      -24.7
   02/10/2017 03:20      53.9      53.7       91     51.1      0.00     12.89      61.7     0.50      1016.0     1       134         1       138        9.32     391      -28.7
   02/10/2017 03:10      54.3      53.7       90     51.1      0.00     12.89      62.1     0.50      1016.0     1        64         1        71        9.32     391      -31.4
   02/10/2017 03:00      54.6      54.3       90     51.6      0.00     12.89      62.4     0.50      1016.0     1       227         1       276        9.32     390      -31.9
   02/10/2017 02:50      54.8      54.5       90     51.7      0.00     12.89      62.1     0.50      1016.0     1       309         2       261        9.32     387      -33.2
   02/10/2017 02:40      54.8      54.5       90     51.7      0.00     12.89      62.6     0.50      1016.0     1       319         1       298        9.32     386      -35.2
   02/10/2017 02:30      54.8      54.5       89     51.5      0.00     12.89      62.3     0.50      1016.0     1       212         2       256        9.32     384      -38.5
   02/10/2017 02:20      55.5      55.1       88     51.8      0.00     12.89      62.1     0.50      1016.0     1       316         2       305        9.32     382      -40.6
   02/10/2017 02:10      55.7      55.5       88     52.1      0.00     12.89      62.3     0.50      1016.0     1       309         3       310        9.32     381      -39.3
   02/10/2017 02:00      55.7      55.5       88     52.1      0.00     12.89      61.8     0.50      1016.0     3       322         4       317        9.32     381      -38.6
   02/10/2017 01:50      55.8      55.5       88     52.1      0.00     12.89      62.7     0.50      1016.0     2       314         3       317        9.32     380      -46.7
   02/10/2017 01:40      56.0      55.8       87     52.2      0.00     12.89      62.5     0.50      1016.0     2       317         3       323        9.32     383      -45.5
   02/10/2017 01:30      56.0      55.9       87     52.3      0.00     12.89      62.1     0.50      1017.0     3       300         4       298        9.32     378      -50.7
   02/10/2017 01:20      56.0      55.8       88     52.3      0.00     12.89      62.1     0.50      1016.0     2       307         6       305        9.32     376      -55.1
   02/10/2017 01:10      56.1      55.9       88     52.3      0.00     12.89      62.0     0.50      1016.0     1        97         3       131        9.32     373      -56.3
   02/10/2017 01:00      56.1      55.9       88     52.5      0.00     12.89      62.5     0.50      1017.0     3       224         5       212        9.32     373      -62.3
   02/10/2017 00:50      56.0      55.9       88     52.5      0.00     12.89      62.3     0.50      1017.0     2       199         4       206        9.32     371      -62.9
   02/10/2017 00:40      56.1      55.9       88     52.6      0.00     12.89      62.6     0.50      1016.0     5       182         8       183        9.32     370      -61.5
   02/10/2017 00:30      56.4      56.0       88     52.7      0.00     12.89      62.5     0.50      1017.0     6       206         8       212        9.32     366      -58.0
   02/10/2017 00:20      56.4      56.2       88     52.9      0.00     12.89      62.3     0.50      1017.0     6       212         8       209        9.32     364      -51.6
   02/10/2017 00:10      56.5      56.1       89     53.0      0.00     12.89      62.3     0.50      1017.0     5       204         8       205        9.32     376      -41.1
   02/10/2017 00:00      56.3      56.1       90     53.2      0.00     12.89      62.1     0.50      1017.0     5       227         9       233        9.32     363      -41.1
   02/09/2017 23:50      56.1      56.0       90     53.3      0.00     12.89      62.4     0.50      1017.0     6       227        11       232        9.33     362      -46.0
   02/09/2017 23:40      56.1      56.0       91     53.3      0.00     12.89      62.2     0.50      1017.0     6       229         9       229        9.33     360      -48.6
   02/09/2017 23:30      56.3      56.0       90     53.3      0.00     12.89      62.5     0.50      1017.0     4       223         7       187        9.33     359      -53.3
   02/09/2017 23:20      56.5      56.4       89     53.4      0.00     12.89      62.4     0.50      1017.0     5       241         8       239        9.33     355      -49.2
   02/09/2017 23:10      57.1      56.9       88     53.4      0.00     12.89      62.0     0.50      1017.0     7       238         7       218        9.33     353      -44.7
   02/09/2017 23:00      57.6      57.2       86     53.3      0.00     12.89      62.5     0.50      1017.0     4       249         7       231        9.33     351      -41.9
   02/09/2017 22:50      57.9      57.7       85     53.2      0.00     12.89      62.3     0.50      1016.0     2       267         3       243        9.33     348      -56.4
   02/09/2017 22:40      58.0      57.9       84     53.2      0.00     12.89      62.3     0.50      1016.0     2       250         4       232        9.33     344      -68.8
   02/09/2017 22:30      58.3      58.0       84     53.2      0.00     12.89      62.3     0.50      1016.0     3       250         4       256        9.33     340      -71.5
   02/09/2017 22:20      58.2      58.1       83     52.9      0.00     12.89      61.8     0.50      1016.0     2       256         4       253        9.33     337      -72.7
   02/09/2017 22:10      58.5      58.1       82     52.9      0.00     12.89      62.4     0.50      1016.0     1       213         2       197        9.33     335      -73.7
   02/09/2017 22:00      58.6      58.2       82     53.1      0.00     12.89      62.4     0.50      1016.0     3       201         4       212        9.33     331      -74.8
   02/09/2017 21:50      58.6      58.4       83     53.3      0.00     12.89      62.4     0.50      1016.0     4       208         6       199        9.33     327      -74.0
   02/09/2017 21:40      59.1      58.6       82     53.4      0.00     12.89      62.6     0.50      1016.0     4       230         7       223        9.33     324      -69.9
   02/09/2017 21:30      59.3      58.9       81     53.4      0.00     12.89      62.5     0.50      1016.0     4       227         6       227        9.33     320      -63.8
   02/09/2017 21:20      59.4      59.3       80     53.4      0.00     12.89      62.8     0.50      1016.0     3       206         6       212        9.33     318      -65.3
   02/09/2017 21:10      59.5      59.2       80     53.3      0.00     12.89      62.7     0.50      1016.0     5       210         8       219        9.33     314      -66.4
   02/09/2017 21:00      59.5      59.3       80     53.3      0.00     12.89      62.6     0.50      1016.0     5       227         8       194        9.34     312      -64.0
   02/09/2017 20:50      59.5      59.1       81     53.4      0.00     12.89      62.3     0.50      1016.0     5       231         8       228        9.34     309      -66.8
   02/09/2017 20:40      59.5      59.2       81     53.5      0.00     12.89      62.5     0.50      1016.0     4       232         6       219        9.34     306      -70.1
   02/09/2017 20:30      59.5      59.4       81     53.6      0.00     12.89      62.5     0.50      1016.0     5       248         7       238        9.34     303      -71.3
   02/09/2017 20:20      59.9      59.5       81     53.9      0.00     12.89      62.8     0.50      1016.0     4       253         6       251        9.34     300      -72.2
   02/09/2017 20:10      60.1      59.8       81     54.1      0.00     12.89      62.2     0.50      1016.0     3       258         4       247        9.34     297      -72.3
   02/09/2017 20:00      60.4      60.2       81     54.4      0.00     12.89      62.4     0.50      1015.0     3       237         5       227        9.34     294      -72.0
   02/09/2017 19:50      61.7      60.4       79     54.5      0.00     12.89      62.2     0.50      1015.0     5       246         7       245        9.34     292      -71.5
   02/09/2017 19:40      62.4      62.1       78     55.2      0.00     12.89      62.3     0.50      1015.0     3       268         4       286        9.34     289      -71.1
   02/09/2017 19:30      62.9      62.5       78     55.7      0.00     12.89      62.1     0.50      1015.0     1       272         3       313        9.34     287      -70.7
   02/09/2017 19:20      63.5      63.2       77     56.0      0.00     12.89      62.0     0.50      1015.0     1       213         2       210        9.35     284      -72.2
   02/09/2017 19:10      64.3      63.5       76     56.0      0.00     12.89      62.1     0.50      1015.0     3       232         6       240        9.35     283      -71.4
   02/09/2017 19:00      65.2      64.4       73     55.8      0.00     12.89      62.3     0.50      1015.0     3       226         4       243        9.35     286      -72.0
   02/09/2017 18:50      66.4      65.5       68     55.2      0.00     12.89      62.0     0.50      1015.0     4       222         9       236        9.35     280      -70.7
   02/09/2017 18:40      66.9      66.4       65     54.8      0.00     12.89      61.9     0.50      1015.0     4       242         6       213        9.35     279      -61.7
   02/09/2017 18:30      67.2      67.0       65     54.8      0.00     12.89      62.3     0.50      1015.0     3       226         5       218        9.35     279      -59.9
   02/09/2017 18:20      67.4      67.2       65     55.2      0.00     12.89      62.5     0.50      1015.0     3       214         4       200        9.35     278      -55.6
   02/09/2017 18:10      68.3      67.5       64     55.1      0.00     12.89      62.2     0.50      1015.0     4       215         5       254        9.36     277      -56.6
   02/09/2017 18:00      68.7      68.3       62     54.8      0.00     12.89      61.8     0.50      1015.0     5       247         6       259        9.36     277      -55.7
   02/09/2017 17:50      69.3      68.6       61     55.0      0.00     12.89      61.8     0.50      1015.0     2       234         4       238        9.36     277      -53.9
   02/09/2017 17:40      70.3      69.3       59     54.8      0.00     12.89      61.9     0.50      1014.0     2       204         4       204        9.36     277      -56.3
   02/09/2017 17:30      70.8      70.4       57     54.4      0.00     12.89      61.9     0.50      1014.0     4       240         6       247        9.36     277      -61.3
   02/09/2017 17:20      71.3      70.8       60     56.3      0.00     12.89      62.1     0.50      1014.0     3       246         5       246        9.36     276      -58.5
   02/09/2017 17:10      72.1      71.3       61     57.7      0.00     12.89      61.5     0.50      1014.0     2       268         4       260        9.37     276      -51.9
   02/09/2017 17:00      72.8      72.2       59     57.2      0.00     12.89      61.5     0.50      1014.0     2       254         4       241        9.37     276      -48.0
   02/09/2017 16:50      73.8      72.9       57     57.1      0.00     12.89      61.6     0.50      1014.0     2       242         4       221        9.37     276      -53.7
   02/09/2017 16:40      75.2      73.9       54     56.8      0.00     12.89      61.4     0.50      1014.0     3       247         5       235        9.37     275      -40.0
   02/09/2017 16:30      76.1      75.4       48     55.0      0.00     12.89      61.3     0.50      1014.0     3       251         5       224        9.37     275       -2.9
   02/09/2017 16:20      76.8      76.2       48     55.4      0.00     12.89      61.5     0.50      1014.0     3       256         4       264        9.37     275        4.2
   02/09/2017 16:10      78.3      76.9       40     51.3      0.00     12.89      61.2     0.50      1014.0     4       251         5       230        9.38     275       31.0
   02/09/2017 16:00      78.3      77.8       39     50.9      0.00     12.89      60.9     0.50      1014.0     3       263         5       259        9.38     275       92.6
   02/09/2017 15:50      78.9      78.0       37     50.0      0.00     12.89      61.3     0.50      1014.0     3       285         5       299        9.38     275       96.3
   02/09/2017 15:40      79.1      78.5       37     49.7      0.00     12.89      60.8     0.50      1014.0     3       258         4       248        9.38     275      116.1
   02/09/2017 15:30      78.6      78.0       48     57.1      0.00     12.89      60.8     0.50      1014.0     4       309         6       312        9.38     275      186.5
   02/09/2017 15:20      78.4      77.0       51     58.1      0.00     12.89      60.9     0.50      1014.0     4       296         6       308        9.38     275      252.7
   02/09/2017 15:10      77.4      76.7       52     58.1      0.00     12.89      60.5     0.50      1014.0     5       304         9       308        9.38     275      168.1
   02/09/2017 15:00      78.3      77.4       50     57.8      0.00     12.89      60.5     0.50      1014.0     4       324         6       307        9.38     275      104.9
   02/09/2017 14:50      78.6      78.2       40     51.9      0.00     12.89      60.9     0.50      1014.0     3       278         4       315        9.38     275       96.5
   02/09/2017 14:40      79.3      78.6       36     49.9      0.00     12.89      60.4     0.50      1014.0     3       226         4       267        9.38     274       92.3
   02/09/2017 14:30      80.4      79.5       33     48.7      0.00     12.89      60.8     0.50      1015.0     3       217         5       233        9.38     274      235.0
   02/09/2017 14:20      80.6      79.2       33     48.3      0.00     12.89      60.9     0.50      1015.0     3       263         5       237        9.38     275      339.8
   02/09/2017 14:10      79.5      79.0       33     47.3      0.00     12.89      60.4     0.50      1015.0     4       245         6       251        9.38     275      251.3
   02/09/2017 14:00      80.2      79.3       33     47.8      0.00     12.89      60.4     0.50      1015.0     4       232         5       239        9.39     275      288.4
   02/09/2017 13:50      80.6      79.5       38     52.4      0.00     12.89      60.3     0.50      1015.0     2       271         4       198        9.39     276      327.1
   02/09/2017 13:40      80.5      79.4       43     55.7      0.00     12.89      60.4     0.50      1015.0     2       265         4       266        9.39     276      305.6
   02/09/2017 13:30      80.8      79.4       45     56.8      0.00     12.89      60.1     0.50      1015.0     2       178         3       186        9.39     277      349.2
   02/09/2017 13:20      80.3      79.3       45     56.6      0.00     12.89      60.1     0.50      1015.0     2        43         3        72        9.39     277      376.0
   02/09/2017 13:10      79.2      78.5       45     56.0      0.00     12.89      60.1     0.50      1015.0     3        48         5       356        9.39     277      427.8
   02/09/2017 13:00      79.0      78.0       46     56.2      0.00     12.89      60.0     0.50      1016.0     3       346         4       359        9.39     278      349.3
   02/09/2017 12:50      78.6      78.3       46     55.8      0.00     12.89      60.3     0.50      1016.0     2        62         3        69        9.39     278      275.1
   02/09/2017 12:40      78.5      76.8       47     55.9      0.00     12.89      59.9     0.50      1016.0     2       321         2       315        9.39     278      406.5
   02/09/2017 12:30      77.3      75.8       48     55.6      0.00     12.89      60.2     0.50      1016.0     2       228         6       255        9.39     278      428.1
   02/09/2017 12:20      76.7      75.9       48     55.1      0.00     12.89      60.4     0.50      1016.0     3       214         4       169        9.39     279      413.4
   02/09/2017 12:10      76.3      75.7       48     55.1      0.00     12.89      59.9     0.50      1017.0     2       256         3       246        9.39     279      422.2
   02/09/2017 12:00      76.6      75.0       50     55.7      0.00     12.89      60.1     0.50      1017.0     2       312         5       257        9.39     281      440.0
   02/09/2017 11:50      75.7      74.8       50     55.5      0.00     12.89      60.2     0.50      1017.0     2       304         3         1        9.39     281      363.5
   02/09/2017 11:40      76.3      74.9       50     55.7      0.00     12.89      60.2     0.50      1017.0     1       106         3       137        9.39     281      286.8
   02/09/2017 11:30      76.1      73.9       51     55.9      0.00     12.89      60.3     0.50      1017.0     2        28         3        62        9.39     291      402.9
   02/09/2017 11:20      74.0      73.6       51     54.4      0.00     12.89      59.9     0.50      1017.0     3        27         4         6        9.39     300      434.8
   02/09/2017 11:10      73.7      73.0       49     53.1      0.00     12.89      60.0     0.50      1017.0     2        22         3        14        9.39     307      323.3
   02/09/2017 11:00      73.4      72.8       50     53.3      0.00     12.89      60.0     0.50      1017.0     3        21         5        26        9.39     306      359.3
   02/09/2017 10:50      73.5      72.6       47     51.9      0.00     12.89      59.7     0.50      1018.0     2        76         3        55        9.39     306      393.6
   02/09/2017 10:40      72.9      71.8       48     51.7      0.00     12.89      60.1     0.50      1018.0     3        74         3        76        9.39     318      376.1
   02/09/2017 10:30      72.0      71.2       48     51.3      0.00     12.89      60.3     0.50      1018.0     3        89         5        89        9.39     325      369.9
   02/09/2017 10:20      71.0      69.7       52     52.0      0.00     12.89      60.3     0.50      1018.0     3        54         4        74        9.39     333      355.6
   02/09/2017 10:10      70.2      69.7       61     55.9      0.00     12.89      59.8     0.50      1018.0     2        73         4       112        9.39     342      340.7
   02/09/2017 10:00      70.2      68.7       66     57.6      0.00     12.89      60.1     0.50      1018.0     2        66         4        66        9.39     352      317.5
   02/09/2017 09:50      68.8      67.7       72     58.7      0.00     12.89      60.2     0.50      1018.0     2        33         3        80        9.39     369      311.0
   02/09/2017 09:40      67.9      66.0       75     59.0      0.00     12.89      60.0     0.50      1018.0     2        59         3        62        9.39     375      295.7
   02/09/2017 09:30      66.0      64.7       81     59.0      0.00     12.89      60.2     0.50      1018.0     2        46         2        79        9.39     395      310.2
   02/09/2017 09:20      64.8      63.3       85     59.3      0.00     12.89      60.5     0.50      1018.0     2        37         2        79        9.39     403      320.2
   02/09/2017 09:10      63.4      61.6       90     59.5      0.00     12.89      60.1     0.50      1018.0     1        53         2        76        9.39     417      319.0
   02/09/2017 09:00      61.4      60.2       92     58.4      0.00     12.89      59.9     0.50      1018.0     1        80         2        71        9.39     427      233.4
   02/09/2017 08:50      60.2      59.7       94     58.1      0.00     12.89      60.0     0.50      1018.0     1        85         1       110        9.39     434      139.8
   02/09/2017 08:40      59.5      58.4       94     57.1      0.00     12.89      60.2     0.50      1018.0     1       324         2       317        9.39     437      154.4
   02/09/2017 08:30      58.3      57.8       95     56.5      0.00     12.89      60.7     0.50      1018.0     2       304         2       301        9.39     452      117.2
   02/09/2017 08:20      57.9      57.3       95     56.1      0.00     12.89      60.3     0.50      1018.0     1       334         2       314        9.39     450       92.8
   02/09/2017 08:10      57.3      57.0       95     55.6      0.00     12.89      60.8     0.50      1018.0     1        78         1        75        9.39     450       76.7
   02/09/2017 08:00      57.1      56.5       95     55.5      0.00     12.89      60.3     0.50      1018.0     2       277         3       271        9.39     453       62.9
   02/09/2017 07:50      56.5      55.2       95     54.6      0.00     12.89      60.4     0.50      1018.0     1       256         3       245        9.39     452       45.9
   02/09/2017 07:40      55.5      55.3       95     54.1      0.00     12.89      60.2     0.50      1018.0     1       277         1       273        9.39     453       39.2
   02/09/2017 07:30      55.4      54.5       96     53.6      0.00     12.89      59.9     0.50      1018.0     1       295         2       263        9.39     451       35.7
   02/09/2017 07:20      54.5      53.5       96     52.7      0.00     12.89      60.4     0.50      1018.0     1       318         2       318        9.39     458       22.3
   02/09/2017 07:10      53.7      53.5       95     52.3      0.00     12.89      60.5     0.50      1018.0     1       122         1       121        9.39     459        9.0
   02/09/2017 07:00      53.7      53.3       95     52.1      0.00     12.89      60.2     0.50      1018.0     1       221         1       254        9.39     461        1.9
   02/09/2017 06:50      53.5      52.7       95     51.8      0.00     12.89      60.3     0.50      1018.0     1       197         1       174        9.39     461       -1.4
   02/09/2017 06:40      53.3      52.8       95     51.6      0.00     12.89      60.5     0.50      1018.0     1       109         1       155        9.39     460       -3.5
   02/09/2017 06:30      53.4      53.0       95     51.8      0.00     12.89      59.9     0.50      1018.0     1       214         1       196        9.39     460       -6.6
   02/09/2017 06:20      53.3      53.0       95     51.8      0.00     12.89      60.1     0.50      1018.0     1       235         1       255        9.39     458       -7.8
   02/09/2017 06:10      53.1      52.6       95     51.5      0.00     12.89      60.1     0.50      1018.0     0       182         1       148        9.40     458       -8.6
   02/09/2017 06:00      52.9      52.6       95     51.4      0.00     12.89      60.4     0.50      1018.0     1        93         2       127        9.40     457       -8.9
   02/09/2017 05:50      53.1      52.6       95     51.5      0.00     12.89      60.7     0.50      1018.0     1       141         2       132        9.40     457      -10.6
   02/09/2017 05:40      53.2      52.6       95     51.5      0.00     12.89      60.6     0.50      1018.0     1       178         1       198        9.40     456      -10.7
   02/09/2017 05:30      53.7      53.5       95     52.2      0.00     12.89      60.7     0.50      1018.0     1       197         1       183        9.40     455      -11.6
   02/09/2017 05:20      53.6      53.2       95     52.0      0.00     12.89      60.6     0.50      1018.0     0       109         1       162        9.40     454      -11.2
   02/09/2017 05:10      53.7      53.3       95     52.1      0.00     12.89      60.4     0.50      1018.0     1       125         2       124        9.40     452      -12.3
   02/09/2017 05:00      55.1      54.0       95     53.0      0.00     12.89      60.6     0.50      1018.0     1        24         1       134        9.40     451      -12.8
   02/09/2017 04:50      55.2      54.7       95     53.7      0.00     12.89      60.4     0.50      1018.0     2       259         3       267        9.40     449      -11.2
   02/09/2017 04:40      54.8      53.9       96     53.1      0.00     12.89      60.3     0.50      1018.0     2       335         2       355        9.40     451      -10.2
   02/09/2017 04:30      54.0      53.5       95     52.4      0.00     12.89      60.7     0.50      1018.0     1       251         2       321        9.40     449      -11.3
   02/09/2017 04:20      54.1      53.8       95     52.5      0.00     12.89      60.4     0.50      1018.0     1       129         2       126        9.40     448      -11.8
   02/09/2017 04:10      54.1      53.8       95     52.6      0.00     12.89      60.7     0.50      1018.0     1       209         1       210        9.40     446      -10.4
   02/09/2017 04:00      54.5      54.1       95     52.8      0.00     12.89      60.4     0.50      1018.0     1       239         2       258        9.40     445      -10.4
   02/09/2017 03:50      54.3      53.5       95     52.8      0.00     12.89      60.7     0.51      1018.0     1       288         2       264        9.40     444      -14.3
   02/09/2017 03:40      53.7      53.4       95     52.1      0.00     12.89      60.6     0.50      1018.0     2       165         2       139        9.40     445      -12.4
   02/09/2017 03:30      54.0      53.8       95     52.5      0.00     12.89      60.3     0.50      1018.0     1       176         2       124        9.40     443      -12.0
   02/09/2017 03:20      54.2      53.9       95     52.7      0.00     12.89      60.9     0.50      1018.0     1       191         1       193        9.40     441      -10.9
   02/09/2017 03:10      54.1      53.4       95     52.3      0.00     12.89      60.6     0.50      1018.0     1       198         2       158        9.40     439       -8.3
   02/09/2017 03:00      53.9      53.6       95     52.1      0.00     12.89      60.9     0.51      1018.0     2       151         2       147        9.40     438      -11.6
   02/09/2017 02:50      54.2      53.8       95     52.5      0.00     12.89      61.1     0.51      1018.0     1       152         2       142        9.40     437      -13.7
   02/09/2017 02:40      54.1      53.8       95     52.5      0.00     12.89      60.9     0.51      1018.0     1       157         1       139        9.40     435      -14.3
   02/09/2017 02:30      54.6      54.2       95     53.0      0.00     12.89      61.0     0.51      1018.0     1       129         2       142        9.40     432      -13.6
   02/09/2017 02:20      54.7      54.5       95     53.1      0.00     12.89      61.0     0.51      1019.0     0       215         1       209        9.40     430      -15.1
   02/09/2017 02:10      54.9      54.6       95     53.2      0.00     12.89      61.0     0.51      1019.0     1       137         2       126        9.41     428      -15.3
   02/09/2017 02:00      55.5      54.8       94     53.6      0.00     12.89      60.5     0.51      1019.0     1       200         1       211        9.41     426      -15.4
   02/09/2017 01:50      55.5      55.3       94     53.8      0.00     12.89      61.2     0.51      1019.0     1       158         1       132        9.41     423      -16.2
   02/09/2017 01:40      56.0      55.4       94     54.1      0.00     12.89      61.6     0.51      1019.0     1       135         1       218        9.41     420      -16.3
   02/09/2017 01:30      56.4      56.0       94     54.7      0.00     12.89      60.6     0.51      1019.0     1       224         1       230        9.41     417      -15.0
   02/09/2017 01:20      56.5      56.3       94     54.8      0.00     12.89      60.5     0.51      1019.0     1       204         1       217        9.41     414      -13.3
   02/09/2017 01:10      56.4      56.1       94     54.6      0.00     12.89      61.3     0.51      1019.0     1       135         1       127        9.41     412      -11.3
   02/09/2017 01:00      56.3      55.9       94     54.4      0.00     12.89      61.2     0.51      1019.0     0        48         1        47        9.41     411      -12.2
   02/09/2017 00:50      56.7      56.1       94     54.8      0.00     12.89      61.2     0.51      1019.0     1        65         1       116        9.41     409      -14.4
   02/09/2017 00:40      57.1      56.8       94     55.2      0.00     12.89      61.0     0.51      1019.0     1        35         1       351        9.41     406      -16.8
   02/09/2017 00:30      57.7      57.1       94     55.7      0.00     12.89      61.1     0.51      1019.0     1       182         1       234        9.41     404      -17.8
   02/09/2017 00:20      58.1      57.6       94     56.1      0.00     12.89      61.1     0.51      1019.0     1       187         1       284        9.41     401      -14.2
   02/09/2017 00:10      58.1      57.9       94     56.2      0.00     12.89      61.1     0.51      1019.0     2       232         4       248        9.41     399      -11.4
   02/09/2017 00:00      58.1      57.9       94     56.1      0.00     12.89      60.9     0.51      1019.0     1       266         3       247        9.41     398      -11.2
   02/08/2017 23:50      57.8      57.5       93     55.6      0.00     12.89      60.8     0.51      1019.0     2       255         3       256        9.41     396      -17.6
   02/08/2017 23:40      58.5      58.1       93     56.4      0.00     12.89      61.0     0.51      1019.0     2       249         2       228        9.41     393      -18.3
   02/08/2017 23:30      58.6      58.5       93     56.5      0.00     12.89      61.5     0.51      1019.0     2       239         3       232        9.41     389      -17.9
   02/08/2017 23:20      58.6      58.3       93     56.3      0.00     12.89      61.0     0.51      1020.0     1       241         3       259        9.41     386      -21.1
   02/08/2017 23:10      58.8      58.3       92     56.3      0.00     12.89      61.4     0.51      1020.0     1       298         1       291        9.41     383      -22.5
   02/08/2017 23:00      59.4      58.8       92     56.8      0.00     12.89      61.4     0.51      1020.0     1       209         2       211        9.41     378      -22.3
   02/08/2017 22:50      59.5      59.4       92     57.1      0.00     12.89      61.0     0.51      1020.0     1       230         2       213        9.41     375      -22.1
   02/08/2017 22:40      59.7      59.5       92     57.1      0.00     12.89      61.3     0.51      1020.0     1       209         3       210        9.41     371      -22.1
   02/08/2017 22:30      60.0      59.7       91     57.3      0.00     12.89      61.4     0.51      1020.0     2       251         4       229        9.41     368      -20.8
   02/08/2017 22:20      60.2      59.9       91     57.5      0.00     12.89      61.2     0.51      1020.0     2       262         5       235        9.41     365      -21.2
   02/08/2017 22:10      60.3      59.9       92     57.7      0.00     12.89      60.7     0.51      1019.0     1       209         2       228        9.41     362      -23.3
   02/08/2017 22:00      60.3      59.3       92     57.6      0.00     12.89      60.7     0.51      1020.0     3       247         4       236        9.41     359      -25.2
   02/08/2017 21:50      59.6      59.3       92     57.0      0.00     12.89      61.3     0.51      1019.0     1       210         2       237        9.41     355      -28.6
   02/08/2017 21:40      60.0      59.7       92     57.4      0.00     12.89      61.4     0.51      1019.0     1       185         2       212        9.41     351      -32.3
   02/08/2017 21:30      60.3      59.9       91     57.7      0.00     12.89      61.3     0.51      1019.0     1       209         2       212        9.41     346      -36.7
   02/08/2017 21:20      60.3      60.0       91     57.4      0.00     12.89      60.8     0.51      1019.0     1       207         2       233        9.41     341      -43.0
   02/08/2017 21:10      60.5      60.1       90     57.5      0.00     12.89      61.1     0.51      1019.0     1       206         2       247        9.41     336      -44.1
   02/08/2017 21:00      61.0      60.5       90     57.8      0.00     12.89      61.1     0.51      1019.0     1       213         2       221        9.41     333      -48.2
   02/08/2017 20:50      61.7      61.2       88     57.9      0.00     12.89      61.3     0.51      1019.0     1       194         1       198        9.41     329      -54.7
   02/08/2017 20:40      62.4      61.8       87     58.2      0.00     12.89      61.4     0.51      1019.0     1       235         2       237        9.41     324      -56.0
   02/08/2017 20:30      63.0      62.6       86     58.7      0.00     12.89      61.1     0.51      1019.0     2       280         2       291        9.41     320      -53.6
   02/08/2017 20:20      63.2      62.9       86     58.7      0.00     12.89      61.1     0.51      1019.0     2       259         2       257        9.41     317      -50.7
   02/08/2017 20:10      63.5      63.1       85     58.6      0.00     12.89      61.1     0.51      1019.0     2       243         3       252        9.41     315      -48.1
   02/08/2017 20:00      64.0      63.5       84     58.7      0.00     12.89      60.6     0.51      1019.0     3       243         4       237        9.41     312      -46.7
   02/08/2017 19:50      64.2      64.0       83     58.8      0.00     12.89      61.0     0.51      1019.0     2       249         3       260        9.41     310      -48.3
   02/08/2017 19:40      64.4      64.2       82     58.9      0.00     12.89      60.9     0.51      1019.0     3       241         4       241        9.41     308      -50.3
   02/08/2017 19:30      64.9      64.4       81     58.9      0.00     12.89      61.3     0.51      1019.0     3       238         4       221        9.41     306      -51.6
   02/08/2017 19:20      65.0      64.7       81     58.8      0.00     12.89      60.9     0.51      1019.0     4       239         6       242        9.41     304      -52.8
   02/08/2017 19:10      65.4      65.1       80     58.8      0.00     12.89      60.6     0.51      1018.0     3       236         5       228        9.41     302      -54.1
   02/08/2017 19:00      65.8      65.2       79     58.7      0.00     12.89      60.5     0.51      1018.0     2       231         3       246        9.41     300      -54.7
   02/08/2017 18:50      66.1      65.7       77     58.6      0.00     12.89      60.7     0.51      1018.0     3       228         5       234        9.41     298      -53.6
   02/08/2017 18:40      66.3      66.1       76     58.5      0.00     12.89      60.9     0.51      1018.0     4       240         6       229        9.41     297      -55.4
   02/08/2017 18:30      66.4      66.1       76     58.5      0.00     12.89      60.4     0.51      1018.0     2       220         3       235        9.41     295      -56.7
   02/08/2017 18:20      66.9      66.4       75     58.5      0.00     12.89      60.7     0.51      1018.0     2       216         3       191        9.41     292      -58.3
   02/08/2017 18:10      67.2      66.8       74     58.5      0.00     12.89      60.5     0.51      1017.0     3       213         3       218        9.41     290      -60.0
   02/08/2017 18:00      67.8      67.3       73     58.6      0.00     12.89      61.1     0.51      1017.0     3       220         5       226        9.41     288      -59.5
   02/08/2017 17:50      68.1      67.8       72     58.6      0.00     12.89      60.7     0.51      1017.0     4       246         5       245        9.41     286      -59.2
   02/08/2017 17:40      68.5      68.0       72     58.8      0.00     12.89      60.5     0.51      1017.0     3       219         5       237        9.41     285      -58.9
   02/08/2017 17:30      69.0      68.6       71     58.9      0.00     12.89      60.6     0.51      1017.0     2       227         4       247        9.41     283      -56.7
   02/08/2017 17:20      69.9      69.3       69     59.1      0.00     12.89      60.3     0.51      1017.0     2       226         4       240        9.41     282      -48.0
   02/08/2017 17:10      70.1      69.8       68     59.0      0.00     12.89      60.2     0.51      1017.0     3       238         5       242        9.41     282      -28.3
   02/08/2017 17:00      70.4      70.2       68     59.3      0.00     12.89      59.5     0.51      1017.0     3       227         5       245        9.41     282      -11.2
   02/08/2017 16:50      70.4      70.2       68     59.2      0.00     12.89      60.4     0.51      1017.0     3       224         4       216        9.41     282       -9.6
   02/08/2017 16:40      70.4      70.2       68     59.4      0.00     12.89      60.0     0.51      1017.0     3       212         4       201        9.41     281       -2.9
   02/08/2017 16:30      71.1      70.5       67     59.2      0.00     12.89      60.4     0.51      1017.0     4       208         6       244        9.41     281        9.2
   02/08/2017 16:20      71.5      71.0       66     59.5      0.00     12.89      60.3     0.50      1017.0     4       244         5       251        9.41     281       17.8
   02/08/2017 16:10      72.3      71.3       65     59.3      0.00     12.89      60.0     0.50      1018.0     4       239         6       224        9.41     281       50.6
   02/08/2017 16:00      72.4      72.2       64     59.5      0.00     12.89      60.1     0.50      1018.0     4       239         5       222        9.41     281      151.6
   02/08/2017 15:50      72.6      72.3       61     58.1      0.00     12.89      59.7     0.50      1018.0     3       242         4       262        9.41     281       90.2
   02/08/2017 15:40      72.7      72.5       59     57.4      0.00     12.89      59.6     0.50      1018.0     3       238         6       251        9.41     281       62.3
   02/08/2017 15:30      72.6      72.2       57     56.5      0.00     12.89      59.8     0.50      1017.0     2       223         4       217        9.41     281       73.7
   02/08/2017 15:20      72.9      72.4       58     57.0      0.00     12.89      59.5     0.50      1017.0     2       212         3       196        9.41     281      102.4
   02/08/2017 15:10      74.4      73.3       58     57.8      0.00     12.89      59.7     0.50      1017.0     2       234         4       233        9.41     281       97.0
   02/08/2017 15:00      75.0      73.8       56     57.7      0.00     12.89      59.6     0.50      1018.0     2       270         4       236        9.41     282      167.5
   02/08/2017 14:50      74.5      72.6       58     58.4      0.00     12.89      59.5     0.50      1018.0     2       256         4       284        9.41     282      230.9
   02/08/2017 14:40      72.9      72.3       59     57.7      0.00     12.89      59.5     0.50      1018.0     3       222         4       244        9.41     282      177.7
   02/08/2017 14:30      73.1      72.3       60     58.0      0.00     12.89      59.9     0.50      1018.0     4       239         6       222        9.41     282      245.8
   02/08/2017 14:20      73.4      72.9       61     58.8      0.00     12.89      59.6     0.50      1018.0     3       254         5       262        9.41     283      288.1
   02/08/2017 14:10      73.7      73.0       60     58.7      0.00     12.89      59.2     0.50      1018.0     2       291         4       332        9.41     283      295.3
   02/08/2017 14:00      72.9      72.2       62     58.7      0.00     12.89      59.0     0.50      1018.0     2       291         5       346        9.41     283      276.2
   02/08/2017 13:50      72.7      72.1       63     59.0      0.00     12.89      60.0     0.50      1019.0     2       206         4       218        9.41     284      334.6
   02/08/2017 13:40      72.1      70.3       64     58.4      0.00     12.89      59.3     0.50      1019.0     1       243         2       286        9.41     286      337.6
   02/08/2017 13:30      70.5      69.7       66     58.0      0.00     12.89      59.1     0.50      1019.0     3       231         4       236        9.41     286      209.4
   02/08/2017 13:20      70.4      70.2       65     58.1      0.00     12.89      59.5     0.50      1019.0     3       237         5       271        9.41     286      244.5
   02/08/2017 13:10      71.9      70.3       63     58.0      0.00     12.89      59.4     0.50      1019.0     3       236         5       230        9.41     286      299.0
   02/08/2017 13:00      71.4      70.5       63     57.9      0.00     12.89      59.5     0.50      1020.0     2       237         3       258        9.41     287      355.1
   02/08/2017 12:50      70.9      69.2       66     58.0      0.00     12.89      59.3     0.50      1020.0     2       152         4       203        9.41     287      397.8
   02/08/2017 12:40      70.0      69.1       66     57.9      0.00     12.89      59.0     0.50      1020.0     2       251         5       221        9.41     288      410.0
   02/08/2017 12:30      69.3      68.0       67     57.2      0.00     12.89      58.8     0.50      1020.0     3       204         5       175        9.41     288      411.7
   02/08/2017 12:20      68.2      68.0       68     57.1      0.00     12.89      59.0     0.50      1020.0     3       235         7       252        9.41     289      453.3
   02/08/2017 12:10      67.9      67.1       69     56.7      0.00     12.89      58.4     0.50      1021.0     3       191         5       186        9.41     290      488.7
   02/08/2017 12:00      68.4      67.9       68     57.2      0.00     12.89      59.5     0.50      1021.0     3       201         4       228        9.41     291      504.4
   02/08/2017 11:50      68.7      67.8       67     56.9      0.00     12.89      59.6     0.50      1021.0     2       221         4       226        9.41     292      496.9
   02/08/2017 11:40      68.9      68.5       66     56.9      0.00     12.89      59.1     0.50      1021.0     2       345         4       318        9.41     293      438.3
   02/08/2017 11:30      68.5      66.8       70     57.4      0.00     12.89      59.2     0.50      1022.0     2        19         4       340        9.41     294      481.1
   02/08/2017 11:20      66.8      65.0       72     56.7      0.00     12.89      59.3     0.50      1022.0     1        85         3       197        9.41     296      384.9
   02/08/2017 11:10      65.8      65.2       73     56.6      0.00     12.89      59.0     0.50      1022.0     2       203         3       205        9.41     297      245.0
   02/08/2017 11:00      65.6      65.3       74     57.1      0.00     12.89      59.0     0.50      1022.0     2       287         3       314        9.41     298      190.3
   02/08/2017 10:50      65.6      64.6       76     57.3      0.00     12.89      59.3     0.50      1022.0     2        90         3       130        9.41     300      318.1
   02/08/2017 10:40      64.8      64.4       78     57.5      0.00     12.89      59.0     0.50      1022.0     2       137         4       127        9.41     302      338.5
   02/08/2017 10:30      64.3      62.6       79     57.0      0.00     12.89      58.9     0.50      1022.0     1       321         2       250        9.41     305      331.8
   02/08/2017 10:20      62.5      62.4       82     56.9      0.00     12.89      59.0     0.50      1022.0     2       220         2       179        9.41     307      234.2
   02/08/2017 10:10      62.7      62.4       83     57.2      0.00     12.89      58.9     0.50      1022.0     2       212         4       252        9.41     308      203.4
   02/08/2017 10:00      62.8      62.2       85     57.9      0.00     12.89      59.1     0.50      1022.0     1        63         1        70        9.41     310      181.7
   02/08/2017 09:50      62.3      61.6       87     57.9      0.00     12.89      58.6     0.50      1022.0     1       165         2       229        9.41     312      195.9
   02/08/2017 09:40      61.8      61.0       89     58.2      0.00     12.89      58.7     0.50      1022.0     1       331         2       317        9.41     314      184.2
   02/08/2017 09:30      61.0      60.5       91     58.0      0.00     12.89      58.6     0.50      1022.0     1       271         2       316        9.41     317      179.8
   02/08/2017 09:20      60.6      60.1       92     58.1      0.00     12.89      59.3     0.50      1023.0     2       292         2       310        9.41     320      145.2
   02/08/2017 09:10      60.4      60.0       93     58.0      0.00     12.89      58.8     0.50      1023.0     1       202         2       261        9.41     322      111.1
   02/08/2017 09:00      60.3      59.8       93     58.1      0.00     12.89      58.8     0.50      1023.0     1       315         1       338        9.41     324      135.2
   02/08/2017 08:50      59.8      59.3       94     57.8      0.00     12.89      59.0     0.50      1023.0     1       315         2       286        9.41     327      118.0
   02/08/2017 08:40      59.4      58.9       94     57.5      0.00     12.89      59.3     0.50      1023.0     1       269         3       241        9.41     329      125.8
   02/08/2017 08:30      59.0      58.6       95     57.2      0.00     12.89      59.4     0.50      1023.0     1       276         2       305        9.41     333      103.1
   02/08/2017 08:20      58.7      58.3       95     56.9      0.00     12.89      58.5     0.50      1022.0     1       263         2       295        9.41     338       58.3
   02/08/2017 08:10      58.6      58.3       94     56.8      0.00     12.89      58.9     0.50      1022.0     1       191         2       209        9.41     342       44.0
   02/08/2017 08:00      58.6      58.3       94     56.8      0.00     12.89      58.8     0.50      1022.0     0       188         1       209        9.41     345       37.9
   02/08/2017 07:50      58.3      58.0       95     56.5      0.00     12.89      58.8     0.50      1022.0     1       226         1       203        9.41     348       37.7
   02/08/2017 07:40      58.1      57.9       94     56.4      0.00     12.89      58.6     0.50      1022.0     1       191         2       188        9.41     351       27.0
   02/08/2017 07:30      58.1      58.0       94     56.4      0.00     12.89      59.1     0.50      1022.0     1       235         1       218        9.41     353       11.9
   02/08/2017 07:20      58.1      57.8       94     56.4      0.00     12.89      58.9     0.50      1022.0     1       252         1       264        9.41     354        9.5
   02/08/2017 07:10      58.1      58.0       94     56.4      0.00     12.89      58.9     0.50      1022.0     0       314         1       266        9.41     355        6.7
   02/08/2017 07:00      58.0      57.8       94     56.4      0.00     12.89      58.8     0.50      1022.0     1        97         2       107        9.41     356        4.0
   02/08/2017 06:50      58.0      57.8       94     56.4      0.00     12.89      58.0     0.50      1022.0     1        38         1        32        9.41     356        1.2
   02/08/2017 06:40      58.1      57.9       94     56.4      0.00     12.89      58.4     0.50      1022.0     1        24         2        10        9.41     357        0.1
   02/08/2017 06:30      58.1      57.9       94     56.4      0.00     12.89      58.6     0.50      1022.0     1        30         1        24        9.41     359       -0.5
   02/08/2017 06:20      58.1      57.9       94     56.4      0.00     12.89      58.3     0.50      1021.0     1         6         2        17        9.41     356       -0.7
   02/08/2017 06:10      58.3      58.0       94     56.4      0.01     12.89      58.2     0.50      1021.0     1       355         2         2        9.41     355       -0.7
   02/08/2017 06:00      58.2      58.0       94     56.4      0.00     12.88      58.4     0.50      1021.0     0       141         1       118        9.41     358       -0.7
   02/08/2017 05:50      58.2      58.0       94     56.4      0.00     12.88      59.1     0.50      1021.0     0       140         1        53        9.41     357       -0.7
   02/08/2017 05:40      58.2      58.0       94     56.4      0.00     12.88      60.0     0.51      1021.0     0       135         0       166        9.41     358       -0.7
   02/08/2017 05:30      58.1      57.9       94     56.4      0.00     12.88      59.5     0.51      1021.0     1       328         1       314        9.41     359       -0.7
   02/08/2017 05:20      58.1      57.8       94     56.3      0.00     12.88      58.1     0.51      1021.0     0       282         1       303        9.41     360       -0.7
   02/08/2017 05:10      58.1      57.9       94     56.3      0.00     12.88      59.0     0.51      1021.0     1        46         1        56        9.41     363       -0.7
   02/08/2017 05:00      58.1      57.8       94     56.3      0.00     12.88      59.9     0.51      1021.0     0        18         1        37        9.41     363       -0.7
   02/08/2017 04:50      58.1      57.8       94     56.3      0.00     12.88      59.4     0.51      1021.0     1        13         1        10        9.41     363       -0.8
   02/08/2017 04:40      58.2      57.8       94     56.3      0.00     12.88      59.7     0.51      1021.0     1        59         1        61        9.41     363       -0.8
   02/08/2017 04:30      58.1      57.8       94     56.3      0.00     12.88      59.1     0.51      1021.0     1        28         1        38        9.41     362       -0.8
   02/08/2017 04:20      58.1      58.0       94     56.3      0.00     12.88      58.6     0.51      1021.0     0        28         1        32        9.41     362       -0.9
   02/08/2017 04:10      58.1      57.9       94     56.3      0.01     12.88      58.7     0.51      1021.0     0       106         1        98        9.41     361       -0.9
   02/08/2017 04:00      58.1      58.0       94     56.4      0.00     12.87      58.9     0.51      1021.0     0        26         1         2        9.41     359       -0.9
   02/08/2017 03:50      58.3      57.9       94     56.3      0.00     12.87      58.2     0.51      1021.0     1        18         1        18        9.41     358       -0.9
   02/08/2017 03:40      58.3      57.9       94     56.4      0.01     12.87      59.3     0.51      1021.0     0        16         1         7        9.41     356       -0.9
   02/08/2017 03:30      58.1      58.0       94     56.3      0.00     12.86      58.9     0.51      1021.0     1        19         1        25        9.41     353       -0.9
   02/08/2017 03:20      58.1      57.9       94     56.3      0.00     12.86      58.8     0.51      1021.0     1        10         1       354        9.41     352       -0.9
   02/08/2017 03:10      58.1      57.9       94     56.3      0.01     12.86      58.5     0.51      1021.0     1       351         2       347        9.41     349       -0.8
   02/08/2017 03:00      58.1      57.9       94     56.3      0.00     12.85      59.0     0.51      1021.0     1        23         2       348        9.41     347       -1.0
   02/08/2017 02:50      58.1      58.0       94     56.3      0.00     12.85      58.6     0.51      1021.0     1        84         1       106        9.41     345       -1.3
   02/08/2017 02:40      58.1      57.9       94     56.2      0.00     12.85      58.8     0.51      1021.0     1       260         2       259        9.41     342       -1.1
   02/08/2017 02:30      58.1      58.0       94     56.2      0.00     12.85      59.0     0.51      1021.0     1       242         1       265        9.41     340       -1.1
   02/08/2017 02:20      58.1      58.0       94     56.2      0.00     12.85      59.0     0.51      1021.0     1       272         1       251        9.41     339       -1.2
   02/08/2017 02:10      58.1      58.0       94     56.2      0.00     12.85      59.3     0.51      1021.0     0        14         1        36        9.41     339       -1.2
   02/08/2017 02:00      58.2      58.0       94     56.2      0.00     12.85      59.1     0.51      1021.0     0        71         1        72        9.41     338       -1.3
   02/08/2017 01:50      58.1      57.9       94     56.2      0.00     12.85      59.3     0.51      1021.0     1        13         1       291        9.41     337       -1.3
   02/08/2017 01:40      58.1      58.0       94     56.2      0.00     12.85      58.3     0.51      1021.0     1        90         1        88        9.41     337       -1.3
   02/08/2017 01:30      58.1      57.9       94     56.2      0.00     12.85      58.6     0.51      1021.0     1       103         2        90        9.41     336       -1.2
   02/08/2017 01:20      58.2      58.0       93     56.2      0.00     12.85      58.9     0.51      1021.0     1        93         2        85        9.41     336       -1.3
   02/08/2017 01:10      58.2      58.0       94     56.3      0.00     12.85      58.9     0.51      1021.0     0       115         1       137        9.41     336       -1.4
   02/08/2017 01:00      58.2      58.0       93     56.2      0.00     12.85      58.3     0.51      1021.0     1        86         1        64        9.41     335       -1.3
   02/08/2017 00:50      58.2      58.0       93     56.2      0.00     12.85      59.0     0.51      1021.0     0       166         1       168        9.41     335       -1.3
   02/08/2017 00:40      58.1      58.0       93     56.2      0.00     12.85      58.7     0.51      1021.0     0       187         1       183        9.41     334       -1.3
   02/08/2017 00:30      58.2      58.0       93     56.2      0.00     12.85      58.5     0.51      1021.0     0       134         1       120        9.41     334       -1.3
   02/08/2017 00:20      58.1      58.0       93     56.2      0.00     12.85      58.4     0.51      1021.0     0       329         1        52        9.41     334       -1.3
   02/08/2017 00:10      58.2      57.9       93     56.1      0.00     12.85      58.5     0.51      1021.0     1        61         1       106        9.41     335       -1.4
   02/08/2017 00:00      58.2      57.9       93     56.1      0.00     12.85      58.5     0.51      1021.0     1       101         1        97        9.41     335       -1.4
   02/07/2017 23:50      58.1      57.9       93     56.1      0.00     12.85      58.2     0.51      1021.0     1        85         1        86        9.41     335       -1.5
   02/07/2017 23:40      58.1      57.8       93     56.0      0.00     12.85      58.5     0.51      1021.0     1        72         1       111        9.41     335       -1.5
   02/07/2017 23:30      58.0      58.0       93     56.0      0.00     12.85      58.7     0.51      1021.0     1       105         1       107        9.41     336       -1.6
   02/07/2017 23:20      58.1      58.0       93     56.0      0.00     12.85      58.3     0.51      1021.0     1        11         2       340        9.41     337       -1.9
   02/07/2017 23:10      58.1      57.8       93     55.9      0.00     12.85      58.4     0.51      1021.0     1       356         1        23        9.41     337       -2.1
   02/07/2017 23:00      58.2      58.0       93     55.9      0.00     12.85      58.9     0.51      1021.0     0        72         1        59        9.41     337       -3.4
   02/07/2017 22:50      58.1      57.9       93     55.9      0.01     12.85      58.9     0.51      1021.0     1       296         2       270        9.41     336       -2.6
   02/07/2017 22:40      58.2      58.0       92     55.9      0.00     12.84      58.8     0.51      1021.0     1       296         1       314        9.41     336       -2.8
   02/07/2017 22:30      58.2      58.0       92     55.9      0.00     12.84      59.1     0.51      1021.0     0       290         1       274        9.41     335       -2.6
   02/07/2017 22:20      58.1      58.0       92     55.8      0.00     12.84      59.0     0.51      1021.0     0       115         1       203        9.41     333       -2.4
   02/07/2017 22:10      58.1      58.0       92     55.7      0.00     12.84      58.7     0.51      1021.0     1        79         2        71        9.41     330       -2.4
   02/07/2017 22:00      58.3      58.0       92     55.8      0.00     12.84      58.8     0.51      1021.0     0        97         1        71        9.41     325       -2.4
   02/07/2017 21:50      58.3      58.1       92     55.8      0.00     12.84      58.9     0.51      1021.0     1        52         1        61        9.41     323       -2.8
   02/07/2017 21:40      58.4      58.1       91     55.7      0.01     12.84      58.8     0.51      1021.0     1        38         1        35        9.41     316       -3.2
   02/07/2017 21:30      58.6      58.1       91     55.5      0.00     12.83      58.7     0.51      1021.0     1        54         2        57        9.41     313       -3.6
   02/07/2017 21:20      58.6      58.4       90     55.5      0.00     12.83      58.5     0.51      1020.0     1       109         2       141        9.41     310       -3.8
   02/07/2017 21:10      59.1      58.5       88     55.3      0.00     12.83      58.6     0.51      1021.0     2        99         3        92        9.41     309       -4.8
   02/07/2017 21:00      59.2      59.1       87     55.3      0.00     12.83      58.7     0.51      1021.0     1        78         2        77        9.41     306       -5.4
   02/07/2017 20:50      59.4      59.1       87     55.3      0.00     12.83      58.9     0.51      1021.0     1        88         1       107        9.41     305       -5.1
   02/07/2017 20:40      59.4      59.0       87     55.4      0.00     12.83      58.8     0.51      1021.0     1        56         2        65        9.41     305       -4.8
   02/07/2017 20:30      59.2      58.9       87     55.2      0.00     12.83      58.5     0.51      1021.0     1        71         1       109        9.41     304       -4.9
   02/07/2017 20:20      59.1      58.9       87     55.2      0.00     12.83      58.6     0.51      1021.0     1       205         1       221        9.41     304       -5.1
   02/07/2017 20:10      59.1      58.9       87     55.2      0.00     12.83      59.0     0.51      1021.0     1       164         1       149        9.41     303       -5.3
   02/07/2017 20:00      59.1      58.8       88     55.2      0.00     12.83      58.2     0.51      1020.0     1       153         1       172        9.41     303       -5.6
   02/07/2017 19:50      59.1      58.6       88     55.2      0.00     12.83      59.1     0.51      1020.0     1       118         2        89        9.41     303       -6.1
   02/07/2017 19:40      58.9      58.6       88     55.3      0.00     12.83      58.9     0.51      1020.0     1       228         2       216        9.41     302       -6.2
   02/07/2017 19:30      58.9      58.4       89     55.4      0.00     12.83      58.7     0.51      1020.0     1       109         3       220        9.41     301       -7.5
   02/07/2017 19:20      58.6      58.4       90     55.4      0.00     12.83      58.6     0.51      1020.0     1       143         2       173        9.41     300       -7.2
   02/07/2017 19:10      58.6      58.4       89     55.3      0.00     12.83      58.7     0.51      1020.0     3       157         4       152        9.41     299       -9.1
   02/07/2017 19:00      59.4      58.7       87     55.2      0.00     12.83      58.8     0.51      1020.0     4       180         5       187        9.41     298      -11.0
   02/07/2017 18:50      60.3      59.5       85     55.4      0.00     12.83      58.6     0.51      1020.0     3       173         5       174        9.41     296       -7.8
   02/07/2017 18:40      60.5      60.2       84     55.5      0.00     12.83      58.1     0.51      1020.0     3       163         5       148        9.41     296      -10.8
   02/07/2017 18:30      60.9      60.4       84     55.8      0.00     12.83      58.1     0.51      1020.0     1       192         2       184        9.41     295       -7.5
   02/07/2017 18:20      61.0      60.8       85     56.5      0.00     12.83      57.8     0.51      1020.0     1       159         1       143        9.41     295       -7.1
   02/07/2017 18:10      61.0      60.9       85     56.5      0.00     12.83      58.3     0.51      1020.0     0         3         1       357        9.41     295       -7.4
   02/07/2017 18:00      61.1      60.8       85     56.4      0.00     12.83      58.3     0.51      1019.0     0        82         1        43        9.41     295       -7.9
   02/07/2017 17:50      61.2      60.9       85     56.5      0.00     12.83      58.2     0.51      1019.0     1        35         2        16        9.41     294       -7.8
   02/07/2017 17:40      61.3      61.0       84     56.4      0.00     12.83      57.6     0.51      1019.0     2        61         3        54        9.41     294       -8.1
   02/07/2017 17:30      61.7      61.4       83     56.3      0.00     12.83      58.6     0.51      1019.0     2        57         2        60        9.41     294       -8.3
   02/07/2017 17:20      62.7      61.8       79     55.6      0.00     12.83      58.2     0.51      1019.0     2        13         3        37        9.41     294       -7.2
   02/07/2017 17:10      62.7      62.4       77     55.1      0.00     12.83      58.0     0.51      1019.0     2       317         3       309        9.41     294       -4.0
   02/07/2017 17:00      62.7      62.4       76     55.1      0.00     12.83      58.1     0.51      1019.0     2       307         3       319        9.41     294        4.3
   02/07/2017 16:50      62.7      62.4       76     54.9      0.00     12.83      58.1     0.51      1019.0     2       263         4       274        9.41     294        2.5
   02/07/2017 16:40      62.6      62.4       76     54.8      0.00     12.83      57.9     0.51      1019.0     3       257         4       225        9.41     294       10.8
   02/07/2017 16:30      62.7      62.4       75     54.7      0.00     12.83      58.1     0.51      1019.0     3       265         6       253        9.41     294       15.6
   02/07/2017 16:20      63.0      62.7       75     54.7      0.00     12.83      58.1     0.51      1019.0     3       215         4       228        9.41     294       30.3
   02/07/2017 16:10      63.0      62.8       74     54.6      0.00     12.83      57.7     0.51      1019.0     3       241         4       218        9.41     294       37.3
   02/07/2017 16:00      63.5      63.1       73     54.5      0.00     12.83      57.8     0.51      1019.0     3       229         5       229        9.41     294       39.3
   02/07/2017 15:50      63.5      63.3       73     54.6      0.00     12.83      58.2     0.51      1019.0     4       246         6       264        9.41     295       50.6
   02/07/2017 15:40      63.6      63.4       73     54.6      0.00     12.83      57.3     0.51      1019.0     3       218         6       196        9.41     295       39.7
   02/07/2017 15:30      64.0      63.4       72     54.4      0.00     12.83      58.3     0.51      1019.0     5       212         8       217        9.41     296       78.0
   02/07/2017 15:20      64.2      64.0       71     54.6      0.00     12.83      57.7     0.51      1019.0     4       232         7       186        9.41     296      113.1
   02/07/2017 15:10      64.2      63.6       71     54.2      0.00     12.83      57.5     0.51      1019.0     5       213         7       202        9.41     297      168.7
   02/07/2017 15:00      64.6      64.0       69     54.0      0.00     12.83      58.3     0.51      1019.0     6       213        11       203        9.41     298      157.4
   02/07/2017 14:50      64.6      64.2       70     54.4      0.00     12.83      57.2     0.51      1019.0     4       239         6       259        9.41     299      177.2
   02/07/2017 14:40      64.5      64.1       70     54.3      0.00     12.83      57.6     0.51      1019.0     5       253         7       266        9.41     300      128.3
   02/07/2017 14:30      65.2      64.7       69     54.5      0.00     12.83      58.3     0.51      1019.0     5       245         7       231        9.41     301      244.9
   02/07/2017 14:20      65.1      64.7       70     54.8      0.00     12.83      57.3     0.51      1019.0     5       257         6       260        9.41     302      266.2
   02/07/2017 14:10      64.7      64.0       71     54.5      0.00     12.83      58.1     0.51      1019.0     5       244         8       239        9.41     305      269.9
   02/07/2017 14:00      64.4      64.2       70     54.1      0.00     12.83      57.5     0.51      1019.0     6       240         8       254        9.41     305       95.1
   02/07/2017 13:50      65.0      64.3       69     54.1      0.00     12.83      58.0     0.51      1020.0     5       237         7       256        9.41     306      118.3
   02/07/2017 13:40      65.0      64.7       69     54.6      0.00     12.83      57.2     0.51      1020.0     4       236         7       212        9.41     307      129.5
   02/07/2017 13:30      65.0      64.4       70     54.8      0.00     12.83      57.3     0.51      1020.0     5       247         8       271        9.41     308      190.4
   02/07/2017 13:20      64.7      64.2       72     55.1      0.00     12.83      57.3     0.51      1020.0     4       242         6       266        9.41     309      245.0
   02/07/2017 13:10      64.5      64.1       73     55.5      0.00     12.83      57.2     0.51      1020.0     3       250         5       265        9.41     310      173.4
   02/07/2017 13:00      64.2      63.8       73     55.4      0.00     12.83      57.2     0.51      1020.0     2       269         5       286        9.41     311      122.4
   02/07/2017 12:50      64.0      63.3       75     55.5      0.00     12.83      57.4     0.51      1020.0     3       262         4       279        9.41     312      142.7
   02/07/2017 12:40      64.9      63.5       74     55.4      0.00     12.83      57.4     0.51      1020.0     3       262         5       253        9.41     313      116.0
   02/07/2017 12:30      65.8      65.0       72     56.2      0.00     12.83      57.3     0.51      1020.0     3       307         5       301        9.41     314      250.2
   02/07/2017 12:20      64.8      63.2       75     55.7      0.00     12.83      57.1     0.51      1020.0     2       262         3       265        9.41     317      508.0
   02/07/2017 12:10      63.2      61.8       78     55.5      0.00     12.83      57.3     0.51      1021.0     3       249         5       244        9.41     321      301.5
   02/07/2017 12:00      61.9      61.6       80     55.6      0.00     12.83      56.9     0.51      1021.0     4       261         8       219        9.41     324      144.3
   02/07/2017 11:50      61.8      61.6       81     55.6      0.00     12.83      57.2     0.51      1021.0     5       267         6       282        9.41     326      154.0
   02/07/2017 11:40      61.9      61.2       84     56.8      0.00     12.83      57.0     0.51      1021.0     3       259         4       248        9.41     328      181.5
   02/07/2017 11:30      61.3      61.0       86     56.9      0.00     12.83      57.7     0.51      1021.0     3       305         5       306        9.41     331      190.4
   02/07/2017 11:20      61.1      60.9       86     56.8      0.00     12.83      57.6     0.51      1021.0     3       289         5       298        9.41     333      111.4
   02/07/2017 11:10      61.1      60.6       87     57.0      0.00     12.83      57.9     0.51      1021.0     1       274         2       246        9.41     334       97.8
   02/07/2017 11:00      60.7      60.4       87     56.8      0.00     12.83      57.5     0.51      1021.0     1        72         3        88        9.41     335      117.8
   02/07/2017 10:50      60.6      60.3       90     57.4      0.00     12.83      57.6     0.51      1021.0     1       170         1        95        9.41     337      170.1
   02/07/2017 10:40      60.4      59.5       91     57.2      0.00     12.83      57.0     0.51      1021.0     1        44         2        64        9.41     341      173.6
   02/07/2017 10:30      59.7      59.3       92     57.2      0.00     12.83      57.4     0.51      1021.0     2        15         4         7        9.41     345      127.9
   02/07/2017 10:20      59.7      59.2       93     57.2      0.00     12.83      57.5     0.51      1021.0     1        20         3       337        9.41     348      128.9
   02/07/2017 10:10      59.1      58.6       93     57.0      0.00     12.83      57.6     0.51      1021.0     1        22         1        23        9.41     351       89.1
   02/07/2017 10:00      58.7      58.5       94     56.7      0.00     12.83      56.8     0.51      1021.0     1       191         1        13        9.41     354       60.2
   02/07/2017 09:50      58.6      58.1       94     56.5      0.00     12.83      57.1     0.51      1020.0     2        69         2        69        9.41     356       65.5
   02/07/2017 09:40      58.5      57.8       94     56.4      0.00     12.83      57.3     0.51      1020.0     1        49         2        39        9.41     359       82.2
   02/07/2017 09:30      58.0      57.6       94     56.1      0.00     12.83      56.9     0.51      1021.0     1        47         2       345        9.41     363       93.8
   02/07/2017 09:20      57.8      57.5       94     55.9      0.00     12.83      57.1     0.51      1021.0     2         1         2         0        9.41     367       51.6
   02/07/2017 09:10      57.7      57.4       94     55.9      0.00     12.83      57.1     0.51      1021.0     1       288         2       315        9.41     370       38.3
   02/07/2017 09:00      57.5      57.0       94     55.6      0.00     12.83      57.1     0.51      1020.0     2       128         3        75        9.41     372       57.5
   02/07/2017 08:50      57.4      57.0       95     55.6      0.00     12.83      57.2     0.51      1020.0     2       297         3       316        9.41     375       29.3
   02/07/2017 08:40      57.3      57.0       95     55.6      0.00     12.83      57.6     0.51      1020.0     1        69         2        88        9.41     376       60.6
   02/07/2017 08:30      57.0      56.9       95     55.4      0.00     12.83      56.9     0.51      1020.0     1        60         2        74        9.41     374       45.2
   02/07/2017 08:20      57.0      56.5       95     55.3      0.00     12.83      57.1     0.51      1020.0     1        45         1        79        9.41     376       54.8
   02/07/2017 08:10      56.8      56.4       95     55.0      0.00     12.83      57.3     0.51      1019.0     1        82         2        66        9.41     379       52.6
   02/07/2017 08:00      56.6      56.3       95     54.9      0.01     12.83      56.9     0.51      1019.0     1        72         2        81        9.41     381       34.5
   02/07/2017 07:50      56.4      56.0       95     54.7      0.00     12.82      57.2     0.51      1019.0     2        77         3        75        9.41     385       34.1
   02/07/2017 07:40      56.3      55.9       95     54.6      0.00     12.82      57.0     0.51      1019.0     1        97         2        80        9.41     387       27.5
   02/07/2017 07:30      56.1      55.9       95     54.5      0.01     12.82      57.5     0.51      1019.0     1       359         3       300        9.41     388       14.0
   02/07/2017 07:20      56.0      55.7       95     54.4      0.00     12.81      57.1     0.51      1019.0     1        92         2        29        9.41     387        9.3
   02/07/2017 07:10      55.9      55.6       95     54.3      0.00     12.81      57.8     0.51      1019.0     2       329         3       266        9.41     387        3.9
   02/07/2017 07:00      55.9      55.6       95     54.2      0.01     12.81      57.7     0.51      1019.0     1       315         1       310        9.41     387        1.5
   02/07/2017 06:50      55.7      55.5       95     54.1      0.00     12.80      56.7     0.51      1019.0     1        80         2        79        9.41     387        0.1
   02/07/2017 06:40      55.7      55.5       95     54.1      0.00     12.80      57.3     0.51      1019.0     1        98         2       118        9.41     387       -0.3
   02/07/2017 06:30      55.7      55.5       95     54.1      0.00     12.80      57.1     0.51      1019.0     1        81         2        77        9.41     386       -0.4
   02/07/2017 06:20      55.8      55.5       95     54.1      0.00     12.80      57.3     0.51      1018.0     1        38         2         6        9.41     387       -0.4
   02/07/2017 06:10      55.7      55.5       95     54.1      0.00     12.80      57.1     0.51      1018.0     1        26         1        67        9.41     387       -0.4
   02/07/2017 06:00      55.7      55.4       95     54.0      0.00     12.80      57.3     0.51      1018.0     1        47         2        63        9.41     388       -0.4
   02/07/2017 05:50      55.5      55.4       95     54.0      0.00     12.80      57.3     0.51      1018.0     2        72         4        68        9.41     387       -0.5
   02/07/2017 05:40      55.5      55.4       95     54.0      0.00     12.80      57.1     0.51      1018.0     2        54         4        74        9.41     389       -0.5
   02/07/2017 05:30      55.5      55.2       95     53.9      0.00     12.80      57.1     0.51      1018.0     1        30         1        76        9.41     390       -0.5
   02/07/2017 05:20      55.4      55.3       95     53.9      0.00     12.80      57.5     0.51      1018.0     2        68         5        75        9.41     391       -0.6
   02/07/2017 05:10      55.5      55.4       95     54.0      0.00     12.80      57.3     0.51      1018.0     2        64         4        62        9.41     392       -0.1
   02/07/2017 05:00      55.7      55.2       95     54.0      0.00     12.80      57.4     0.51      1018.0     1        54         4        76        9.41     391       -0.0
   02/07/2017 04:50      55.6      55.4       95     54.0      0.00     12.80      57.3     0.51      1018.0     2        13         2         2        9.41     391       -0.1
   02/07/2017 04:40      55.7      55.4       95     54.0      0.01     12.80      57.4     0.50      1018.0     1        14         2         8        9.41     393       -0.4
   02/07/2017 04:30      55.7      55.5       95     54.0      0.00     12.79      57.2     0.51      1018.0     1        24         1        20        9.41     393       -0.2
   02/07/2017 04:20      55.7      55.5       95     54.1      0.00     12.79      57.3     0.50      1018.0     0        36         1        58        9.41     394       -0.1
   02/07/2017 04:10      55.7      55.4       95     54.0      0.00     12.79      57.3     0.50      1018.0     1        50         2        68        9.41     394       -0.0
   02/07/2017 04:00      55.7      55.4       95     54.0      0.00     12.79      57.3     0.51      1018.0     1        83         2       106        9.41     394        0.0
   02/07/2017 03:50      55.7      55.4       95     54.0      0.00     12.79      57.2     0.51      1018.0     1        24         1        35        9.41     394        0.0
   02/07/2017 03:40      55.5      55.4       95     54.0      0.00     12.79      57.1     0.50      1018.0     1        46         3        60        9.41     396        0.1
   02/07/2017 03:30      55.7      55.5       95     54.1      0.00     12.79      57.6     0.50      1018.0     1        58         2        80        9.41     398        0.1
   02/07/2017 03:20      55.8      55.5       95     54.1      0.00     12.79      56.6     0.50      1018.0     1        63         2        86        9.41     400        0.1
   02/07/2017 03:10      55.7      55.5       94     54.0      0.00     12.79      57.3     0.50      1018.0     1       103         2        88        9.41     401       -0.1
   02/07/2017 03:00      55.7      55.5       94     54.0      0.01     12.79      57.3     0.50      1018.0     1        77         2        80        9.41     400        0.1
   02/07/2017 02:50      55.7      55.5       94     54.0      0.01     12.78      56.4     0.50      1019.0     1       340         2       270        9.41     402       -0.1
   02/07/2017 02:40      55.7      55.4       94     54.0      0.00     12.77      56.7     0.50      1019.0     2       271         3       260        9.41     398       -0.3
   02/07/2017 02:30      55.7      55.4       94     53.9      0.00     12.77      57.1     0.50      1018.0     1       268         3       280        9.41     396       -0.2
   02/07/2017 02:20      55.6      55.4       94     53.9      0.01     12.77      57.1     0.50      1018.0     1       130         2        63        9.41     398       -0.0
   02/07/2017 02:10      55.7      55.4       94     53.9      0.00     12.76      57.7     0.50      1018.0     2        77         2        68        9.41     405       -0.1
   02/07/2017 02:00      55.5      55.4       94     53.9      0.00     12.76      57.3     0.50      1018.0     2        73         2        84        9.41     402        0.1
   02/07/2017 01:50      55.7      55.4       94     53.8      0.01     12.76      57.2     0.50      1019.0     1       132         2        75        9.41     407        0.0
   02/07/2017 01:40      55.7      55.4       94     53.9      0.00     12.75      57.4     0.50      1019.0     1       213         2       212        9.41     406       -0.1
   02/07/2017 01:30      55.7      55.4       94     53.8      0.01     12.75      57.4     0.50      1019.0     1       238         1       252        9.41     407       -0.4
   02/07/2017 01:20      55.6      55.3       94     53.7      0.00     12.74      57.8     0.50      1019.0     1       257         2       233        9.41     404       -0.4
   02/07/2017 01:10      55.5      55.3       94     53.5      0.01     12.74      57.1     0.50      1019.0     1        12         1        57        9.41     397       -0.3
   02/07/2017 01:00      55.5      55.1       94     53.4      0.01     12.73      57.2     0.50      1019.0     2       278         3       252        9.41     397       -0.5
   02/07/2017 00:50      55.3      55.1       93     53.3      0.01     12.72      56.5     0.50      1019.0     1        28         2       272        9.41     396       -0.5
   02/07/2017 00:40      55.4      55.1       93     53.3      0.00     12.71      56.9     0.51      1019.0     1       183         1       131        9.41     393       -0.8
   02/07/2017 00:30      55.3      55.1       93     53.2      0.00     12.71      56.8     0.51      1019.0     1       272         2       296        9.41     391       -0.6
   02/07/2017 00:20      55.2      54.9       93     53.1      0.00     12.71      57.0     0.51      1019.0     1       221         2       220        9.41     390       -0.7
   02/07/2017 00:10      55.1      54.9       93     53.1      0.00     12.71      57.2     0.51      1019.0     0        52         1        33        9.41     390       -0.6
   02/07/2017 00:00      55.2      54.9       93     53.1      0.00     12.71      57.1     0.51      1019.0     0        56         1       257        9.41     390       -0.8
   02/06/2017 23:50      55.1      54.8       93     52.9      0.00     12.71      57.4     0.51      1019.0     1        70         2       110        9.41     390       -0.8
   02/06/2017 23:40      54.9      54.8       93     52.8      0.00     12.71      57.1     0.51      1019.0     1       167         1       189        9.41     390       -0.5
   02/06/2017 23:30      55.1      54.8       93     52.9      0.00     12.71      56.7     0.51      1019.0     1       171         1       190        9.41     390       -0.6
   02/06/2017 23:20      55.2      54.6       93     52.8      0.00     12.71      57.9     0.51      1019.0     1       240         2       258        9.41     390       -0.9
   02/06/2017 23:10      54.8      54.6       93     52.6      0.00     12.71      57.5     0.51      1019.0     2       147         2       132        9.41     390       -1.0
   02/06/2017 23:00      54.7      54.6       93     52.5      0.00     12.71      56.8     0.51      1019.0     1       201         2       194        9.41     390       -0.9
   02/06/2017 22:50      54.8      54.6       92     52.4      0.00     12.71      57.3     0.51      1019.0     1       195         1       224        9.41     393       -1.1
   02/06/2017 22:40      54.9      54.6       92     52.5      0.00     12.71      56.7     0.51      1019.0     0       111         1        76        9.41     392       -1.1
   02/06/2017 22:30      55.1      54.7       92     52.8      0.00     12.71      57.2     0.51      1019.0     1       252         1       256        9.41     391       -1.0
   02/06/2017 22:20      54.9      54.6       92     52.5      0.00     12.71      56.6     0.51      1019.0     1       217         1       269        9.41     390       -1.1
   02/06/2017 22:10      54.8      54.6       92     52.4      0.00     12.71      57.8     0.51      1019.0     1       243         1       226        9.41     390       -1.1
   02/06/2017 22:00      54.8      54.5       92     52.3      0.00     12.71      57.2     0.51      1019.0     1       172         1       157        9.41     389       -1.3
   02/06/2017 21:50      54.7      54.5       92     52.3      0.00     12.71      57.2     0.51      1019.0     1       169         2       187        9.41     389       -1.1
   02/06/2017 21:40      54.8      54.6       92     52.3      0.00     12.71      56.9     0.51      1019.0     1       221         1       231        9.41     388       -1.1
   02/06/2017 21:30      54.8      54.5       92     52.2      0.00     12.71      57.1     0.51      1018.0     1       215         2       219        9.41     387       -1.1
   02/06/2017 21:20      54.9      54.4       91     52.1      0.00     12.71      56.5     0.51      1018.0     1       242         2       239        9.41     387       -1.4
   02/06/2017 21:10      54.8      54.5       91     52.0      0.00     12.71      57.4     0.51      1018.0     1       177         2       170        9.41     386       -1.7
   02/06/2017 21:00      55.1      54.6       91     52.2      0.00     12.71      57.6     0.51      1018.0     1       231         1       177        9.41     385       -1.2
   02/06/2017 20:50      55.2      54.7       91     52.4      0.00     12.71      57.3     0.51      1018.0     1       263         2       281        9.41     385       -1.6
   02/06/2017 20:40      54.8      54.5       92     52.2      0.00     12.71      57.5     0.51      1018.0     1       296         2       298        9.41     384       -1.6
   02/06/2017 20:30      54.7      54.4       92     52.1      0.00     12.71      57.1     0.51      1018.0     1       234         1       252        9.41     384       -1.7
   02/06/2017 20:20      54.6      54.5       91     52.1      0.00     12.71      57.4     0.51      1018.0     1       151         1        92        9.41     383       -1.6
   02/06/2017 20:10      54.6      54.5       91     52.0      0.00     12.71      56.8     0.51      1018.0     1       151         2       142        9.41     382       -1.8
   02/06/2017 20:00      54.6      54.5       91     51.9      0.00     12.71      57.0     0.51      1018.0     1       195         2       150        9.41     381       -1.9
   02/06/2017 19:50      54.7      54.5       91     51.9      0.00     12.71      57.0     0.51      1018.0     0       181         1       237        9.41     381       -1.8
   02/06/2017 19:40      54.7      54.5       91     51.9      0.00     12.71      57.5     0.51      1018.0     0       152         0        62        9.41     380       -1.8
   02/06/2017 19:30      54.6      54.5       91     51.8      0.00     12.71      56.7     0.51      1017.0     0       213         1       222        9.41     379       -1.9
   02/06/2017 19:20      54.6      54.5       91     51.9      0.00     12.71      57.0     0.51      1017.0     1       180         2       158        9.41     378       -2.0
   02/06/2017 19:10      54.7      54.5       91     51.8      0.00     12.71      56.8     0.51      1017.0     1       160         2       154        9.41     377       -2.2
   02/06/2017 19:00      54.6      54.3       90     51.5      0.00     12.71      56.7     0.51      1017.0     1       117         2       119        9.41     376       -2.2
   02/06/2017 18:50      54.8      54.5       89     51.3      0.00     12.71      57.0     0.51      1017.0     1        65         1        66        9.41     375       -2.3
   02/06/2017 18:40      55.1      54.7       88     51.4      0.00     12.71      57.2     0.51      1017.0     1        97         1        79        9.41     372       -2.5
   02/06/2017 18:30      55.3      55.1       87     51.4      0.00     12.71      56.5     0.51      1017.0     1        85         3        88        9.41     368       -2.7
   02/06/2017 18:20      55.5      55.4       87     51.6      0.00     12.71      56.8     0.51      1017.0     2        62         3        82        9.41     364       -2.6
   02/06/2017 18:10      55.7      55.4       87     51.7      0.00     12.71      56.9     0.51      1017.0     2        67         2        70        9.41     362       -2.5
   02/06/2017 18:00      55.8      55.6       86     51.7      0.00     12.71      57.1     0.51      1017.0     2        77         2        68        9.41     358       -2.1
   02/06/2017 17:50      56.0      55.8       86     51.8      0.00     12.71      57.1     0.51      1017.0     2        94         3        69        9.41     355       -2.3
   02/06/2017 17:40      56.4      56.3       86     52.0      0.00     12.71      56.9     0.51      1017.0     3        86         5       104        9.41     351       -1.1
   02/06/2017 17:30      56.6      56.4       85     52.1      0.00     12.71      56.7     0.51      1017.0     3        99         5       125        9.41     349        0.8
   02/06/2017 17:20      56.7      56.6       85     52.2      0.00     12.71      57.0     0.51      1017.0     2        94         3       111        9.41     347        3.9
   02/06/2017 17:10      57.1      56.7       85     52.4      0.00     12.71      57.7     0.51      1016.0     2        99         3       119        9.41     346        7.5
   02/06/2017 17:00      57.4      57.0       85     52.6      0.00     12.71      57.4     0.51      1016.0     3       112         4       133        9.41     345       13.5
   02/06/2017 16:50      57.2      57.0       85     52.6      0.00     12.71      56.3     0.51      1016.0     2       128         4       126        9.41     343       21.9
   02/06/2017 16:40      57.4      57.1       84     52.6      0.00     12.71      57.2     0.51      1016.0     4       134         6       134        9.41     343       33.5
   02/06/2017 16:30      57.7      57.5       84     52.6      0.00     12.71      56.7     0.51      1016.0     3       125         6       123        9.41     342       53.0
   02/06/2017 16:20      57.7      57.4       83     52.5      0.00     12.71      56.7     0.51      1016.0     2       114         4       163        9.41     342       63.2
   02/06/2017 16:10      57.6      57.5       83     52.3      0.00     12.71      56.8     0.51      1016.0     2       117         4       123        9.41     343       62.5
   02/06/2017 16:00      57.7      57.5       82     52.2      0.00     12.71      57.0     0.51      1016.0     2       113         3       128        9.41     344       86.2
   02/06/2017 15:50      57.7      57.5       82     52.1      0.00     12.71      56.8     0.51      1016.0     2        94         4       104        9.41     345       60.8
   02/06/2017 15:40      57.8      57.5       82     52.2      0.00     12.71      56.9     0.51      1016.0     3        86         4        75        9.41     347      107.3
   02/06/2017 15:30      57.7      57.5       82     52.3      0.00     12.71      57.0     0.51      1016.0     3        73         4        76        9.41     349       95.9
   02/06/2017 15:20      57.6      57.4       83     52.2      0.00     12.71      56.7     0.51      1016.0     3        86         4        83        9.41     351      118.0
   02/06/2017 15:10      57.5      57.2       83     52.2      0.00     12.71      57.1     0.51      1016.0     3        74         4       113        9.41     353      136.5
   02/06/2017 15:00      57.4      56.9       84     52.2      0.00     12.71      57.0     0.51      1016.0     2        71         3        67        9.41     356      166.3
   02/06/2017 14:50      56.8      56.4       84     51.9      0.00     12.71      56.3     0.52      1016.0     3        74         4        94        9.41     359      126.3
   02/06/2017 14:40      56.8      56.5       85     52.0      0.00     12.71      56.8     0.52      1016.0     3        70         5        70        9.41     362       65.8
   02/06/2017 14:30      56.8      56.1       86     52.2      0.00     12.71      56.8     0.52      1016.0     2        52         3        91        9.41     363      140.0
   02/06/2017 14:20      56.1      55.9       86     52.0      0.00     12.71      57.1     0.52      1016.0     1        59         2        84        9.41     368       68.1
   02/06/2017 14:10      56.1      55.9       86     52.0      0.00     12.71      57.0     0.52      1016.0     2        37         3        66        9.41     369       51.6
   02/06/2017 14:00      56.0      55.7       87     52.0      0.00     12.71      56.7     0.52      1016.0     2        49         3        81        9.41     370       54.1
   02/06/2017 13:50      56.0      55.5       87     51.9      0.00     12.71      56.4     0.52      1016.0     2        57         4       161        9.41     371       64.5
   02/06/2017 13:40      55.8      55.4       87     51.8      0.00     12.71      56.6     0.52      1016.0     3       121         6       133        9.41     372       96.9
   02/06/2017 13:30      55.7      55.4       87     51.6      0.00     12.71      56.1     0.52      1016.0     3        87         4       129        9.41     374      120.2
   02/06/2017 13:20      55.6      55.2       87     51.8      0.00     12.71      56.4     0.52      1016.0     3       103         4        62        9.41     376      131.8
   02/06/2017 13:10      55.4      54.9       88     51.5      0.00     12.71      56.5     0.52      1017.0     3       113         5       102        9.41     379      146.1
   02/06/2017 13:00      55.3      55.0       87     51.4      0.01     12.71      56.8     0.52      1017.0     4       128         6       122        9.41     383       83.6
   02/06/2017 12:50      55.5      55.2       86     51.3      0.00     12.70      56.6     0.52      1017.0     3       115         4       138        9.41     385       74.0
   02/06/2017 12:40      55.4      55.2       86     51.3      0.00     12.70      56.5     0.52      1017.0     1       122         2       124        9.41     386       75.8
   02/06/2017 12:30      55.3      55.1       86     51.1      0.00     12.70      56.6     0.52      1017.0     3       119         5       142        9.41     387       76.1
   02/06/2017 12:20      55.7      55.1       87     51.5      0.00     12.70      56.7     0.52      1017.0     3       125         6       153        9.41     389      140.0
   02/06/2017 12:10      55.2      54.6       88     51.4      0.00     12.70      56.6     0.52      1017.0     3        86         4        64        9.41     393      139.9
   02/06/2017 12:00      54.7      54.3       89     51.2      0.00     12.70      56.8     0.52      1018.0     2        79         4        79        9.41     398       90.0
   02/06/2017 11:50      54.3      54.0       89     50.9      0.00     12.70      56.7     0.52      1018.0     2        59         4        81        9.41     401       57.0
   02/06/2017 11:40      54.3      54.1       89     51.1      0.00     12.70      56.6     0.52      1018.0     2        79         4        67        9.41     402       49.9
   02/06/2017 11:30      54.2      54.1       90     51.1      0.00     12.70      56.2     0.52      1018.0     2        69         6        65        9.41     404       85.2
   02/06/2017 11:20      54.3      53.9       90     51.3      0.00     12.70      56.8     0.52      1018.0     1        54         2        47        9.41     407       80.1
   02/06/2017 11:10      54.0      53.2       91     51.1      0.00     12.70      57.0     0.52      1019.0     2        62         3        66        9.41     409      122.7
   02/06/2017 11:00      53.4      52.9       91     50.7      0.00     12.70      56.6     0.52      1018.0     3        69         5       111        9.41     414      106.5
   02/06/2017 10:50      53.0      52.5       92     50.3      0.00     12.70      56.1     0.52      1019.0     3       107         6       133        9.41     419       82.6
   02/06/2017 10:40      52.7      52.4       91     50.1      0.00     12.70      56.2     0.52      1019.0     4        78         6        86        9.41     419       81.3
   02/06/2017 10:30      52.6      52.5       92     50.2      0.00     12.70      56.6     0.52      1019.0     3        77         6        77        9.41     422       57.0
   02/06/2017 10:20      52.8      52.5       92     50.2      0.00     12.70      56.4     0.53      1019.0     2        49         3        19        9.41     423       35.5
   02/06/2017 10:10      52.8      52.3       92     50.0      0.01     12.70      56.8     0.53      1019.0     2        74         4       101        9.41     425       51.7
   02/06/2017 10:00      52.5      52.1       92     50.0      0.00     12.69      56.8     0.53      1019.0     3       111         5       142        9.41     427       68.2
   02/06/2017 09:50      52.3      52.0       92     50.0      0.01     12.69      56.6     0.53      1018.0     4       106         5        80        9.41     425       69.4
   02/06/2017 09:40      52.3      52.0       92     50.0      0.00     12.68      57.0     0.53      1018.0     3        84         4        73        9.41     431       43.9
   02/06/2017 09:30      52.1      51.9       93     50.0      0.01     12.68      56.5     0.53      1018.0     2        86         3        66        9.41     429       41.8
   02/06/2017 09:20      52.1      51.7       93     49.9      0.00     12.67      56.7     0.53      1018.0     2        53         4        52        9.41     432       33.2
   02/06/2017 09:10      51.9      51.7       93     49.9      0.01     12.67      57.0     0.53      1018.0     2        78         5       125        9.41     433       32.9
   02/06/2017 09:00      52.0      51.5       93     49.8      0.00     12.66      56.9     0.52      1017.0     3        64         6       104        9.41     435       43.0
   02/06/2017 08:50      51.7      51.4       93     49.7      0.00     12.66      56.6     0.52      1018.0     3        59         5        82        9.41     442       37.1
   02/06/2017 08:40      51.7      51.2       93     49.6      0.01     12.66      56.7     0.52      1018.0     3        62         5        67        9.41     440       22.9
   02/06/2017 08:30      51.4      51.2       93     49.4      0.02     12.65      56.6     0.52      1017.0     3        50         5        69        9.41     443       16.7
   02/06/2017 08:20      51.4      51.2       94     49.5      0.02     12.63      56.9     0.51      1017.0     4        53         5        76        9.41     447       11.5
   02/06/2017 08:10      51.5      51.3       94     49.6      0.01     12.61      56.4     0.51      1017.0     2        34         3        57        9.41     441        8.8
   02/06/2017 08:00      51.4      51.2       94     49.5      0.02     12.60      56.8     0.51      1017.0     3        64         7        82        9.40     443       10.7
   02/06/2017 07:50      51.4      51.2       94     49.6      0.02     12.58      56.6     0.51      1016.0     3        67         6        72        9.40     445       10.1
   02/06/2017 07:40      51.5      51.2       94     49.6      0.01     12.56      56.7     0.50      1016.0     2        49         5        69        9.40     442        4.9
   02/06/2017 07:30      51.5      51.2       93     49.5      0.02     12.55      56.6     0.50      1016.0     2        41         4         1        9.40     444        1.9
   02/06/2017 07:20      51.5      51.2       93     49.4      0.01     12.53      57.2     0.50      1016.0     2        47         4        61        9.40     438        0.5
   02/06/2017 07:10      51.3      51.2       93     49.4      0.02     12.52      56.6     0.50      1016.0     2        61         4        92        9.40     437       -0.7
   02/06/2017 07:00      51.3      51.2       93     49.4      0.01     12.50      57.0     0.50      1016.0     2        64         5        72        9.40     434       -2.1
   02/06/2017 06:50      51.2      51.1       94     49.4      0.01     12.49      57.2     0.49      1016.0     3        69         6        67        9.40     433       -2.2
   02/06/2017 06:40      51.3      51.0       94     49.4      0.01     12.48      57.2     0.49      1016.0     3        72         6       135        9.40     437       -2.1
   02/06/2017 06:30      51.2      51.1       94     49.4      0.00     12.47      57.2     0.49      1016.0     2        51         2        44        9.39     438       -2.1
   02/06/2017 06:20      51.2      51.0       94     49.3      0.03     12.47      56.4     0.49      1016.0     2        51         3        66        9.38     439       -2.1
   02/06/2017 06:10      51.3      50.9       94     49.3      0.03     12.44      56.9     0.49      1016.0     3        70         4       109        9.37     440       -2.1
   02/06/2017 06:00      51.1      50.9       94     49.2      0.01     12.41      57.3     0.49      1016.0     2        93         6       110        9.36     434       -2.3
   02/06/2017 05:50      50.9      50.8       94     49.1      0.01     12.40      56.9     0.48      1016.0     2        59         5        69        9.36     432       -2.4
   02/06/2017 05:40      50.9      50.7       94     49.0      0.01     12.39      56.9     0.48      1016.0     2        66         3        52        9.36     432       -2.5
   02/06/2017 05:30      50.9      50.7       94     49.0      0.02     12.38      57.5     0.48      1016.0     1        71         4        69        9.35     433       -2.5
   02/06/2017 05:20      50.8      50.6       94     48.9      0.01     12.36      56.4     0.48      1016.0     3        68         5        90        9.35     431       -2.5
   02/06/2017 05:10      50.8      50.6       94     48.9      0.01     12.35      57.2     0.48      1016.0     3        83         5        89        9.35     428       -2.8
   02/06/2017 05:00      50.8      50.6       94     49.0      0.01     12.34      56.8     0.48      1016.0     2        82         6        73        9.35     425       -2.8
   02/06/2017 04:50      50.8      50.6       94     49.0      0.01     12.33      57.1     0.48      1016.0     2        85         4        88        9.35     425       -2.8
   02/06/2017 04:40      50.9      50.7       94     49.0      0.01     12.32      56.6     0.48      1016.0     2        73         3       107        9.35     425       -2.7
   02/06/2017 04:30      51.1      50.7       94     49.0      0.00     12.31      57.0     0.48      1016.0     2        71         3        64        9.35     422       -2.5
   02/06/2017 04:20      51.0      50.8       93     49.0      0.02     12.31      56.4     0.48      1016.0     1        38         2        67        9.35     422       -2.6
   02/06/2017 04:10      50.9      50.7       93     49.0      0.01     12.29      57.1     0.48      1016.0     1        78         2        97        9.35     420       -2.8
   02/06/2017 04:00      50.9      50.8       93     49.0      0.00     12.28      56.5     0.48      1016.0     1        58         4        91        9.35     420       -2.8
   02/06/2017 03:50      50.9      50.7       93     48.9      0.01     12.28      56.6     0.48      1016.0     2        85         4        68        9.35     418       -3.1
   02/06/2017 03:40      50.9      50.7       93     48.9      0.01     12.27      56.8     0.48      1016.0     2        64         3       104        9.35     415       -3.1
   02/06/2017 03:30      51.0      50.8       93     49.0      0.00     12.26      57.1     0.48      1016.0     2        88         4        88        9.34     414       -3.4
   02/06/2017 03:20      50.9      50.8       93     49.0      0.01     12.26      56.7     0.48      1016.0     2        86         4        95        9.34     412       -2.9
   02/06/2017 03:10      50.9      50.8       93     49.0      0.00     12.25      57.1     0.48      1015.0     3        84         4        80        9.34     411       -2.9
   02/06/2017 03:00      51.3      50.9       93     49.3      0.00     12.25      57.0     0.48      1015.0     2        78         3        61        9.34     411       -2.8
   02/06/2017 02:50      51.3      51.1       93     49.3      0.01     12.25      56.7     0.48      1016.0     1        62         2        68        9.34     412       -3.2
   02/06/2017 02:40      51.3      51.0       93     49.3      0.02     12.24      56.9     0.48      1016.0     1        56         1        62        9.34     412       -3.1
   02/06/2017 02:30      51.4      51.1       93     49.4      0.00     12.22      57.2     0.48      1016.0     1       208         2       265        9.34     407       -3.1
   02/06/2017 02:20      51.5      51.2       93     49.5      0.01     12.22      56.8     0.48      1016.0     1       274         2       308        9.33     406       -3.0
   02/06/2017 02:10      51.7      51.4       93     49.6      0.00     12.21      57.3     0.48      1016.0     1       181         2       162        9.33     406       -2.6
   02/06/2017 02:00      51.7      51.7       93     49.7      0.01     12.21      56.6     0.48      1016.0     1       160         2       140        9.33     402       -2.5
   02/06/2017 01:50      51.9      51.7       93     49.8      0.00     12.20      57.1     0.48      1016.0     1       118         2       124        9.33     400       -2.3
   02/06/2017 01:40      51.9      51.7       93     49.7      0.00     12.20      56.8     0.48      1016.0     1        66         1        67        9.32     399       -2.3
   02/06/2017 01:30      51.9      51.8       92     49.7      0.01     12.20      57.4     0.48      1017.0     1        48         1        65        9.32     399       -2.3
   02/06/2017 01:20      52.0      51.7       92     49.6      0.01     12.19      57.2     0.48      1017.0     0       253         1       248        9.31     397       -2.4
   02/06/2017 01:10      52.1      51.7       92     49.6      0.01     12.18      56.9     0.48      1017.0     1       198         1       218        9.31     399       -2.3
   02/06/2017 01:00      52.0      51.7       92     49.6      0.00     12.17      56.8     0.48      1017.0     1       239         1       246        9.31     397       -2.3
   02/06/2017 00:50      52.1      51.9       92     49.6      0.01     12.17      57.3     0.47      1017.0     1       190         1       251        9.31     390       -2.3
   02/06/2017 00:40      52.2      51.9       91     49.5      0.00     12.16      57.1     0.47      1017.0     1         9         1       346        9.31     389       -2.3
   02/06/2017 00:30      52.0      51.9       91     49.3      0.00     12.16      57.8     0.48      1017.0     1         2         2       344        9.31     391       -2.4
   02/06/2017 00:20      52.2      51.9       90     49.2      0.01     12.16      58.0     0.47      1016.0     1        69         2        77        9.31     391       -2.3
   02/06/2017 00:10      52.3      52.0       89     49.1      0.00     12.15      56.6     0.48      1017.0     1        89         2        82        9.31     386       -2.8
   02/06/2017 00:00      52.3      52.2       88     48.8      0.02     12.15      56.9     0.48      1017.0     1        72         2        95        9.31     383       -3.8
   02/05/2017 23:50      52.2      51.7       88     48.5      0.00     12.13      56.8     0.48      1017.0     2       196         3       181        9.30     390       -7.8
   02/05/2017 23:40      51.9      51.7       88     48.4      0.00     12.13      57.0     0.48      1017.0     1       204         2       254        9.30     387       -9.0
   02/05/2017 23:30      51.9      51.7       88     48.2      0.00     12.13      57.3     0.48      1017.0     1        26         2       321        9.30     386       -9.8
   02/05/2017 23:20      51.9      51.6       87     48.1      0.00     12.13      57.4     0.48      1017.0     0        88         1       149        9.30     385       -9.3
   02/05/2017 23:10      51.9      51.7       87     48.2      0.00     12.13      57.3     0.48      1017.0     1       225         1       281        9.30     397       -8.2
   02/05/2017 23:00      51.9      51.7       87     48.1      0.00     12.13      56.9     0.48      1017.0     0        45         1       268        9.30     417       -8.3
   02/05/2017 22:50      51.9      51.5       88     48.2      0.00     12.13      57.6     0.48      1017.0     1        90         1        71        9.30     426       -8.2
   02/05/2017 22:40      51.7      51.2       89     48.2      0.00     12.13      57.2     0.48      1017.0     1       166         1       131        9.30     410       -9.3
   02/05/2017 22:30      51.3      50.8       89     48.0      0.00     12.13      57.2     0.48      1016.0     1        93         2       124        9.30     411      -10.0
   02/05/2017 22:20      50.8      50.5       89     47.5      0.00     12.13      57.5     0.48      1017.0     2        76         3        95        9.30     413      -12.5
   02/05/2017 22:10      51.1      50.6       88     47.3      0.00     12.13      57.4     0.48      1017.0     1        71         1        71        9.30     415      -16.1
   02/05/2017 22:00      51.3      51.1       88     47.7      0.00     12.13      57.1     0.48      1017.0     1       341         2       308        9.30     418      -41.2
   02/05/2017 21:50      51.8      51.3       87     47.7      0.00     12.13      57.6     0.48      1017.0     1        27         1       305        9.30     417      -42.7
   02/05/2017 21:40      52.0      51.8       87     48.1      0.00     12.13      57.1     0.48      1017.0     1       216         2       234        9.30     422      -46.0
   02/05/2017 21:30      52.4      52.1       86     48.3      0.00     12.13      56.9     0.48      1017.0     1        98         2        76        9.30     387      -34.1
   02/05/2017 21:20      52.4      52.1       87     48.3      0.00     12.13      57.3     0.48      1017.0     1       259         1       231        9.30     386      -12.4
   02/05/2017 21:10      52.2      52.0       87     48.3      0.00     12.13      57.2     0.48      1017.0     1       129         1       171        9.30     385      -11.7
   02/05/2017 21:00      52.3      52.0       87     48.3      0.00     12.13      57.3     0.48      1017.0     1        92         3       137        9.30     386      -10.9
   02/05/2017 20:50      52.4      51.4       88     48.5      0.00     12.13      57.3     0.48      1017.0     2       202         3       198        9.30     385       -8.8
   02/05/2017 20:40      51.3      50.6       89     47.8      0.00     12.13      57.1     0.48      1017.0     2       196         3       200        9.30     385      -11.0
   02/05/2017 20:30      50.7      50.5       89     47.4      0.00     12.13      57.2     0.48      1017.0     1        94         1       149        9.30     385      -11.7
   02/05/2017 20:20      50.8      50.6       88     47.4      0.00     12.13      57.2     0.48      1017.0     1       226         2       171        9.30     385      -27.8
   02/05/2017 20:10      51.3      50.7       87     47.2      0.00     12.13      57.4     0.48      1017.0     2       170         3       133        9.30     383      -56.0
   02/05/2017 20:00      51.6      51.4       86     47.6      0.00     12.13      57.1     0.48      1016.0     2       262         2       232        9.30     381      -62.9
   02/05/2017 19:50      52.3      51.7       85     47.6      0.00     12.13      57.1     0.48      1016.0     1       194         2       196        9.30     377      -47.3
   02/05/2017 19:40      52.8      52.1       84     47.8      0.00     12.13      57.2     0.48      1016.0     2       185         3       139        9.30     373      -54.1
   02/05/2017 19:30      53.2      52.9       83     47.9      0.00     12.13      57.1     0.48      1016.0     2       147         3       132        9.30     370      -54.5
   02/05/2017 19:20      53.5      53.1       83     48.1      0.00     12.13      57.2     0.48      1016.0     2       164         4       161        9.30     366      -41.4
   02/05/2017 19:10      53.8      53.5       82     48.2      0.00     12.13      56.7     0.48      1016.0     2       136         2       156        9.30     364      -29.9
   02/05/2017 19:00      54.0      53.7       81     48.2      0.00     12.13      57.5     0.48      1016.0     1        84         2       102        9.30     362      -21.0
   02/05/2017 18:50      54.2      54.0       81     48.3      0.00     12.13      57.1     0.48      1016.0     1       118         1        71        9.30     360      -16.0
   02/05/2017 18:40      54.2      53.9       81     48.2      0.00     12.13      57.0     0.48      1016.0     2       202         2       219        9.30     359      -14.6
   02/05/2017 18:30      54.2      54.0       81     48.2      0.00     12.13      57.2     0.48      1016.0     2       181         3       165        9.30     358      -13.4
   02/05/2017 18:20      54.3      54.1       80     48.0      0.00     12.13      57.0     0.48      1016.0     2       169         3       164        9.31     357      -12.8
   02/05/2017 18:10      54.2      54.0       80     48.1      0.00     12.13      57.7     0.48      1016.0     3       184         5       195        9.31     356      -11.9
   02/05/2017 18:00      54.4      54.2       80     48.2      0.00     12.13      57.2     0.48      1016.0     3       210         4       188        9.31     355      -11.4
   02/05/2017 17:50      54.5      54.4       80     48.4      0.00     12.13      57.5     0.48      1016.0     2       193         5       208        9.31     359      -10.3
   02/05/2017 17:40      54.7      54.4       80     48.5      0.00     12.13      57.3     0.48      1016.0     3       199         4       198        9.31     369       -9.9
   02/05/2017 17:30      55.1      54.7       79     48.5      0.00     12.13      57.5     0.48      1016.0     2       177         3       218        9.31     362       -9.4
   02/05/2017 17:20      55.2      55.0       78     48.5      0.00     12.13      57.7     0.48      1016.0     1       201         1       168        9.31     361       -8.8
   02/05/2017 17:10      55.2      54.8       78     48.4      0.00     12.13      57.1     0.48      1016.0     0       201         1       189        9.31     364       -5.8
   02/05/2017 17:00      55.0      54.8       79     48.4      0.00     12.13      56.9     0.48      1016.0     1       189         2       186        9.31     363       -2.5
   02/05/2017 16:50      55.0      54.8       78     48.1      0.00     12.13      57.5     0.48      1015.0     2       100         4        97        9.31     364        1.2
   02/05/2017 16:40      55.0      54.9       78     48.2      0.00     12.13      57.2     0.48      1015.0     2        84         4        84        9.31     364        6.6
   02/05/2017 16:30      55.2      54.8       78     48.3      0.00     12.13      57.3     0.48      1015.0     2       113         3       130        9.31     364        7.1
   02/05/2017 16:20      55.2      55.0       79     48.6      0.00     12.13      57.3     0.48      1015.0     2        83         3        57        9.31     364        0.7
   02/05/2017 16:10      55.3      55.0       78     48.6      0.00     12.13      57.1     0.48      1015.0     2        50         3        77        9.31     365        1.6
   02/05/2017 16:00      55.4      55.1       78     48.6      0.00     12.13      56.8     0.48      1015.0     2        36         5        69        9.31     365       16.9
   02/05/2017 15:50      55.5      55.3       78     48.8      0.00     12.13      57.1     0.48      1015.0     2        62         3        66        9.31     366       22.3
   02/05/2017 15:40      55.6      55.4       78     48.8      0.00     12.13      57.1     0.48      1015.0     1        80         3        59        9.31     367       26.9
   02/05/2017 15:30      55.7      55.4       78     48.9      0.00     12.13      57.3     0.48      1015.0     1         7         2       312        9.31     368       46.7
   02/05/2017 15:20      55.6      55.3       79     48.8      0.00     12.13      57.1     0.48      1015.0     1       357         2       343        9.31     370       26.7
   02/05/2017 15:10      55.5      54.9       79     48.8      0.00     12.13      57.2     0.48      1015.0     1        57         2        81        9.31     372       34.0
   02/05/2017 15:00      55.1      54.7       80     48.8      0.00     12.13      56.9     0.48      1015.0     2        15         3         8        9.31     373       44.0
   02/05/2017 14:50      54.8      54.5       80     48.6      0.00     12.13      57.2     0.48      1016.0     1       359         2         0        9.31     375       35.2
   02/05/2017 14:40      54.7      54.4       80     48.5      0.00     12.13      57.4     0.48      1016.0     1       255         2       233        9.31     376       22.4
   02/05/2017 14:30      54.9      54.5       80     48.7      0.00     12.13      57.1     0.48      1016.0     1       266         2       220        9.31     376       13.3
   02/05/2017 14:20      54.7      54.3       80     48.5      0.00     12.13      57.1     0.48      1016.0     1       193         2       218        9.31     377       27.0
   02/05/2017 14:10      54.9      54.5       80     48.5      0.00     12.13      57.1     0.48      1016.0     1       225         2       270        9.31     378       29.7
   02/05/2017 14:00      54.7      54.5       80     48.5      0.00     12.13      57.0     0.48      1016.0     1       321         2       325        9.31     379       24.7
   02/05/2017 13:50      55.0      54.7       79     48.6      0.00     12.13      56.9     0.48      1016.0     2        46         4       104        9.31     380       33.3
   02/05/2017 13:40      55.3      55.0       79     48.7      0.00     12.13      56.9     0.48      1015.0     2        56         2        98        9.31     381       58.9
   02/05/2017 13:30      55.2      54.3       81     48.8      0.00     12.13      57.3     0.48      1015.0     2        58         4        74        9.30     384      110.3
   02/05/2017 13:20      54.5      53.8       82     48.7      0.00     12.13      56.8     0.48      1016.0     2        57         4        56        9.31     389      161.8
   02/05/2017 13:10      54.2      54.0       83     49.0      0.00     12.13      56.8     0.48      1016.0     1       185         3       161        9.31     395      106.1
   02/05/2017 13:00      54.0      53.2       85     49.1      0.00     12.13      56.9     0.48      1016.0     1       135         2       112        9.31     400      132.0
   02/05/2017 12:50      53.7      53.1       84     48.9      0.00     12.13      57.4     0.48      1016.0     2        94         3       160        9.31     404      132.0
   02/05/2017 12:40      53.4      52.7       85     48.7      0.00     12.13      56.9     0.48      1016.0     1       130         4        94        9.31     409      116.0
   02/05/2017 12:30      52.8      52.3       86     48.6      0.00     12.13      57.1     0.48      1016.0     1       110         2        53        9.31     412      114.8
   02/05/2017 12:20      52.3      51.6       87     48.3      0.00     12.13      56.8     0.48      1016.0     1        63         2        94        9.31     416      114.6
   02/05/2017 12:10      51.8      51.6       87     48.0      0.00     12.13      56.9     0.48      1016.0     1       158         2        55        9.31     419       99.2
   02/05/2017 12:00      51.8      51.4       88     48.1      0.00     12.13      56.8     0.48      1017.0     2       120         3       111        9.31     422       91.3
   02/05/2017 11:50      51.4      51.1       88     48.0      0.00     12.13      57.2     0.48      1017.0     2       124         3       111        9.30     423       92.7
   02/05/2017 11:40      51.6      51.0       90     48.4      0.00     12.13      56.9     0.48      1017.0     2        79         3       134        9.30     426       93.0
   02/05/2017 11:30      51.0      50.6       91     48.1      0.00     12.13      57.4     0.47      1017.0     2        77         4        80        9.30     429       91.8
   02/05/2017 11:20      50.6      50.1       92     48.0      0.00     12.13      57.3     0.48      1017.0     3        77         4        82        9.30     431      111.9
   02/05/2017 11:10      50.3      50.2       92     48.0      0.00     12.13      57.1     0.48      1017.0     3        69         4        69        9.30     434       99.2
   02/05/2017 11:00      50.3      49.8       92     47.9      0.00     12.13      56.6     0.48      1017.0     3        62         4        71        9.31     437       95.9
   02/05/2017 10:50      50.0      49.6       93     47.7      0.00     12.13      56.8     0.48      1017.0     2        86         3        99        9.31     439       73.0
   02/05/2017 10:40      49.8      49.5       93     47.6      0.00     12.13      56.8     0.48      1018.0     2        82         4        77        9.31     441       68.2
   02/05/2017 10:30      49.7      49.5       93     47.7      0.00     12.13      56.8     0.48      1018.0     3        75         4        79        9.31     442       68.8
   02/05/2017 10:20      49.6      49.4       93     47.8      0.00     12.13      57.2     0.48      1018.0     2        67         3        61        9.31     444       59.7
   02/05/2017 10:10      49.7      49.3       94     47.8      0.00     12.13      56.9     0.48      1018.0     3        85         3        80        9.31     452       50.5
   02/05/2017 10:00      49.6      49.3       94     47.9      0.00     12.13      57.0     0.48      1018.0     2        67         3        67        9.31     453       43.6
   02/05/2017 09:50      49.5      49.2       94     47.7      0.00     12.13      57.0     0.48      1018.0     2        72         3        83        9.31     454       44.6
   02/05/2017 09:40      49.5      49.2       94     47.8      0.00     12.13      56.9     0.48      1018.0     3        18         4       348        9.31     454       42.2
   02/05/2017 09:30      49.7      49.4       94     48.0      0.00     12.13      57.4     0.48      1018.0     2        46         3        56        9.31     455       49.3
   02/05/2017 09:20      49.9      49.5       95     48.3      0.00     12.13      57.4     0.48      1018.0     2        34         2        33        9.31     455       64.0
   02/05/2017 09:10      49.7      49.4       95     48.1      0.00     12.13      57.0     0.48      1018.0     2        31         2        37        9.31     457       50.2
   02/05/2017 09:00      49.7      49.5       95     48.3      0.00     12.13      56.9     0.48      1018.0     2         7         3         4        9.30     458       42.4
   02/05/2017 08:50      49.9      48.9       96     48.2      0.00     12.13      57.2     0.48      1019.0     1       322         2       324        9.30     457       80.4
   02/05/2017 08:40      49.0      48.2       96     47.5      0.00     12.13      57.5     0.48      1019.0     2       257         3       245        9.30     459      113.2
   02/05/2017 08:30      48.1      47.2       96     46.5      0.00     12.13      57.4     0.48      1019.0     3       256         5       260        9.30     461      105.1
   02/05/2017 08:20      47.2      46.5       96     45.8      0.00     12.13      57.5     0.48      1018.0     3       260         5       237        9.31     463       87.5
   02/05/2017 08:10      46.6      46.3       96     45.3      0.00     12.13      57.3     0.48      1018.0     1       253         2       240        9.31     463       72.4
   02/05/2017 08:00      46.6      46.4       96     45.3      0.00     12.13      57.4     0.48      1017.0     1       135         2        85        9.31     464       61.9
   02/05/2017 07:50      46.6      46.0       96     45.1      0.00     12.13      57.6     0.48      1017.0     1        87         2       100        9.31     463       50.3
   02/05/2017 07:40      46.2      46.0       96     44.9      0.00     12.13      57.4     0.48      1017.0     1       114         2        71        9.31     464       32.4
   02/05/2017 07:30      46.2      46.0       96     44.9      0.00     12.13      57.7     0.48      1017.0     1         4         2       359        9.31     464       25.0
   02/05/2017 07:20      46.3      46.0       96     45.0      0.00     12.13      57.3     0.48      1017.0     1       307         2       255        9.31     464       16.6
   02/05/2017 07:10      46.0      45.9       96     44.8      0.00     12.13      57.7     0.48      1017.0     1       217         2       266        9.31     463        9.0
   02/05/2017 07:00      46.2      45.9       96     44.8      0.00     12.13      57.4     0.48      1016.0     1       208         2       239        9.31     462        3.7
   02/05/2017 06:50      46.1      45.8       96     44.7      0.00     12.13      57.1     0.48      1016.0     1       147         1       126        9.31     462       -0.1
   02/05/2017 06:40      46.0      45.7       96     44.6      0.00     12.13      57.4     0.48      1016.0     1       153         1       202        9.31     461       -2.2
   02/05/2017 06:30      46.0      45.7       95     44.6      0.00     12.13      57.3     0.48      1016.0     1        54         1        46        9.30     461       -3.7
   02/05/2017 06:20      46.0      45.7       95     44.6      0.00     12.13      57.5     0.48      1016.0     1        95         1       107        9.31     460       -3.3
   02/05/2017 06:10      46.0      45.7       96     44.6      0.00     12.13      57.7     0.48      1016.0     1       264         1       311        9.30     459       -3.4
   02/05/2017 06:00      45.9      45.5       96     44.5      0.00     12.13      58.3     0.48      1016.0     1       246         1       271        9.30     458       -2.5
   02/05/2017 05:50      45.6      45.0       96     44.1      0.00     12.13      57.4     0.48      1016.0     1       271         1       298        9.30     457       -2.4
   02/05/2017 05:40      45.0      44.5       96     43.6      0.00     12.13      57.6     0.48      1016.0     1       235         2       260        9.30     456       -1.5
   02/05/2017 05:30      44.6      44.3       96     43.2      0.00     12.13      57.6     0.48      1016.0     1       188         1       199        9.30     455       -1.7
   02/05/2017 05:20      44.3      43.9       96     42.9      0.00     12.13      57.6     0.48      1016.0     1       115         1       122        9.30     455       -1.7
   02/05/2017 05:10      43.9      43.3       96     42.5      0.00     12.13      57.9     0.48      1016.0     1       116         1       134        9.31     455       -2.3
   02/05/2017 05:00      43.4      42.9       96     41.9      0.00     12.13      57.6     0.48      1016.0     1       144         1       127        9.31     454       -3.0
   02/05/2017 04:50      43.1      42.8       95     41.7      0.00     12.13      57.6     0.48      1016.0     1        31         1       125        9.31     454       -3.8
   02/05/2017 04:40      43.0      42.4       96     41.5      0.00     12.13      58.0     0.48      1016.0     1       306         2       271        9.31     453       -8.0
   02/05/2017 04:30      42.5      42.3       95     41.2      0.00     12.13      58.1     0.48      1016.0     1       269         2       294        9.31     451      -15.9
   02/05/2017 04:20      42.7      42.0       96     41.2      0.00     12.13      58.4     0.48      1016.0     1       318         1       270        9.31     449      -19.6
   02/05/2017 04:10      42.2      42.2       95     41.0      0.00     12.13      58.3     0.48      1016.0     1        47         2       115        9.31     447      -20.5
   02/05/2017 04:00      42.6      42.2       95     41.1      0.00     12.13      58.4     0.48      1016.0     1       150         1       147        9.31     445      -21.1
   02/05/2017 03:50      43.1      42.6       95     41.6      0.00     12.13      58.1     0.48      1016.0     1        98         1        48        9.31     443      -21.3
   02/05/2017 03:40      43.1      42.7       95     41.6      0.00     12.13      57.7     0.48      1016.0     1       158         1        84        9.31     441      -21.7
   02/05/2017 03:30      43.1      42.6       95     41.6      0.00     12.13      58.2     0.48      1016.0     2       113         2       130        9.31     438      -21.3
   02/05/2017 03:20      43.5      43.0       95     42.0      0.00     12.13      58.2     0.48      1016.0     1       170         2       140        9.31     436      -21.3
   02/05/2017 03:10      43.7      43.2       95     42.2      0.00     12.13      58.1     0.48      1016.0     1       152         1       131        9.31     434      -21.8
   02/05/2017 03:00      43.5      43.2       95     42.1      0.00     12.13      58.0     0.48      1016.0     1       142         1       147        9.31     431      -21.9
   02/05/2017 02:50      43.7      43.3       95     42.2      0.00     12.13      58.5     0.48      1016.0     1       135         1       137        9.31     428      -22.4
   02/05/2017 02:40      44.1      43.7       95     42.7      0.00     12.13      58.6     0.48      1016.0     1        19         1       126        9.31     426      -22.8
   02/05/2017 02:30      44.6      44.1       95     43.0      0.00     12.13      58.2     0.48      1017.0     0       118         1       159        9.31     423      -22.5
   02/05/2017 02:20      44.8      44.4       95     43.4      0.00     12.13      58.0     0.48      1017.0     1       198         1       154        9.31     420      -17.1
   02/05/2017 02:10      44.5      44.0       95     42.9      0.00     12.13      58.2     0.48      1016.0     1       155         1       136        9.31     417      -15.1
   02/05/2017 02:00      44.3      44.1       95     42.9      0.00     12.13      58.2     0.48      1017.0     1       125         2       136        9.31     415      -23.2
   02/05/2017 01:50      44.8      44.3       95     43.2      0.00     12.13      58.4     0.48      1017.0     1       136         2       131        9.31     413      -23.8
   02/05/2017 01:40      45.0      44.9       95     43.7      0.00     12.13      58.5     0.48      1017.0     1       152         1       134        9.31     410      -23.9
   02/05/2017 01:30      45.8      44.9       95     44.1      0.00     12.13      58.1     0.48      1017.0     1       215         1       221        9.31     406      -23.9
   02/05/2017 01:20      46.0      45.8       95     44.6      0.00     12.13      58.6     0.48      1017.0     1       156         1       156        9.31     404      -24.4
   02/05/2017 01:10      46.8      46.0       95     44.8      0.00     12.13      58.3     0.48      1017.0     2       170         2       165        9.31     401      -13.7
   02/05/2017 01:00      47.2      46.8       95     45.6      0.00     12.13      58.1     0.48      1017.0     2       187         3       201        9.31     398       -6.6
   02/05/2017 00:50      47.5      47.2       95     45.9      0.00     12.13      59.0     0.48      1018.0     2       229         3       241        9.31     397      -15.1
   02/05/2017 00:40      47.5      47.4       95     46.0      0.00     12.13      58.2     0.48      1018.0     1       234         2       207        9.31     396      -13.3
   02/05/2017 00:30      47.8      47.4       94     46.1      0.00     12.13      58.3     0.48      1018.0     2       221         2       195        9.31     394      -16.8
   02/05/2017 00:20      48.2      47.7       94     46.3      0.00     12.13      58.6     0.48      1018.0     2       211         3       201        9.31     391      -11.5
   02/05/2017 00:10      48.4      48.0       94     46.5      0.00     12.13      58.1     0.48      1018.0     2       216         3       227        9.31     406       -7.4
   02/05/2017 00:00      48.5      48.3       94     46.5      0.00     12.13      58.6     0.48      1018.0     2       254         3       256        9.31     397      -12.9
   02/04/2017 23:50      48.5      48.0       93     46.3      0.00     12.13      58.6     0.48      1018.0     1       254         2       261        9.31     395      -19.5
   02/04/2017 23:40      48.9      48.5       93     46.8      0.00     12.13      58.7     0.48      1018.0     2       232         4       224        9.31     392      -20.4
   02/04/2017 23:30      48.9      47.8       93     46.4      0.00     12.13      58.2     0.48      1018.0     2       222         3       226        9.31     391      -22.7
   02/04/2017 23:20      48.0      47.7       92     45.5      0.00     12.13      58.3     0.48      1018.0     1       176         1       126        9.31     389      -24.7
   02/04/2017 23:10      48.7      47.9       91     45.8      0.00     12.13      58.9     0.48      1018.0     0       247         1       138        9.31     385      -26.3
   02/04/2017 23:00      48.8      48.3       91     46.0      0.00     12.13      58.3     0.48      1018.0     0       173         1       203        9.31     382      -27.5
   02/04/2017 22:50      49.4      48.8       90     46.3      0.00     12.13      58.8     0.48      1018.0     1       326         1       344        9.31     378      -29.3
   02/04/2017 22:40      49.4      49.1       90     46.4      0.00     12.13      58.1     0.48      1018.0     1        61         1       111        9.31     375      -30.9
   02/04/2017 22:30      49.9      49.4       89     46.6      0.00     12.13      58.7     0.48      1018.0     1        89         1        47        9.31     372      -32.8
   02/04/2017 22:20      50.5      49.8       89     47.1      0.00     12.13      58.2     0.48      1018.0     1       158         2       238        9.31     367      -34.8
   02/04/2017 22:10      50.3      49.7       89     46.9      0.00     12.13      59.0     0.48      1018.0     2       189         2       216        9.31     365      -37.9
   02/04/2017 22:00      50.6      50.3       88     47.1      0.00     12.13      58.7     0.48      1018.0     2       184         3       200        9.31     360      -40.8
   02/04/2017 21:50      51.1      50.6       87     47.0      0.00     12.13      58.7     0.48      1018.0     2       246         3       219        9.31     357      -45.9
   02/04/2017 21:40      51.3      51.1       86     47.3      0.00     12.13      58.6     0.48      1018.0     1       227         2       256        9.31     353      -49.0
   02/04/2017 21:30      51.5      51.2       86     47.2      0.00     12.13      58.4     0.48      1018.0     2       219         3       216        9.31     350      -52.9
   02/04/2017 21:20      51.6      50.9       86     47.3      0.00     12.13      59.0     0.48      1018.0     2       230         3       226        9.31     348      -56.0
   02/04/2017 21:10      50.9      50.6       86     46.7      0.00     12.13      58.6     0.48      1018.0     1       201         4       220        9.31     345      -59.9
   02/04/2017 21:00      51.1      50.7       85     46.6      0.00     12.13      59.1     0.48      1018.0     2       178         3       211        9.31     343      -60.3
   02/04/2017 20:50      51.1      50.8       85     46.4      0.00     12.13      58.5     0.48      1018.0     2       190         3       212        9.32     341      -58.6
   02/04/2017 20:40      51.3      51.1       84     46.5      0.00     12.13      58.6     0.48      1018.0     1       192         2       179        9.32     334      -63.1
   02/04/2017 20:30      51.6      51.2       83     46.6      0.00     12.13      58.5     0.48      1018.0     1       214         2       241        9.32     330      -64.8
   02/04/2017 20:20      51.7      51.2       83     46.5      0.00     12.13      58.9     0.48      1018.0     2       203         2       216        9.32     326      -65.1
   02/04/2017 20:10      53.0      51.8       80     46.3      0.00     12.13      58.8     0.48      1018.0     2       168         3       163        9.32     322      -65.4
   02/04/2017 20:00      53.6      53.1       78     46.6      0.00     12.13      58.8     0.48      1018.0     2       198         2       193        9.32     320      -67.5
   02/04/2017 19:50      53.8      53.5       77     46.6      0.00     12.13      58.5     0.48      1018.0     3       227         5       230        9.32     318      -68.6
   02/04/2017 19:40      54.1      53.9       76     46.5      0.00     12.13      58.9     0.48      1018.0     3       244         3       235        9.32     316      -68.9
   02/04/2017 19:30      54.6      54.1       75     46.4      0.00     12.13      58.7     0.48      1018.0     2       218         3       207        9.32     313      -70.3
   02/04/2017 19:20      54.7      54.5       74     46.4      0.00     12.13      59.0     0.48      1018.0     3       224         5       229        9.32     310      -70.8
   02/04/2017 19:10      55.1      54.6       73     46.5      0.00     12.13      58.7     0.48      1018.0     3       212         5       210        9.32     307      -71.1
   02/04/2017 19:00      55.2      55.0       73     46.7      0.00     12.13      58.6     0.48      1018.0     3       200         5       197        9.32     305      -71.3
   02/04/2017 18:50      55.5      55.2       73     47.0      0.00     12.13      58.6     0.48      1017.0     3       214         4       216        9.33     302      -71.4
   02/04/2017 18:40      56.0      55.6       72     47.1      0.00     12.13      58.7     0.48      1017.0     3       223         5       244        9.33     299      -72.0
   02/04/2017 18:30      56.4      56.0       71     47.0      0.00     12.13      58.4     0.48      1017.0     3       227         5       247        9.33     297      -72.2
   02/04/2017 18:20      56.9      56.5       70     47.0      0.00     12.13      58.4     0.48      1017.0     3       219         5       252        9.33     294      -72.5
   02/04/2017 18:10      57.2      57.0       69     46.9      0.00     12.13      58.4     0.48      1017.0     3       219         4       218        9.33     292      -72.7
   02/04/2017 18:00      57.7      57.1       68     46.9      0.00     12.13      58.7     0.48      1017.0     3       232         4       238        9.33     290      -73.2
   02/04/2017 17:50      58.4      57.7       66     46.9      0.00     12.13      58.6     0.48      1017.0     3       225         6       236        9.33     287      -73.9
   02/04/2017 17:40      58.9      58.6       63     46.3      0.00     12.13      58.4     0.48      1017.0     3       221         4       223        9.33     285      -73.8
   02/04/2017 17:30      59.4      58.9       64     47.0      0.00     12.13      58.2     0.48      1017.0     3       228         5       230        9.33     284      -72.1
   02/04/2017 17:20      59.5      59.4       66     48.0      0.00     12.13      58.3     0.48      1017.0     2       221         4       210        9.33     282      -69.3
   02/04/2017 17:10      59.9      59.5       66     48.2      0.00     12.13      58.2     0.48      1017.0     3       196         4       183        9.34     280      -65.0
   02/04/2017 17:00      60.4      60.0       64     48.0      0.00     12.13      58.3     0.48      1017.0     3       186         4       166        9.34     279      -59.0
   02/04/2017 16:50      61.0      60.6       62     47.8      0.00     12.13      58.1     0.48      1016.0     3       190         5       209        9.34     278      -53.6
   02/04/2017 16:40      61.6      61.1       61     47.7      0.00     12.13      58.0     0.48      1016.0     4       180         6       182        9.34     278       -9.7
   02/04/2017 16:30      61.7      61.3       60     47.4      0.00     12.13      58.0     0.48      1016.0     3       172         5       180        9.34     278       19.4
   02/04/2017 16:20      61.5      60.8       62     48.1      0.00     12.13      58.1     0.48      1016.0     3       159         4       148        9.34     278       25.4
   02/04/2017 16:10      61.9      61.0       61     48.1      0.00     12.13      58.0     0.48      1016.0     5       168         7       158        9.34     278      -13.3
   02/04/2017 16:00      62.2      61.8       59     47.4      0.00     12.13      57.9     0.48      1016.0     3       175         6       189        9.34     279       67.2
   02/04/2017 15:50      63.1      61.9       57     47.1      0.00     12.13      57.9     0.48      1017.0     4       180         6       178        9.34     279       51.3
   02/04/2017 15:40      63.3      62.9       57     47.8      0.00     12.13      57.8     0.48      1017.0     4       179         6       173        9.34     279      127.4
   02/04/2017 15:30      64.5      63.1       53     46.3      0.00     12.13      58.0     0.48      1017.0     4       224         7       227        9.34     279      137.1
   02/04/2017 15:20      64.6      63.9       46     43.0      0.00     12.13      57.8     0.48      1017.0     4       248         5       270        9.34     279      175.2
   02/04/2017 15:10      64.2      63.7       46     42.8      0.00     12.13      57.8     0.48      1017.0     6       242         8       241        9.34     279      201.7
   02/04/2017 15:00      64.3      64.1       47     43.8      0.00     12.13      57.4     0.48      1017.0     4       254         6       242        9.34     281      225.4
   02/04/2017 14:50      65.1      64.3       48     44.5      0.00     12.13      57.6     0.48      1017.0     4       283         8       252        9.34     281      251.2
   02/04/2017 14:40      64.2      62.7       52     45.4      0.00     12.13      57.8     0.48      1017.0     4       274         5       303        9.34     281      293.3
   02/04/2017 14:30      62.8      62.4       54     45.7      0.00     12.13      57.2     0.48      1017.0     4       255         5       282        9.34     280       65.9
   02/04/2017 14:20      63.4      62.8       52     45.2      0.00     12.13      57.6     0.48      1017.0     4       235         5       208        9.34     280      103.4
   02/04/2017 14:10      63.4      62.1       53     45.2      0.00     12.13      57.3     0.48      1017.0     5       231         8       216        9.34     280      194.1
   02/04/2017 14:00      65.0      63.7       52     46.5      0.00     12.13      57.2     0.48      1017.0     5       249         7       251        9.34     279      234.6
   02/04/2017 13:50      64.8      64.2       51     46.0      0.00     12.13      57.0     0.48      1017.0     4       282         7       335        9.34     279      469.5
   02/04/2017 13:40      65.8      65.2       50     46.4      0.00     12.13      57.0     0.48      1017.0     5       278         8       249        9.34     280      479.0
   02/04/2017 13:30      65.3      64.2       51     46.1      0.00     12.13      57.0     0.48      1017.0     2       198         5       277        9.34     280      472.6
   02/04/2017 13:20      64.2      63.5       53     46.3      0.00     12.13      57.3     0.48      1018.0     4       265         7       211        9.34     280      527.8
   02/04/2017 13:10      63.8      63.0       54     46.7      0.00     12.13      57.3     0.48      1018.0     6       248         8       232        9.34     281      571.8
   02/04/2017 13:00      63.2      61.8       56     46.6      0.00     12.13      57.5     0.48      1018.0     3       269         6       328        9.34     281      457.9
   02/04/2017 12:50      62.5      61.7       59     47.6      0.00     12.13      57.0     0.48      1018.0     3       330         5       315        9.35     282      107.4
   02/04/2017 12:40      62.9      62.3       58     47.5      0.00     12.13      56.7     0.48      1018.0     2       307         4       299        9.34     282      101.6
   02/04/2017 12:30      62.5      61.8       58     47.1      0.00     12.13      57.0     0.48      1019.0     3       245         5       235        9.34     282      415.0
   02/04/2017 12:20      62.0      61.0       60     47.5      0.00     12.13      57.1     0.48      1019.0     4       236         5       229        9.34     283      547.3
   02/04/2017 12:10      61.1      60.5       62     47.8      0.00     12.13      57.2     0.48      1019.0     3       264         4       248        9.34     283      314.7
   02/04/2017 12:00      61.8      60.7       61     47.5      0.00     12.13      57.0     0.48      1019.0     4       280         6       242        9.34     284      114.9
   02/04/2017 11:50      62.5      62.2       59     47.9      0.00     12.13      56.5     0.48      1019.0     4       318         7       292        9.34     283      374.5
   02/04/2017 11:40      62.5      62.0       62     49.1      0.00     12.13      56.8     0.48      1019.0     5       324         7       319        9.34     284      523.8
   02/04/2017 11:30      61.9      60.1       66     49.6      0.00     12.13      56.9     0.48      1020.0     4       272         7       271        9.34     288      482.6
   02/04/2017 11:20      60.4      59.9       65     48.1      0.00     12.13      56.9     0.48      1020.0     5       271         7       264        9.34     292      340.3
   02/04/2017 11:10      60.2      59.7       65     48.1      0.00     12.13      57.0     0.48      1020.0     6       252         8       219        9.34     296      359.3
   02/04/2017 11:00      60.4      59.9       65     48.3      0.00     12.13      57.3     0.48      1020.0     4       264         5       241        9.34     299      288.7
   02/04/2017 10:50      60.6      60.1       65     48.5      0.00     12.13      56.7     0.48      1020.0     4       248         8       244        9.34     301      385.7
   02/04/2017 10:40      60.1      59.3       66     48.1      0.00     12.13      57.2     0.48      1020.0     4       247         6       271        9.34     306      311.8
   02/04/2017 10:30      61.2      60.1       63     48.0      0.00     12.13      57.3     0.48      1020.0     5       265         7       252        9.34     308      179.0
   02/04/2017 10:20      61.1      59.7       64     48.1      0.00     12.13      56.9     0.48      1020.0     3       248         5       198        9.34     309      527.0
   02/04/2017 10:10      59.6      59.4       67     48.7      0.00     12.13      57.0     0.48      1020.0     4       210         6       192        9.34     315      466.7
   02/04/2017 10:00      59.5      58.4       71     49.3      0.00     12.13      56.7     0.48      1020.0     3       237         5       234        9.35     323      448.9
   02/04/2017 09:50      58.5      58.0       74     50.0      0.00     12.13      56.9     0.48      1020.0     4       232         6       237        9.35     335      412.2
   02/04/2017 09:40      58.8      58.2       75     50.5      0.00     12.13      57.0     0.48      1020.0     4       245         5       231        9.35     346      384.9
   02/04/2017 09:30      58.8      57.4       77     50.8      0.00     12.13      57.4     0.48      1020.0     1       222         2       196        9.35     357      335.4
   02/04/2017 09:20      57.7      57.5       77     50.4      0.00     12.13      56.7     0.48      1020.0     3       207         5       204        9.34     372      341.5
   02/04/2017 09:10      58.0      57.6       77     50.8      0.00     12.13      57.2     0.48      1020.0     2       214         4       158        9.35     387      276.5
   02/04/2017 09:00      57.8      57.4       79     51.2      0.00     12.13      57.0     0.48      1020.0     1       343         2       317        9.35     393      255.7
   02/04/2017 08:50      58.1      57.4       79     51.3      0.00     12.13      56.8     0.48      1020.0     2       309         4       302        9.35     398      267.9
   02/04/2017 08:40      57.4      56.3       81     50.9      0.00     12.13      57.5     0.48      1020.0     2       281         3       263        9.34     407      294.7
   02/04/2017 08:30      56.3      55.5       84     51.1      0.00     12.13      56.8     0.48      1020.0     2       243         3       241        9.34     409      246.2
   02/04/2017 08:20      55.4      54.8       88     51.7      0.00     12.13      56.9     0.48      1020.0     2       241         2       240        9.35     410      212.4
   02/04/2017 08:10      54.8      53.9       91     51.8      0.00     12.13      56.7     0.48      1020.0     2       274         2       312        9.34     410      141.1
   02/04/2017 08:00      53.9      53.6       93     51.6      0.00     12.13      56.8     0.48      1020.0     2       245         3       221        9.35     411       98.2
   02/04/2017 07:50      54.9      53.8       94     52.5      0.00     12.13      56.5     0.48      1020.0     1       210         3       238        9.35     410       52.9
   02/04/2017 07:40      54.1      52.4       95     51.8      0.00     12.13      57.3     0.48      1020.0     0       327         1       316        9.35     410       40.8
   02/04/2017 07:30      52.4      51.4       95     50.5      0.00     12.13      57.0     0.48      1020.0     1       299         1       250        9.35     410       39.3
   02/04/2017 07:20      51.4      50.8       95     49.7      0.00     12.13      57.6     0.48      1020.0     1       245         1       238        9.35     410       29.9
   02/04/2017 07:10      50.9      50.7       95     49.4      0.00     12.13      56.9     0.48      1020.0     1       210         1       233        9.35     411       14.1
   02/04/2017 07:00      50.8      50.6       95     49.4      0.00     12.13      57.2     0.48      1020.0     1       220         1       244        9.35     411        5.2
   02/04/2017 06:50      50.7      50.5       95     49.2      0.00     12.13      57.0     0.48      1020.0     1       132         1        93        9.35     411        1.1
   02/04/2017 06:40      50.7      50.5       95     49.2      0.00     12.13      57.6     0.48      1020.0     1       103         1       130        9.35     410       -0.9
   02/04/2017 06:30      50.7      50.5       95     49.2      0.00     12.13      57.2     0.48      1020.0     1       156         2       163        9.35     410       -1.6
   02/04/2017 06:20      50.8      50.2       95     49.1      0.00     12.13      56.6     0.48      1020.0     2       191         2       223        9.35     410       -1.2
   02/04/2017 06:10      50.3      50.2       95     48.8      0.00     12.13      57.4     0.48      1019.0     1       167         2       151        9.35     410       -1.2
   02/04/2017 06:00      50.6      50.2       95     48.9      0.00     12.13      57.8     0.48      1019.0     1       143         2       137        9.35     410       -1.2
   02/04/2017 05:50      50.5      50.2       95     48.8      0.00     12.13      56.9     0.48      1019.0     1       157         2       153        9.35     410       -1.0
   02/04/2017 05:40      50.5      50.3       94     48.9      0.00     12.13      57.4     0.48      1019.0     1       193         2       207        9.35     413       -2.1
   02/04/2017 05:30      50.8      50.5       95     49.1      0.00     12.13      56.6     0.48      1019.0     1       154         1       219        9.35     410       -1.3
   02/04/2017 05:20      50.8      50.4       95     49.0      0.00     12.13      57.5     0.48      1019.0     2       275         4       307        9.35     410       -1.5
   02/04/2017 05:10      50.6      50.2       94     48.9      0.00     12.13      57.9     0.48      1019.0     1       200         2        83        9.35     409       -3.6
   02/04/2017 05:00      50.7      50.6       94     49.1      0.00     12.13      57.3     0.48      1019.0     1        57         2        71        9.35     408       -1.9
   02/04/2017 04:50      50.9      50.8       94     49.3      0.00     12.13      57.4     0.48      1019.0     1        14         2        12        9.35     408       -1.5
   02/04/2017 04:40      51.1      50.8       94     49.3      0.00     12.13      57.4     0.48      1019.0     1       318         2       323        9.35     408       -1.0
   02/04/2017 04:30      50.9      50.3       94     49.0      0.00     12.13      57.0     0.48      1019.0     2       123         3       134        9.35     412       -0.9
   02/04/2017 04:20      50.5      50.1       94     48.6      0.00     12.13      57.1     0.48      1019.0     1       106         3       109        9.35     413       -0.8
   02/04/2017 04:10      50.9      50.2       93     48.7      0.00     12.13      57.0     0.48      1019.0     1        61         2        78        9.35     412       -0.5
   02/04/2017 04:00      50.9      50.2       94     48.8      0.00     12.13      57.4     0.48      1019.0     2       274         3       253        9.35     412       -0.8
   02/04/2017 03:50      50.5      50.2       93     48.5      0.00     12.13      57.9     0.48      1019.0     0       159         1        46        9.35     412       -1.9
   02/04/2017 03:40      51.0      50.3       93     48.6      0.00     12.13      57.3     0.48      1019.0     1        62         3       140        9.35     411       -3.1
   02/04/2017 03:30      51.9      51.2       93     49.5      0.00     12.13      58.0     0.48      1019.0     2       163         3       140        9.35     410       -2.6
   02/04/2017 03:20      52.2      51.9       93     50.2      0.00     12.13      57.7     0.48      1019.0     3       208         3       207        9.35     408       -1.9
   02/04/2017 03:10      52.0      51.7       94     50.2      0.00     12.13      57.8     0.48      1019.0     3       204         3       209        9.35     407       -2.1
   02/04/2017 03:00      51.8      51.4       94     50.0      0.00     12.13      57.2     0.48      1019.0     3       183         4       187        9.35     406       -1.9
   02/04/2017 02:50      51.9      51.7       95     50.2      0.00     12.13      57.5     0.48      1019.0     3       174         4       171        9.35     405       -1.5
   02/04/2017 02:40      51.9      51.5       95     50.3      0.00     12.13      57.6     0.48      1019.0     3       199         5       211        9.35     404       -2.1
   02/04/2017 02:30      51.6      50.7       95     49.9      0.00     12.13      57.5     0.48      1019.0     2       196         4       203        9.35     403       -3.6
   02/04/2017 02:20      50.9      49.7       96     49.0      0.00     12.13      57.4     0.48      1019.0     1       209         3       214        9.34     400       -2.0
   02/04/2017 02:10      50.0      49.7       95     48.4      0.00     12.13      57.6     0.48      1019.0     1        78         1        80        9.34     400       -1.1
   02/04/2017 02:00      50.0      49.4       95     48.3      0.00     12.13      57.4     0.48      1019.0     1        30         2         1        9.35     399       -2.3
   02/04/2017 01:50      49.9      49.5       95     48.3      0.00     12.13      57.9     0.48      1019.0     1       120         2        92        9.35     398       -3.3
   02/04/2017 01:40      50.0      49.6       95     48.4      0.00     12.13      57.6     0.48      1019.0     0        90         1       121        9.35     396       -2.0
   02/04/2017 01:30      49.7      49.2       95     48.0      0.00     12.13      57.7     0.48      1019.0     1       106         1       146        9.35     395       -2.8
   02/04/2017 01:20      50.6      49.7       95     48.7      0.00     12.13      58.0     0.48      1019.0     1       119         2       201        9.35     394       -3.4
   02/04/2017 01:10      50.7      50.3       95     49.2      0.00     12.13      58.2     0.48      1019.0     2       260         2       249        9.35     392       -4.5
   02/04/2017 01:00      50.6      50.0       95     48.9      0.00     12.13      57.4     0.48      1019.0     2       153         4       142        9.35     390       -4.3
   02/04/2017 00:50      50.7      50.1       95     49.0      0.00     12.13      57.8     0.48      1019.0     2       156         3       134        9.35     387       -3.9
   02/04/2017 00:40      50.9      50.2       94     48.9      0.00     12.13      57.8     0.48      1019.0     2       141         2       131        9.35     385       -3.7
   02/04/2017 00:30      51.8      51.0       94     49.8      0.00     12.13      57.7     0.48      1019.0     1       195         2       242        9.34     382       -3.9
   02/04/2017 00:20      52.1      51.8       94     50.3      0.00     12.13      57.7     0.48      1019.0     2       252         3       231        9.34     378       -4.1
   02/04/2017 00:10      52.8      52.4       94     51.0      0.00     12.13      57.8     0.48      1019.0     2       258         3       266        9.34     375       -3.5
   02/04/2017 00:00      53.4      52.4       94     51.3      0.00     12.13      57.5     0.48      1019.0     1       205         2       192        9.34     373       -3.3
   02/03/2017 23:50      53.6      53.4       94     52.0      0.00     12.13      58.0     0.48      1019.0     1       198         2       194        9.34     370       -3.5
   02/03/2017 23:40      53.7      53.5       95     52.1      0.00     12.13      57.8     0.48      1019.0     1       210         2       237        9.34     366       -1.1
   02/03/2017 23:30      53.7      53.4       95     52.1      0.00     12.13      58.0     0.48      1019.0     3       227         4       248        9.34     365       -0.8
   02/03/2017 23:20      53.4      52.6       95     51.7      0.00     12.13      58.1     0.48      1019.0     2       231         3       233        9.34     365       -0.5
   02/03/2017 23:10      52.6      52.5       95     51.1      0.00     12.13      57.9     0.48      1019.0     2       156         3       167        9.35     366       -0.9
   02/03/2017 23:00      52.8      52.4       95     51.1      0.00     12.13      57.6     0.48      1019.0     2       164         3       165        9.34     365       -1.6
   02/03/2017 22:50      52.6      52.2       95     51.1      0.00     12.13      57.7     0.48      1019.0     2       167         3       156        9.34     364       -2.9
   02/03/2017 22:40      52.6      52.2       95     50.9      0.00     12.13      57.8     0.48      1019.0     1       109         2       145        9.35     362       -2.5
   02/03/2017 22:30      52.6      52.2       95     50.8      0.00     12.13      58.2     0.48      1019.0     1        72         1        76        9.35     360       -0.7
   02/03/2017 22:20      52.3      51.7       95     50.5      0.00     12.13      57.7     0.48      1019.0     1       230         1       215        9.35     360       -0.6
   02/03/2017 22:10      51.8      51.3       95     50.0      0.00     12.13      57.6     0.48      1019.0     1       214         2       211        9.35     360       -1.4
   02/03/2017 22:00      52.4      51.3       94     50.0      0.00     12.13      57.9     0.48      1019.0     2       217         2       213        9.34     359       -3.3
   02/03/2017 21:50      52.5      51.8       94     50.5      0.00     12.13      58.4     0.48      1019.0     1       163         1       212        9.34     354       -3.4
   02/03/2017 21:40      52.7      52.0       94     50.7      0.00     12.13      58.0     0.48      1019.0     1       111         2       142        9.34     351       -3.8
   02/03/2017 21:30      52.8      52.6       94     51.1      0.00     12.13      58.1     0.48      1019.0     1       295         2       339        9.34     349       -2.8
   02/03/2017 21:20      53.4      52.8       94     51.3      0.00     12.13      57.8     0.48      1019.0     1       139         1       164        9.34     345       -3.0
   02/03/2017 21:10      53.7      53.4       94     51.9      0.00     12.13      57.9     0.48      1019.0     1       215         1       241        9.34     342       -3.2
   02/03/2017 21:00      53.8      53.6       94     52.1      0.00     12.13      57.7     0.48      1019.0     1       356         1       141        9.34     339       -3.4
   02/03/2017 20:50      53.9      53.5       94     52.1      0.00     12.13      57.8     0.48      1019.0     2       138         3       131        9.34     337       -1.7
   02/03/2017 20:40      53.7      53.1       94     51.7      0.00     12.13      58.1     0.48      1019.0     2       147         3       163        9.34     337       -0.9
   02/03/2017 20:30      53.4      53.1       94     51.6      0.00     12.13      58.2     0.48      1019.0     1       172         2       138        9.34     337       -0.7
   02/03/2017 20:20      53.3      52.8       94     51.4      0.00     12.13      57.9     0.48      1019.0     1       224         2       176        9.34     337       -1.7
   02/03/2017 20:10      53.2      52.9       94     51.4      0.00     12.13      58.4     0.48      1019.0     2       155         3       143        9.34     336       -3.4
   02/03/2017 20:00      53.3      52.7       94     51.5      0.00     12.13      57.0     0.48      1019.0     3       156         3       160        9.34     334       -3.1
   02/03/2017 19:50      52.8      52.1       94     50.8      0.00     12.13      57.4     0.48      1019.0     3       147         3       149        9.34     332       -2.7
   02/03/2017 19:40      52.5      52.2       94     50.6      0.00     12.13      57.6     0.48      1019.0     2       163         2       147        9.34     330       -4.0
   02/03/2017 19:30      52.7      52.4       93     50.7      0.00     12.13      58.0     0.48      1019.0     2       176         2       169        9.34     328       -4.2
   02/03/2017 19:20      53.2      52.9       93     51.0      0.00     12.13      58.3     0.48      1019.0     1       163         2       143        9.34     325       -4.0
   02/03/2017 19:10      54.1      53.5       93     51.8      0.00     12.13      58.0     0.48      1019.0     2       198         2       190        9.35     322       -3.2
   02/03/2017 19:00      54.6      54.2       93     52.3      0.00     12.13      57.7     0.48      1019.0     2       179         2       196        9.35     319       -3.5
   02/03/2017 18:50      54.6      54.5       92     52.4      0.00     12.13      57.7     0.48      1018.0     2       166         3       178        9.35     316       -3.7
   02/03/2017 18:40      55.1      54.8       92     52.7      0.00     12.13      57.7     0.48      1018.0     1       157         2       138        9.35     314       -3.4
   02/03/2017 18:30      55.2      54.9       93     53.0      0.00     12.13      57.7     0.48      1018.0     2       176         4       181        9.35     312       -3.1
   02/03/2017 18:20      55.2      55.1       92     53.0      0.00     12.13      58.2     0.48      1018.0     2       179         3       160        9.35     311       -2.4
   02/03/2017 18:10      55.7      55.2       92     53.0      0.00     12.13      57.8     0.48      1018.0     2       170         2       211        9.35     310       -3.7
   02/03/2017 18:00      56.1      55.7       91     53.3      0.00     12.13      57.3     0.48      1018.0     1        80         2       103        9.35     309       -3.5
   02/03/2017 17:50      56.1      56.0       91     53.4      0.00     12.13      57.2     0.48      1018.0     1        27         1        52        9.35     307       -3.3
   02/03/2017 17:40      56.4      56.1       90     53.5      0.00     12.13      57.6     0.48      1018.0     1       110         2       132        9.35     305       -2.7
   02/03/2017 17:30      56.7      56.4       90     53.6      0.00     12.13      57.6     0.48      1018.0     1       104         2       111        9.35     304       -0.9
   02/03/2017 17:20      56.8      56.6       89     53.7      0.00     12.13      57.8     0.48      1018.0     2        95         2        97        9.35     303        3.1
   02/03/2017 17:10      57.0      56.8       89     53.7      0.00     12.13      57.5     0.48      1018.0     1       104         2       103        9.35     302       14.4
   02/03/2017 17:00      57.0      56.8       89     53.6      0.00     12.13      57.7     0.48      1018.0     2       111         3       128        9.35     302       18.5
   02/03/2017 16:50      57.0      56.8       89     53.7      0.00     12.13      57.4     0.48      1018.0     1        96         2       109        9.35     302       25.4
   02/03/2017 16:40      57.0      56.8       89     53.7      0.00     12.13      57.2     0.48      1018.0     2       111         3        95        9.35     301       21.6
   02/03/2017 16:30      57.0      56.9       90     54.0      0.00     12.13      58.0     0.48      1018.0     3       107         4       128        9.35     301       23.8
   02/03/2017 16:20      57.2      57.0       90     54.1      0.00     12.13      57.7     0.48      1018.0     2       119         3       140        9.35     301       30.3
   02/03/2017 16:10      57.2      57.0       90     54.2      0.00     12.13      57.7     0.48      1018.0     2        96         3       122        9.35     302       27.9
   02/03/2017 16:00      57.4      56.9       91     54.4      0.00     12.13      58.0     0.47      1018.0     1        74         2        80        9.35     302       38.5
   02/03/2017 15:50      57.2      56.8       91     54.3      0.00     12.13      57.5     0.47      1018.0     2        75         3        68        9.35     303       67.9
   02/03/2017 15:40      57.1      56.6       91     54.3      0.00     12.13      57.2     0.47      1018.0     1        43         1        50        9.35     305       36.0
   02/03/2017 15:30      57.1      56.8       91     54.2      0.00     12.13      57.5     0.47      1018.0     1        21         1        20        9.35     305       35.1
   02/03/2017 15:20      57.0      56.7       91     54.2      0.00     12.13      58.0     0.47      1018.0     1        36         1        66        9.35     306       32.4
   02/03/2017 15:10      57.0      56.6       91     54.0      0.01     12.13      57.4     0.47      1018.0     1        60         2        70        9.35     307       48.0
   02/03/2017 15:00      56.9      56.6       91     54.1      0.01     12.12      57.3     0.47      1018.0     1        81         2        76        9.35     306       51.2
   02/03/2017 14:50      57.2      56.8       91     54.2      0.00     12.11      57.8     0.47      1018.0     2        70         3        70        9.35     305       62.8
   02/03/2017 14:40      57.1      56.6       91     54.1      0.00     12.11      57.2     0.47      1018.0     1        77         3       108        9.35     301       89.6
   02/03/2017 14:30      56.6      56.2       91     54.0      0.00     12.11      57.4     0.47      1018.0     2        54         3        68        9.35     299      166.6
   02/03/2017 14:20      56.6      56.0       92     53.9      0.00     12.11      57.9     0.47      1018.0     1        53         2        37        9.35     300      105.9
   02/03/2017 14:10      56.1      55.8       92     53.7      0.00     12.11      57.5     0.47      1018.0     2        56         2        52        9.35     301      110.8
   02/03/2017 14:00      56.0      55.5       93     53.8      0.00     12.11      57.9     0.47      1018.0     1        51         2        49        9.35     302       93.0
   02/03/2017 13:50      55.7      55.4       93     53.5      0.00     12.11      57.5     0.47      1018.0     2        32         2        27        9.35     303      160.4
   02/03/2017 13:40      55.7      55.1       93     53.4      0.00     12.11      57.3     0.47      1018.0     2        25         3        32        9.35     305      123.9
   02/03/2017 13:30      55.2      54.8       93     53.2      0.01     12.11      57.8     0.47      1018.0     1        60         2        27        9.35     306       88.5
   02/03/2017 13:20      54.8      54.6       94     52.9      0.00     12.10      57.1     0.47      1018.0     1        50         2        20        9.35     304       82.7
   02/03/2017 13:10      54.7      54.3       94     52.7      0.00     12.10      57.4     0.47      1018.0     1        45         3        10        9.35     304       88.4
   02/03/2017 13:00      54.6      54.1       94     52.6      0.00     12.10      57.4     0.47      1018.0     2        39         3         4        9.35     307       78.6
   02/03/2017 12:50      54.1      53.6       94     52.2      0.00     12.10      58.0     0.47      1018.0     2        44         3        57        9.35     305       84.0
   02/03/2017 12:40      53.7      53.5       94     51.9      0.00     12.10      57.4     0.47      1018.0     2        37         3        31        9.35     305       75.0
   02/03/2017 12:30      54.0      53.5       94     52.0      0.00     12.10      58.0     0.47      1018.0     3        28         4        15        9.35     306       93.3
   02/03/2017 12:20      53.6      53.2       94     51.8      0.00     12.10      57.6     0.47      1019.0     2        39         3        33        9.35     306      110.1
   02/03/2017 12:10      53.2      53.0       94     51.4      0.00     12.10      57.4     0.47      1019.0     2        41         3        31        9.35     309       87.0
   02/03/2017 12:00      53.5      53.2       94     51.7      0.00     12.10      57.3     0.47      1019.0     3        23         3        27        9.35     309       80.3
   02/03/2017 11:50      53.6      53.3       94     51.8      0.00     12.10      57.5     0.47      1019.0     3        46         3        54        9.35     309       87.2
   02/03/2017 11:40      53.6      53.2       94     51.7      0.00     12.10      57.4     0.47      1019.0     2        51         3        49        9.35     310      107.4
   02/03/2017 11:30      53.4      52.9       94     51.5      0.00     12.10      58.3     0.47      1019.0     2        40         3        42        9.35     311       92.9
   02/03/2017 11:20      53.3      53.0       94     51.5      0.00     12.10      58.1     0.47      1019.0     3        28         4        27        9.35     312       90.8
   02/03/2017 11:10      53.2      53.0       94     51.6      0.00     12.10      57.2     0.47      1019.0     3        42         3        35        9.35     314      127.7
   02/03/2017 11:00      53.2      53.1       94     51.5      0.01     12.10      57.1     0.47      1019.0     3        27         5        33        9.35     318      137.8
   02/03/2017 10:50      53.4      53.0       94     51.5      0.01     12.09      57.3     0.47      1020.0     2        47         3        60        9.34     321       94.4
   02/03/2017 10:40      53.0      52.7       94     51.2      0.01     12.08      57.3     0.47      1020.0     3        40         4        59        9.34     324       75.7
   02/03/2017 10:30      53.0      52.7       94     51.3      0.02     12.07      57.4     0.47      1020.0     2        49         7        91        9.34     324       65.3
   02/03/2017 10:20      53.0      52.7       94     51.2      0.00     12.05      56.9     0.47      1019.0     3        46         5        59        9.34     314       73.1
   02/03/2017 10:10      53.0      52.6       94     51.0      0.00     12.05      57.8     0.47      1019.0     2        40         3        34        9.34     314       65.9
   02/03/2017 10:00      52.8      52.6       94     51.0      0.00     12.05      57.0     0.47      1019.0     2        42         4        23        9.34     315       55.8
   02/03/2017 09:50      52.8      52.6       94     50.9      0.00     12.05      57.2     0.47      1019.0     2        41         3        48        9.33     315       71.2
   02/03/2017 09:40      52.7      52.6       94     50.9      0.01     12.05      57.1     0.47      1019.0     2        53         3        85        9.33     315       87.8
   02/03/2017 09:30      52.7      52.1       94     50.7      0.00     12.04      57.6     0.47      1019.0     2        66         2        65        9.33     316       80.3
   02/03/2017 09:20      52.3      52.0       94     50.4      0.01     12.04      57.2     0.47      1019.0     2        71         3        81        9.33     321       55.0
   02/03/2017 09:10      52.0      51.8       94     50.3      0.01     12.03      57.5     0.47      1019.0     2        66         3        65        9.33     323       69.5
   02/03/2017 09:00      52.0      51.7       94     50.2      0.01     12.02      57.7     0.47      1019.0     2        58         3        86        9.33     323       49.1
   02/03/2017 08:50      51.8      51.4       94     50.0      0.01     12.01      57.6     0.47      1019.0     1        84         4        96        9.33     320       54.7
   02/03/2017 08:40      51.8      51.4       94     49.9      0.00     12.00      57.5     0.47      1019.0     2        87         3        91        9.33     317       40.2
   02/03/2017 08:30      51.8      51.5       94     50.0      0.02     12.00      57.9     0.47      1019.0     2        90         5        62        9.33     318       28.0
   02/03/2017 08:20      52.0      51.6       94     50.0      0.01     11.98      57.5     0.47      1019.0     3        50         6        63        9.33     317       21.2
   02/03/2017 08:10      52.5      52.2       94     50.7      0.01     11.97      57.2     0.47      1018.0     3        33         4        30        9.32     320       13.7
   02/03/2017 08:00      52.5      52.1       94     50.6      0.01     11.96      57.3     0.47      1018.0     1        17         3         3        9.32     316       15.5
   02/03/2017 07:50      52.3      52.1       94     50.5      0.00     11.95      57.0     0.47      1018.0     2       348         3       342        9.32     314        8.6
   02/03/2017 07:40      52.3      52.1       94     50.5      0.01     11.95      57.3     0.47      1018.0     1        19         2         6        9.32     315        7.6
   02/03/2017 07:30      52.3      51.8       94     50.2      0.01     11.94      57.9     0.47      1018.0     1        22         3       355        9.31     317        7.0
   02/03/2017 07:20      51.9      51.7       93     50.0      0.00     11.93      57.7     0.47      1018.0     1        16         2        14        9.31     317        1.7
   02/03/2017 07:10      52.0      51.8       93     50.0      0.01     11.93      57.7     0.47      1018.0     1        43         2        73        9.30     319       -1.3
   02/03/2017 07:00      52.1      51.9       93     50.1      0.01     11.92      57.5     0.47      1018.0     1        38         2        16        9.29     319       -2.4
   02/03/2017 06:50      52.0      51.8       93     49.9      0.01     11.91      57.7     0.47      1018.0     1        20         2        18        9.29     318       -3.1
   02/03/2017 06:40      52.1      52.0       93     50.1      0.01     11.90      57.4     0.47      1018.0     1        59         2        26        9.28     318       -3.4
   02/03/2017 06:30      52.2      51.9       93     50.0      0.02     11.89      57.6     0.46      1018.0     1         3         2       352        9.27     317       -3.7
   02/03/2017 06:20      52.3      52.0       93     50.0      0.01     11.87      57.5     0.46      1018.0     1        20         1       296        9.26     316       -3.7
   02/03/2017 06:10      52.4      52.1       93     50.1      0.01     11.86      57.7     0.46      1018.0     1       290         2       320        9.25     314       -3.6
   02/03/2017 06:00      52.3      52.0       93     50.0      0.01     11.85      57.6     0.46      1018.0     1         8         1        15        9.24     312       -3.9
   02/03/2017 05:50      52.3      52.0       92     49.9      0.01     11.84      57.8     0.46      1018.0     1       152         2       177        9.24     308       -4.1
   02/03/2017 05:40      52.3      52.0       92     50.0      0.01     11.83      58.0     0.46      1018.0     1       218         1       262        9.24     301       -4.4
   02/03/2017 05:30      52.3      52.1       92     50.1      0.00     11.82      57.4     0.46      1018.0     2       228         2       228        9.23     297       -3.9
   02/03/2017 05:20      52.4      52.1       92     50.0      0.00     11.82      57.7     0.46      1018.0     1       172         2       162        9.23     297       -3.9
   02/03/2017 05:10      52.3      52.1       92     49.9      0.00     11.82      57.2     0.46      1017.0     1       172         2       182        9.23     297       -4.0
   02/03/2017 05:00      52.6      52.3       91     50.0      0.01     11.82      57.3     0.46      1017.0     1       156         2       180        9.23     297       -3.8
   02/03/2017 04:50      52.6      52.3       91     50.0      0.00     11.81      58.0     0.46      1017.0     1       212         2       195        9.23     298       -4.0
   02/03/2017 04:40      52.6      52.3       91     49.9      0.00     11.81      57.5     0.46      1018.0     1       179         2       223        9.23     296       -4.5
   02/03/2017 04:30      52.5      52.1       91     49.8      0.00     11.81      58.4     0.46      1018.0     1       203         2       186        9.23     296       -4.7
   02/03/2017 04:20      52.3      52.1       91     49.8      0.00     11.81      58.1     0.46      1018.0     2       183         3       197        9.23     296       -4.4
   02/03/2017 04:10      52.4      52.1       91     49.9      0.00     11.81      58.1     0.46      1017.0     1       135         2       181        9.23     297       -4.3
   02/03/2017 04:00      52.6      52.4       92     50.1      0.00     11.81      58.3     0.46      1018.0     1       114         2       142        9.23     297       -4.1
   02/03/2017 03:50      52.8      52.6       92     50.3      0.00     11.81      57.6     0.46      1018.0     1       101         2       110        9.23     297       -3.9
   02/03/2017 03:40      52.8      52.6       91     50.2      0.00     11.81      57.7     0.46      1018.0     1        41         2       355        9.23     297       -4.1
   02/03/2017 03:30      52.6      52.5       91     50.1      0.00     11.81      57.7     0.46      1018.0     1       349         2       335        9.23     297       -4.2
   02/03/2017 03:20      52.7      52.6       91     50.2      0.00     11.81      57.8     0.46      1018.0     1       337         2        28        9.23     298       -4.5
   02/03/2017 03:10      52.8      52.6       91     50.3      0.00     11.81      57.6     0.46      1018.0     2       303         3       314        9.23     300       -4.4
   02/03/2017 03:00      53.2      52.6       92     50.5      0.00     11.81      57.5     0.46      1018.0     2       278         3       313        9.23     301       -4.1
   02/03/2017 02:50      53.1      53.0       91     50.6      0.02     11.81      57.5     0.46      1018.0     2       268         3       269        9.23     303       -4.0
   02/03/2017 02:40      53.3      53.0       91     50.7      0.01     11.79      57.4     0.46      1018.0     1       236         2       258        9.23     305       -4.3
   02/03/2017 02:30      53.3      53.1       91     50.8      0.00     11.78      57.2     0.46      1018.0     2       301         2       270        9.23     294       -3.6
   02/03/2017 02:20      53.3      53.1       91     50.7      0.00     11.78      57.4     0.46      1018.0     1       239         2       214        9.23     293       -3.7
   02/03/2017 02:10      53.3      53.0       91     50.6      0.01     11.78      57.7     0.46      1018.0     1       262         2       288        9.23     295       -3.6
   02/03/2017 02:00      53.4      53.1       90     50.4      0.01     11.77      57.1     0.46      1018.0     2       201         4       216        9.23     297       -4.3
   02/03/2017 01:50      53.5      53.3       90     50.5      0.00     11.76      57.7     0.46      1018.0     3       241         4       244        9.23     286       -3.5
   02/03/2017 01:40      53.6      53.1       90     50.5      0.00     11.76      57.6     0.46      1018.0     1       255         2       276        9.23     282       -3.9
   02/03/2017 01:30      53.2      53.0       90     50.4      0.00     11.76      58.1     0.46      1018.0     2       169         3       151        9.23     282       -3.9
   02/03/2017 01:20      53.5      53.2       90     50.4      0.00     11.76      57.9     0.46      1018.0     2       165         3       155        9.23     283       -4.1
   02/03/2017 01:10      53.5      53.3       90     50.5      0.00     11.76      57.9     0.46      1018.0     1       213         2       261        9.23     283       -4.2
   02/03/2017 01:00      53.5      53.2       89     50.3      0.01     11.76      57.9     0.46      1018.0     2       172         3       166        9.23     284       -4.4
   02/03/2017 00:50      53.5      53.3       89     50.1      0.00     11.75      57.3     0.46      1019.0     2       188         2       179        9.23     284       -4.8
   02/03/2017 00:40      53.8      53.5       87     49.8      0.00     11.75      57.7     0.46      1019.0     3       232         5       221        9.23     286       -5.3
   02/03/2017 00:30      53.7      53.6       85     49.1      0.00     11.75      57.9     0.46      1019.0     3       247         5       217        9.23     285       -5.1
   02/03/2017 00:20      53.8      53.7       83     48.7      0.00     11.75      57.4     0.46      1019.0     4       229         5       204        9.23     283       -6.5
   02/03/2017 00:10      54.1      53.9       83     48.9      0.01     11.75      57.6     0.46      1019.0     3       229         5       247        9.23     283       -6.8
   02/03/2017 00:00      54.7      54.2       81     48.7      0.00     11.74      57.8     0.46      1019.0     3       242         4       250        9.23     278       -7.2
   02/02/2017 23:50      55.0      54.6       78     48.3      0.00     11.74      57.4     0.46      1019.0     3       228         4       216        9.23     277       -7.4
   02/02/2017 23:40      55.1      54.8       77     47.9      0.00     11.74      57.9     0.46      1019.0     3       215         3       204        9.23     276       -6.5
   02/02/2017 23:30      55.4      54.8       79     48.5      0.00     11.74      57.7     0.46      1019.0     3       204         4       210        9.23     278       -8.1
   02/02/2017 23:20      56.1      55.4       77     48.8      0.00     11.74      57.9     0.46      1019.0     3       203         3       221        9.23     276       -8.7
   02/02/2017 23:10      57.3      56.5       72     47.9      0.00     11.74      57.7     0.46      1019.0     4       243         5       238        9.23     274      -10.0
   02/02/2017 23:00      57.5      57.3       65     45.8      0.00     11.74      57.7     0.46      1019.0     2       255         3       252        9.23     271       -9.3
   02/02/2017 22:50      57.5      57.3       60     43.6      0.00     11.74      57.6     0.46      1019.0     1       240         2       249        9.23     271      -10.1
   02/02/2017 22:40      57.4      57.3       59     43.2      0.00     11.74      57.8     0.46      1019.0     1       197         2       184        9.23     273      -11.5
   02/02/2017 22:30      57.5      56.9       61     43.9      0.00     11.74      57.5     0.46      1019.0     1       199         2       156        9.23     272       -9.1
   02/02/2017 22:20      57.1      56.9       64     45.2      0.00     11.74      57.9     0.46      1019.0     0        99         1       184        9.23     273       -8.5
   02/02/2017 22:10      57.1      56.8       65     45.4      0.00     11.74      57.8     0.46      1019.0     1       273         1       230        9.23     272       -8.4
   02/02/2017 22:00      57.0      56.4       67     45.8      0.00     11.74      57.7     0.46      1019.0     1       206         1       215        9.23     272      -10.0
   02/02/2017 21:50      56.8      56.5       67     46.0      0.00     11.74      57.6     0.46      1019.0     1        75         1        57        9.23     272      -10.1
   02/02/2017 21:40      56.8      56.5       67     45.8      0.00     11.74      57.7     0.46      1019.0     1        90         1       169        9.23     271       -9.1
   02/02/2017 21:30      56.6      56.3       67     45.8      0.00     11.74      57.5     0.46      1019.0     0       272         1        91        9.23     271      -12.6
   02/02/2017 21:20      56.5      56.1       67     45.7      0.00     11.74      57.6     0.46      1019.0     0       323         1        61        9.23     271      -12.2
   02/02/2017 21:10      56.5      56.1       67     45.7      0.00     11.74      57.5     0.46      1019.0     1       108         1       126        9.23     271      -15.3
   02/02/2017 21:00      56.3      56.0       68     45.7      0.00     11.74      57.5     0.46      1019.0     2       166         3       170        9.23     271      -18.3
   02/02/2017 20:50      56.4      56.1       66     45.3      0.00     11.74      57.5     0.46      1019.0     2       151         2       131        9.23     271      -21.2
   02/02/2017 20:40      56.5      56.1       66     45.1      0.00     11.74      57.8     0.46      1019.0     2       194         2       207        9.23     270      -15.9
   02/02/2017 20:30      56.1      55.7       67     45.2      0.00     11.74      57.2     0.46      1019.0     2       206         2       197        9.23     271      -21.8
   02/02/2017 20:20      57.7      56.6       64     44.8      0.00     11.74      57.7     0.46      1019.0     1       216         1       203        9.23     270      -40.0
   02/02/2017 20:10      58.0      57.5       59     43.7      0.00     11.74      57.2     0.46      1019.0     1       172         1       203        9.23     270      -45.6
   02/02/2017 20:00      58.3      58.0       58     43.5      0.00     11.74      57.6     0.46      1019.0     1       200         1       208        9.23     270      -24.4
   02/02/2017 19:50      58.3      58.1       57     42.8      0.00     11.74      57.4     0.46      1019.0     1       207         1       248        9.23     270      -15.4
   02/02/2017 19:40      58.3      57.9       56     42.3      0.00     11.74      57.4     0.46      1019.0     2       208         2       207        9.23     270      -17.2
   02/02/2017 19:30      58.0      57.7       57     42.7      0.00     11.74      57.4     0.46      1019.0     2       190         2       196        9.23     270      -18.5
   02/02/2017 19:20      58.2      58.0       55     42.1      0.00     11.74      57.4     0.46      1019.0     2       192         3       161        9.23     270      -15.9
   02/02/2017 19:10      58.2      58.0       55     42.1      0.00     11.74      57.4     0.46      1019.0     1       188         2       193        9.23     270      -28.4
   02/02/2017 19:00      58.2      58.0       56     42.4      0.00     11.74      57.4     0.46      1019.0     2       174         4       168        9.23     270      -29.3
   02/02/2017 18:50      58.7      58.3       54     41.8      0.00     11.74      57.6     0.46      1019.0     2       208         2       223        9.23     270      -17.6
   02/02/2017 18:40      59.1      58.6       52     41.4      0.00     11.74      57.4     0.46      1019.0     1       223         2       217        9.23     269      -33.1
   02/02/2017 18:30      59.5      59.0       51     41.4      0.00     11.74      57.0     0.46      1019.0     2       180         2       163        9.23     269      -50.1
   02/02/2017 18:20      59.7      59.4       51     41.2      0.00     11.74      57.3     0.46      1018.0     2       185         3       170        9.23     269      -35.5
   02/02/2017 18:10      59.9      59.5       51     41.4      0.00     11.74      57.0     0.46      1018.0     3       165         3       156        9.23     269      -28.1
   02/02/2017 18:00      60.1      59.7       49     40.8      0.00     11.74      57.4     0.46      1018.0     3       169         4       172        9.23     269      -29.9
   02/02/2017 17:50      60.3      59.9       49     40.7      0.00     11.74      57.2     0.46      1018.0     2       169         3       174        9.23     269      -39.5
   02/02/2017 17:40      60.8      60.4       48     40.5      0.00     11.74      56.9     0.46      1018.0     2       173         3       168        9.23     269      -49.2
   02/02/2017 17:30      61.1      60.9       47     40.5      0.00     11.74      57.0     0.46      1018.0     3       144         3       164        9.23     269      -47.4
   02/02/2017 17:20      61.5      61.2       46     40.4      0.00     11.74      56.9     0.46      1018.0     3       159         4       151        9.23     269      -39.3
   02/02/2017 17:10      61.8      61.4       46     40.5      0.00     11.74      57.0     0.46      1018.0     3       162         4       147        9.23     269      -27.2
   02/02/2017 17:00      62.7      62.0       42     39.0      0.00     11.74      56.9     0.46      1018.0     3       161         4       155        9.23     269      -26.4
   02/02/2017 16:50      63.0      62.8       37     36.0      0.00     11.74      56.9     0.46      1018.0     4       156         5       153        9.23     269      -19.4
   02/02/2017 16:40      63.8      63.3       36     36.1      0.00     11.74      56.9     0.46      1018.0     4       146         5       161        9.23     269       -9.2
   02/02/2017 16:30      64.0      63.8       36     36.2      0.00     11.74      56.8     0.46      1018.0     2       124         4       106        9.23     269        2.6
   02/02/2017 16:20      64.0      63.7       36     36.2      0.00     11.74      56.8     0.46      1018.0     3       113         5       124        9.23     269       39.6
   02/02/2017 16:10      64.1      63.8       36     36.5      0.00     11.74      56.9     0.46      1018.0     3       108         4       137        9.23     269       34.3
   02/02/2017 16:00      64.3      64.0       37     37.5      0.00     11.74      56.9     0.46      1018.0     3       119         5       102        9.23     269       38.0
   02/02/2017 15:50      64.8      63.9       37     37.4      0.00     11.74      56.7     0.46      1018.0     3       134         5       132        9.24     269       47.4
   02/02/2017 15:40      65.1      64.7       35     36.2      0.00     11.74      56.6     0.46      1018.0     4        80         5        90        9.24     269       45.9
   02/02/2017 15:30      65.8      65.5       36     37.7      0.00     11.74      56.6     0.46      1018.0     3        98         6       124        9.23     269       59.2
   02/02/2017 15:20      65.9      65.3       36     37.8      0.00     11.74      56.6     0.46      1018.0     3        78         4       137        9.23     269      117.1
   02/02/2017 15:10      66.3      65.3       36     38.5      0.00     11.74      56.7     0.46      1018.0     3       127         5        81        9.24     269      105.6
   02/02/2017 15:00      66.5      66.3       34     37.5      0.00     11.74      56.2     0.46      1018.0     2        67         4        82        9.24     269      130.6
   02/02/2017 14:50      66.8      65.7       33     36.1      0.00     11.74      56.4     0.46      1018.0     2        51         3        78        9.24     269      153.3
   02/02/2017 14:40      66.4      65.3       32     35.2      0.00     11.74      56.4     0.46      1018.0     3        84         5        60        9.24     269      121.8
   02/02/2017 14:30      66.3      65.7       31     34.6      0.00     11.74      56.4     0.46      1018.0     2        40         4        67        9.24     269      181.2
   02/02/2017 14:20      65.7      65.2       37     38.5      0.00     11.74      56.1     0.46      1018.0     1         4         3       252        9.24     269      199.5
   02/02/2017 14:10      65.5      65.1       38     39.3      0.00     11.74      56.3     0.46      1018.0     2       277         4       262        9.24     269      135.3
   02/02/2017 14:00      65.7      65.3       38     39.1      0.00     11.74      56.3     0.46      1018.0     3       320         6       339        9.24     269      140.7
   02/02/2017 13:50      65.9      65.7       37     39.1      0.00     11.74      56.2     0.46      1018.0     2       283         5       324        9.24     269      192.2
   02/02/2017 13:40      65.9      64.2       38     39.3      0.00     11.74      56.1     0.46      1018.0     2       314         4       314        9.24     270      316.4
   02/02/2017 13:30      64.2      63.7       40     38.9      0.00     11.74      56.3     0.46      1018.0     3       251         5       254        9.24     270      264.5
   02/02/2017 13:20      63.9      63.0       40     38.9      0.00     11.74      56.3     0.46      1018.0     3       253         5       253        9.24     270      273.5
   02/02/2017 13:10      64.2      63.5       39     38.6      0.00     11.74      56.0     0.46      1019.0     2       277         5       247        9.24     270      159.0
   02/02/2017 13:00      63.6      62.9       40     38.6      0.00     11.74      56.2     0.46      1019.0     2       320         4       272        9.24     269      136.0
   02/02/2017 12:50      64.5      63.4       39     38.7      0.00     11.74      56.0     0.46      1019.0     3       256         6       236        9.24     269      249.4
   02/02/2017 12:40      65.5      64.5       38     39.0      0.00     11.74      56.1     0.46      1019.0     2       289         5       280        9.24     270      360.2
   02/02/2017 12:30      64.7      64.1       39     38.9      0.00     11.74      56.0     0.46      1019.0     2         2         3       330        9.24     270      215.4
   02/02/2017 12:20      64.1      63.2       39     37.9      0.00     11.74      56.0     0.46      1019.0     1       186         2       177        9.24     270      320.6
   02/02/2017 12:10      63.8      63.3       39     38.1      0.00     11.74      55.9     0.46      1019.0     2       339         4       348        9.24     271      283.9
   02/02/2017 12:00      63.5      63.0       40     38.4      0.00     11.74      56.2     0.46      1020.0     2       108         3       102        9.24     271      351.3
   02/02/2017 11:50      63.6      61.9       41     38.8      0.00     11.74      56.0     0.46      1020.0     1        31         3        64        9.24     270      200.5
   02/02/2017 11:40      62.3      61.6       42     38.6      0.00     11.74      55.9     0.46      1020.0     1        61         2       103        9.24     270      207.0
   02/02/2017 11:30      61.8      61.4       43     38.9      0.00     11.74      56.2     0.46      1020.0     2        38         3        26        9.24     271      210.3
   02/02/2017 11:20      61.5      60.8       44     39.3      0.00     11.74      56.3     0.46      1020.0     2        45         3        63        9.24     270      287.0
   02/02/2017 11:10      60.7      60.2       46     39.5      0.00     11.74      56.1     0.46      1021.0     2        13         3       349        9.24     271      199.3
   02/02/2017 11:00      60.6      59.6       47     40.2      0.00     11.74      56.1     0.46      1021.0     2       347         4        11        9.24     271      230.7
   02/02/2017 10:50      59.9      59.4       50     41.2      0.00     11.74      55.9     0.46      1021.0     2       295         3       283        9.24     271      248.3
   02/02/2017 10:40      59.6      59.0       52     41.5      0.00     11.74      56.2     0.46      1021.0     1       269         2       292        9.24     271      214.9
   02/02/2017 10:30      59.7      58.6       53     42.1      0.00     11.74      56.1     0.46      1021.0     1       302         2       317        9.24     271      277.3
   02/02/2017 10:20      58.5      57.0       56     41.8      0.00     11.74      56.1     0.46      1021.0     1         4         2        19        9.24     271      294.1
   02/02/2017 10:10      56.9      55.9       59     42.1      0.00     11.74      56.0     0.46      1021.0     2       318         3       340        9.24     271      206.5
   02/02/2017 10:00      56.1      55.7       61     42.8      0.00     11.74      56.0     0.46      1021.0     2       235         4       251        9.24     271      191.7
   02/02/2017 09:50      56.4      55.9       63     43.5      0.00     11.74      56.1     0.46      1021.0     2       278         4       236        9.24     272      223.6
   02/02/2017 09:40      56.1      55.1       64     43.4      0.00     11.74      56.0     0.46      1021.0     2       270         4       318        9.24     272      249.1
   02/02/2017 09:30      55.1      53.3       68     44.0      0.00     11.74      56.4     0.46      1021.0     2       277         3       276        9.24     272      261.9
   02/02/2017 09:20      53.1      52.5       72     44.0      0.00     11.74      56.2     0.46      1020.0     2       266         3       274        9.24     272      102.0
   02/02/2017 09:10      52.6      52.2       74     44.4      0.00     11.74      56.3     0.46      1021.0     2       238         3       238        9.24     272       94.7
   02/02/2017 09:00      52.3      51.8       75     44.6      0.00     11.74      56.1     0.46      1021.0     2       237         3       275        9.24     272       90.9
   02/02/2017 08:50      51.8      51.6       78     45.0      0.00     11.74      56.3     0.46      1020.0     2       231         3       260        9.24     272       83.7
   02/02/2017 08:40      51.8      51.1       79     45.0      0.00     11.74      55.9     0.46      1020.0     3       256         4       259        9.24     272      117.2
   02/02/2017 08:30      51.1      50.2       81     44.9      0.00     11.74      56.0     0.46      1020.0     2       240         3       252        9.24     272       86.2
   02/02/2017 08:20      50.3      49.1       86     45.5      0.00     11.74      56.0     0.46      1020.0     2       220         3       242        9.24     273       85.9
   02/02/2017 08:10      49.1      48.3       88     45.3      0.00     11.74      56.3     0.46      1020.0     1       225         2       235        9.24     273       46.9
   02/02/2017 08:00      48.3      47.8       89     45.0      0.00     11.74      56.0     0.46      1020.0     2       216         2       207        9.24     273       20.1
   02/02/2017 07:50      47.9      47.7       89     44.9      0.00     11.74      56.3     0.46      1020.0     1       143         2       161        9.24     273       14.1
   02/02/2017 07:40      47.9      47.4       90     44.9      0.00     11.74      55.9     0.46      1020.0     2       203         2       224        9.24     273        5.9
   02/02/2017 07:30      47.9      47.5       89     44.6      0.00     11.74      56.5     0.46      1020.0     1       184         2       227        9.24     273        3.4
   02/02/2017 07:20      48.3      47.8       88     44.7      0.00     11.74      56.2     0.46      1020.0     1        98         1        98        9.24     273       -9.6
   02/02/2017 07:10      48.9      48.3       88     45.2      0.00     11.74      56.2     0.46      1020.0     1         0         1       101        9.24     273      -12.9
   02/02/2017 07:00      48.9      48.5       89     45.6      0.00     11.74      56.6     0.46      1020.0     1       165         1       241        9.24     273      -10.4
   02/02/2017 06:50      48.5      48.0       89     45.3      0.00     11.74      56.3     0.46      1020.0     1        67         2        89        9.24     272       -5.3
   02/02/2017 06:40      48.2      47.8       89     44.8      0.00     11.74      56.4     0.46      1020.0     1       110         2        90        9.24     273       -4.4
   02/02/2017 06:30      48.1      47.9       89     44.9      0.00     11.74      56.3     0.46      1020.0     1        52         1       121        9.24     273       -3.4
   02/02/2017 06:20      48.0      47.7       90     45.0      0.00     11.74      56.4     0.46      1020.0     0       319         1       266        9.24     273       -2.7
   02/02/2017 06:10      48.0      47.5       90     44.9      0.00     11.74      56.7     0.46      1020.0     1       295         1       332        9.24     273       -2.1
   02/02/2017 06:00      47.6      46.9       90     44.5      0.00     11.74      56.6     0.46      1020.0     1       171         1       144        9.24     274       -1.4
   02/02/2017 05:50      46.9      46.3       91     44.2      0.00     11.74      56.4     0.46      1020.0     2       140         2       132        9.24     274       -3.5
   02/02/2017 05:40      46.5      45.9       91     43.6      0.00     11.74      56.4     0.46      1020.0     1       161         2       156        9.24     274       -4.9
   02/02/2017 05:30      46.0      45.5       91     43.2      0.00     11.74      56.6     0.46      1020.0     1       156         2       141        9.24     274       -6.5
   02/02/2017 05:20      45.4      45.2       90     42.7      0.00     11.74      56.5     0.46      1020.0     1       201         1       224        9.24     274      -11.4
   02/02/2017 05:10      45.4      45.2       89     42.4      0.00     11.74      56.4     0.46      1020.0     0       144         1       155        9.24     274      -15.9
   02/02/2017 05:00      46.2      45.4       88     42.6      0.00     11.74      56.6     0.46      1020.0     1        80         2        87        9.24     274      -19.5
   02/02/2017 04:50      46.5      46.3       89     43.4      0.00     11.74      56.6     0.46      1020.0     1       113         2       117        9.24     273      -22.0
   02/02/2017 04:40      46.6      46.3       89     43.5      0.00     11.74      56.9     0.46      1020.0     2       153         3       154        9.24     273      -18.8
   02/02/2017 04:30      46.4      46.0       90     43.2      0.00     11.74      56.4     0.46      1020.0     1       144         2       158        9.24     273      -10.1
   02/02/2017 04:20      46.0      45.4       90     42.8      0.00     11.74      56.4     0.46      1020.0     1       108         2       109        9.24     274       -3.1
   02/02/2017 04:10      45.5      45.3       90     42.7      0.00     11.74      56.7     0.46      1020.0     0       106         1       342        9.24     274       -2.2
   02/02/2017 04:00      45.4      44.9       91     42.5      0.00     11.74      56.5     0.46      1020.0     1        97         1       105        9.24     274       -2.8
   02/02/2017 03:50      45.1      44.4       92     42.5      0.00     11.74      56.9     0.46      1020.0     1       359         2       282        9.24     274       -1.4
   02/02/2017 03:40      44.5      43.7       92     41.9      0.00     11.74      56.7     0.46      1019.0     2       259         3       243        9.24     275       -3.1
   02/02/2017 03:30      43.9      43.5       92     41.5      0.00     11.74      56.6     0.46      1019.0     1       155         2       127        9.24     275      -13.5
   02/02/2017 03:20      43.7      43.3       91     41.1      0.00     11.74      56.7     0.46      1019.0     1       153         1       181        9.24     275      -17.6
   02/02/2017 03:10      43.7      43.4       91     41.0      0.00     11.74      56.9     0.46      1019.0     0        43         1        99        9.24     275      -22.0
   02/02/2017 03:00      43.8      43.6       91     41.2      0.00     11.74      57.0     0.46      1019.0     1       133         1       105        9.24     275      -19.6
   02/02/2017 02:50      43.7      43.4       91     41.1      0.00     11.74      57.0     0.46      1019.0     1       142         1       126        9.24     275      -14.2
   02/02/2017 02:40      43.6      43.2       91     40.8      0.00     11.74      56.6     0.46      1019.0     2       128         2       133        9.24     275      -15.9
   02/02/2017 02:30      43.6      43.2       91     40.9      0.00     11.74      56.9     0.46      1019.0     1       152         2       147        9.24     275      -19.7
   02/02/2017 02:20      44.0      43.6       91     41.3      0.00     11.74      56.9     0.46      1019.0     1       193         2       226        9.24     275      -25.8
   02/02/2017 02:10      43.8      43.6       91     41.2      0.00     11.74      56.8     0.46      1019.0     1       140         3        96        9.24     275      -28.7
   02/02/2017 02:00      44.0      43.1       91     40.9      0.00     11.74      56.9     0.46      1019.0     2       174         3       131        9.24     275      -22.4
   02/02/2017 01:50      44.0      43.4       91     41.2      0.00     11.74      57.0     0.46      1019.0     2       256         2       263        9.24     274      -28.8
   02/02/2017 01:40      44.1      43.3       91     41.1      0.00     11.74      57.0     0.46      1019.0     1       154         3       133        9.24     274      -33.0
   02/02/2017 01:30      44.3      43.9       90     41.4      0.00     11.74      57.0     0.46      1019.0     1       196         1       182        9.24     273      -33.1
   02/02/2017 01:20      44.4      44.0       90     41.4      0.00     11.74      57.0     0.46      1019.0     0        97         1       141        9.24     273      -37.7
   02/02/2017 01:10      44.3      43.6       90     41.2      0.00     11.74      56.9     0.46      1019.0     1       350         1       155        9.24     272      -40.1
   02/02/2017 01:00      43.9      43.2       88     40.1      0.00     11.74      57.2     0.46      1019.0     2       154         3       151        9.24     272      -46.9
   02/02/2017 00:50      44.3      43.7       87     40.2      0.00     11.74      57.0     0.46      1019.0     2       169         3       161        9.24     272      -48.0
   02/02/2017 00:40      44.6      44.5       86     40.5      0.00     11.74      57.0     0.46      1019.0     1       168         2       184        9.24     272      -50.4
   02/02/2017 00:30      44.9      44.5       83     39.8      0.00     11.74      57.3     0.46      1019.0     0       147         1       105        9.24     272      -57.6
   02/02/2017 00:20      45.1      44.9       81     39.5      0.00     11.74      57.3     0.46      1019.0     1       122         2       141        9.24     272      -56.6
   02/02/2017 00:10      45.1      44.7       82     39.7      0.00     11.74      57.1     0.46      1019.0     1       145         2       142        9.25     271      -31.6
   02/02/2017 00:00      45.1      44.7       81     39.6      0.00     11.74      57.3     0.46      1019.0     1       210         2       206        9.25     272      -37.8
   02/01/2017 23:50      44.7      44.4       80     38.7      0.00     11.74      57.2     0.46      1019.0     2       152         3       161        9.25     272      -56.4
   02/01/2017 23:40      44.5      44.0       80     38.5      0.00     11.74      57.1     0.46      1019.0     2       150         3       140        9.24     272      -54.3
   02/01/2017 23:30      44.1      43.7       79     37.9      0.00     11.74      57.3     0.46      1019.0     2       152         3       154        9.24     271      -57.2
   02/01/2017 23:20      44.9      44.1       77     37.9      0.00     11.74      57.0     0.46      1019.0     2       137         2       147        9.25     271      -59.9
   02/01/2017 23:10      45.0      44.6       76     37.7      0.00     11.74      57.2     0.46      1019.0     1       167         1       152        9.25     271      -62.2
   02/01/2017 23:00      45.2      44.8       71     36.3      0.00     11.74      57.3     0.46      1020.0     2       133         2       138        9.25     271      -64.6
   02/01/2017 22:50      45.7      45.1       72     37.0      0.00     11.74      57.3     0.46      1020.0     1       147         2       120        9.25     270      -62.4
   02/01/2017 22:40      46.0      45.9       72     37.5      0.00     11.74      57.3     0.46      1020.0     1       196         1       152        9.25     270      -59.9
   02/01/2017 22:30      46.1      45.7       66     35.2      0.00     11.74      57.5     0.46      1019.0     1       153         2       140        9.25     270      -55.7
   02/01/2017 22:20      46.3      46.2       65     35.2      0.00     11.74      57.5     0.46      1019.0     1       167         2       166        9.25     270      -54.5
   02/01/2017 22:10      46.6      46.3       63     34.5      0.00     11.74      57.0     0.46      1019.0     1       172         1       180        9.25     270      -56.0
   02/01/2017 22:00      46.6      46.3       61     34.0      0.00     11.74      57.2     0.46      1019.0     1       234         1       215        9.25     270      -60.5
   02/01/2017 21:50      46.8      46.5       59     33.0      0.00     11.74      57.4     0.46      1019.0     1       160         2       153        9.25     270      -58.9
   02/01/2017 21:40      47.0      46.6       59     33.1      0.00     11.74      57.2     0.46      1019.0     1       165         2       133        9.25     270      -56.8
   02/01/2017 21:30      47.3      46.8       58     32.8      0.00     11.74      57.0     0.46      1019.0     1       147         2       145        9.25     270      -55.6
   02/01/2017 21:20      47.3      47.1       56     32.5      0.00     11.74      57.2     0.46      1019.0     1       183         2       198        9.25     269      -59.5
   02/01/2017 21:10      47.7      47.3       55     32.1      0.00     11.74      57.3     0.46      1019.0     2       170         2       189        9.25     270      -56.3
   02/01/2017 21:00      48.0      47.4       54     31.7      0.00     11.74      57.5     0.46      1019.0     1       187         2       209        9.25     269      -58.1
   02/01/2017 20:50      47.9      47.3       55     32.4      0.00     11.74      57.3     0.46      1019.0     1       120         2       123        9.25     269      -56.0
   02/01/2017 20:40      48.0      47.6       54     31.9      0.00     11.74      57.2     0.46      1019.0     1       299         2       214        9.25     269      -59.0
   02/01/2017 20:30      48.8      48.3       51     31.6      0.00     11.74      57.5     0.46      1019.0     2       150         3       134        9.25     269      -61.4
   02/01/2017 20:20      48.9      48.4       50     31.1      0.00     11.74      57.3     0.46      1019.0     2       195         2       149        9.25     269      -64.3
   02/01/2017 20:10      49.4      48.6       50     31.2      0.00     11.74      57.2     0.46      1019.0     2       170         2       136        9.25     269      -62.0
   02/01/2017 20:00      49.8      49.4       48     30.6      0.00     11.74      57.4     0.46      1018.0     1       153         2       153        9.26     269      -62.3
   02/01/2017 19:50      49.9      48.6       49     30.9      0.00     11.74      57.3     0.46      1018.0     1       171         2       192        9.25     269      -61.8
   02/01/2017 19:40      49.9      48.9       51     31.9      0.00     11.74      57.1     0.46      1018.0     2       140         3       156        9.26     269      -62.0
   02/01/2017 19:30      50.6      50.0       46     30.6      0.00     11.74      57.1     0.46      1018.0     2       151         3       155        9.26     268      -61.9
   02/01/2017 19:20      50.8      50.2       46     30.5      0.00     11.74      57.2     0.46      1018.0     1       222         2       174        9.26     268      -64.2
   02/01/2017 19:10      51.5      50.7       46     31.4      0.00     11.74      57.1     0.46      1018.0     2       138         3       136        9.26     268      -65.9
   02/01/2017 19:00      52.8      51.4       44     30.8      0.00     11.74      57.1     0.46      1018.0     2       155         2       143        9.26     268      -65.9
   02/01/2017 18:50      52.6      51.5       43     30.3      0.00     11.74      57.0     0.46      1018.0     1       221         2       190        9.26     268      -64.9
   02/01/2017 18:40      52.7      52.2       43     30.8      0.00     11.74      56.9     0.46      1018.0     1       144         2       224        9.26     268      -65.9
   02/01/2017 18:30      53.0      52.6       43     30.6      0.00     11.74      56.8     0.46      1018.0     1       103         1       121        9.26     268      -66.5
   02/01/2017 18:20      54.6      53.1       44     32.1      0.00     11.74      57.0     0.46      1018.0     1        76         1        73        9.26     268      -70.9
   02/01/2017 18:10      55.0      54.7       41     31.6      0.00     11.74      56.8     0.46      1018.0     0        60         1        74        9.26     267      -74.2
   02/01/2017 18:00      56.5      55.2       41     32.7      0.00     11.74      56.9     0.46      1018.0     1        70         1       113        9.26     267      -76.5
   02/01/2017 17:50      57.6      56.7       36     30.5      0.00     11.74      56.8     0.46      1018.0     2       190         3       218        9.27     267      -78.3
   02/01/2017 17:40      58.4      57.6       37     31.8      0.00     11.74      56.9     0.46      1018.0     3       219         4       208        9.27     267      -80.9
   02/01/2017 17:30      59.4      58.3       40     34.9      0.00     11.74      56.8     0.46      1017.0     3       224         4       221        9.27     267      -81.3
   02/01/2017 17:20      60.4      59.5       38     34.4      0.00     11.74      56.7     0.46      1017.0     2       230         2       231        9.27     267      -76.3
   02/01/2017 17:10      62.0      60.5       37     34.5      0.00     11.74      56.8     0.46      1017.0     2       243         2       243        9.27     267      -65.9
   02/01/2017 17:00      62.7      62.1       34     33.5      0.00     11.74      56.6     0.46      1017.0     1       203         2       198        9.27     267      -58.7
   02/01/2017 16:50      63.8      62.9       31     32.2      0.00     11.74      56.6     0.46      1017.0     2       180         4       197        9.27     267      -53.7
   02/01/2017 16:40      63.9      63.6       30     31.4      0.00     11.74      56.7     0.46      1017.0     2       168         4       137        9.28     267      -28.2
   02/01/2017 16:30      64.1      63.8       31     32.4      0.00     11.74      56.4     0.46      1017.0     3       179         3       192        9.28     266       -8.5
   02/01/2017 16:20      64.4      63.9       31     32.6      0.00     11.74      56.6     0.46      1017.0     3       146         5       164        9.28     267       20.6
   02/01/2017 16:10      64.5      64.0       29     31.4      0.00     11.74      56.5     0.46      1017.0     4       166         6       143        9.28     266       31.2
   02/01/2017 16:00      64.9      64.5       28     30.8      0.00     11.74      56.5     0.46      1017.0     4       162         5       147        9.28     266       38.3
   02/01/2017 15:50      65.2      64.9       27     30.2      0.00     11.74      56.3     0.46      1017.0     5       164         7       163        9.28     266       32.0
   02/01/2017 15:40      65.8      65.3       27     30.8      0.00     11.74      56.2     0.46      1017.0     4       172         7       163        9.28     266       57.7
   02/01/2017 15:30      66.0      65.4       27     30.4      0.00     11.74      56.2     0.46      1017.0     5       174         8       169        9.28     266       68.7
   02/01/2017 15:20      66.8      66.2       25     29.2      0.00     11.74      56.3     0.46      1017.0     5       175         7       166        9.29     267       81.7
   02/01/2017 15:10      67.4      67.0       24     29.5      0.00     11.74      56.0     0.46      1017.0     4       164         6       162        9.29     267      109.3
   02/01/2017 15:00      67.6      67.2       24     29.4      0.00     11.74      56.2     0.46      1017.0     5       183         7       171        9.29     267      117.8
   02/01/2017 14:50      68.3      67.8       25     30.6      0.00     11.74      56.1     0.46      1017.0     4       153         7       174        9.29     267      189.5
   02/01/2017 14:40      69.1      67.7       24     30.2      0.00     11.74      56.2     0.46      1017.0     4       155         7       166        9.29     267      186.9
   02/01/2017 14:30      69.1      68.3       20     25.8      0.00     11.74      56.0     0.46      1017.0     4       123         6       128        9.29     268      188.9
   02/01/2017 14:20      69.3      68.6       19     24.4      0.00     11.74      56.1     0.46      1017.0     4       134         6       140        9.29     267      161.1
   02/01/2017 14:10      69.3      68.3       19     24.8      0.00     11.74      56.0     0.46      1016.0     6       135        10       137        9.29     268      238.9
   02/01/2017 14:00      69.9      68.8       19     25.3      0.00     11.74      55.9     0.46      1016.0     7       142        10       136        9.29     268      220.4
   02/01/2017 13:50      69.9      68.8       19     25.5      0.00     11.74      55.9     0.46      1017.0     6       126         9       146        9.30     269      311.8
   02/01/2017 13:40      69.4      68.7       20     25.9      0.00     11.74      55.8     0.46      1017.0     5       146         8       153        9.30     269      215.2
   02/01/2017 13:30      69.8      69.1       19     24.8      0.00     11.74      55.7     0.46      1017.0     5       136         7       123        9.30     269      314.3
   02/01/2017 13:20      69.4      68.3       19     24.3      0.00     11.74      55.7     0.46      1017.0     6       137         9       140        9.30     269      328.5
   02/01/2017 13:10      69.4      68.9       19     24.8      0.00     11.74      55.7     0.46      1017.0     6       137         9       143        9.30     269      343.3
   02/01/2017 13:00      69.6      68.7       19     25.0      0.00     11.74      55.7     0.46      1017.0     6       149         8       144        9.30     269      378.1
   02/01/2017 12:50      69.6      68.6       19     25.0      0.00     11.74      55.7     0.46      1017.0     6       166         8       166        9.30     269      314.4
   02/01/2017 12:40      70.6      69.9       19     26.6      0.00     11.74      55.8     0.46      1017.0     5       157         6       174        9.30     269      360.9
   02/01/2017 12:30      71.3      70.6       19     26.2      0.00     11.74      55.9     0.46      1017.0     4        91         7       130        9.30     269      369.6
   02/01/2017 12:20      70.9      70.1       19     26.7      0.00     11.74      55.7     0.46      1017.0     4        78         5        71        9.30     270      355.4
   02/01/2017 12:10      71.0      70.2       20     27.5      0.00     11.74      55.9     0.46      1018.0     3        68         6        55        9.30     270      355.2
   02/01/2017 12:00      70.0      69.1       24     30.9      0.00     11.74      56.0     0.46      1018.0     3        62         4        71        9.30     271      365.4
   02/01/2017 11:50      69.3      68.6       28     34.2      0.00     11.74      55.8     0.46      1018.0     3        58         7        71        9.30     270      367.9
   02/01/2017 11:40      68.6      67.8       28     34.0      0.00     11.74      55.9     0.46      1018.0     3        54         5        89        9.30     270      364.3
   02/01/2017 11:30      67.9      66.9       29     33.8      0.00     11.74      55.6     0.46      1018.0     2        54         4        92        9.30     270      361.5
   02/01/2017 11:20      66.8      66.2       31     34.7      0.00     11.74      55.5     0.46      1019.0     4        27         5       346        9.30     270      356.4
   02/01/2017 11:10      66.0      65.2       32     34.6      0.00     11.74      55.7     0.46      1019.0     3         7         5       348        9.30     270      353.4
   02/01/2017 11:00      65.3      64.3       33     35.3      0.00     11.74      55.9     0.46      1019.0     2        45         4        65        9.30     271      346.9
   02/01/2017 10:50      64.5      63.9       34     35.2      0.00     11.74      55.9     0.46      1019.0     3         3         5       339        9.30     271      340.5
   02/01/2017 10:40      63.9      62.7       35     35.1      0.00     11.74      55.9     0.46      1019.0     2        16         3         6        9.30     272      330.6
   02/01/2017 10:30      62.8      62.3       36     34.9      0.00     11.74      56.0     0.46      1019.0     2         5         4        13        9.30     273      323.7
   02/01/2017 10:20      62.0      61.8       36     34.6      0.00     11.74      55.8     0.46      1019.0     2        20         4        25        9.30     272      315.9
   02/01/2017 10:10      62.1      60.0       37     34.5      0.00     11.74      55.9     0.46      1019.0     2       354         3       341        9.30     272      303.7
   02/01/2017 10:00      60.1      59.3       39     34.7      0.00     11.74      56.0     0.46      1019.0     2       341         4       358        9.30     272      290.9
   02/01/2017 09:50      59.4      59.1       39     34.1      0.00     11.74      56.1     0.46      1019.0     2         2         3         0        9.30     274      276.0
   02/01/2017 09:40      59.3      58.0       41     34.8      0.00     11.74      55.8     0.46      1019.0     2       342         3       342        9.30     274      261.1
   02/01/2017 09:30      58.1      57.4       42     35.0      0.00     11.74      55.9     0.46      1019.0     2       355         2       354        9.30     276      245.9
   02/01/2017 09:20      57.6      56.6       45     35.9      0.00     11.74      56.0     0.46      1019.0     1       355         2       328        9.30     280      229.8
   02/01/2017 09:10      56.8      56.2       47     36.3      0.00     11.74      56.2     0.46      1019.0     2         7         2         4        9.30     288      214.0
   02/01/2017 09:00      56.7      53.8       49     36.4      0.00     11.74      56.1     0.46      1019.0     0       349         1       262        9.30     299      193.4
   02/01/2017 08:50      53.7      52.0       54     36.5      0.00     11.74      56.0     0.46      1019.0     1       310         2       246        9.30     304      173.1
   02/01/2017 08:40      53.9      52.2       53     36.2      0.00     11.74      55.9     0.46      1019.0     2       246         3       248        9.30     307      153.4
   02/01/2017 08:30      53.8      52.6       53     36.7      0.00     11.74      56.2     0.46      1019.0     1       307         1       335        9.30     308      131.6
   02/01/2017 08:20      52.7      51.1       56     37.1      0.00     11.74      56.0     0.46      1019.0     0       278         1       242        9.31     308      110.6
   02/01/2017 08:10      51.0      49.1       60     36.6      0.00     11.74      56.2     0.46      1019.0     1       332         1       352        9.31     308       91.7
   02/01/2017 08:00      48.8      45.4       67     36.7      0.00     11.74      56.3     0.46      1019.0     1         5         1       341        9.31     309       90.3
   02/01/2017 07:50      45.1      42.4       74     36.1      0.00     11.74      56.5     0.46      1019.0     1       130         2       127        9.31     309       -7.9
   02/01/2017 07:40      42.3      39.6       82     35.7      0.00     11.74      56.4     0.46      1019.0     2       157         2       159        9.31     309      -16.8
   02/01/2017 07:30      39.8      38.9       85     35.0      0.00     11.74      56.3     0.46      1019.0     2       152         2       177        9.31     308      -20.4
   02/01/2017 07:20      39.0      37.9       86     34.6      0.00     11.74      56.4     0.46      1019.0     1       141         2       137        9.31     307      -28.1
   02/01/2017 07:10      38.2      37.9       85     33.9      0.00     11.74      56.3     0.46      1019.0     1       127         1       106        9.31     306      -36.5
   02/01/2017 07:00      38.8      38.2       83     33.8      0.00     11.74      56.3     0.46      1019.0     2       139         2       140        9.31     305      -42.4
   02/01/2017 06:50      39.0      38.7       83     34.1      0.00     11.74      56.5     0.46      1019.0     1       166         1       160        9.31     304      -46.4
   02/01/2017 06:40      38.8      38.6       83     34.0      0.00     11.74      56.7     0.46      1019.0     1       245         1       235        9.31     303      -48.6
   02/01/2017 06:30      38.8      38.6       83     34.1      0.00     11.74      56.8     0.46      1019.0     1       215         1       264        9.31     302      -50.6
   02/01/2017 06:20      39.1      38.6       82     33.7      0.00     11.74      56.6     0.46      1019.0     1        99         1        73        9.31     301      -52.7
   02/01/2017 06:10      39.4      39.2       81     33.9      0.00     11.74      56.5     0.46      1019.0     0        56         0        78        9.31     300      -53.0
   02/01/2017 06:00      39.6      39.3       81     34.2      0.00     11.74      56.6     0.46      1019.0     1       277         1       275        9.31     299      -52.9
   02/01/2017 05:50      39.5      39.2       82     34.3      0.00     11.74      56.5     0.46      1018.0     1       132         2       137        9.31     298      -53.4
   02/01/2017 05:40      39.6      39.3       82     34.3      0.00     11.74      56.4     0.46      1018.0     2       136         2       128        9.31     297      -54.8
   02/01/2017 05:30      39.7      39.6       81     34.3      0.00     11.74      56.8     0.46      1018.0     1       150         1       142        9.31     296      -56.0
   02/01/2017 05:20      39.7      39.1       82     34.4      0.00     11.74      56.8     0.46      1018.0     1       165         2       151        9.31     295      -57.3
   02/01/2017 05:10      39.7      39.1       81     34.1      0.00     11.74      56.7     0.46      1018.0     1        69         1       152        9.31     294      -58.7
   02/01/2017 05:00      39.9      39.7       81     34.5      0.00     11.74      56.9     0.46      1018.0     1       239         1       258        9.31     293      -59.3
   02/01/2017 04:50      40.4      39.7       80     34.4      0.00     11.74      56.6     0.46      1018.0     1       128         1       118        9.31     292      -60.2
   02/01/2017 04:40      40.8      40.3       79     34.6      0.00     11.74      56.8     0.46      1018.0     0       166         1       131        9.31     291      -61.2
   02/01/2017 04:30      41.0      40.9       78     34.8      0.00     11.74      56.7     0.46      1018.0     0       172         1       119        9.31     290      -61.7
   02/01/2017 04:20      41.3      40.8       78     34.9      0.00     11.74      56.9     0.46      1018.0     0       180         1       190        9.31     289      -61.7
   02/01/2017 04:10      41.2      40.8       80     35.1      0.00     11.74      56.9     0.46      1018.0     1       203         1       216        9.31     288      -60.6
   02/01/2017 04:00      41.4      41.0       80     35.6      0.00     11.74      57.0     0.46      1018.0     1       260         1       266        9.31     287      -59.1
   02/01/2017 03:50      41.1      40.9       80     35.4      0.00     11.74      56.8     0.46      1018.0     1       151         1       179        9.31     286      -58.5
   02/01/2017 03:40      41.7      41.1       78     35.1      0.00     11.74      56.9     0.46      1018.0     0        26         1        82        9.31     285      -60.7
   02/01/2017 03:30      42.4      41.9       78     35.8      0.00     11.74      57.0     0.46      1018.0     1       114         1       127        9.31     285      -62.0
   02/01/2017 03:20      42.2      42.0       79     36.0      0.00     11.74      57.0     0.46      1018.0     1       150         2       140        9.31     284      -62.4
   02/01/2017 03:10      42.4      42.2       78     35.9      0.00     11.74      56.9     0.46      1018.0     1       152         2       145        9.31     283      -61.1
   02/01/2017 03:00      42.4      42.1       79     36.0      0.00     11.74      57.2     0.46      1018.0     0       155         1       127        9.31     282      -61.3
   02/01/2017 02:50      42.6      42.2       78     36.1      0.00     11.74      57.4     0.46      1018.0     1       144         1       154        9.31     282      -59.9
   02/01/2017 02:40      42.6      42.2       78     36.2      0.00     11.74      57.4     0.47      1018.0     1       162         2       152        9.32     281      -60.5
   02/01/2017 02:30      43.1      42.6       76     35.9      0.00     11.74      57.1     0.46      1019.0     1        67         2       133        9.32     281      -61.0
   02/01/2017 02:20      43.1      43.0       76     36.1      0.00     11.74      57.3     0.47      1019.0     1       331         1       342        9.32     280      -57.6
   02/01/2017 02:10      43.2      42.6       77     36.1      0.00     11.74      57.4     0.47      1019.0     0       250         1       240        9.32     279      -51.3
   02/01/2017 02:00      42.9      42.6       76     35.7      0.00     11.74      57.3     0.47      1019.0     1       168         2       131        9.32     279      -49.8
   02/01/2017 01:50      42.8      42.5       76     35.6      0.00     11.74      57.4     0.47      1019.0     1       182         1       183        9.32     279      -55.0
   02/01/2017 01:40      43.1      42.6       76     35.8      0.00     11.74      57.2     0.47      1019.0     0       259         1       258        9.32     278      -59.8
   02/01/2017 01:30      43.2      43.0       76     36.0      0.00     11.74      57.3     0.46      1019.0     0       228         1       213        9.32     277      -61.3
   02/01/2017 01:20      43.8      43.2       74     35.9      0.00     11.74      57.1     0.47      1019.0     1        80         1        82        9.32     277      -62.4
   02/01/2017 01:10      44.0      43.6       74     36.2      0.00     11.74      57.3     0.47      1019.0     2       124         3       138        9.32     276      -62.9
   02/01/2017 01:00      44.0      43.5       74     36.0      0.00     11.74      57.5     0.47      1019.0     1       166         2       151        9.32     276      -62.4
   02/01/2017 00:50      44.2      44.0       73     35.8      0.00     11.74      57.5     0.47      1019.0     1       192         1       180        9.32     275      -62.5
   02/01/2017 00:40      44.4      44.1       72     35.8      0.00     11.74      57.4     0.47      1019.0     1       158         2       158        9.32     275      -62.6
   02/01/2017 00:30      44.5      44.3       71     35.7      0.00     11.74      57.5     0.47      1019.0     1       178         1       187        9.32     275      -63.0
   02/01/2017 00:20      44.7      44.3       71     35.8      0.00     11.74      57.8     0.47      1019.0     1       201         1       192        9.32     275      -63.3
   02/01/2017 00:10      44.6      44.1       72     35.8      0.00     11.74      57.5     0.47      1019.0     1       182         1       190        9.32     275      -63.4
   02/01/2017 00:00      44.6      44.0       72     35.9      0.00     11.74      57.7     0.47      1019.0     1       135         1       143        9.32     274      -63.8


<<Back to data home page